Wetterdaten: Montag, 02.04.2018
Datum Zeit Temp. A. Pool Temp. Feuchte A. Luftdruck Regen Wind Richtung Richtung Sonnenschein ET UV Solar Taupunkt Windchill Windben Empfang
02.04.2018 00:00 3,6 C 6,7 C 94 % 1012,2 hPa 0,2 l/m 13,4 km/h (3 Bft) W-NW 302 0 min 0,000 mm 0,0 UV-I 0 W/m 2,7 C -1,7 C 20,9 km/h (4 Bft) 100,00 %
02.04.2018 00:02 3,5 C 6,7 C 94 % 1012,2 hPa 0,0 l/m 11,8 km/h (2 Bft) W 281 0 min 0,000 mm 0,0 UV-I 0 W/m 2,6 C -0,8 C 17,7 km/h (3 Bft) 100,00 %
02.04.2018 00:03 3,4 C 6,7 C 94 % 1012,2 hPa 0,2 l/m 10,9 km/h (2 Bft) W 278 0 min 0,000 mm 0,0 UV-I 0 W/m 2,5 C -0,3 C 17,7 km/h (3 Bft) 100,00 %
02.04.2018 00:04 3,4 C 6,7 C 94 % 1012,2 hPa 0,0 l/m 16,3 km/h (3 Bft) W-NW 290 0 min 0,000 mm 0,0 UV-I 0 W/m 2,5 C -3,5 C 22,5 km/h (4 Bft) 100,00 %
02.04.2018 00:05 3,4 C 6,7 C 94 % 1012,3 hPa 0,2 l/m 9,7 km/h (2 Bft) W-NW 286 0 min 0,000 mm 0,0 UV-I 0 W/m 2,5 C 0,5 C 14,5 km/h (3 Bft) 100,00 %
02.04.2018 00:06 3,4 C 6,7 C 94 % 1012,3 hPa 0,0 l/m 11,3 km/h (2 Bft) W 280 0 min 0,000 mm 0,0 UV-I 0 W/m 2,5 C -0,6 C 16,1 km/h (3 Bft) 100,00 %
02.04.2018 00:07 3,4 C 6,7 C 94 % 1012,3 hPa 0,0 l/m 11,6 km/h (2 Bft) W 281 0 min 0,000 mm 0,0 UV-I 0 W/m 2,5 C -0,8 C 16,1 km/h (3 Bft) 100,00 %
02.04.2018 00:08 3,4 C 6,7 C 94 % 1012,3 hPa 0,0 l/m 11,3 km/h (2 Bft) W 269 0 min 0,000 mm 0,0 UV-I 0 W/m 2,5 C -0,6 C 14,5 km/h (3 Bft) 100,00 %
02.04.2018 00:09 3,4 C 6,7 C 94 % 1012,3 hPa 0,0 l/m 8,1 km/h (2 Bft) W 269 0 min 0,000 mm 0,0 UV-I 0 W/m 2,5 C 1,8 C 12,9 km/h (3 Bft) 96,30 %
02.04.2018 00:10 3,4 C 6,7 C 94 % 1012,3 hPa 0,0 l/m 9,5 km/h (2 Bft) W-NW 294 0 min 0,000 mm 0,0 UV-I 0 W/m 2,5 C 0,7 C 16,1 km/h (3 Bft) 100,00 %
02.04.2018 00:11 3,4 C 6,7 C 94 % 1012,3 hPa 0,0 l/m 8,9 km/h (2 Bft) W 279 0 min 0,000 mm 0,0 UV-I 0 W/m 2,5 C 1,2 C 14,5 km/h (3 Bft) 93,33 %
02.04.2018 00:12 3,4 C 6,7 C 94 % 1012,3 hPa 0,0 l/m 10,1 km/h (2 Bft) W 263 0 min 0,000 mm 0,0 UV-I 0 W/m 2,5 C 0,2 C 16,1 km/h (3 Bft) 100,00 %
02.04.2018 00:13 3,4 C 6,7 C 94 % 1012,4 hPa 0,0 l/m 9,1 km/h (2 Bft) W 265 0 min 0,000 mm 0,0 UV-I 0 W/m 2,5 C 1,0 C 14,5 km/h (3 Bft) 100,00 %
02.04.2018 00:14 3,4 C 6,7 C 94 % 1012,4 hPa 0,0 l/m 6,0 km/h (2 Bft) W-NW 298 0 min 0,000 mm 0,0 UV-I 0 W/m 2,5 C 3,4 C 11,3 km/h (2 Bft) 96,15 %
02.04.2018 00:15 3,4 C 6,7 C 94 % 1012,4 hPa 0,2 l/m 6,4 km/h (2 Bft) W-NW 282 0 min 0,000 mm 0,0 UV-I 0 W/m 2,5 C 3,4 C 8,0 km/h (2 Bft) 100,00 %
02.04.2018 00:16 3,4 C 6,7 C 94 % 1012,4 hPa 0,0 l/m 7,6 km/h (2 Bft) W 269 0 min 0,000 mm 0,0 UV-I 0 W/m 2,5 C 2,3 C 12,9 km/h (3 Bft) 100,00 %
02.04.2018 00:17 3,4 C 6,7 C 94 % 1012,4 hPa 0,0 l/m 7,6 km/h (2 Bft) W 271 0 min 0,000 mm 0,0 UV-I 0 W/m 2,5 C 2,3 C 9,7 km/h (2 Bft) 100,00 %
02.04.2018 00:18 3,4 C 6,7 C 94 % 1012,4 hPa 0,0 l/m 7,8 km/h (2 Bft) W 278 0 min 0,000 mm 0,0 UV-I 0 W/m 2,5 C 2,1 C 11,3 km/h (2 Bft) 96,55 %
02.04.2018 00:19 3,4 C 6,7 C 94 % 1012,4 hPa 0,0 l/m 8,7 km/h (2 Bft) W 265 0 min 0,000 mm 0,0 UV-I 0 W/m 2,5 C 1,3 C 12,9 km/h (3 Bft) 100,00 %
02.04.2018 00:20 3,4 C 6,7 C 94 % 1012,4 hPa 0,0 l/m 9,7 km/h (2 Bft) W 272 0 min 0,000 mm 0,0 UV-I 0 W/m 2,5 C 0,5 C 11,3 km/h (2 Bft) 96,30 %
02.04.2018 00:21 3,4 C 6,7 C 94 % 1012,4 hPa 0,0 l/m 9,3 km/h (2 Bft) W 276 0 min 0,000 mm 0,0 UV-I 0 W/m 2,5 C 0,8 C 14,5 km/h (3 Bft) 96,15 %
02.04.2018 00:22 3,4 C 6,7 C 94 % 1012,4 hPa 0,0 l/m 11,5 km/h (2 Bft) W-NW 286 0 min 0,000 mm 0,0 UV-I 0 W/m 2,5 C -0,8 C 12,9 km/h (3 Bft) 96,67 %
02.04.2018 00:23 3,4 C 6,7 C 95 % 1012,4 hPa 0,0 l/m 11,9 km/h (2 Bft) W 263 0 min 0,000 mm 0,0 UV-I 0 W/m 2,7 C -1,0 C 16,1 km/h (3 Bft) 92,86 %
02.04.2018 00:24 3,4 C 6,7 C 94 % 1012,4 hPa 0,0 l/m 9,3 km/h (2 Bft) W 267 0 min 0,000 mm 0,0 UV-I 0 W/m 2,5 C 0,8 C 12,9 km/h (3 Bft) 100,00 %
02.04.2018 00:25 3,5 C 6,7 C 95 % 1012,4 hPa 0,0 l/m 9,7 km/h (2 Bft) W-NW 286 0 min 0,000 mm 0,0 UV-I 0 W/m 2,8 C 0,6 C 12,9 km/h (3 Bft) 91,30 %
02.04.2018 00:26 3,5 C 6,7 C 95 % 1012,4 hPa 0,0 l/m 9,7 km/h (2 Bft) W 265 0 min 0,000 mm 0,0 UV-I 0 W/m 2,8 C 0,6 C 12,9 km/h (3 Bft) 100,00 %
02.04.2018 00:27 3,5 C 6,7 C 95 % 1012,3 hPa 0,0 l/m 9,7 km/h (2 Bft) W-SW 251 0 min 0,000 mm 0,0 UV-I 0 W/m 2,8 C 0,6 C 11,3 km/h (2 Bft) 92,86 %
02.04.2018 00:28 3,5 C 6,7 C 95 % 1012,3 hPa 0,0 l/m 11,5 km/h (2 Bft) W 265 0 min 0,000 mm 0,0 UV-I 0 W/m 2,8 C -0,6 C 16,1 km/h (3 Bft) 100,00 %
02.04.2018 00:29 3,6 C 6,7 C 95 % 1012,3 hPa 0,0 l/m 12,1 km/h (2 Bft) W-NW 289 0 min 0,000 mm 0,0 UV-I 0 W/m 2,9 C -0,9 C 16,1 km/h (3 Bft) 95,65 %
02.04.2018 00:30 3,6 C 6,7 C 94 % 1012,3 hPa 0,0 l/m 11,1 km/h (2 Bft) W-SW 254 0 min 0,000 mm 0,0 UV-I 0 W/m 2,7 C -0,3 C 19,3 km/h (3 Bft) 100,00 %
02.04.2018 00:31 3,6 C 6,7 C 94 % 1012,3 hPa 0,0 l/m 14,3 km/h (3 Bft) W-SW 257 0 min 0,000 mm 0,0 UV-I 0 W/m 2,7 C -2,2 C 22,5 km/h (4 Bft) 95,65 %
02.04.2018 00:32 3,7 C 6,7 C 94 % 1012,3 hPa 0,0 l/m 11,9 km/h (2 Bft) W 264 0 min 0,000 mm 0,0 UV-I 0 W/m 2,8 C -0,7 C 14,5 km/h (3 Bft) 96,30 %
02.04.2018 00:33 3,7 C 6,7 C 94 % 1012,3 hPa 0,0 l/m 12,9 km/h (3 Bft) W 271 0 min 0,000 mm 0,0 UV-I 0 W/m 2,8 C -1,3 C 16,1 km/h (3 Bft) 98,12 %
02.04.2018 00:34 3,7 C 6,7 C 94 % 1012,3 hPa 0,0 l/m 12,2 km/h (2 Bft) W 275 0 min 0,000 mm 0,0 UV-I 0 W/m 2,8 C -0,9 C 16,1 km/h (3 Bft) 97,87 %
02.04.2018 00:35 3,7 C 6,7 C 94 % 1012,3 hPa 0,0 l/m 12,4 km/h (3 Bft) W 261 0 min 0,000 mm 0,0 UV-I 0 W/m 2,8 C -1,0 C 14,5 km/h (3 Bft) 100,00 %
02.04.2018 00:36 3,7 C 6,7 C 94 % 1012,3 hPa 0,0 l/m 13,2 km/h (3 Bft) W 273 0 min 0,000 mm 0,0 UV-I 0 W/m 2,8 C -1,5 C 16,1 km/h (3 Bft) 93,33 %
02.04.2018 00:37 3,7 C 6,7 C 94 % 1012,2 hPa 0,0 l/m 13,2 km/h (3 Bft) W 259 0 min 0,000 mm 0,0 UV-I 0 W/m 2,8 C -1,5 C 16,1 km/h (3 Bft) 100,00 %
02.04.2018 00:38 3,7 C 6,7 C 94 % 1012,3 hPa 0,0 l/m 9,8 km/h (2 Bft) W-SW 242 0 min 0,000 mm 0,0 UV-I 0 W/m 2,8 C 0,8 C 14,5 km/h (3 Bft) 92,31 %
02.04.2018 00:39 3,8 C 6,7 C 94 % 1012,2 hPa 0,0 l/m 11,4 km/h (2 Bft) W 259 0 min 0,000 mm 0,0 UV-I 0 W/m 2,9 C -0,2 C 14,5 km/h (3 Bft) 96,15 %
02.04.2018 00:40 3,8 C 6,7 C 94 % 1012,3 hPa 0,0 l/m 14,0 km/h (3 Bft) W-SW 242 0 min 0,000 mm 0,0 UV-I 0 W/m 2,9 C -1,8 C 19,3 km/h (3 Bft) 100,00 %
02.04.2018 00:41 3,8 C 6,7 C 94 % 1012,3 hPa 0,0 l/m 16,7 km/h (3 Bft) W 275 0 min 0,000 mm 0,0 UV-I 0 W/m 2,9 C -3,2 C 20,9 km/h (4 Bft) 95,83 %
02.04.2018 00:42 3,8 C 6,7 C 94 % 1012,3 hPa 0,0 l/m 11,9 km/h (2 Bft) W-SW 240 0 min 0,000 mm 0,0 UV-I 0 W/m 2,9 C -0,6 C 17,7 km/h (3 Bft) 100,00 %
02.04.2018 00:43 3,8 C 6,7 C 94 % 1012,3 hPa 0,0 l/m 12,6 km/h (3 Bft) W-SW 244 0 min 0,000 mm 0,0 UV-I 0 W/m 2,9 C -1,0 C 22,5 km/h (4 Bft) 95,83 %
02.04.2018 00:44 3,9 C 6,7 C 94 % 1012,3 hPa 0,0 l/m 14,2 km/h (3 Bft) W-SW 240 0 min 0,000 mm 0,0 UV-I 0 W/m 3,0 C -1,8 C 19,3 km/h (3 Bft) 100,00 %
02.04.2018 00:45 3,9 C 6,7 C 94 % 1012,3 hPa 0,0 l/m 13,1 km/h (3 Bft) W 273 0 min 0,000 mm 0,0 UV-I 0 W/m 3,0 C -1,2 C 17,7 km/h (3 Bft) 95,83 %
02.04.2018 00:46 3,9 C 6,7 C 94 % 1012,3 hPa 0,0 l/m 15,3 km/h (3 Bft) W 264 0 min 0,000 mm 0,0 UV-I 0 W/m 3,0 C -2,4 C 22,5 km/h (4 Bft) 92,31 %
02.04.2018 00:47 4,0 C 6,7 C 94 % 1012,3 hPa 0,0 l/m 15,6 km/h (3 Bft) W-SW 242 0 min 0,000 mm 0,0 UV-I 0 W/m 3,1 C -2,4 C 20,9 km/h (4 Bft) 95,83 %
02.04.2018 00:48 4,0 C 6,7 C 94 % 1012,3 hPa 0,0 l/m 17,9 km/h (3 Bft) W 260 0 min 0,000 mm 0,0 UV-I 0 W/m 3,1 C -3,6 C 25,7 km/h (4 Bft) 100,00 %
02.04.2018 00:49 4,1 C 6,7 C 93 % 1012,2 hPa 0,0 l/m 16,9 km/h (3 Bft) W-SW 244 0 min 0,000 mm 0,0 UV-I 0 W/m 3,1 C -3,0 C 20,9 km/h (4 Bft) 95,83 %
02.04.2018 00:50 4,1 C 6,7 C 93 % 1012,3 hPa 0,0 l/m 11,3 km/h (2 Bft) SW 232 0 min 0,000 mm 0,0 UV-I 0 W/m 3,1 C 0,2 C 17,7 km/h (3 Bft) 100,00 %
02.04.2018 00:51 4,1 C 6,7 C 93 % 1012,3 hPa 0,0 l/m 17,2 km/h (3 Bft) W-SW 240 0 min 0,000 mm 0,0 UV-I 0 W/m 3,1 C -3,1 C 24,1 km/h (4 Bft) 94,44 %
02.04.2018 00:52 4,1 C 6,7 C 93 % 1012,3 hPa 0,0 l/m 17,7 km/h (3 Bft) W 261 0 min 0,000 mm 0,0 UV-I 0 W/m 3,1 C -3,3 C 22,5 km/h (4 Bft) 86,67 %
02.04.2018 00:53 4,2 C 6,7 C 93 % 1012,3 hPa 0,0 l/m 19,5 km/h (3 Bft) W-SW 250 0 min 0,000 mm 0,0 UV-I 0 W/m 3,2 C -4,0 C 24,1 km/h (4 Bft) 95,45 %
02.04.2018 00:54 4,2 C 6,7 C 93 % 1012,3 hPa 0,0 l/m 20,5 km/h (4 Bft) W-SW 258 0 min 0,000 mm 0,0 UV-I 0 W/m 3,2 C -4,4 C 24,1 km/h (4 Bft) 95,65 %
02.04.2018 00:55 4,2 C 6,7 C 93 % 1012,3 hPa 0,0 l/m 17,6 km/h (3 Bft) W 277 0 min 0,000 mm 0,0 UV-I 0 W/m 3,2 C -3,2 C 24,1 km/h (4 Bft) 100,00 %
02.04.2018 00:56 4,2 C 6,7 C 93 % 1012,3 hPa 0,0 l/m 17,9 km/h (3 Bft) W 259 0 min 0,000 mm 0,0 UV-I 0 W/m 3,2 C -3,3 C 24,1 km/h (4 Bft) 95,65 %
02.04.2018 00:57 4,2 C 6,7 C 92 % 1012,3 hPa 0,0 l/m 19,7 km/h (3 Bft) W 259 0 min 0,000 mm 0,0 UV-I 0 W/m 3,0 C -4,1 C 27,4 km/h (4 Bft) 100,00 %
02.04.2018 00:58 4,2 C 6,7 C 92 % 1012,3 hPa 0,0 l/m 16,8 km/h (3 Bft) SW 231 0 min 0,000 mm 0,0 UV-I 0 W/m 3,0 C -2,8 C 27,4 km/h (4 Bft) 91,30 %
02.04.2018 00:59 4,2 C 6,7 C 92 % 1012,3 hPa 0,0 l/m 19,5 km/h (3 Bft) W 277 0 min 0,000 mm 0,0 UV-I 0 W/m 3,0 C -4,0 C 30,6 km/h (5 Bft) 100,00 %
02.04.2018 01:00 4,3 C 6,7 C 92 % 1012,3 hPa 0,0 l/m 20,3 km/h (4 Bft) W 260 0 min 0,000 mm 0,0 UV-I 0 W/m 3,1 C -4,2 C 27,4 km/h (4 Bft) 96,30 %
02.04.2018 01:01 4,3 C 6,7 C 92 % 1012,3 hPa 0,0 l/m 20,5 km/h (4 Bft) W 275 0 min 0,000 mm 0,0 UV-I 0 W/m 3,1 C -4,3 C 25,7 km/h (4 Bft) 100,00 %
02.04.2018 01:02 4,3 C 6,7 C 92 % 1012,3 hPa 0,0 l/m 19,3 km/h (3 Bft) W 262 0 min 0,000 mm 0,0 UV-I 0 W/m 3,1 C -3,8 C 29,0 km/h (5 Bft) 100,00 %
02.04.2018 01:03 4,3 C 6,7 C 92 % 1012,2 hPa 0,0 l/m 19,8 km/h (3 Bft) W 266 0 min 0,000 mm 0,0 UV-I 0 W/m 3,1 C -4,0 C 25,7 km/h (4 Bft) 100,00 %
02.04.2018 01:04 4,3 C 6,7 C 92 % 1012,3 hPa 0,0 l/m 19,2 km/h (3 Bft) W 266 0 min 0,000 mm 0,0 UV-I 0 W/m 3,1 C -3,7 C 25,7 km/h (4 Bft) 96,30 %
02.04.2018 01:05 4,3 C 6,7 C 91 % 1012,3 hPa 0,0 l/m 18,0 km/h (3 Bft) SW 234 0 min 0,000 mm 0,0 UV-I 0 W/m 3,0 C -3,2 C 24,1 km/h (4 Bft) 100,00 %
02.04.2018 01:06 4,3 C 6,7 C 91 % 1012,2 hPa 0,0 l/m 19,0 km/h (3 Bft) W-SW 242 0 min 0,000 mm 0,0 UV-I 0 W/m 3,0 C -3,7 C 25,7 km/h (4 Bft) 96,30 %
02.04.2018 01:07 4,3 C 6,7 C 91 % 1012,2 hPa 0,0 l/m 17,5 km/h (3 Bft) W 278 0 min 0,000 mm 0,0 UV-I 0 W/m 3,0 C -3,0 C 24,1 km/h (4 Bft) 91,30 %
02.04.2018 01:08 4,4 C 6,7 C 91 % 1012,3 hPa 0,0 l/m 19,0 km/h (3 Bft) W-SW 243 0 min 0,000 mm 0,0 UV-I 0 W/m 3,1 C -3,5 C 22,5 km/h (4 Bft) 100,00 %
02.04.2018 01:09 4,4 C 6,7 C 91 % 1012,2 hPa 0,0 l/m 19,8 km/h (3 Bft) W 276 0 min 0,000 mm 0,0 UV-I 0 W/m 3,1 C -3,9 C 27,4 km/h (4 Bft) 96,15 %
02.04.2018 01:10 4,4 C 6,7 C 91 % 1012,2 hPa 0,0 l/m 18,7 km/h (3 Bft) W 268 0 min 0,000 mm 0,0 UV-I 0 W/m 3,1 C -3,4 C 27,4 km/h (4 Bft) 100,00 %
02.04.2018 01:11 4,4 C 6,7 C 91 % 1012,2 hPa 0,0 l/m 18,0 km/h (3 Bft) W-SW 239 0 min 0,000 mm 0,0 UV-I 0 W/m 3,1 C -3,1 C 24,1 km/h (4 Bft) 96,55 %
02.04.2018 01:12 4,4 C 6,7 C 91 % 1012,2 hPa 0,0 l/m 18,0 km/h (3 Bft) W-SW 250 0 min 0,000 mm 0,0 UV-I 0 W/m 3,1 C -3,1 C 25,7 km/h (4 Bft) 100,00 %
02.04.2018 01:13 4,4 C 6,7 C 91 % 1012,3 hPa 0,0 l/m 19,3 km/h (3 Bft) W-SW 249 0 min 0,000 mm 0,0 UV-I 0 W/m 3,1 C -3,7 C 25,7 km/h (4 Bft) 96,15 %
02.04.2018 01:14 4,4 C 6,7 C 91 % 1012,3 hPa 0,0 l/m 20,8 km/h (4 Bft) W 271 0 min 0,000 mm 0,0 UV-I 0 W/m 3,1 C -4,3 C 32,2 km/h (5 Bft) 95,83 %
02.04.2018 01:15 4,4 C 6,7 C 91 % 1012,3 hPa 0,0 l/m 19,2 km/h (3 Bft) W 259 0 min 0,000 mm 0,0 UV-I 0 W/m 3,1 C -3,6 C 25,7 km/h (4 Bft) 100,00 %
02.04.2018 01:16 4,5 C 6,7 C 91 % 1012,4 hPa 0,0 l/m 16,2 km/h (3 Bft) W-SW 255 0 min 0,000 mm 0,0 UV-I 0 W/m 3,2 C -2,1 C 20,9 km/h (4 Bft) 95,65 %
02.04.2018 01:17 4,5 C 6,7 C 91 % 1012,4 hPa 0,0 l/m 19,3 km/h (3 Bft) W-SW 238 0 min 0,000 mm 0,0 UV-I 0 W/m 3,2 C -3,5 C 30,6 km/h (5 Bft) 95,83 %
02.04.2018 01:18 4,4 C 6,7 C 91 % 1012,4 hPa 0,0 l/m 20,7 km/h (4 Bft) W-SW 257 0 min 0,000 mm 0,0 UV-I 0 W/m 3,1 C -4,2 C 27,4 km/h (4 Bft) 96,15 %
02.04.2018 01:19 4,5 C 6,7 C 91 % 1012,4 hPa 0,0 l/m 17,1 km/h (3 Bft) W 265 0 min 0,000 mm 0,0 UV-I 0 W/m 3,2 C -2,6 C 22,5 km/h (4 Bft) 100,00 %
02.04.2018 01:20 4,5 C 6,7 C 91 % 1012,4 hPa 0,0 l/m 18,6 km/h (3 Bft) W-SW 247 0 min 0,000 mm 0,0 UV-I 0 W/m 3,2 C -3,2 C 27,4 km/h (4 Bft) 92,31 %
02.04.2018 01:21 4,5 C 6,7 C 91 % 1012,4 hPa 0,0 l/m 24,3 km/h (4 Bft) W-SW 248 0 min 0,000 mm 0,0 UV-I 0 W/m 3,2 C -5,4 C 29,0 km/h (5 Bft) 95,83 %
02.04.2018 01:22 4,5 C 6,7 C 90 % 1012,4 hPa 0,0 l/m 20,3 km/h (4 Bft) W 262 0 min 0,000 mm 0,0 UV-I 0 W/m 3,0 C -3,9 C 30,6 km/h (5 Bft) 96,15 %
02.04.2018 01:23 4,5 C 6,7 C 90 % 1012,4 hPa 0,0 l/m 26,9 km/h (4 Bft) W-SW 248 0 min 0,000 mm 0,0 UV-I 0 W/m 3,0 C -6,2 C 38,6 km/h (5 Bft) 91,67 %
02.04.2018 01:24 4,6 C 6,7 C 90 % 1012,4 hPa 0,0 l/m 20,7 km/h (4 Bft) W 265 0 min 0,000 mm 0,0 UV-I 0 W/m 3,1 C -4,0 C 29,0 km/h (5 Bft) 100,00 %
02.04.2018 01:25 4,6 C 6,7 C 90 % 1012,5 hPa 0,0 l/m 23,1 km/h (4 Bft) W 259 0 min 0,000 mm 0,0 UV-I 0 W/m 3,1 C -4,8 C 33,8 km/h (5 Bft) 96,67 %
02.04.2018 01:26 4,6 C 6,7 C 90 % 1012,5 hPa 0,0 l/m 18,7 km/h (3 Bft) W-SW 252 0 min 0,000 mm 0,0 UV-I 0 W/m 3,1 C -3,2 C 27,4 km/h (4 Bft) 100,00 %
02.04.2018 01:27 4,6 C 6,7 C 90 % 1012,5 hPa 0,0 l/m 19,1 km/h (3 Bft) W-SW 250 0 min 0,000 mm 0,0 UV-I 0 W/m 3,1 C -3,3 C 29,0 km/h (5 Bft) 91,67 %
02.04.2018 01:28 4,6 C 6,7 C 90 % 1012,5 hPa 0,0 l/m 14,9 km/h (3 Bft) W-SW 243 0 min 0,000 mm 0,0 UV-I 0 W/m 3,1 C -1,4 C 20,9 km/h (4 Bft) 96,88 %
02.04.2018 01:29 4,6 C 6,7 C 90 % 1012,5 hPa 0,0 l/m 18,3 km/h (3 Bft) SW 236 0 min 0,000 mm 0,0 UV-I 0 W/m 3,1 C -3,0 C 24,1 km/h (4 Bft) 100,00 %
02.04.2018 01:30 4,6 C 6,7 C 90 % 1012,5 hPa 0,0 l/m 19,9 km/h (4 Bft) SW 234 0 min 0,000 mm 0,0 UV-I 0 W/m 3,1 C -3,6 C 25,7 km/h (4 Bft) 96,88 %
02.04.2018 01:31 4,6 C 6,7 C 90 % 1012,5 hPa 0,0 l/m 23,6 km/h (4 Bft) S-SW 210 0 min 0,000 mm 0,0 UV-I 0 W/m 3,1 C -5,0 C 29,0 km/h (5 Bft) 100,00 %
02.04.2018 01:32 4,6 C 6,7 C 90 % 1012,6 hPa 0,0 l/m 18,8 km/h (3 Bft) W-SW 258 0 min 0,000 mm 0,0 UV-I 0 W/m 3,1 C -3,2 C 25,7 km/h (4 Bft) 91,67 %
02.04.2018 01:33 4,6 C 6,7 C 90 % 1012,5 hPa 0,0 l/m 15,0 km/h (3 Bft) W 263 0 min 0,000 mm 0,0 UV-I 0 W/m 3,1 C -1,4 C 20,9 km/h (4 Bft) 100,00 %
02.04.2018 01:34 4,6 C 6,7 C 90 % 1012,6 hPa 0,0 l/m 17,4 km/h (3 Bft) W 265 0 min 0,000 mm 0,0 UV-I 0 W/m 3,1 C -2,6 C 25,7 km/h (4 Bft) 96,55 %
02.04.2018 01:35 4,6 C 6,7 C 90 % 1012,7 hPa 0,0 l/m 17,7 km/h (3 Bft) SW 231 0 min 0,000 mm 0,0 UV-I 0 W/m 3,1 C -2,7 C 24,1 km/h (4 Bft) 100,00 %
02.04.2018 01:36 4,6 C 6,7 C 90 % 1012,7 hPa 0,0 l/m 18,4 km/h (3 Bft) SW 232 0 min 0,000 mm 0,0 UV-I 0 W/m 3,1 C -3,0 C 27,4 km/h (4 Bft) 96,30 %
02.04.2018 01:37 4,5 C 6,7 C 90 % 1012,7 hPa 0,0 l/m 17,5 km/h (3 Bft) W-SW 242 0 min 0,000 mm 0,0 UV-I 0 W/m 3,0 C -2,7 C 22,5 km/h (4 Bft) 100,00 %
02.04.2018 01:38 4,6 C 6,7 C 90 % 1012,6 hPa 0,0 l/m 20,8 km/h (4 Bft) SW 234 0 min 0,000 mm 0,0 UV-I 0 W/m 3,1 C -4,0 C 32,2 km/h (5 Bft) 95,83 %
02.04.2018 01:39 4,5 C 6,7 C 90 % 1012,6 hPa 0,0 l/m 24,5 km/h (4 Bft) W-SW 247 0 min 0,000 mm 0,0 UV-I 0 W/m 3,0 C -5,5 C 37,0 km/h (5 Bft) 96,55 %
02.04.2018 01:40 4,6 C 6,7 C 89 % 1012,7 hPa 0,0 l/m 24,3 km/h (4 Bft) W-NW 290 0 min 0,000 mm 0,0 UV-I 0 W/m 2,9 C -5,3 C 38,6 km/h (5 Bft) 100,00 %
02.04.2018 01:41 4,5 C 6,7 C 89 % 1012,7 hPa 0,0 l/m 24,5 km/h (4 Bft) W-SW 254 0 min 0,000 mm 0,0 UV-I 0 W/m 2,8 C -5,5 C 33,8 km/h (5 Bft) 92,86 %
02.04.2018 01:42 4,5 C 6,7 C 89 % 1012,6 hPa 0,0 l/m 19,1 km/h (3 Bft) SW 215 0 min 0,000 mm 0,0 UV-I 0 W/m 2,8 C -3,4 C 25,7 km/h (4 Bft) 100,00 %
02.04.2018 01:43 4,4 C 6,7 C 90 % 1012,7 hPa 0,0 l/m 22,8 km/h (4 Bft) W 260 0 min 0,000 mm 0,0 UV-I 0 W/m 2,9 C -5,0 C 33,8 km/h (5 Bft) 95,65 %
02.04.2018 01:44 4,4 C 6,7 C 89 % 1012,7 hPa 0,0 l/m 21,9 km/h (4 Bft) W 265 0 min 0,000 mm 0,0 UV-I 0 W/m 2,7 C -4,7 C 30,6 km/h (5 Bft) 100,00 %
02.04.2018 01:45 4,4 C 6,7 C 89 % 1012,7 hPa 0,0 l/m 17,6 km/h (3 Bft) W 279 0 min 0,000 mm 0,0 UV-I 0 W/m 2,7 C -2,9 C 25,7 km/h (4 Bft) 94,12 %
02.04.2018 01:46 4,4 C 6,7 C 89 % 1012,6 hPa 0,2 l/m 24,5 km/h (4 Bft) W 280 0 min 0,000 mm 0,0 UV-I 0 W/m 2,7 C -5,6 C 43,5 km/h (6 Bft) 100,00 %
02.04.2018 01:47 4,4 C 6,7 C 89 % 1012,6 hPa 0,0 l/m 18,3 km/h (3 Bft) W 269 0 min 0,000 mm 0,0 UV-I 0 W/m 2,7 C -3,2 C 20,9 km/h (4 Bft) 96,15 %
02.04.2018 01:48 4,4 C 6,7 C 89 % 1012,7 hPa 0,0 l/m 18,3 km/h (3 Bft) W 275 0 min 0,000 mm 0,0 UV-I 0 W/m 2,7 C -3,2 C 22,5 km/h (4 Bft) 100,00 %
02.04.2018 01:49 4,4 C 6,7 C 89 % 1012,6 hPa 0,0 l/m 17,0 km/h (3 Bft) W-SW 257 0 min 0,000 mm 0,0 UV-I 0 W/m 2,7 C -2,6 C 27,4 km/h (4 Bft) 96,55 %
02.04.2018 01:50 4,4 C 6,7 C 89 % 1012,6 hPa 0,0 l/m 20,9 km/h (4 Bft) W-SW 250 0 min 0,000 mm 0,0 UV-I 0 W/m 2,7 C -4,3 C 25,7 km/h (4 Bft) 95,83 %
02.04.2018 01:51 4,4 C 6,7 C 90 % 1012,6 hPa 0,0 l/m 16,7 km/h (3 Bft) W-SW 255 0 min 0,000 mm 0,0 UV-I 0 W/m 2,9 C -2,5 C 22,5 km/h (4 Bft) 100,00 %
02.04.2018 01:52 4,4 C 6,7 C 89 % 1012,6 hPa 0,0 l/m 21,7 km/h (4 Bft) W 261 0 min 0,000 mm 0,0 UV-I 0 W/m 2,7 C -4,6 C 30,6 km/h (5 Bft) 92,59 %
02.04.2018 01:53 4,4 C 6,7 C 89 % 1012,7 hPa 0,0 l/m 18,3 km/h (3 Bft) W 276 0 min 0,000 mm 0,0 UV-I 0 W/m 2,7 C -3,2 C 27,4 km/h (4 Bft) 96,15 %
02.04.2018 01:54 4,4 C 6,7 C 89 % 1012,7 hPa 0,0 l/m 21,4 km/h (4 Bft) W 259 0 min 0,000 mm 0,0 UV-I 0 W/m 2,7 C -4,5 C 33,8 km/h (5 Bft) 100,00 %
02.04.2018 01:55 4,5 C 6,7 C 89 % 1012,7 hPa 0,0 l/m 21,0 km/h (4 Bft) W-SW 238 0 min 0,000 mm 0,0 UV-I 0 W/m 2,8 C -4,2 C 25,7 km/h (4 Bft) 100,00 %
02.04.2018 01:56 4,5 C 6,7 C 89 % 1012,6 hPa 0,0 l/m 15,4 km/h (3 Bft) W 269 0 min 0,000 mm 0,0 UV-I 0 W/m 2,8 C -1,7 C 22,5 km/h (4 Bft) 100,00 %
02.04.2018 01:57 4,5 C 6,7 C 89 % 1012,7 hPa 0,0 l/m 15,0 km/h (3 Bft) W-SW 250 0 min 0,000 mm 0,0 UV-I 0 W/m 2,8 C -1,5 C 19,3 km/h (3 Bft) 100,00 %
02.04.2018 01:58 4,5 C 6,7 C 89 % 1012,6 hPa 0,0 l/m 14,3 km/h (3 Bft) W-SW 252 0 min 0,000 mm 0,0 UV-I 0 W/m 2,8 C -1,2 C 22,5 km/h (4 Bft) 100,00 %
02.04.2018 01:59 4,5 C 6,7 C 89 % 1012,7 hPa 0,0 l/m 20,1 km/h (4 Bft) W 265 0 min 0,000 mm 0,0 UV-I 0 W/m 2,8 C -3,9 C 32,2 km/h (5 Bft) 100,00 %
02.04.2018 02:00 4,5 C 6,7 C 89 % 1012,6 hPa 0,0 l/m 19,6 km/h (3 Bft) W-SW 243 0 min 0,025 mm 0,0 UV-I 0 W/m 2,8 C -3,7 C 29,0 km/h (5 Bft) 100,00 %
02.04.2018 02:01 4,5 C 6,7 C 89 % 1012,6 hPa 0,0 l/m 20,5 km/h (4 Bft) W-SW 250 0 min 0,000 mm 0,0 UV-I 0 W/m 2,8 C -4,0 C 24,1 km/h (4 Bft) 96,67 %
02.04.2018 02:02 4,5 C 6,7 C 89 % 1012,6 hPa 0,0 l/m 18,5 km/h (3 Bft) W 263 0 min 0,000 mm 0,0 UV-I 0 W/m 2,8 C -3,2 C 25,7 km/h (4 Bft) 96,15 %
02.04.2018 02:03 4,5 C 6,7 C 89 % 1012,6 hPa 0,0 l/m 15,9 km/h (3 Bft) W-SW 242 0 min 0,000 mm 0,0 UV-I 0 W/m 2,8 C -2,0 C 19,3 km/h (3 Bft) 100,00 %
02.04.2018 02:04 4,5 C 6,7 C 89 % 1012,7 hPa 0,0 l/m 18,8 km/h (3 Bft) W-SW 257 0 min 0,000 mm 0,0 UV-I 0 W/m 2,8 C -3,3 C 24,1 km/h (4 Bft) 100,00 %
02.04.2018 02:05 4,5 C 6,7 C 89 % 1012,7 hPa 0,0 l/m 19,2 km/h (3 Bft) W 263 0 min 0,000 mm 0,0 UV-I 0 W/m 2,8 C -3,5 C 29,0 km/h (5 Bft) 100,00 %
02.04.2018 02:06 4,6 C 6,7 C 89 % 1012,7 hPa 0,0 l/m 20,8 km/h (4 Bft) W-SW 243 0 min 0,000 mm 0,0 UV-I 0 W/m 2,9 C -4,0 C 32,2 km/h (5 Bft) 100,00 %
02.04.2018 02:07 4,6 C 6,7 C 89 % 1012,7 hPa 0,0 l/m 20,6 km/h (4 Bft) W-SW 258 0 min 0,000 mm 0,0 UV-I 0 W/m 2,9 C -3,9 C 33,8 km/h (5 Bft) 100,00 %
02.04.2018 02:08 4,6 C 6,7 C 89 % 1012,7 hPa 0,0 l/m 17,8 km/h (3 Bft) SW 236 0 min 0,000 mm 0,0 UV-I 0 W/m 2,9 C -2,8 C 20,9 km/h (4 Bft) 100,00 %
02.04.2018 02:09 4,6 C 6,7 C 89 % 1012,7 hPa 0,0 l/m 16,7 km/h (3 Bft) S-SW 205 0 min 0,000 mm 0,0 UV-I 0 W/m 2,9 C -2,3 C 22,5 km/h (4 Bft) 100,00 %
02.04.2018 02:10 4,6 C 6,7 C 89 % 1012,7 hPa 0,0 l/m 22,4 km/h (4 Bft) SW 228 0 min 0,000 mm 0,0 UV-I 0 W/m 2,9 C -4,6 C 29,0 km/h (5 Bft) 100,00 %
02.04.2018 02:11 4,6 C 6,7 C 89 % 1012,7 hPa 0,0 l/m 22,0 km/h (4 Bft) W-SW 252 0 min 0,000 mm 0,0 UV-I 0 W/m 2,9 C -4,5 C 27,4 km/h (4 Bft) 96,30 %
02.04.2018 02:12 4,6 C 6,7 C 89 % 1012,8 hPa 0,0 l/m 15,4 km/h (3 Bft) W-SW 245 0 min 0,000 mm 0,0 UV-I 0 W/m 2,9 C -1,6 C 22,5 km/h (4 Bft) 100,00 %
02.04.2018 02:13 4,6 C 6,7 C 89 % 1012,8 hPa 0,0 l/m 16,1 km/h (3 Bft) SW 232 0 min 0,000 mm 0,0 UV-I 0 W/m 2,9 C -2,0 C 22,5 km/h (4 Bft) 100,00 %
02.04.2018 02:14 4,6 C 6,7 C 89 % 1012,8 hPa 0,0 l/m 15,7 km/h (3 Bft) SW 236 0 min 0,000 mm 0,0 UV-I 0 W/m 2,9 C -1,8 C 19,3 km/h (3 Bft) 100,00 %
02.04.2018 02:15 4,6 C 6,7 C 89 % 1012,8 hPa 0,0 l/m 18,5 km/h (3 Bft) SW 215 0 min 0,000 mm 0,0 UV-I 0 W/m 2,9 C -3,1 C 24,1 km/h (4 Bft) 100,00 %
02.04.2018 02:16 4,7 C 6,7 C 89 % 1012,8 hPa 0,0 l/m 23,6 km/h (4 Bft) W-SW 242 0 min 0,000 mm 0,0 UV-I 0 W/m 3,0 C -4,9 C 29,0 km/h (5 Bft) 100,00 %
02.04.2018 02:17 4,7 C 6,7 C 89 % 1012,8 hPa 0,0 l/m 16,3 km/h (3 Bft) W-SW 243 0 min 0,000 mm 0,0 UV-I 0 W/m 3,0 C -1,9 C 22,5 km/h (4 Bft) 100,00 %
02.04.2018 02:18 4,7 C 6,7 C 89 % 1012,8 hPa 0,0 l/m 16,4 km/h (3 Bft) W-SW 241 0 min 0,000 mm 0,0 UV-I 0 W/m 3,0 C -2,0 C 22,5 km/h (4 Bft) 100,00 %
02.04.2018 02:19 4,7 C 6,7 C 89 % 1012,8 hPa 0,0 l/m 20,3 km/h (4 Bft) W-SW 252 0 min 0,000 mm 0,0 UV-I 0 W/m 3,0 C -3,7 C 25,7 km/h (4 Bft) 100,00 %
02.04.2018 02:20 4,7 C 6,7 C 89 % 1012,8 hPa 0,0 l/m 17,1 km/h (3 Bft) W-SW 243 0 min 0,000 mm 0,0 UV-I 0 W/m 3,0 C -2,3 C 24,1 km/h (4 Bft) 100,00 %
02.04.2018 02:21 4,7 C 6,7 C 89 % 1012,8 hPa 0,0 l/m 18,5 km/h (3 Bft) W-SW 254 0 min 0,000 mm 0,0 UV-I 0 W/m 3,0 C -2,9 C 22,5 km/h (4 Bft) 100,00 %
02.04.2018 02:22 4,7 C 6,7 C 89 % 1012,8 hPa 0,0 l/m 21,3 km/h (4 Bft) W-SW 239 0 min 0,000 mm 0,0 UV-I 0 W/m 3,0 C -4,1 C 25,7 km/h (4 Bft) 100,00 %
02.04.2018 02:23 4,7 C 6,7 C 89 % 1012,8 hPa 0,0 l/m 21,4 km/h (4 Bft) W-SW 254 0 min 0,000 mm 0,0 UV-I 0 W/m 3,0 C -4,1 C 29,0 km/h (5 Bft) 100,00 %
02.04.2018 02:24 4,7 C 6,7 C 89 % 1012,8 hPa 0,0 l/m 20,3 km/h (4 Bft) W-SW 251 0 min 0,000 mm 0,0 UV-I 0 W/m 3,0 C -3,7 C 29,0 km/h (5 Bft) 100,00 %
02.04.2018 02:25 4,7 C 6,7 C 89 % 1012,8 hPa 0,0 l/m 21,9 km/h (4 Bft) SW 231 0 min 0,000 mm 0,0 UV-I 0 W/m 3,0 C -4,3 C 30,6 km/h (5 Bft) 100,00 %
02.04.2018 02:26 4,7 C 6,7 C 89 % 1012,8 hPa 0,0 l/m 16,9 km/h (3 Bft) SW 233 0 min 0,000 mm 0,0 UV-I 0 W/m 3,0 C -2,2 C 22,5 km/h (4 Bft) 100,00 %
02.04.2018 02:27 4,7 C 6,7 C 89 % 1012,8 hPa 0,0 l/m 22,7 km/h (4 Bft) SW 229 0 min 0,000 mm 0,0 UV-I 0 W/m 3,0 C -4,6 C 30,6 km/h (5 Bft) 95,65 %
02.04.2018 02:28 4,7 C 6,7 C 89 % 1012,8 hPa 0,0 l/m 21,3 km/h (4 Bft) W-SW 241 0 min 0,000 mm 0,0 UV-I 0 W/m 3,0 C -4,1 C 29,0 km/h (5 Bft) 100,00 %
02.04.2018 02:29 4,7 C 6,7 C 89 % 1012,9 hPa 0,0 l/m 18,8 km/h (3 Bft) W-SW 241 0 min 0,000 mm 0,0 UV-I 0 W/m 3,0 C -3,1 C 24,1 km/h (4 Bft) 100,00 %
02.04.2018 02:30 4,7 C 6,7 C 89 % 1012,9 hPa 0,0 l/m 16,6 km/h (3 Bft) SW 228 0 min 0,000 mm 0,0 UV-I 0 W/m 3,0 C -2,1 C 20,9 km/h (4 Bft) 100,00 %
02.04.2018 02:31 4,7 C 6,7 C 89 % 1012,8 hPa 0,0 l/m 22,3 km/h (4 Bft) W 275 0 min 0,000 mm 0,0 UV-I 0 W/m 3,0 C -4,4 C 29,0 km/h (5 Bft) 100,00 %
02.04.2018 02:32 4,7 C 6,7 C 89 % 1012,9 hPa 0,0 l/m 21,1 km/h (4 Bft) W-SW 246 0 min 0,000 mm 0,0 UV-I 0 W/m 3,0 C -4,0 C 30,6 km/h (5 Bft) 100,00 %
02.04.2018 02:33 4,7 C 6,7 C 89 % 1012,9 hPa 0,0 l/m 18,4 km/h (3 Bft) W-SW 238 0 min 0,000 mm 0,0 UV-I 0 W/m 3,0 C -2,9 C 32,2 km/h (5 Bft) 95,65 %
02.04.2018 02:34 4,8 C 6,7 C 88 % 1012,8 hPa 0,0 l/m 22,1 km/h (4 Bft) W-SW 244 0 min 0,000 mm 0,0 UV-I 0 W/m 3,0 C -4,2 C 27,4 km/h (4 Bft) 100,00 %
02.04.2018 02:35 4,8 C 6,7 C 88 % 1012,8 hPa 0,0 l/m 25,3 km/h (4 Bft) W 259 0 min 0,000 mm 0,0 UV-I 0 W/m 3,0 C -5,3 C 37,0 km/h (5 Bft) 97,89 %
02.04.2018 02:36 4,8 C 6,7 C 88 % 1012,8 hPa 0,0 l/m 16,5 km/h (3 Bft) W 277 0 min 0,000 mm 0,0 UV-I 0 W/m 3,0 C -1,9 C 22,5 km/h (4 Bft) 100,00 %
02.04.2018 02:37 4,8 C 6,7 C 88 % 1012,9 hPa 0,0 l/m 20,4 km/h (4 Bft) S-SW 208 0 min 0,000 mm 0,0 UV-I 0 W/m 3,0 C -3,6 C 30,6 km/h (5 Bft) 100,00 %
02.04.2018 02:38 4,8 C 6,7 C 88 % 1012,8 hPa 0,0 l/m 19,3 km/h (3 Bft) SW 234 0 min 0,000 mm 0,0 UV-I 0 W/m 3,0 C -3,1 C 27,4 km/h (4 Bft) 100,00 %
02.04.2018 02:39 4,8 C 6,7 C 88 % 1012,9 hPa 0,0 l/m 19,1 km/h (3 Bft) W 268 0 min 0,000 mm 0,0 UV-I 0 W/m 3,0 C -3,1 C 24,1 km/h (4 Bft) 100,00 %
02.04.2018 02:40 4,8 C 6,7 C 88 % 1012,8 hPa 0,0 l/m 18,9 km/h (3 Bft) W-SW 251 0 min 0,000 mm 0,0 UV-I 0 W/m 3,0 C -3,0 C 25,7 km/h (4 Bft) 100,00 %
02.04.2018 02:41 4,8 C 6,7 C 88 % 1012,8 hPa 0,0 l/m 19,7 km/h (3 Bft) W 266 0 min 0,000 mm 0,0 UV-I 0 W/m 3,0 C -3,3 C 24,1 km/h (4 Bft) 96,30 %
02.04.2018 02:42 4,8 C 6,7 C 88 % 1012,8 hPa 0,0 l/m 17,1 km/h (3 Bft) SW 219 0 min 0,000 mm 0,0 UV-I 0 W/m 3,0 C -2,2 C 22,5 km/h (4 Bft) 100,00 %
02.04.2018 02:43 4,8 C 6,7 C 88 % 1012,9 hPa 0,0 l/m 16,3 km/h (3 Bft) W-SW 240 0 min 0,000 mm 0,0 UV-I 0 W/m 3,0 C -1,8 C 22,5 km/h (4 Bft) 100,00 %
02.04.2018 02:44 4,8 C 6,7 C 88 % 1012,9 hPa 0,0 l/m 14,0 km/h (3 Bft) W-SW 252 0 min 0,000 mm 0,0 UV-I 0 W/m 3,0 C -0,6 C 17,7 km/h (3 Bft) 100,00 %
02.04.2018 02:45 4,8 C 6,7 C 88 % 1012,9 hPa 0,0 l/m 15,0 km/h (3 Bft) SW 223 0 min 0,000 mm 0,0 UV-I 0 W/m 3,0 C -1,2 C 22,5 km/h (4 Bft) 100,00 %
02.04.2018 02:46 4,8 C 6,7 C 88 % 1012,9 hPa 0,0 l/m 16,1 km/h (3 Bft) W 268 0 min 0,000 mm 0,0 UV-I 0 W/m 3,0 C -1,7 C 22,5 km/h (4 Bft) 100,00 %
02.04.2018 02:47 4,8 C 6,7 C 88 % 1012,9 hPa 0,0 l/m 18,4 km/h (3 Bft) W-SW 239 0 min 0,000 mm 0,0 UV-I 0 W/m 3,0 C -2,8 C 22,5 km/h (4 Bft) 100,00 %
02.04.2018 02:48 4,8 C 6,7 C 88 % 1012,9 hPa 0,0 l/m 18,2 km/h (3 Bft) W-SW 248 0 min 0,000 mm 0,0 UV-I 0 W/m 3,0 C -2,7 C 24,1 km/h (4 Bft) 96,15 %
02.04.2018 02:49 4,8 C 6,7 C 88 % 1012,9 hPa 0,0 l/m 16,9 km/h (3 Bft) W 269 0 min 0,000 mm 0,0 UV-I 0 W/m 3,0 C -2,1 C 22,5 km/h (4 Bft) 100,00 %
02.04.2018 02:50 4,8 C 6,7 C 88 % 1012,9 hPa 0,0 l/m 17,3 km/h (3 Bft) SW 230 0 min 0,000 mm 0,0 UV-I 0 W/m 3,0 C -2,3 C 20,9 km/h (4 Bft) 100,00 %
02.04.2018 02:51 4,8 C 6,7 C 88 % 1012,9 hPa 0,0 l/m 13,6 km/h (3 Bft) W 263 0 min 0,000 mm 0,0 UV-I 0 W/m 3,0 C -0,4 C 19,3 km/h (3 Bft) 93,33 %
02.04.2018 02:52 4,8 C 6,7 C 88 % 1012,9 hPa 0,0 l/m 15,2 km/h (3 Bft) SW 229 0 min 0,000 mm 0,0 UV-I 0 W/m 3,0 C -1,3 C 24,1 km/h (4 Bft) 96,30 %
02.04.2018 02:53 4,8 C 6,7 C 88 % 1012,9 hPa 0,0 l/m 14,1 km/h (3 Bft) SW 232 0 min 0,000 mm 0,0 UV-I 0 W/m 3,0 C -0,7 C 16,1 km/h (3 Bft) 100,00 %
02.04.2018 02:54 4,8 C 6,7 C 88 % 1013,0 hPa 0,0 l/m 13,9 km/h (3 Bft) W-SW 257 0 min 0,000 mm 0,0 UV-I 0 W/m 3,0 C -0,6 C 19,3 km/h (3 Bft) 100,00 %
02.04.2018 02:55 4,8 C 6,7 C 88 % 1013,0 hPa 0,0 l/m 15,8 km/h (3 Bft) W-SW 244 0 min 0,000 mm 0,0 UV-I 0 W/m 3,0 C -1,6 C 20,9 km/h (4 Bft) 100,00 %
02.04.2018 02:56 4,8 C 6,7 C 88 % 1013,0 hPa 0,0 l/m 16,4 km/h (3 Bft) SW 225 0 min 0,000 mm 0,0 UV-I 0 W/m 3,0 C -1,9 C 22,5 km/h (4 Bft) 100,00 %
02.04.2018 02:57 4,8 C 6,7 C 88 % 1013,1 hPa 0,0 l/m 18,1 km/h (3 Bft) W-SW 247 0 min 0,000 mm 0,0 UV-I 0 W/m 3,0 C -2,6 C 22,5 km/h (4 Bft) 100,00 %
02.04.2018 02:58 4,8 C 6,7 C 88 % 1013,1 hPa 0,0 l/m 17,3 km/h (3 Bft) SW 236 0 min 0,000 mm 0,0 UV-I 0 W/m 3,0 C -2,3 C 22,5 km/h (4 Bft) 100,00 %
02.04.2018 02:59 4,8 C 6,7 C 88 % 1013,1 hPa 0,0 l/m 19,4 km/h (3 Bft) W 269 0 min 0,000 mm 0,0 UV-I 0 W/m 3,0 C -3,2 C 24,1 km/h (4 Bft) 100,00 %
02.04.2018 03:00 4,8 C 6,7 C 88 % 1013,1 hPa 0,0 l/m 16,0 km/h (3 Bft) W-SW 250 0 min 0,026 mm 0,0 UV-I 0 W/m 3,0 C -1,7 C 20,9 km/h (4 Bft) 100,00 %
02.04.2018 03:01 4,8 C 6,7 C 88 % 1013,1 hPa 0,0 l/m 17,2 km/h (3 Bft) W-SW 252 0 min 0,000 mm 0,0 UV-I 0 W/m 3,0 C -2,2 C 22,5 km/h (4 Bft) 100,00 %
02.04.2018 03:02 4,8 C 6,7 C 88 % 1013,1 hPa 0,0 l/m 15,8 km/h (3 Bft) W 270 0 min 0,000 mm 0,0 UV-I 0 W/m 3,0 C -1,6 C 24,1 km/h (4 Bft) 100,00 %
02.04.2018 03:03 4,8 C 6,7 C 88 % 1013,1 hPa 0,0 l/m 16,1 km/h (3 Bft) W-SW 242 0 min 0,000 mm 0,0 UV-I 0 W/m 3,0 C -1,7 C 20,9 km/h (4 Bft) 100,00 %
02.04.2018 03:04 4,8 C 6,7 C 88 % 1013,1 hPa 0,0 l/m 13,5 km/h (3 Bft) W-SW 253 0 min 0,000 mm 0,0 UV-I 0 W/m 3,0 C -0,4 C 20,9 km/h (4 Bft) 100,00 %
02.04.2018 03:05 4,8 C 6,7 C 88 % 1013,1 hPa 0,0 l/m 14,6 km/h (3 Bft) SW 232 0 min 0,000 mm 0,0 UV-I 0 W/m 3,0 C -1,0 C 19,3 km/h (3 Bft) 100,00 %
02.04.2018 03:06 4,8 C 6,7 C 88 % 1013,2 hPa 0,0 l/m 18,1 km/h (3 Bft) W-SW 244 0 min 0,000 mm 0,0 UV-I 0 W/m 3,0 C -2,6 C 20,9 km/h (4 Bft) 100,00 %
02.04.2018 03:07 4,8 C 6,7 C 88 % 1013,2 hPa 0,0 l/m 13,6 km/h (3 Bft) W-SW 246 0 min 0,000 mm 0,0 UV-I 0 W/m 3,0 C -0,4 C 16,1 km/h (3 Bft) 100,00 %
02.04.2018 03:08 4,8 C 6,7 C 88 % 1013,2 hPa 0,0 l/m 14,0 km/h (3 Bft) W-SW 239 0 min 0,000 mm 0,0 UV-I 0 W/m 3,0 C -0,6 C 17,7 km/h (3 Bft) 100,00 %
02.04.2018 03:09 4,8 C 6,7 C 88 % 1013,2 hPa 0,0 l/m 19,2 km/h (3 Bft) W-SW 244 0 min 0,000 mm 0,0 UV-I 0 W/m 3,0 C -3,1 C 27,4 km/h (4 Bft) 100,00 %
02.04.2018 03:10 4,8 C 6,7 C 88 % 1013,2 hPa 0,0 l/m 16,0 km/h (3 Bft) W-SW 254 0 min 0,000 mm 0,0 UV-I 0 W/m 3,0 C -1,7 C 20,9 km/h (4 Bft) 95,65 %
02.04.2018 03:11 4,8 C 6,7 C 88 % 1013,2 hPa 0,0 l/m 17,6 km/h (3 Bft) SW 234 0 min 0,000 mm 0,0 UV-I 0 W/m 3,0 C -2,4 C 22,5 km/h (4 Bft) 100,00 %
02.04.2018 03:12 4,8 C 6,7 C 88 % 1013,2 hPa 0,0 l/m 15,6 km/h (3 Bft) W-SW 248 0 min 0,000 mm 0,0 UV-I 0 W/m 3,0 C -1,5 C 22,5 km/h (4 Bft) 100,00 %
02.04.2018 03:13 4,8 C 6,7 C 88 % 1013,2 hPa 0,0 l/m 14,4 km/h (3 Bft) W-SW 245 0 min 0,000 mm 0,0 UV-I 0 W/m 3,0 C -0,9 C 20,9 km/h (4 Bft) 100,00 %
02.04.2018 03:14 4,8 C 6,7 C 88 % 1013,2 hPa 0,0 l/m 17,0 km/h (3 Bft) S-SW 208 0 min 0,000 mm 0,0 UV-I 0 W/m 3,0 C -2,1 C 24,1 km/h (4 Bft) 96,15 %
02.04.2018 03:15 4,8 C 6,7 C 88 % 1013,2 hPa 0,0 l/m 17,4 km/h (3 Bft) W-SW 242 0 min 0,000 mm 0,0 UV-I 0 W/m 3,0 C -2,3 C 25,7 km/h (4 Bft) 100,00 %
02.04.2018 03:16 4,8 C 6,7 C 88 % 1013,2 hPa 0,0 l/m 16,3 km/h (3 Bft) W-SW 240 0 min 0,000 mm 0,0 UV-I 0 W/m 3,0 C -1,8 C 19,3 km/h (3 Bft) 100,00 %
02.04.2018 03:17 4,8 C 6,7 C 88 % 1013,3 hPa 0,0 l/m 15,7 km/h (3 Bft) W 271 0 min 0,000 mm 0,0 UV-I 0 W/m 3,0 C -1,5 C 19,3 km/h (3 Bft) 96,30 %
02.04.2018 03:18 4,8 C 6,7 C 88 % 1013,2 hPa 0,0 l/m 14,7 km/h (3 Bft) W-SW 250 0 min 0,000 mm 0,0 UV-I 0 W/m 3,0 C -1,0 C 20,9 km/h (4 Bft) 100,00 %
02.04.2018 03:19 4,8 C 6,7 C 88 % 1013,3 hPa 0,0 l/m 15,0 km/h (3 Bft) W 267 0 min 0,000 mm 0,0 UV-I 0 W/m 3,0 C -1,2 C 20,9 km/h (4 Bft) 100,00 %
02.04.2018 03:20 4,8 C 6,7 C 88 % 1013,2 hPa 0,0 l/m 18,8 km/h (3 Bft) W-SW 249 0 min 0,000 mm 0,0 UV-I 0 W/m 3,0 C -2,9 C 25,7 km/h (4 Bft) 100,00 %
02.04.2018 03:21 4,8 C 6,7 C 88 % 1013,2 hPa 0,0 l/m 17,3 km/h (3 Bft) W 277 0 min 0,000 mm 0,0 UV-I 0 W/m 3,0 C -2,3 C 27,4 km/h (4 Bft) 100,00 %
02.04.2018 03:22 4,8 C 6,7 C 88 % 1013,3 hPa 0,0 l/m 18,7 km/h (3 Bft) W 259 0 min 0,000 mm 0,0 UV-I 0 W/m 3,0 C -2,9 C 25,7 km/h (4 Bft) 100,00 %
02.04.2018 03:23 4,8 C 6,7 C 88 % 1013,3 hPa 0,0 l/m 16,1 km/h (3 Bft) W-SW 256 0 min 0,000 mm 0,0 UV-I 0 W/m 3,0 C -1,7 C 20,9 km/h (4 Bft) 100,00 %
02.04.2018 03:24 4,8 C 6,7 C 88 % 1013,3 hPa 0,0 l/m 15,9 km/h (3 Bft) W-SW 246 0 min 0,000 mm 0,0 UV-I 0 W/m 3,0 C -1,6 C 19,3 km/h (3 Bft) 96,15 %
02.04.2018 03:25 4,8 C 6,7 C 88 % 1013,3 hPa 0,0 l/m 20,4 km/h (4 Bft) W-SW 246 0 min 0,000 mm 0,0 UV-I 0 W/m 3,0 C -3,6 C 25,7 km/h (4 Bft) 95,83 %
02.04.2018 03:26 4,8 C 6,7 C 88 % 1013,3 hPa 0,0 l/m 16,8 km/h (3 Bft) SW 223 0 min 0,000 mm 0,0 UV-I 0 W/m 3,0 C -2,0 C 20,9 km/h (4 Bft) 100,00 %
02.04.2018 03:27 4,8 C 6,7 C 88 % 1013,3 hPa 0,0 l/m 17,3 km/h (3 Bft) W 261 0 min 0,000 mm 0,0 UV-I 0 W/m 3,0 C -2,3 C 24,1 km/h (4 Bft) 100,00 %
02.04.2018 03:28 4,8 C 6,7 C 88 % 1013,3 hPa 0,0 l/m 16,6 km/h (3 Bft) W-SW 252 0 min 0,000 mm 0,0 UV-I 0 W/m 3,0 C -2,0 C 24,1 km/h (4 Bft) 100,00 %
02.04.2018 03:29 4,8 C 6,7 C 88 % 1013,3 hPa 0,0 l/m 18,8 km/h (3 Bft) SW 229 0 min 0,000 mm 0,0 UV-I 0 W/m 3,0 C -2,9 C 27,4 km/h (4 Bft) 86,96 %
02.04.2018 03:30 4,9 C 6,7 C 88 % 1013,3 hPa 0,0 l/m 18,0 km/h (3 Bft) SW 225 0 min 0,000 mm 0,0 UV-I 0 W/m 3,1 C -2,5 C 22,5 km/h (4 Bft) 96,55 %
02.04.2018 03:31 4,9 C 6,7 C 88 % 1013,3 hPa 0,0 l/m 21,0 km/h (4 Bft) W 261 0 min 0,000 mm 0,0 UV-I 0 W/m 3,1 C -3,7 C 27,4 km/h (4 Bft) 100,00 %
02.04.2018 03:32 4,9 C 6,7 C 87 % 1013,3 hPa 0,0 l/m 19,1 km/h (3 Bft) W-SW 252 0 min 0,000 mm 0,0 UV-I 0 W/m 2,9 C -2,9 C 30,6 km/h (5 Bft) 100,00 %
02.04.2018 03:33 4,9 C 6,7 C 87 % 1013,4 hPa 0,0 l/m 18,7 km/h (3 Bft) W 281 0 min 0,000 mm 0,0 UV-I 0 W/m 2,9 C -2,8 C 25,7 km/h (4 Bft) 92,86 %
02.04.2018 03:34 4,9 C 6,7 C 87 % 1013,4 hPa 0,0 l/m 17,8 km/h (3 Bft) W-SW 251 0 min 0,000 mm 0,0 UV-I 0 W/m 2,9 C -2,4 C 20,9 km/h (4 Bft) 97,62 %
02.04.2018 03:35 4,9 C 6,7 C 87 % 1013,4 hPa 0,0 l/m 18,4 km/h (3 Bft) S-SW 208 0 min 0,000 mm 0,0 UV-I 0 W/m 2,9 C -2,6 C 30,6 km/h (5 Bft) 100,00 %
02.04.2018 03:36 4,9 C 6,7 C 87 % 1013,4 hPa 0,0 l/m 20,8 km/h (4 Bft) W 264 0 min 0,000 mm 0,0 UV-I 0 W/m 2,9 C -3,6 C 25,7 km/h (4 Bft) 96,30 %
02.04.2018 03:37 4,9 C 6,7 C 87 % 1013,3 hPa 0,0 l/m 16,6 km/h (3 Bft) SW 225 0 min 0,000 mm 0,0 UV-I 0 W/m 2,9 C -1,8 C 20,9 km/h (4 Bft) 100,00 %
02.04.2018 03:38 4,9 C 6,7 C 87 % 1013,4 hPa 0,0 l/m 21,1 km/h (4 Bft) SW 233 0 min 0,000 mm 0,0 UV-I 0 W/m 2,9 C -3,7 C 25,7 km/h (4 Bft) 91,67 %
02.04.2018 03:39 4,9 C 6,7 C 87 % 1013,3 hPa 0,0 l/m 15,8 km/h (3 Bft) W 264 0 min 0,000 mm 0,0 UV-I 0 W/m 2,9 C -1,4 C 19,3 km/h (3 Bft) 96,15 %
02.04.2018 03:40 4,9 C 6,7 C 87 % 1013,4 hPa 0,0 l/m 14,5 km/h (3 Bft) W-NW 284 0 min 0,000 mm 0,0 UV-I 0 W/m 2,9 C -0,8 C 22,5 km/h (4 Bft) 100,00 %
02.04.2018 03:41 4,9 C 6,7 C 87 % 1013,4 hPa 0,0 l/m 13,4 km/h (3 Bft) W 265 0 min 0,000 mm 0,0 UV-I 0 W/m 2,9 C -0,2 C 19,3 km/h (3 Bft) 92,31 %
02.04.2018 03:42 4,9 C 6,7 C 87 % 1013,4 hPa 0,0 l/m 15,1 km/h (3 Bft) W-SW 254 0 min 0,000 mm 0,0 UV-I 0 W/m 2,9 C -1,1 C 20,9 km/h (4 Bft) 100,00 %
02.04.2018 03:43 4,9 C 6,7 C 87 % 1013,4 hPa 0,0 l/m 17,7 km/h (3 Bft) W 274 0 min 0,000 mm 0,0 UV-I 0 W/m 2,9 C -2,3 C 24,1 km/h (4 Bft) 95,65 %
02.04.2018 03:44 4,9 C 6,7 C 87 % 1013,4 hPa 0,0 l/m 13,6 km/h (3 Bft) W-SW 238 0 min 0,000 mm 0,0 UV-I 0 W/m 2,9 C -0,3 C 19,3 km/h (3 Bft) 96,30 %
02.04.2018 03:45 4,9 C 6,7 C 87 % 1013,4 hPa 0,0 l/m 15,6 km/h (3 Bft) W-SW 246 0 min 0,000 mm 0,0 UV-I 0 W/m 2,9 C -1,3 C 20,9 km/h (4 Bft) 98,11 %
02.04.2018 03:46 4,9 C 6,7 C 87 % 1013,4 hPa 0,0 l/m 12,3 km/h (3 Bft) SW 234 0 min 0,000 mm 0,0 UV-I 0 W/m 2,9 C 0,5 C 16,1 km/h (3 Bft) 97,73 %
02.04.2018 03:47 4,9 C 6,7 C 87 % 1013,4 hPa 0,0 l/m 14,8 km/h (3 Bft) W 259 0 min 0,000 mm 0,0 UV-I 0 W/m 2,9 C -0,9 C 19,3 km/h (3 Bft) 96,15 %
02.04.2018 03:48 4,9 C 6,7 C 87 % 1013,4 hPa 0,0 l/m 13,7 km/h (3 Bft) W-SW 247 0 min 0,000 mm 0,0 UV-I 0 W/m 2,9 C -0,4 C 17,7 km/h (3 Bft) 94,44 %
02.04.2018 03:49 4,9 C 6,7 C 87 % 1013,4 hPa 0,0 l/m 18,2 km/h (3 Bft) SW 223 0 min 0,000 mm 0,0 UV-I 0 W/m 2,9 C -2,6 C 27,4 km/h (4 Bft) 91,67 %
02.04.2018 03:50 4,9 C 6,7 C 87 % 1013,4 hPa 0,0 l/m 14,9 km/h (3 Bft) W 271 0 min 0,000 mm 0,0 UV-I 0 W/m 2,9 C -1,0 C 19,3 km/h (3 Bft) 97,56 %
02.04.2018 03:51 4,9 C 6,7 C 87 % 1013,3 hPa 0,0 l/m 17,5 km/h (3 Bft) W 263 0 min 0,000 mm 0,0 UV-I 0 W/m 2,9 C -2,2 C 24,1 km/h (4 Bft) 100,00 %
02.04.2018 03:52 4,9 C 6,7 C 87 % 1013,3 hPa 0,0 l/m 16,0 km/h (3 Bft) W 277 0 min 0,000 mm 0,0 UV-I 0 W/m 2,9 C -1,5 C 20,9 km/h (4 Bft) 94,44 %
02.04.2018 03:53 4,9 C 6,7 C 87 % 1013,4 hPa 0,0 l/m 14,7 km/h (3 Bft) W-SW 251 0 min 0,000 mm 0,0 UV-I 0 W/m 2,9 C -0,9 C 20,9 km/h (4 Bft) 100,00 %
02.04.2018 03:54 4,9 C 6,7 C 87 % 1013,4 hPa 0,0 l/m 13,3 km/h (3 Bft) W 265 0 min 0,000 mm 0,0 UV-I 0 W/m 2,9 C -0,1 C 19,3 km/h (3 Bft) 95,65 %
02.04.2018 03:55 4,9 C 6,7 C 87 % 1013,4 hPa 0,0 l/m 20,9 km/h (4 Bft) W 270 0 min 0,000 mm 0,0 UV-I 0 W/m 2,9 C -3,7 C 29,0 km/h (5 Bft) 100,00 %
02.04.2018 03:56 4,9 C 6,7 C 87 % 1013,4 hPa 0,0 l/m 18,4 km/h (3 Bft) W-SW 244 0 min 0,000 mm 0,0 UV-I 0 W/m 2,9 C -2,6 C 27,4 km/h (4 Bft) 96,15 %
02.04.2018 03:57 4,9 C 6,7 C 87 % 1013,4 hPa 0,0 l/m 17,2 km/h (3 Bft) SW 219 0 min 0,000 mm 0,0 UV-I 0 W/m 2,9 C -2,1 C 25,7 km/h (4 Bft) 95,83 %
02.04.2018 03:58 4,9 C 6,7 C 87 % 1013,4 hPa 0,0 l/m 16,1 km/h (3 Bft) SW 219 0 min 0,000 mm 0,0 UV-I 0 W/m 2,9 C -1,6 C 22,5 km/h (4 Bft) 100,00 %
02.04.2018 03:59 4,9 C 6,7 C 87 % 1013,3 hPa 0,0 l/m 17,6 km/h (3 Bft) W 261 0 min 0,000 mm 0,0 UV-I 0 W/m 2,9 C -2,3 C 22,5 km/h (4 Bft) 91,67 %
02.04.2018 04:00 4,9 C 6,7 C 87 % 1013,4 hPa 0,0 l/m 13,8 km/h (3 Bft) W 267 0 min 0,000 mm 0,0 UV-I 0 W/m 2,9 C -0,4 C 16,1 km/h (3 Bft) 100,00 %
02.04.2018 04:01 4,9 C 6,7 C 87 % 1013,3 hPa 0,0 l/m 17,5 km/h (3 Bft) W 267 0 min 0,025 mm 0,0 UV-I 0 W/m 2,9 C -2,2 C 22,5 km/h (4 Bft) 100,00 %
02.04.2018 04:03 4,9 C 6,7 C 87 % 1013,4 hPa 0,0 l/m 16,6 km/h (3 Bft) SW 235 0 min 0,000 mm 0,0 UV-I 0 W/m 2,9 C -1,8 C 22,5 km/h (4 Bft) 100,00 %
02.04.2018 04:04 4,9 C 6,7 C 87 % 1013,4 hPa 0,0 l/m 16,3 km/h (3 Bft) W 269 0 min 0,000 mm 0,0 UV-I 0 W/m 2,9 C -1,7 C 20,9 km/h (4 Bft) 100,00 %
02.04.2018 04:05 4,9 C 6,7 C 87 % 1013,4 hPa 0,0 l/m 17,6 km/h (3 Bft) W-NW 296 0 min 0,000 mm 0,0 UV-I 0 W/m 2,9 C -2,3 C 20,9 km/h (4 Bft) 100,00 %
02.04.2018 04:06 4,9 C 6,7 C 87 % 1013,4 hPa 0,0 l/m 18,1 km/h (3 Bft) SW 232 0 min 0,000 mm 0,0 UV-I 0 W/m 2,9 C -2,5 C 22,5 km/h (4 Bft) 100,00 %
02.04.2018 04:07 4,9 C 6,7 C 87 % 1013,4 hPa 0,0 l/m 21,0 km/h (4 Bft) W-SW 242 0 min 0,000 mm 0,0 UV-I 0 W/m 2,9 C -3,7 C 27,4 km/h (4 Bft) 100,00 %
02.04.2018 04:08 4,9 C 6,7 C 87 % 1013,4 hPa 0,0 l/m 20,1 km/h (4 Bft) W-SW 254 0 min 0,000 mm 0,0 UV-I 0 W/m 2,9 C -3,3 C 32,2 km/h (5 Bft) 100,00 %
02.04.2018 04:09 5,0 C 6,7 C 86 % 1013,4 hPa 0,0 l/m 18,6 km/h (3 Bft) W-SW 240 0 min 0,000 mm 0,0 UV-I 0 W/m 2,9 C -2,6 C 33,8 km/h (5 Bft) 94,12 %
02.04.2018 04:10 5,0 C 6,7 C 86 % 1013,4 hPa 0,0 l/m 25,1 km/h (4 Bft) W-SW 246 0 min 0,000 mm 0,0 UV-I 0 W/m 2,9 C -5,0 C 35,4 km/h (5 Bft) 100,00 %
02.04.2018 04:11 5,0 C 6,7 C 86 % 1013,4 hPa 0,0 l/m 16,4 km/h (3 Bft) W-SW 246 0 min 0,000 mm 0,0 UV-I 0 W/m 2,9 C -1,6 C 19,3 km/h (3 Bft) 100,00 %
02.04.2018 04:12 5,0 C 6,7 C 86 % 1013,4 hPa 0,0 l/m 16,6 km/h (3 Bft) SW 233 0 min 0,000 mm 0,0 UV-I 0 W/m 2,9 C -1,7 C 20,9 km/h (4 Bft) 100,00 %
02.04.2018 04:13 5,0 C 6,7 C 86 % 1013,4 hPa 0,0 l/m 13,2 km/h (3 Bft) W-SW 239 0 min 0,000 mm 0,0 UV-I 0 W/m 2,9 C 0,0 C 17,7 km/h (3 Bft) 95,65 %
02.04.2018 04:14 4,9 C 6,7 C 86 % 1013,4 hPa 0,0 l/m 15,9 km/h (3 Bft) W-SW 258 0 min 0,000 mm 0,0 UV-I 0 W/m 2,8 C -1,5 C 25,7 km/h (4 Bft) 96,30 %
02.04.2018 04:15 4,9 C 6,7 C 86 % 1013,4 hPa 0,0 l/m 15,5 km/h (3 Bft) W 278 0 min 0,000 mm 0,0 UV-I 0 W/m 2,8 C -1,3 C 20,9 km/h (4 Bft) 100,00 %
02.04.2018 04:16 4,9 C 6,7 C 86 % 1013,4 hPa 0,0 l/m 18,4 km/h (3 Bft) W-SW 258 0 min 0,000 mm 0,0 UV-I 0 W/m 2,8 C -2,6 C 24,1 km/h (4 Bft) 100,00 %
02.04.2018 04:17 5,0 C 6,7 C 86 % 1013,4 hPa 0,0 l/m 16,4 km/h (3 Bft) W-SW 248 0 min 0,000 mm 0,0 UV-I 0 W/m 2,9 C -1,6 C 20,9 km/h (4 Bft) 95,65 %
02.04.2018 04:18 4,9 C 6,7 C 86 % 1013,4 hPa 0,0 l/m 13,7 km/h (3 Bft) W 276 0 min 0,000 mm 0,0 UV-I 0 W/m 2,8 C -0,4 C 19,3 km/h (3 Bft) 100,00 %
02.04.2018 04:19 4,9 C 6,7 C 86 % 1013,4 hPa 0,0 l/m 15,5 km/h (3 Bft) W-SW 251 0 min 0,000 mm 0,0 UV-I 0 W/m 2,8 C -1,3 C 22,5 km/h (4 Bft) 95,65 %
02.04.2018 04:20 4,9 C 6,7 C 86 % 1013,5 hPa 0,0 l/m 20,2 km/h (4 Bft) W-SW 252 0 min 0,000 mm 0,0 UV-I 0 W/m 2,8 C -3,4 C 27,4 km/h (4 Bft) 100,00 %
02.04.2018 04:21 4,9 C 6,7 C 86 % 1013,5 hPa 0,0 l/m 21,4 km/h (4 Bft) W 281 0 min 0,000 mm 0,0 UV-I 0 W/m 2,8 C -3,8 C 30,6 km/h (5 Bft) 92,86 %
02.04.2018 04:22 5,0 C 6,7 C 86 % 1013,5 hPa 0,0 l/m 16,8 km/h (3 Bft) SW 235 0 min 0,000 mm 0,0 UV-I 0 W/m 2,9 C -1,8 C 22,5 km/h (4 Bft) 100,00 %
02.04.2018 04:23 4,9 C 6,7 C 86 % 1013,5 hPa 0,0 l/m 15,9 km/h (3 Bft) W 274 0 min 0,000 mm 0,0 UV-I 0 W/m 2,8 C -1,5 C 22,5 km/h (4 Bft) 96,55 %
02.04.2018 04:24 4,9 C 6,7 C 86 % 1013,5 hPa 0,0 l/m 13,4 km/h (3 Bft) W-SW 240 0 min 0,000 mm 0,0 UV-I 0 W/m 2,8 C -0,2 C 17,7 km/h (3 Bft) 100,00 %
02.04.2018 04:25 5,0 C 6,7 C 86 % 1013,5 hPa 0,0 l/m 19,6 km/h (3 Bft) W 259 0 min 0,000 mm 0,0 UV-I 0 W/m 2,9 C -3,0 C 24,1 km/h (4 Bft) 96,55 %
02.04.2018 04:26 4,9 C 6,7 C 86 % 1013,5 hPa 0,0 l/m 14,9 km/h (3 Bft) W-SW 248 0 min 0,000 mm 0,0 UV-I 0 W/m 2,8 C -1,0 C 20,9 km/h (4 Bft) 95,83 %
02.04.2018 04:27 4,9 C 6,7 C 86 % 1013,4 hPa 0,0 l/m 17,3 km/h (3 Bft) W-SW 246 0 min 0,000 mm 0,0 UV-I 0 W/m 2,8 C -2,2 C 22,5 km/h (4 Bft) 91,67 %
02.04.2018 04:28 4,9 C 6,7 C 86 % 1013,5 hPa 0,0 l/m 18,6 km/h (3 Bft) W 267 0 min 0,000 mm 0,0 UV-I 0 W/m 2,8 C -2,7 C 30,6 km/h (5 Bft) 96,55 %
02.04.2018 04:29 4,9 C 6,7 C 86 % 1013,5 hPa 0,0 l/m 17,4 km/h (3 Bft) W 269 0 min 0,000 mm 0,0 UV-I 0 W/m 2,8 C -2,2 C 29,0 km/h (5 Bft) 96,30 %
02.04.2018 04:30 4,9 C 6,7 C 86 % 1013,5 hPa 0,0 l/m 18,0 km/h (3 Bft) W 266 0 min 0,000 mm 0,0 UV-I 0 W/m 2,8 C -2,5 C 25,7 km/h (4 Bft) 95,65 %
02.04.2018 04:31 4,9 C 6,7 C 86 % 1013,5 hPa 0,0 l/m 16,4 km/h (3 Bft) W 276 0 min 0,000 mm 0,0 UV-I 0 W/m 2,8 C -1,7 C 22,5 km/h (4 Bft) 95,83 %
02.04.2018 04:32 4,9 C 6,7 C 86 % 1013,5 hPa 0,0 l/m 16,6 km/h (3 Bft) W 277 0 min 0,000 mm 0,0 UV-I 0 W/m 2,8 C -1,8 C 24,1 km/h (4 Bft) 96,55 %
02.04.2018 04:33 4,9 C 6,7 C 86 % 1013,5 hPa 0,0 l/m 17,4 km/h (3 Bft) W 264 0 min 0,000 mm 0,0 UV-I 0 W/m 2,8 C -2,2 C 24,1 km/h (4 Bft) 91,67 %
02.04.2018 04:34 4,9 C 6,7 C 86 % 1013,5 hPa 0,0 l/m 14,2 km/h (3 Bft) W-SW 248 0 min 0,000 mm 0,0 UV-I 0 W/m 2,8 C -0,6 C 19,3 km/h (3 Bft) 96,88 %
02.04.2018 04:35 4,9 C 6,7 C 86 % 1013,5 hPa 0,0 l/m 16,1 km/h (3 Bft) W-SW 248 0 min 0,000 mm 0,0 UV-I 0 W/m 2,8 C -1,6 C 19,3 km/h (3 Bft) 100,00 %
02.04.2018 04:36 4,9 C 6,7 C 86 % 1013,5 hPa 0,0 l/m 18,5 km/h (3 Bft) W 276 0 min 0,000 mm 0,0 UV-I 0 W/m 2,8 C -2,7 C 22,5 km/h (4 Bft) 93,33 %
02.04.2018 04:37 4,9 C 6,7 C 86 % 1013,5 hPa 0,0 l/m 17,0 km/h (3 Bft) W 273 0 min 0,000 mm 0,0 UV-I 0 W/m 2,8 C -2,0 C 20,9 km/h (4 Bft) 97,73 %
02.04.2018 04:38 4,9 C 6,7 C 86 % 1013,5 hPa 0,0 l/m 13,4 km/h (3 Bft) W 275 0 min 0,000 mm 0,0 UV-I 0 W/m 2,8 C -0,2 C 17,7 km/h (3 Bft) 100,00 %
02.04.2018 04:39 4,9 C 6,7 C 86 % 1013,5 hPa 0,0 l/m 16,7 km/h (3 Bft) W-NW 299 0 min 0,000 mm 0,0 UV-I 0 W/m 2,8 C -1,9 C 20,9 km/h (4 Bft) 96,67 %
02.04.2018 04:40 4,9 C 6,7 C 86 % 1013,4 hPa 0,0 l/m 13,4 km/h (3 Bft) W 261 0 min 0,000 mm 0,0 UV-I 0 W/m 2,8 C -0,2 C 16,1 km/h (3 Bft) 100,00 %
02.04.2018 04:41 4,8 C 6,7 C 86 % 1013,5 hPa 0,0 l/m 13,2 km/h (3 Bft) W-SW 258 0 min 0,000 mm 0,0 UV-I 0 W/m 2,7 C -0,2 C 17,7 km/h (3 Bft) 96,30 %
02.04.2018 04:42 4,9 C 6,7 C 86 % 1013,5 hPa 0,0 l/m 10,6 km/h (2 Bft) W 270 0 min 0,000 mm 0,0 UV-I 0 W/m 2,8 C 1,5 C 14,5 km/h (3 Bft) 100,00 %
02.04.2018 04:43 4,8 C 6,7 C 86 % 1013,5 hPa 0,0 l/m 12,8 km/h (3 Bft) W 279 0 min 0,000 mm 0,0 UV-I 0 W/m 2,7 C 0,0 C 17,7 km/h (3 Bft) 96,30 %
02.04.2018 04:44 4,8 C 6,7 C 86 % 1013,5 hPa 0,0 l/m 15,7 km/h (3 Bft) W 263 0 min 0,000 mm 0,0 UV-I 0 W/m 2,7 C -1,5 C 19,3 km/h (3 Bft) 100,00 %
02.04.2018 04:45 4,8 C 6,7 C 86 % 1013,5 hPa 0,0 l/m 14,1 km/h (3 Bft) W 269 0 min 0,000 mm 0,0 UV-I 0 W/m 2,7 C -0,7 C 20,9 km/h (4 Bft) 95,83 %
02.04.2018 04:46 4,8 C 6,7 C 86 % 1013,5 hPa 0,0 l/m 16,9 km/h (3 Bft) W-SW 250 0 min 0,000 mm 0,0 UV-I 0 W/m 2,7 C -2,1 C 20,9 km/h (4 Bft) 96,15 %
02.04.2018 04:47 4,8 C 6,7 C 86 % 1013,4 hPa 0,0 l/m 14,0 km/h (3 Bft) SW 225 0 min 0,000 mm 0,0 UV-I 0 W/m 2,7 C -0,6 C 17,7 km/h (3 Bft) 100,00 %
02.04.2018 04:48 4,8 C 6,7 C 86 % 1013,4 hPa 0,0 l/m 12,5 km/h (3 Bft) W-SW 253 0 min 0,000 mm 0,0 UV-I 0 W/m 2,7 C 0,2 C 19,3 km/h (3 Bft) 100,00 %
02.04.2018 04:49 4,8 C 6,7 C 86 % 1013,5 hPa 0,0 l/m 13,4 km/h (3 Bft) W-SW 257 0 min 0,000 mm 0,0 UV-I 0 W/m 2,7 C -0,3 C 19,3 km/h (3 Bft) 96,15 %
02.04.2018 04:50 4,8 C 6,7 C 86 % 1013,4 hPa 0,0 l/m 13,8 km/h (3 Bft) W-SW 254 0 min 0,000 mm 0,0 UV-I 0 W/m 2,7 C -0,5 C 19,3 km/h (3 Bft) 96,30 %
02.04.2018 04:51 4,8 C 6,7 C 86 % 1013,5 hPa 0,0 l/m 16,0 km/h (3 Bft) W 276 0 min 0,000 mm 0,0 UV-I 0 W/m 2,7 C -1,7 C 20,9 km/h (4 Bft) 100,00 %
02.04.2018 04:52 4,8 C 6,7 C 86 % 1013,5 hPa 0,0 l/m 14,9 km/h (3 Bft) W 270 0 min 0,000 mm 0,0 UV-I 0 W/m 2,7 C -1,1 C 20,9 km/h (4 Bft) 93,33 %
02.04.2018 04:53 4,8 C 6,7 C 86 % 1013,4 hPa 0,0 l/m 15,6 km/h (3 Bft) W 261 0 min 0,000 mm 0,0 UV-I 0 W/m 2,7 C -1,5 C 19,3 km/h (3 Bft) 100,00 %
02.04.2018 04:54 4,8 C 6,7 C 86 % 1013,4 hPa 0,0 l/m 16,6 km/h (3 Bft) W-SW 249 0 min 0,000 mm 0,0 UV-I 0 W/m 2,7 C -2,0 C 20,9 km/h (4 Bft) 96,30 %
02.04.2018 04:55 4,8 C 6,7 C 86 % 1013,4 hPa 0,0 l/m 13,3 km/h (3 Bft) W 262 0 min 0,000 mm 0,0 UV-I 0 W/m 2,7 C -0,2 C 17,7 km/h (3 Bft) 100,00 %
02.04.2018 04:56 4,8 C 6,7 C 86 % 1013,4 hPa 0,0 l/m 11,5 km/h (2 Bft) W-SW 237 0 min 0,000 mm 0,0 UV-I 0 W/m 2,7 C 0,8 C 16,1 km/h (3 Bft) 95,83 %
02.04.2018 04:57 4,7 C 6,7 C 86 % 1013,4 hPa 0,0 l/m 11,2 km/h (2 Bft) W 273 0 min 0,000 mm 0,0 UV-I 0 W/m 2,6 C 0,9 C 14,5 km/h (3 Bft) 92,31 %
02.04.2018 04:58 4,7 C 6,7 C 86 % 1013,4 hPa 0,0 l/m 16,5 km/h (3 Bft) W-SW 242 0 min 0,000 mm 0,0 UV-I 0 W/m 2,6 C -2,0 C 20,9 km/h (4 Bft) 100,00 %
02.04.2018 04:59 4,7 C 6,7 C 86 % 1013,4 hPa 0,0 l/m 13,5 km/h (3 Bft) W-SW 248 0 min 0,000 mm 0,0 UV-I 0 W/m 2,6 C -0,5 C 16,1 km/h (3 Bft) 92,86 %
02.04.2018 05:00 4,7 C 6,7 C 86 % 1013,4 hPa 0,0 l/m 13,3 km/h (3 Bft) W 270 0 min 0,026 mm 0,0 UV-I 0 W/m 2,6 C -0,4 C 20,9 km/h (4 Bft) 95,83 %
02.04.2018 05:01 4,7 C 6,7 C 86 % 1013,4 hPa 0,0 l/m 14,6 km/h (3 Bft) W-SW 253 0 min 0,000 mm 0,0 UV-I 0 W/m 2,6 C -1,1 C 20,9 km/h (4 Bft) 95,65 %
02.04.2018 05:02 4,7 C 6,7 C 86 % 1013,4 hPa 0,0 l/m 12,3 km/h (3 Bft) SW 236 0 min 0,000 mm 0,0 UV-I 0 W/m 2,6 C 0,2 C 16,1 km/h (3 Bft) 100,00 %
02.04.2018 05:03 4,7 C 6,7 C 86 % 1013,4 hPa 0,0 l/m 9,9 km/h (2 Bft) W-SW 241 0 min 0,000 mm 0,0 UV-I 0 W/m 2,6 C 1,8 C 14,5 km/h (3 Bft) 93,33 %
02.04.2018 05:04 4,7 C 6,7 C 86 % 1013,4 hPa 0,0 l/m 12,3 km/h (3 Bft) W 263 0 min 0,000 mm 0,0 UV-I 0 W/m 2,6 C 0,2 C 17,7 km/h (3 Bft) 92,31 %
02.04.2018 05:05 4,7 C 6,7 C 86 % 1013,5 hPa 0,0 l/m 15,4 km/h (3 Bft) W-SW 244 0 min 0,000 mm 0,0 UV-I 0 W/m 2,6 C -1,5 C 20,9 km/h (4 Bft) 95,83 %
02.04.2018 05:06 4,7 C 6,7 C 86 % 1013,5 hPa 0,0 l/m 15,0 km/h (3 Bft) W-SW 254 0 min 0,000 mm 0,0 UV-I 0 W/m 2,6 C -1,3 C 22,5 km/h (4 Bft) 100,00 %
02.04.2018 05:07 4,7 C 6,7 C 86 % 1013,5 hPa 0,0 l/m 13,4 km/h (3 Bft) SW 225 0 min 0,000 mm 0,0 UV-I 0 W/m 2,6 C -0,4 C 17,7 km/h (3 Bft) 95,83 %
02.04.2018 05:08 4,7 C 6,7 C 86 % 1013,5 hPa 0,0 l/m 16,9 km/h (3 Bft) W 273 0 min 0,000 mm 0,0 UV-I 0 W/m 2,6 C -2,2 C 22,5 km/h (4 Bft) 100,00 %
02.04.2018 05:09 4,7 C 6,7 C 86 % 1013,5 hPa 0,0 l/m 12,5 km/h (3 Bft) W 260 0 min 0,000 mm 0,0 UV-I 0 W/m 2,6 C 0,1 C 16,1 km/h (3 Bft) 95,83 %
02.04.2018 05:10 4,7 C 6,7 C 86 % 1013,5 hPa 0,0 l/m 10,9 km/h (2 Bft) W-SW 248 0 min 0,000 mm 0,0 UV-I 0 W/m 2,6 C 1,1 C 16,1 km/h (3 Bft) 95,65 %
02.04.2018 05:11 4,7 C 6,7 C 86 % 1013,5 hPa 0,0 l/m 13,4 km/h (3 Bft) SW 227 0 min 0,000 mm 0,0 UV-I 0 W/m 2,6 C -0,4 C 17,7 km/h (3 Bft) 100,00 %
02.04.2018 05:12 4,7 C 6,7 C 86 % 1013,5 hPa 0,0 l/m 11,6 km/h (2 Bft) W 264 0 min 0,000 mm 0,0 UV-I 0 W/m 2,6 C 0,7 C 14,5 km/h (3 Bft) 100,00 %
02.04.2018 05:13 4,7 C 6,7 C 86 % 1013,5 hPa 0,0 l/m 10,9 km/h (2 Bft) W 273 0 min 0,000 mm 0,0 UV-I 0 W/m 2,6 C 1,1 C 17,7 km/h (3 Bft) 96,30 %
02.04.2018 05:14 4,7 C 6,7 C 86 % 1013,5 hPa 0,0 l/m 13,8 km/h (3 Bft) W-SW 254 0 min 0,000 mm 0,0 UV-I 0 W/m 2,6 C -0,6 C 19,3 km/h (3 Bft) 96,15 %
02.04.2018 05:15 4,7 C 6,7 C 86 % 1013,5 hPa 0,0 l/m 15,6 km/h (3 Bft) W-SW 257 0 min 0,000 mm 0,0 UV-I 0 W/m 2,6 C -1,6 C 20,9 km/h (4 Bft) 100,00 %
02.04.2018 05:16 4,7 C 6,7 C 86 % 1013,5 hPa 0,0 l/m 9,2 km/h (2 Bft) W-SW 246 0 min 0,000 mm 0,0 UV-I 0 W/m 2,6 C 2,3 C 12,9 km/h (3 Bft) 96,15 %
02.04.2018 05:17 4,6 C 6,7 C 86 % 1013,6 hPa 0,0 l/m 11,8 km/h (2 Bft) W-SW 250 0 min 0,000 mm 0,0 UV-I 0 W/m 2,5 C 0,4 C 17,7 km/h (3 Bft) 100,00 %
02.04.2018 05:18 4,6 C 6,7 C 86 % 1013,6 hPa 0,0 l/m 13,8 km/h (3 Bft) W-SW 257 0 min 0,000 mm 0,0 UV-I 0 W/m 2,5 C -0,8 C 17,7 km/h (3 Bft) 96,15 %
02.04.2018 05:19 4,7 C 6,7 C 86 % 1013,6 hPa 0,0 l/m 14,0 km/h (3 Bft) W-SW 258 0 min 0,000 mm 0,0 UV-I 0 W/m 2,6 C -0,8 C 17,7 km/h (3 Bft) 100,00 %
02.04.2018 05:20 4,7 C 6,7 C 86 % 1013,6 hPa 0,0 l/m 10,2 km/h (2 Bft) SW 219 0 min 0,000 mm 0,0 UV-I 0 W/m 2,6 C 1,6 C 16,1 km/h (3 Bft) 96,15 %
02.04.2018 05:21 4,7 C 6,7 C 86 % 1013,5 hPa 0,0 l/m 13,2 km/h (3 Bft) W-SW 245 0 min 0,000 mm 0,0 UV-I 0 W/m 2,6 C -0,3 C 19,3 km/h (3 Bft) 96,43 %
02.04.2018 05:22 4,7 C 6,7 C 86 % 1013,6 hPa 0,0 l/m 13,5 km/h (3 Bft) W 261 0 min 0,000 mm 0,0 UV-I 0 W/m 2,6 C -0,5 C 17,7 km/h (3 Bft) 100,00 %
02.04.2018 05:23 4,7 C 6,7 C 86 % 1013,6 hPa 0,0 l/m 10,9 km/h (2 Bft) W 273 0 min 0,000 mm 0,0 UV-I 0 W/m 2,6 C 1,1 C 16,1 km/h (3 Bft) 95,65 %
02.04.2018 05:24 4,7 C 6,7 C 86 % 1013,5 hPa 0,0 l/m 6,5 km/h (2 Bft) W 268 0 min 0,000 mm 0,0 UV-I 0 W/m 2,6 C 4,6 C 9,7 km/h (2 Bft) 100,00 %
02.04.2018 05:25 4,6 C 6,7 C 86 % 1013,5 hPa 0,0 l/m 10,6 km/h (2 Bft) W 271 0 min 0,000 mm 0,0 UV-I 0 W/m 2,5 C 1,2 C 12,9 km/h (3 Bft) 92,31 %
02.04.2018 05:26 4,6 C 6,7 C 86 % 1013,6 hPa 0,0 l/m 11,0 km/h (2 Bft) W 273 0 min 0,000 mm 0,0 UV-I 0 W/m 2,5 C 0,9 C 17,7 km/h (3 Bft) 100,00 %
02.04.2018 05:27 4,6 C 6,7 C 86 % 1013,6 hPa 0,0 l/m 10,4 km/h (2 Bft) W-SW 257 0 min 0,000 mm 0,0 UV-I 0 W/m 2,5 C 1,3 C 16,1 km/h (3 Bft) 100,00 %
02.04.2018 05:28 4,6 C 6,7 C 86 % 1013,6 hPa 0,0 l/m 11,7 km/h (2 Bft) SW 223 0 min 0,000 mm 0,0 UV-I 0 W/m 2,5 C 0,5 C 14,5 km/h (3 Bft) 100,00 %
02.04.2018 05:29 4,7 C 6,7 C 86 % 1013,6 hPa 0,0 l/m 14,4 km/h (3 Bft) W 259 0 min 0,000 mm 0,0 UV-I 0 W/m 2,6 C -1,0 C 19,3 km/h (3 Bft) 96,15 %
02.04.2018 05:30 4,7 C 6,7 C 86 % 1013,6 hPa 0,0 l/m 11,3 km/h (2 Bft) W 268 0 min 0,000 mm 0,0 UV-I 0 W/m 2,6 C 0,9 C 17,7 km/h (3 Bft) 100,00 %
02.04.2018 05:31 4,7 C 6,7 C 86 % 1013,6 hPa 0,0 l/m 11,5 km/h (2 Bft) W-SW 244 0 min 0,000 mm 0,0 UV-I 0 W/m 2,6 C 0,7 C 17,7 km/h (3 Bft) 100,00 %
02.04.2018 05:32 4,7 C 6,7 C 86 % 1013,6 hPa 0,0 l/m 8,1 km/h (2 Bft) W-SW 256 0 min 0,000 mm 0,0 UV-I 0 W/m 2,6 C 3,2 C 12,9 km/h (3 Bft) 100,00 %
02.04.2018 05:33 4,7 C 6,7 C 86 % 1013,6 hPa 0,0 l/m 15,9 km/h (3 Bft) W 263 0 min 0,000 mm 0,0 UV-I 0 W/m 2,6 C -1,7 C 22,5 km/h (4 Bft) 100,00 %
02.04.2018 05:34 4,7 C 6,7 C 86 % 1013,6 hPa 0,0 l/m 9,8 km/h (2 Bft) W-SW 238 0 min 0,000 mm 0,0 UV-I 0 W/m 2,6 C 1,9 C 14,5 km/h (3 Bft) 100,00 %
02.04.2018 05:35 4,7 C 6,7 C 86 % 1013,6 hPa 0,0 l/m 9,2 km/h (2 Bft) W-SW 250 0 min 0,000 mm 0,0 UV-I 0 W/m 2,6 C 2,3 C 12,9 km/h (3 Bft) 100,00 %
02.04.2018 05:36 4,7 C 6,7 C 86 % 1013,6 hPa 0,0 l/m 10,7 km/h (2 Bft) W-SW 250 0 min 0,000 mm 0,0 UV-I 0 W/m 2,6 C 1,3 C 14,5 km/h (3 Bft) 95,83 %
02.04.2018 05:37 4,7 C 6,7 C 86 % 1013,6 hPa 0,0 l/m 10,1 km/h (2 Bft) W 261 0 min 0,000 mm 0,0 UV-I 0 W/m 2,6 C 1,7 C 12,9 km/h (3 Bft) 100,00 %
02.04.2018 05:38 4,7 C 6,7 C 86 % 1013,6 hPa 0,0 l/m 10,5 km/h (2 Bft) W-SW 256 0 min 0,000 mm 0,0 UV-I 0 W/m 2,6 C 1,4 C 14,5 km/h (3 Bft) 96,30 %
02.04.2018 05:39 4,7 C 6,7 C 86 % 1013,6 hPa 0,0 l/m 10,5 km/h (2 Bft) W-SW 240 0 min 0,000 mm 0,0 UV-I 0 W/m 2,6 C 1,4 C 14,5 km/h (3 Bft) 96,55 %
02.04.2018 05:40 4,7 C 6,7 C 86 % 1013,6 hPa 0,0 l/m 10,4 km/h (2 Bft) W-SW 246 0 min 0,000 mm 0,0 UV-I 0 W/m 2,6 C 1,5 C 12,9 km/h (3 Bft) 100,00 %
02.04.2018 05:41 4,7 C 6,7 C 86 % 1013,6 hPa 0,0 l/m 7,2 km/h (2 Bft) W 263 0 min 0,000 mm 0,0 UV-I 0 W/m 2,6 C 4,0 C 14,5 km/h (3 Bft) 95,65 %
02.04.2018 05:42 4,7 C 6,7 C 86 % 1013,6 hPa 0,0 l/m 9,4 km/h (2 Bft) S-SW 202 0 min 0,000 mm 0,0 UV-I 0 W/m 2,6 C 2,2 C 12,9 km/h (3 Bft) 100,00 %
02.04.2018 05:43 4,7 C 6,7 C 86 % 1013,6 hPa 0,0 l/m 12,5 km/h (3 Bft) W-SW 242 0 min 0,000 mm 0,0 UV-I 0 W/m 2,6 C 0,1 C 17,7 km/h (3 Bft) 96,30 %
02.04.2018 05:44 4,7 C 6,7 C 86 % 1013,6 hPa 0,0 l/m 13,2 km/h (3 Bft) W-SW 249 0 min 0,000 mm 0,0 UV-I 0 W/m 2,6 C -0,3 C 19,3 km/h (3 Bft) 100,00 %
02.04.2018 05:45 4,7 C 6,7 C 86 % 1013,6 hPa 0,0 l/m 11,3 km/h (2 Bft) SW 236 0 min 0,000 mm 0,0 UV-I 0 W/m 2,6 C 0,9 C 12,9 km/h (3 Bft) 91,67 %
02.04.2018 05:46 4,7 C 6,7 C 86 % 1013,6 hPa 0,0 l/m 14,3 km/h (3 Bft) SW 224 0 min 0,000 mm 0,0 UV-I 0 W/m 2,6 C -0,9 C 17,7 km/h (3 Bft) 100,00 %
02.04.2018 05:47 4,7 C 6,7 C 86 % 1013,6 hPa 0,0 l/m 12,3 km/h (3 Bft) W-SW 252 0 min 0,000 mm 0,0 UV-I 0 W/m 2,6 C 0,2 C 16,1 km/h (3 Bft) 96,97 %
02.04.2018 05:48 4,7 C 6,7 C 86 % 1013,6 hPa 0,0 l/m 9,0 km/h (2 Bft) SW 235 0 min 0,000 mm 0,0 UV-I 0 W/m 2,6 C 2,5 C 14,5 km/h (3 Bft) 96,15 %
02.04.2018 05:49 4,7 C 6,7 C 86 % 1013,6 hPa 0,0 l/m 12,2 km/h (2 Bft) SW 236 0 min 0,000 mm 0,0 UV-I 0 W/m 2,6 C 0,3 C 17,7 km/h (3 Bft) 100,00 %
02.04.2018 05:50 4,7 C 6,7 C 86 % 1013,6 hPa 0,0 l/m 13,1 km/h (3 Bft) SW 221 0 min 0,000 mm 0,0 UV-I 0 W/m 2,6 C -0,2 C 19,3 km/h (3 Bft) 96,15 %
02.04.2018 05:51 4,7 C 6,7 C 86 % 1013,6 hPa 0,0 l/m 10,3 km/h (2 Bft) SW 234 0 min 0,000 mm 0,0 UV-I 0 W/m 2,6 C 1,5 C 12,9 km/h (3 Bft) 100,00 %
02.04.2018 05:52 4,7 C 6,7 C 86 % 1013,6 hPa 0,0 l/m 9,2 km/h (2 Bft) W-SW 251 0 min 0,000 mm 0,0 UV-I 0 W/m 2,6 C 2,3 C 11,3 km/h (2 Bft) 95,00 %
02.04.2018 05:53 4,7 C 6,7 C 86 % 1013,6 hPa 0,0 l/m 13,4 km/h (3 Bft) W-SW 253 0 min 0,000 mm 0,0 UV-I 0 W/m 2,6 C -0,4 C 19,3 km/h (3 Bft) 100,00 %
02.04.2018 05:54 4,7 C 6,7 C 86 % 1013,6 hPa 0,0 l/m 12,3 km/h (3 Bft) S-SW 207 0 min 0,000 mm 0,0 UV-I 0 W/m 2,6 C 0,2 C 17,7 km/h (3 Bft) 95,65 %
02.04.2018 05:55 4,7 C 6,7 C 86 % 1013,6 hPa 0,0 l/m 14,1 km/h (3 Bft) W 264 0 min 0,000 mm 0,0 UV-I 0 W/m 2,6 C -0,8 C 22,5 km/h (4 Bft) 100,00 %
02.04.2018 05:56 4,7 C 6,7 C 86 % 1013,6 hPa 0,0 l/m 11,5 km/h (2 Bft) W-SW 237 0 min 0,000 mm 0,0 UV-I 0 W/m 2,6 C 0,7 C 16,1 km/h (3 Bft) 96,15 %
02.04.2018 05:57 4,7 C 6,7 C 86 % 1013,6 hPa 0,0 l/m 12,1 km/h (2 Bft) W-SW 245 0 min 0,000 mm 0,0 UV-I 0 W/m 2,6 C 0,3 C 17,7 km/h (3 Bft) 96,30 %
02.04.2018 05:58 4,7 C 6,7 C 86 % 1013,6 hPa 0,0 l/m 13,4 km/h (3 Bft) SW 236 0 min 0,000 mm 0,0 UV-I 0 W/m 2,6 C -0,4 C 20,9 km/h (4 Bft) 92,86 %
02.04.2018 05:59 4,7 C 6,7 C 86 % 1013,6 hPa 0,0 l/m 15,3 km/h (3 Bft) W-SW 241 0 min 0,000 mm 0,0 UV-I 0 W/m 2,6 C -1,4 C 19,3 km/h (3 Bft) 96,30 %
02.04.2018 06:00 4,7 C 6,7 C 86 % 1013,7 hPa 0,0 l/m 15,4 km/h (3 Bft) W-SW 254 0 min 0,025 mm 0,0 UV-I 0 W/m 2,6 C -1,5 C 22,5 km/h (4 Bft) 100,00 %
02.04.2018 06:01 4,7 C 6,7 C 86 % 1013,6 hPa 0,0 l/m 13,1 km/h (3 Bft) W-SW 244 0 min 0,000 mm 0,0 UV-I 0 W/m 2,6 C -0,2 C 17,7 km/h (3 Bft) 91,67 %
02.04.2018 06:02 4,7 C 6,7 C 86 % 1013,7 hPa 0,0 l/m 13,6 km/h (3 Bft) S-SW 211 0 min 0,000 mm 0,0 UV-I 0 W/m 2,6 C -0,5 C 19,3 km/h (3 Bft) 100,00 %
02.04.2018 06:03 4,7 C 6,7 C 86 % 1013,7 hPa 0,0 l/m 14,7 km/h (3 Bft) W-SW 250 0 min 0,000 mm 0,0 UV-I 0 W/m 2,6 C -1,1 C 22,5 km/h (4 Bft) 96,15 %
02.04.2018 06:04 4,7 C 6,7 C 86 % 1013,6 hPa 0,0 l/m 16,4 km/h (3 Bft) W-SW 246 0 min 0,000 mm 0,0 UV-I 0 W/m 2,6 C -2,0 C 22,5 km/h (4 Bft) 100,00 %
02.04.2018 06:05 4,8 C 6,7 C 86 % 1013,6 hPa 0,0 l/m 11,8 km/h (2 Bft) W-SW 239 0 min 0,000 mm 0,0 UV-I 0 W/m 2,7 C 0,7 C 16,1 km/h (3 Bft) 91,30 %
02.04.2018 06:06 4,8 C 6,7 C 86 % 1013,6 hPa 0,0 l/m 11,8 km/h (2 Bft) W 261 0 min 0,000 mm 0,0 UV-I 0 W/m 2,7 C 0,7 C 16,1 km/h (3 Bft) 96,30 %
02.04.2018 06:07 4,8 C 6,7 C 86 % 1013,6 hPa 0,0 l/m 13,7 km/h (3 Bft) W 271 0 min 0,000 mm 0,0 UV-I 0 W/m 2,7 C -0,5 C 19,3 km/h (3 Bft) 100,00 %
02.04.2018 06:09 4,8 C 6,7 C 86 % 1013,6 hPa 0,0 l/m 9,6 km/h (2 Bft) W 266 0 min 0,000 mm 0,0 UV-I 0 W/m 2,7 C 2,1 C 17,7 km/h (3 Bft) 98,00 %
02.04.2018 06:10 4,8 C 6,7 C 86 % 1013,6 hPa 0,0 l/m 15,6 km/h (3 Bft) SW 236 0 min 0,000 mm 0,0 UV-I 0 W/m 2,7 C -1,5 C 19,3 km/h (3 Bft) 91,67 %
02.04.2018 06:11 4,8 C 6,7 C 86 % 1013,6 hPa 0,0 l/m 12,0 km/h (2 Bft) W 275 0 min 0,000 mm 0,0 UV-I 0 W/m 2,7 C 0,5 C 14,5 km/h (3 Bft) 100,00 %
02.04.2018 06:12 4,8 C 6,7 C 86 % 1013,6 hPa 0,0 l/m 14,5 km/h (3 Bft) SW 217 0 min 0,000 mm 0,0 UV-I 0 W/m 2,7 C -0,9 C 19,3 km/h (3 Bft) 97,56 %
02.04.2018 06:13 4,8 C 6,7 C 86 % 1013,6 hPa 0,0 l/m 15,2 km/h (3 Bft) SW 222 0 min 0,000 mm 0,0 UV-I 0 W/m 2,7 C -1,3 C 19,3 km/h (3 Bft) 100,00 %
02.04.2018 06:14 4,8 C 6,7 C 86 % 1013,6 hPa 0,0 l/m 14,2 km/h (3 Bft) W-SW 244 0 min 0,000 mm 0,0 UV-I 0 W/m 2,7 C -0,7 C 19,3 km/h (3 Bft) 91,67 %
02.04.2018 06:15 4,8 C 6,7 C 86 % 1013,6 hPa 0,0 l/m 10,4 km/h (2 Bft) SW 225 0 min 0,000 mm 0,0 UV-I 0 W/m 2,7 C 1,6 C 14,5 km/h (3 Bft) 100,00 %
02.04.2018 06:16 4,8 C 6,7 C 86 % 1013,6 hPa 0,0 l/m 11,7 km/h (2 Bft) W-SW 243 0 min 0,000 mm 0,0 UV-I 0 W/m 2,7 C 0,7 C 16,1 km/h (3 Bft) 100,00 %
02.04.2018 06:17 4,8 C 6,7 C 86 % 1013,6 hPa 0,0 l/m 12,9 km/h (3 Bft) W 273 0 min 0,000 mm 0,0 UV-I 0 W/m 2,7 C -0,0 C 16,1 km/h (3 Bft) 100,00 %
02.04.2018 06:18 4,8 C 6,7 C 86 % 1013,6 hPa 0,0 l/m 13,7 km/h (3 Bft) W-SW 245 0 min 0,000 mm 0,0 UV-I 0 W/m 2,7 C -0,5 C 19,3 km/h (3 Bft) 100,00 %
02.04.2018 06:19 4,8 C 6,7 C 86 % 1013,6 hPa 0,0 l/m 8,4 km/h (2 Bft) SW 234 0 min 0,000 mm 0,0 UV-I 0 W/m 2,7 C 3,1 C 12,9 km/h (3 Bft) 100,00 %
02.04.2018 06:20 4,8 C 6,7 C 86 % 1013,6 hPa 0,0 l/m 12,7 km/h (3 Bft) SW 236 0 min 0,000 mm 0,0 UV-I 0 W/m 2,7 C 0,1 C 17,7 km/h (3 Bft) 100,00 %
02.04.2018 06:21 4,8 C 6,7 C 86 % 1013,6 hPa 0,0 l/m 13,6 km/h (3 Bft) W-SW 247 0 min 0,000 mm 0,0 UV-I 0 W/m 2,7 C -0,4 C 20,9 km/h (4 Bft) 100,00 %
02.04.2018 06:22 4,8 C 6,7 C 86 % 1013,6 hPa 0,0 l/m 10,6 km/h (2 Bft) W-SW 241 0 min 0,000 mm 0,0 UV-I 0 W/m 2,7 C 1,4 C 17,7 km/h (3 Bft) 96,15 %
02.04.2018 06:23 4,8 C 6,7 C 86 % 1013,6 hPa 0,0 l/m 13,9 km/h (3 Bft) W-SW 248 0 min 0,000 mm 0,0 UV-I 0 W/m 2,7 C -0,6 C 19,3 km/h (3 Bft) 100,00 %
02.04.2018 06:24 4,8 C 6,7 C 85 % 1013,8 hPa 0,0 l/m 14,1 km/h (3 Bft) W 263 0 min 0,000 mm 0,0 UV-I 0 W/m 2,5 C -0,7 C 20,9 km/h (4 Bft) 100,00 %
02.04.2018 06:25 4,8 C 6,7 C 85 % 1013,8 hPa 0,0 l/m 13,9 km/h (3 Bft) W-SW 252 0 min 0,000 mm 0,0 UV-I 0 W/m 2,5 C -0,6 C 19,3 km/h (3 Bft) 100,00 %
02.04.2018 06:26 4,8 C 6,7 C 85 % 1013,7 hPa 0,0 l/m 12,2 km/h (2 Bft) W-SW 246 0 min 0,000 mm 0,0 UV-I 0 W/m 2,5 C 0,4 C 14,5 km/h (3 Bft) 100,00 %
02.04.2018 06:27 4,8 C 6,7 C 85 % 1013,7 hPa 0,0 l/m 11,6 km/h (2 Bft) W-SW 254 0 min 0,000 mm 0,0 UV-I 0 W/m 2,5 C 0,8 C 16,1 km/h (3 Bft) 100,00 %
02.04.2018 06:28 4,8 C 6,7 C 85 % 1013,7 hPa 0,0 l/m 8,7 km/h (2 Bft) SW 229 0 min 0,000 mm 0,0 UV-I 0 W/m 2,5 C 2,8 C 11,3 km/h (2 Bft) 100,00 %
02.04.2018 06:29 4,7 C 6,7 C 85 % 1013,7 hPa 0,0 l/m 11,8 km/h (2 Bft) W-SW 248 0 min 0,000 mm 0,0 UV-I 0 W/m 2,4 C 0,5 C 14,5 km/h (3 Bft) 96,30 %
02.04.2018 06:30 4,7 C 6,7 C 85 % 1013,7 hPa 0,0 l/m 12,6 km/h (3 Bft) W-SW 256 0 min 0,000 mm 0,0 UV-I 0 W/m 2,4 C 0,0 C 17,7 km/h (3 Bft) 100,00 %
02.04.2018 06:31 4,8 C 6,7 C 85 % 1013,8 hPa 0,0 l/m 13,1 km/h (3 Bft) W-SW 250 0 min 0,000 mm 0,0 UV-I 0 W/m 2,5 C -0,1 C 17,7 km/h (3 Bft) 100,00 %
02.04.2018 06:32 4,7 C 6,7 C 85 % 1013,8 hPa 0,0 l/m 8,9 km/h (2 Bft) SW 232 0 min 0,000 mm 0,0 UV-I 0 W/m 2,4 C 2,6 C 12,9 km/h (3 Bft) 95,65 %
02.04.2018 06:33 4,7 C 6,7 C 85 % 1013,8 hPa 0,0 l/m 7,2 km/h (2 Bft) SW 232 0 min 0,000 mm 0,0 UV-I 4 W/m 2,4 C 4,0 C 11,3 km/h (2 Bft) 100,00 %
02.04.2018 06:34 4,7 C 6,7 C 85 % 1013,8 hPa 0,0 l/m 10,5 km/h (2 Bft) W 263 0 min 0,000 mm 0,0 UV-I 5 W/m 2,4 C 1,4 C 14,5 km/h (3 Bft) 100,00 %
02.04.2018 06:35 4,7 C 6,7 C 85 % 1013,8 hPa 0,0 l/m 9,0 km/h (2 Bft) SW 233 0 min 0,000 mm 0,0 UV-I 5 W/m 2,4 C 2,5 C 14,5 km/h (3 Bft) 100,00 %
02.04.2018 06:36 4,7 C 6,7 C 86 % 1013,8 hPa 0,0 l/m 11,0 km/h (2 Bft) W 261 0 min 0,000 mm 0,0 UV-I 5 W/m 2,6 C 1,1 C 14,5 km/h (3 Bft) 100,00 %
02.04.2018 06:37 4,7 C 6,7 C 86 % 1013,7 hPa 0,0 l/m 14,0 km/h (3 Bft) W-SW 252 0 min 0,000 mm 0,0 UV-I 5 W/m 2,6 C -0,8 C 17,7 km/h (3 Bft) 100,00 %
02.04.2018 06:38 4,6 C 6,7 C 86 % 1013,9 hPa 0,0 l/m 11,2 km/h (2 Bft) W-SW 248 0 min 0,000 mm 0,0 UV-I 5 W/m 2,5 C 0,8 C 16,1 km/h (3 Bft) 96,15 %
02.04.2018 06:39 4,6 C 6,7 C 86 % 1013,9 hPa 0,0 l/m 11,2 km/h (2 Bft) W-SW 246 0 min 0,000 mm 0,0 UV-I 6 W/m 2,5 C 0,8 C 14,5 km/h (3 Bft) 100,00 %
02.04.2018 06:40 4,6 C 6,7 C 86 % 1013,8 hPa 0,0 l/m 12,7 km/h (3 Bft) SW 229 0 min 0,000 mm 0,0 UV-I 7 W/m 2,5 C -0,1 C 16,1 km/h (3 Bft) 100,00 %
02.04.2018 06:41 4,6 C 6,7 C 86 % 1013,8 hPa 0,0 l/m 9,2 km/h (2 Bft) W-SW 246 0 min 0,000 mm 0,0 UV-I 7 W/m 2,5 C 2,2 C 14,5 km/h (3 Bft) 100,00 %
02.04.2018 06:42 4,6 C 6,7 C 86 % 1013,9 hPa 0,0 l/m 10,9 km/h (2 Bft) W-SW 246 0 min 0,000 mm 0,0 UV-I 7 W/m 2,5 C 1,0 C 12,9 km/h (3 Bft) 100,00 %
02.04.2018 06:43 4,6 C 6,7 C 86 % 1013,9 hPa 0,0 l/m 11,4 km/h (2 Bft) W-SW 244 0 min 0,000 mm 0,0 UV-I 7 W/m 2,5 C 0,7 C 16,1 km/h (3 Bft) 100,00 %
02.04.2018 06:44 4,5 C 6,7 C 86 % 1013,9 hPa 0,0 l/m 12,3 km/h (3 Bft) SW 234 0 min 0,000 mm 0,0 UV-I 7 W/m 2,4 C -0,0 C 16,1 km/h (3 Bft) 100,00 %
02.04.2018 06:45 4,5 C 6,7 C 86 % 1013,9 hPa 0,0 l/m 10,9 km/h (2 Bft) W 271 0 min 0,000 mm 0,0 UV-I 7 W/m 2,4 C 0,9 C 14,5 km/h (3 Bft) 100,00 %
02.04.2018 06:46 4,5 C 6,7 C 86 % 1013,9 hPa 0,0 l/m 13,3 km/h (3 Bft) W-SW 246 0 min 0,000 mm 0,0 UV-I 9 W/m 2,4 C -0,6 C 17,7 km/h (3 Bft) 96,67 %
02.04.2018 06:47 4,5 C 6,7 C 86 % 1013,9 hPa 0,0 l/m 16,7 km/h (3 Bft) SW 221 0 min 0,000 mm 0,0 UV-I 9 W/m 2,4 C -2,4 C 19,3 km/h (3 Bft) 100,00 %
02.04.2018 06:48 4,5 C 6,7 C 86 % 1013,9 hPa 0,0 l/m 16,2 km/h (3 Bft) W 269 0 min 0,000 mm 0,0 UV-I 9 W/m 2,4 C -2,1 C 20,9 km/h (4 Bft) 100,00 %
02.04.2018 06:49 4,5 C 6,7 C 86 % 1013,9 hPa 0,0 l/m 12,6 km/h (3 Bft) W-SW 257 0 min 0,000 mm 0,0 UV-I 10 W/m 2,4 C -0,2 C 17,7 km/h (3 Bft) 100,00 %
02.04.2018 06:50 4,6 C 6,7 C 86 % 1013,9 hPa 0,0 l/m 16,4 km/h (3 Bft) W-SW 247 0 min 0,000 mm 0,0 UV-I 11 W/m 2,5 C -2,1 C 20,9 km/h (4 Bft) 96,30 %
02.04.2018 06:51 4,6 C 6,7 C 86 % 1013,9 hPa 0,0 l/m 12,9 km/h (3 Bft) SW 236 1 min 0,000 mm 0,0 UV-I 12 W/m 2,5 C -0,2 C 19,3 km/h (3 Bft) 100,00 %
02.04.2018 06:52 4,6 C 6,7 C 86 % 1013,9 hPa 0,0 l/m 14,1 km/h (3 Bft) W-SW 245 1 min 0,000 mm 0,0 UV-I 12 W/m 2,5 C -0,9 C 19,3 km/h (3 Bft) 95,83 %
02.04.2018 06:53 4,5 C 6,7 C 86 % 1013,9 hPa 0,0 l/m 10,1 km/h (2 Bft) W-SW 240 0 min 0,000 mm 0,0 UV-I 12 W/m 2,4 C 1,4 C 12,9 km/h (3 Bft) 100,00 %
02.04.2018 06:54 4,5 C 6,7 C 86 % 1013,9 hPa 0,0 l/m 11,1 km/h (2 Bft) SW 235 0 min 0,000 mm 0,0 UV-I 13 W/m 2,4 C 0,8 C 16,1 km/h (3 Bft) 100,00 %
02.04.2018 06:55 4,6 C 6,7 C 86 % 1013,9 hPa 0,0 l/m 13,3 km/h (3 Bft) SW 235 0 min 0,000 mm 0,0 UV-I 14 W/m 2,5 C -0,5 C 19,3 km/h (3 Bft) 100,00 %
02.04.2018 06:56 4,6 C 6,7 C 86 % 1014,0 hPa 0,0 l/m 12,6 km/h (3 Bft) W-SW 238 0 min 0,000 mm 0,0 UV-I 14 W/m 2,5 C -0,1 C 17,7 km/h (3 Bft) 100,00 %
02.04.2018 06:57 4,5 C 6,7 C 86 % 1014,0 hPa 0,0 l/m 11,3 km/h (2 Bft) W-SW 247 0 min 0,000 mm 0,0 UV-I 14 W/m 2,4 C 0,6 C 14,5 km/h (3 Bft) 100,00 %
02.04.2018 06:58 4,5 C 6,7 C 86 % 1013,9 hPa 0,0 l/m 9,6 km/h (2 Bft) SW 228 0 min 0,000 mm 0,0 UV-I 16 W/m 2,4 C 1,8 C 14,5 km/h (3 Bft) 100,00 %
02.04.2018 06:59 4,5 C 6,7 C 86 % 1013,9 hPa 0,0 l/m 11,6 km/h (2 Bft) SW 225 0 min 0,000 mm 0,0 UV-I 16 W/m 2,4 C 0,4 C 14,5 km/h (3 Bft) 100,00 %
02.04.2018 07:00 4,5 C 6,7 C 86 % 1013,9 hPa 0,0 l/m 13,8 km/h (3 Bft) S-SW 207 0 min 0,025 mm 0,0 UV-I 16 W/m 2,4 C -0,9 C 19,3 km/h (3 Bft) 100,00 %
02.04.2018 07:01 4,4 C 6,7 C 86 % 1013,9 hPa 0,0 l/m 11,7 km/h (2 Bft) W-SW 250 0 min 0,000 mm 0,0 UV-I 16 W/m 2,3 C 0,3 C 16,1 km/h (3 Bft) 100,00 %
02.04.2018 07:02 4,4 C 6,7 C 86 % 1013,9 hPa 0,0 l/m 10,5 km/h (2 Bft) W 259 0 min 0,000 mm 0,0 UV-I 16 W/m 2,3 C 1,1 C 14,5 km/h (3 Bft) 100,00 %
02.04.2018 07:03 4,4 C 6,7 C 86 % 1013,9 hPa 0,0 l/m 10,8 km/h (2 Bft) W-SW 240 0 min 0,000 mm 0,0 UV-I 16 W/m 2,3 C 0,8 C 14,5 km/h (3 Bft) 100,00 %
02.04.2018 07:04 4,4 C 6,7 C 86 % 1013,9 hPa 0,0 l/m 10,3 km/h (2 Bft) W-SW 238 0 min 0,000 mm 0,0 UV-I 18 W/m 2,3 C 1,2 C 12,9 km/h (3 Bft) 100,00 %
02.04.2018 07:05 4,4 C 6,7 C 86 % 1013,9 hPa 0,0 l/m 7,0 km/h (2 Bft) SW 226 0 min 0,000 mm 0,0 UV-I 18 W/m 2,3 C 3,9 C 9,7 km/h (2 Bft) 100,00 %
02.04.2018 07:06 4,4 C 6,7 C 86 % 1013,9 hPa 0,0 l/m 7,9 km/h (2 Bft) W-SW 250 0 min 0,000 mm 0,0 UV-I 21 W/m 2,3 C 3,1 C 12,9 km/h (3 Bft) 100,00 %
02.04.2018 07:07 4,4 C 6,7 C 86 % 1013,9 hPa 0,0 l/m 9,8 km/h (2 Bft) SW 234 0 min 0,000 mm 0,0 UV-I 24 W/m 2,3 C 1,6 C 14,5 km/h (3 Bft) 100,00 %
02.04.2018 07:08 4,3 C 6,7 C 86 % 1014,0 hPa 0,0 l/m 12,8 km/h (3 Bft) W-SW 239 0 min 0,000 mm 0,0 UV-I 26 W/m 2,2 C -0,5 C 17,7 km/h (3 Bft) 100,00 %
02.04.2018 07:09 4,3 C 6,7 C 86 % 1014,0 hPa 0,0 l/m 11,1 km/h (2 Bft) W-SW 242 0 min 0,000 mm 0,0 UV-I 28 W/m 2,2 C 0,5 C 17,7 km/h (3 Bft) 95,83 %
02.04.2018 07:10 4,3 C 6,7 C 86 % 1014,0 hPa 0,0 l/m 11,1 km/h (2 Bft) W-SW 244 0 min 0,000 mm 0,0 UV-I 30 W/m 2,2 C 0,5 C 16,1 km/h (3 Bft) 96,15 %
02.04.2018 07:11 4,3 C 6,7 C 86 % 1014,0 hPa 0,0 l/m 9,7 km/h (2 Bft) SW 216 0 min 0,000 mm 0,0 UV-I 32 W/m 2,2 C 1,5 C 14,5 km/h (3 Bft) 100,00 %
02.04.2018 07:12 4,3 C 6,7 C 86 % 1014,0 hPa 0,0 l/m 10,6 km/h (2 Bft) W-SW 238 0 min 0,000 mm 0,0 UV-I 28 W/m 2,2 C 0,9 C 16,1 km/h (3 Bft) 100,00 %
02.04.2018 07:13 4,3 C 6,7 C 86 % 1014,0 hPa 0,0 l/m 12,3 km/h (3 Bft) W-SW 247 0 min 0,000 mm 0,0 UV-I 27 W/m 2,2 C -0,2 C 14,5 km/h (3 Bft) 100,00 %
02.04.2018 07:14 4,3 C 6,7 C 86 % 1014,0 hPa 0,0 l/m 11,0 km/h (2 Bft) W 261 0 min 0,000 mm 0,0 UV-I 32 W/m 2,2 C 0,6 C 14,5 km/h (3 Bft) 100,00 %
02.04.2018 07:15 4,3 C 6,7 C 86 % 1014,0 hPa 0,0 l/m 14,2 km/h (3 Bft) W-SW 252 0 min 0,000 mm 0,0 UV-I 33 W/m 2,2 C -1,3 C 17,7 km/h (3 Bft) 100,00 %
02.04.2018 07:16 4,3 C 6,7 C 86 % 1014,0 hPa 0,0 l/m 10,2 km/h (2 Bft) W-SW 246 0 min 0,000 mm 0,0 UV-I 38 W/m 2,2 C 1,2 C 14,5 km/h (3 Bft) 95,83 %
02.04.2018 07:17 4,3 C 6,7 C 86 % 1014,0 hPa 0,0 l/m 11,5 km/h (2 Bft) SW 236 0 min 0,000 mm 0,0 UV-I 44 W/m 2,2 C 0,3 C 14,5 km/h (3 Bft) 100,00 %
02.04.2018 07:18 4,3 C 6,7 C 86 % 1014,0 hPa 0,0 l/m 12,2 km/h (2 Bft) SW 235 0 min 0,000 mm 0,0 UV-I 50 W/m 2,2 C -0,2 C 17,7 km/h (3 Bft) 96,30 %
02.04.2018 07:19 4,3 C 6,7 C 86 % 1014,0 hPa 0,0 l/m 13,5 km/h (3 Bft) SW 227 0 min 0,000 mm 0,0 UV-I 52 W/m 2,2 C -0,9 C 16,1 km/h (3 Bft) 100,00 %
02.04.2018 07:20 4,3 C 6,7 C 86 % 1014,0 hPa 0,0 l/m 9,5 km/h (2 Bft) W-SW 238 0 min 0,000 mm 0,0 UV-I 50 W/m 2,2 C 1,7 C 14,5 km/h (3 Bft) 95,83 %
02.04.2018 07:21 4,3 C 6,7 C 86 % 1014,0 hPa 0,0 l/m 13,8 km/h (3 Bft) W-SW 245 0 min 0,000 mm 0,0 UV-I 53 W/m 2,2 C -1,1 C 16,1 km/h (3 Bft) 100,00 %
02.04.2018 07:22 4,3 C 6,7 C 86 % 1014,0 hPa 0,0 l/m 10,8 km/h (2 Bft) W-SW 255 0 min 0,000 mm 0,0 UV-I 54 W/m 2,2 C 0,7 C 16,1 km/h (3 Bft) 100,00 %
02.04.2018 07:23 4,3 C 6,7 C 86 % 1014,0 hPa 0,0 l/m 12,2 km/h (2 Bft) W-SW 240 0 min 0,000 mm 0,0 UV-I 53 W/m 2,2 C -0,2 C 17,7 km/h (3 Bft) 95,65 %
02.04.2018 07:24 4,4 C 6,7 C 86 % 1014,0 hPa 0,0 l/m 12,7 km/h (3 Bft) W 261 0 min 0,000 mm 0,0 UV-I 52 W/m 2,3 C -0,4 C 16,1 km/h (3 Bft) 100,00 %
02.04.2018 07:25 4,4 C 6,7 C 86 % 1014,0 hPa 0,0 l/m 12,1 km/h (2 Bft) W-SW 245 0 min 0,000 mm 0,0 UV-I 50 W/m 2,3 C 0,0 C 14,5 km/h (3 Bft) 98,11 %
02.04.2018 07:26 4,4 C 6,7 C 86 % 1014,0 hPa 0,0 l/m 10,1 km/h (2 Bft) SW 234 0 min 0,000 mm 0,0 UV-I 50 W/m 2,3 C 1,3 C 14,5 km/h (3 Bft) 100,00 %
02.04.2018 07:27 4,4 C 6,7 C 86 % 1013,9 hPa 0,0 l/m 11,4 km/h (2 Bft) W-SW 241 0 min 0,000 mm 0,0 UV-I 54 W/m 2,3 C 0,4 C 16,1 km/h (3 Bft) 100,00 %
02.04.2018 07:28 4,4 C 6,7 C 86 % 1014,0 hPa 0,0 l/m 10,5 km/h (2 Bft) SW 216 0 min 0,000 mm 0,0 UV-I 58 W/m 2,3 C 1,1 C 14,5 km/h (3 Bft) 100,00 %
02.04.2018 07:29 4,4 C 6,7 C 86 % 1014,0 hPa 0,0 l/m 10,7 km/h (2 Bft) W-SW 245 0 min 0,000 mm 0,0 UV-I 58 W/m 2,3 C 0,9 C 17,7 km/h (3 Bft) 100,00 %
02.04.2018 07:30 4,4 C 6,7 C 86 % 1014,0 hPa 0,0 l/m 9,4 km/h (2 Bft) W-SW 254 0 min 0,000 mm 0,0 UV-I 57 W/m 2,3 C 1,9 C 16,1 km/h (3 Bft) 100,00 %
02.04.2018 07:31 4,4 C 6,7 C 86 % 1014,0 hPa 0,0 l/m 11,0 km/h (2 Bft) SW 218 0 min 0,000 mm 0,0 UV-I 70 W/m 2,3 C 0,7 C 16,1 km/h (3 Bft) 100,00 %
02.04.2018 07:32 4,4 C 6,7 C 86 % 1014,0 hPa 0,0 l/m 11,8 km/h (2 Bft) S-SW 211 0 min 0,000 mm 0,0 UV-I 74 W/m 2,3 C 0,2 C 14,5 km/h (3 Bft) 100,00 %
02.04.2018 07:33 4,4 C 6,7 C 86 % 1014,0 hPa 0,0 l/m 10,2 km/h (2 Bft) SW 223 0 min 0,000 mm 0,0 UV-I 76 W/m 2,3 C 1,3 C 12,9 km/h (3 Bft) 96,43 %
02.04.2018 07:34 4,4 C 6,7 C 86 % 1014,0 hPa 0,0 l/m 12,6 km/h (3 Bft) W-SW 246 1 min 0,000 mm 0,0 UV-I 79 W/m 2,3 C -0,3 C 20,9 km/h (4 Bft) 100,00 %
02.04.2018 07:35 4,5 C 6,7 C 86 % 1013,9 hPa 0,0 l/m 12,1 km/h (2 Bft) S-SW 211 1 min 0,000 mm 0,0 UV-I 89 W/m 2,4 C 0,1 C 17,7 km/h (3 Bft) 100,00 %
02.04.2018 07:36 4,5 C 6,7 C 86 % 1013,9 hPa 0,0 l/m 11,3 km/h (2 Bft) SW 232 1 min 0,000 mm 0,0 UV-I 103 W/m 2,4 C 0,6 C 12,9 km/h (3 Bft) 95,65 %
02.04.2018 07:37 4,6 C 6,7 C 86 % 1014,0 hPa 0,0 l/m 13,0 km/h (3 Bft) SW 215 1 min 0,000 mm 0,0 UV-I 98 W/m 2,5 C -0,3 C 17,7 km/h (3 Bft) 100,00 %
02.04.2018 07:38 4,6 C 6,7 C 86 % 1014,0 hPa 0,0 l/m 12,8 km/h (3 Bft) S-SW 208 1 min 0,000 mm 0,0 UV-I 95 W/m 2,5 C -0,2 C 17,7 km/h (3 Bft) 100,00 %
02.04.2018 07:39 4,6 C 6,7 C 86 % 1014,0 hPa 0,0 l/m 13,0 km/h (3 Bft) SW 233 1 min 0,000 mm 0,0 UV-I 102 W/m 2,5 C -0,3 C 17,7 km/h (3 Bft) 96,30 %
02.04.2018 07:40 4,6 C 6,7 C 86 % 1014,0 hPa 0,0 l/m 9,3 km/h (2 Bft) SW 224 1 min 0,000 mm 0,0 UV-I 127 W/m 2,5 C 2,1 C 14,5 km/h (3 Bft) 100,00 %
02.04.2018 07:41 4,6 C 6,7 C 86 % 1014,0 hPa 0,0 l/m 9,0 km/h (2 Bft) W-SW 244 1 min 0,000 mm 0,0 UV-I 123 W/m 2,5 C 2,4 C 12,9 km/h (3 Bft) 100,00 %
02.04.2018 07:42 4,7 C 6,7 C 85 % 1014,0 hPa 0,0 l/m 9,7 km/h (2 Bft) SW 222 1 min 0,000 mm 0,0 UV-I 117 W/m 2,4 C 2,0 C 14,5 km/h (3 Bft) 100,00 %
02.04.2018 07:43 4,7 C 6,7 C 85 % 1014,0 hPa 0,0 l/m 12,4 km/h (3 Bft) W-SW 254 1 min 0,000 mm 0,0 UV-I 93 W/m 2,4 C 0,2 C 16,1 km/h (3 Bft) 100,00 %
02.04.2018 07:44 4,7 C 6,7 C 85 % 1014,0 hPa 0,0 l/m 8,9 km/h (2 Bft) W-SW 248 0 min 0,000 mm 0,0 UV-I 80 W/m 2,4 C 2,6 C 14,5 km/h (3 Bft) 95,65 %
02.04.2018 07:45 4,7 C 6,7 C 85 % 1014,0 hPa 0,0 l/m 9,8 km/h (2 Bft) SW 236 0 min 0,000 mm 0,0 UV-I 79 W/m 2,4 C 1,9 C 14,5 km/h (3 Bft) 91,67 %
02.04.2018 07:46 4,7 C 6,7 C 85 % 1014,0 hPa 0,0 l/m 9,9 km/h (2 Bft) W-SW 248 0 min 0,000 mm 0,0 UV-I 79 W/m 2,4 C 1,8 C 14,5 km/h (3 Bft) 100,00 %
02.04.2018 07:47 4,7 C 6,7 C 85 % 1014,0 hPa 0,0 l/m 9,8 km/h (2 Bft) W-SW 256 0 min 0,000 mm 0,0 UV-I 77 W/m 2,4 C 1,9 C 14,5 km/h (3 Bft) 97,56 %
02.04.2018 07:48 4,7 C 6,7 C 85 % 1014,0 hPa 0,0 l/m 7,5 km/h (2 Bft) W-SW 238 0 min 0,000 mm 0,0 UV-I 78 W/m 2,4 C 3,7 C 8,0 km/h (2 Bft) 100,00 %
02.04.2018 07:49 4,7 C 6,7 C 85 % 1014,0 hPa 0,0 l/m 5,4 km/h (1 Bft) W 271 0 min 0,000 mm 0,0 UV-I 72 W/m 2,4 C 4,7 C 8,0 km/h (2 Bft) 96,67 %
02.04.2018 07:50 4,7 C 6,7 C 85 % 1014,0 hPa 0,0 l/m 7,6 km/h (2 Bft) W 261 0 min 0,000 mm 0,0 UV-I 69 W/m 2,4 C 3,6 C 12,9 km/h (3 Bft) 96,15 %
02.04.2018 07:51 4,7 C 6,7 C 85 % 1014,1 hPa 0,0 l/m 6,2 km/h (2 Bft) SW 223 0 min 0,000 mm 0,0 UV-I 69 W/m 2,4 C 4,7 C 9,7 km/h (2 Bft) 100,00 %
02.04.2018 07:52 4,7 C 6,7 C 85 % 1014,1 hPa 0,0 l/m 5,7 km/h (1 Bft) SW 236 0 min 0,000 mm 0,0 UV-I 69 W/m 2,4 C 4,7 C 8,0 km/h (2 Bft) 98,16 %
02.04.2018 07:53 4,7 C 6,7 C 85 % 1014,1 hPa 0,0 l/m 5,9 km/h (2 Bft) W-SW 250 0 min 0,000 mm 0,0 UV-I 71 W/m 2,4 C 4,7 C 6,4 km/h (2 Bft) 97,73 %
02.04.2018 07:54 4,7 C 6,7 C 85 % 1014,1 hPa 0,0 l/m 8,0 km/h (2 Bft) W-SW 251 0 min 0,000 mm 0,0 UV-I 72 W/m 2,4 C 3,3 C 14,5 km/h (3 Bft) 96,15 %
02.04.2018 07:55 4,7 C 6,7 C 85 % 1014,1 hPa 0,0 l/m 10,0 km/h (2 Bft) S-SW 198 0 min 0,000 mm 0,0 UV-I 73 W/m 2,4 C 1,7 C 16,1 km/h (3 Bft) 96,30 %
02.04.2018 07:56 4,7 C 6,7 C 85 % 1014,1 hPa 0,0 l/m 8,4 km/h (2 Bft) SW 230 0 min 0,000 mm 0,0 UV-I 74 W/m 2,4 C 3,0 C 11,3 km/h (2 Bft) 93,33 %
02.04.2018 07:57 4,7 C 6,7 C 85 % 1014,2 hPa 0,0 l/m 8,6 km/h (2 Bft) W-SW 240 0 min 0,000 mm 0,0 UV-I 73 W/m 2,4 C 2,8 C 12,9 km/h (3 Bft) 100,00 %
02.04.2018 07:58 4,7 C 6,7 C 85 % 1014,2 hPa 0,0 l/m 6,7 km/h (2 Bft) W-SW 258 0 min 0,000 mm 0,0 UV-I 70 W/m 2,4 C 4,4 C 11,3 km/h (2 Bft) 95,83 %
02.04.2018 07:59 4,7 C 6,7 C 85 % 1014,2 hPa 0,0 l/m 6,5 km/h (2 Bft) SW 228 0 min 0,000 mm 0,0 UV-I 69 W/m 2,4 C 4,6 C 9,7 km/h (2 Bft) 100,00 %
02.04.2018 08:00 4,7 C 6,7 C 86 % 1014,2 hPa 0,0 l/m 6,3 km/h (2 Bft) SW 222 0 min 0,026 mm 0,0 UV-I 69 W/m 2,6 C 4,7 C 9,7 km/h (2 Bft) 95,83 %
02.04.2018 08:01 4,7 C 6,7 C 86 % 1014,2 hPa 0,0 l/m 4,1 km/h (1 Bft) W-SW 246 0 min 0,000 mm 0,0 UV-I 69 W/m 2,6 C 4,7 C 6,4 km/h (2 Bft) 92,31 %
02.04.2018 08:02 4,7 C 6,7 C 86 % 1014,2 hPa 0,0 l/m 6,4 km/h (2 Bft) SW 236 0 min 0,000 mm 0,0 UV-I 69 W/m 2,6 C 4,7 C 8,0 km/h (2 Bft) 100,00 %
02.04.2018 08:03 4,7 C 6,7 C 86 % 1014,2 hPa 0,0 l/m 5,5 km/h (1 Bft) SW 236 0 min 0,000 mm 0,0 UV-I 70 W/m 2,6 C 4,7 C 8,0 km/h (2 Bft) 95,65 %
02.04.2018 08:04 4,7 C 6,7 C 86 % 1014,2 hPa 0,0 l/m 6,0 km/h (2 Bft) W 261 0 min 0,000 mm 0,0 UV-I 73 W/m 2,6 C 4,7 C 8,0 km/h (2 Bft) 100,00 %
02.04.2018 08:05 4,7 C 6,7 C 86 % 1014,2 hPa 0,0 l/m 6,3 km/h (2 Bft) SW 236 0 min 0,000 mm 0,0 UV-I 75 W/m 2,6 C 4,7 C 8,0 km/h (2 Bft) 96,15 %
02.04.2018 08:06 4,7 C 6,7 C 86 % 1014,3 hPa 0,0 l/m 6,3 km/h (2 Bft) W-SW 252 0 min 0,000 mm 0,0 UV-I 77 W/m 2,6 C 4,7 C 8,0 km/h (2 Bft) 100,00 %
02.04.2018 08:07 4,7 C 6,7 C 86 % 1014,3 hPa 0,0 l/m 4,1 km/h (1 Bft) W-SW 250 0 min 0,000 mm 0,0 UV-I 80 W/m 2,6 C 4,7 C 8,0 km/h (2 Bft) 96,55 %
02.04.2018 08:08 4,7 C 6,7 C 86 % 1014,2 hPa 0,0 l/m 5,0 km/h (1 Bft) W-SW 252 0 min 0,000 mm 0,0 UV-I 83 W/m 2,6 C 4,7 C 6,4 km/h (2 Bft) 100,00 %
02.04.2018 08:09 4,7 C 6,7 C 86 % 1014,3 hPa 0,0 l/m 5,3 km/h (1 Bft) W 270 0 min 0,000 mm 0,0 UV-I 85 W/m 2,6 C 4,7 C 6,4 km/h (2 Bft) 96,88 %
02.04.2018 08:10 4,7 C 6,7 C 86 % 1014,3 hPa 0,0 l/m 3,9 km/h (1 Bft) W 267 0 min 0,000 mm 0,0 UV-I 89 W/m 2,6 C 4,7 C 4,8 km/h (1 Bft) 93,33 %
02.04.2018 08:11 4,7 C 6,7 C 86 % 1014,4 hPa 0,0 l/m 5,8 km/h (2 Bft) W-SW 240 0 min 0,000 mm 0,0 UV-I 93 W/m 2,6 C 4,7 C 12,9 km/h (3 Bft) 100,00 %
02.04.2018 08:12 4,7 C 6,7 C 86 % 1014,2 hPa 0,0 l/m 8,5 km/h (2 Bft) W-SW 250 0 min 0,000 mm 0,0 UV-I 96 W/m 2,6 C 2,9 C 11,3 km/h (2 Bft) 95,83 %
02.04.2018 08:13 4,7 C 6,7 C 86 % 1014,2 hPa 0,0 l/m 6,0 km/h (2 Bft) W 262 0 min 0,000 mm 0,0 UV-I 98 W/m 2,6 C 4,7 C 6,4 km/h (2 Bft) 100,00 %
02.04.2018 08:14 4,8 C 6,7 C 86 % 1014,4 hPa 0,0 l/m 6,2 km/h (2 Bft) W-SW 254 0 min 0,000 mm 0,0 UV-I 98 W/m 2,7 C 4,8 C 9,7 km/h (2 Bft) 95,65 %
02.04.2018 08:15 4,8 C 6,7 C 86 % 1014,3 hPa 0,0 l/m 5,0 km/h (1 Bft) W-SW 252 0 min 0,000 mm 0,0 UV-I 100 W/m 2,7 C 4,8 C 8,0 km/h (2 Bft) 100,00 %
02.04.2018 08:16 4,8 C 6,7 C 86 % 1014,3 hPa 0,0 l/m 7,6 km/h (2 Bft) W-SW 241 0 min 0,000 mm 0,0 UV-I 104 W/m 2,7 C 3,7 C 14,5 km/h (3 Bft) 95,65 %
02.04.2018 08:17 4,8 C 6,7 C 86 % 1014,3 hPa 0,0 l/m 11,0 km/h (2 Bft) W-SW 246 0 min 0,000 mm 0,0 UV-I 101 W/m 2,7 C 1,2 C 14,5 km/h (3 Bft) 95,83 %
02.04.2018 08:18 4,8 C 6,7 C 86 % 1014,3 hPa 0,0 l/m 10,8 km/h (2 Bft) W-SW 250 0 min 0,000 mm 0,0 UV-I 100 W/m 2,7 C 1,3 C 12,9 km/h (3 Bft) 100,00 %
02.04.2018 08:19 4,8 C 6,7 C 85 % 1014,2 hPa 0,0 l/m 10,7 km/h (2 Bft) SW 223 0 min 0,000 mm 0,0 UV-I 100 W/m 2,5 C 1,4 C 17,7 km/h (3 Bft) 100,00 %
02.04.2018 08:20 4,9 C 6,7 C 85 % 1014,3 hPa 0,0 l/m 8,8 km/h (2 Bft) W-SW 241 0 min 0,000 mm 0,0 UV-I 104 W/m 2,6 C 2,9 C 14,5 km/h (3 Bft) 100,00 %
02.04.2018 08:21 4,9 C 6,7 C 85 % 1014,3 hPa 0,0 l/m 9,8 km/h (2 Bft) S-SW 209 0 min 0,000 mm 0,0 UV-I 109 W/m 2,6 C 2,1 C 16,1 km/h (3 Bft) 100,00 %
02.04.2018 08:22 4,9 C 6,7 C 85 % 1014,2 hPa 0,0 l/m 10,1 km/h (2 Bft) SW 233 0 min 0,000 mm 0,0 UV-I 117 W/m 2,6 C 1,9 C 14,5 km/h (3 Bft) 96,55 %
02.04.2018 08:23 4,9 C 6,7 C 85 % 1014,2 hPa 0,0 l/m 8,9 km/h (2 Bft) SW 230 0 min 0,000 mm 0,0 UV-I 124 W/m 2,6 C 2,8 C 9,7 km/h (2 Bft) 100,00 %
02.04.2018 08:24 5,0 C 6,7 C 85 % 1014,3 hPa 0,0 l/m 8,7 km/h (2 Bft) W-SW 242 0 min 0,000 mm 0,0 UV-I 128 W/m 2,7 C 3,0 C 12,9 km/h (3 Bft) 100,00 %
02.04.2018 08:25 5,1 C 6,7 C 85 % 1014,3 hPa 0,0 l/m 9,3 km/h (2 Bft) SW 221 0 min 0,000 mm 0,0 UV-I 130 W/m 2,8 C 2,7 C 14,5 km/h (3 Bft) 96,67 %
02.04.2018 08:26 5,1 C 6,7 C 85 % 1014,2 hPa 0,0 l/m 10,1 km/h (2 Bft) SW 223 0 min 0,000 mm 0,0 UV-I 134 W/m 2,8 C 2,1 C 14,5 km/h (3 Bft) 96,15 %
02.04.2018 08:27 5,1 C 6,7 C 84 % 1014,2 hPa 0,0 l/m 9,0 km/h (2 Bft) SW 221 0 min 0,000 mm 0,0 UV-I 138 W/m 2,6 C 2,9 C 12,9 km/h (3 Bft) 100,00 %
02.04.2018 08:28 5,1 C 6,7 C 84 % 1014,3 hPa 0,0 l/m 6,7 km/h (2 Bft) W-SW 241 0 min 0,000 mm 0,0 UV-I 144 W/m 2,6 C 4,9 C 9,7 km/h (2 Bft) 93,75 %
02.04.2018 08:29 5,1 C 6,7 C 84 % 1014,2 hPa 0,0 l/m 8,4 km/h (2 Bft) W-SW 250 0 min 0,000 mm 0,0 UV-I 149 W/m 2,6 C 3,4 C 12,9 km/h (3 Bft) 98,07 %
02.04.2018 08:30 5,1 C 6,7 C 84 % 1014,3 hPa 0,0 l/m 7,7 km/h (2 Bft) W-SW 244 0 min 0,000 mm 0,0 UV-I 153 W/m 2,6 C 4,0 C 12,9 km/h (3 Bft) 97,73 %
02.04.2018 08:31 5,2 C 6,7 C 84 % 1014,3 hPa 0,0 l/m 6,0 km/h (2 Bft) SW 227 0 min 0,000 mm 0,0 UV-I 161 W/m 2,7 C 5,2 C 8,0 km/h (2 Bft) 93,33 %
02.04.2018 08:32 5,2 C 6,7 C 84 % 1014,3 hPa 0,0 l/m 12,4 km/h (3 Bft) W-SW 243 0 min 0,000 mm 0,0 UV-I 163 W/m 2,7 C 0,7 C 17,7 km/h (3 Bft) 100,00 %
02.04.2018 08:33 5,2 C 6,7 C 84 % 1014,3 hPa 0,0 l/m 11,1 km/h (2 Bft) SW 216 0 min 0,000 mm 0,0 UV-I 160 W/m 2,7 C 1,6 C 16,1 km/h (3 Bft) 100,00 %
02.04.2018 08:34 5,2 C 6,7 C 84 % 1014,4 hPa 0,0 l/m 9,2 km/h (2 Bft) SW 223 0 min 0,000 mm 0,0 UV-I 156 W/m 2,7 C 2,9 C 14,5 km/h (3 Bft) 96,55 %
02.04.2018 08:35 5,2 C 6,7 C 84 % 1014,3 hPa 0,0 l/m 10,9 km/h (2 Bft) SW 217 0 min 0,000 mm 0,0 UV-I 148 W/m 2,7 C 1,7 C 16,1 km/h (3 Bft) 86,67 %
02.04.2018 08:36 5,2 C 6,7 C 84 % 1014,3 hPa 0,0 l/m 7,4 km/h (2 Bft) SW 224 0 min 0,000 mm 0,0 UV-I 151 W/m 2,7 C 4,3 C 9,7 km/h (2 Bft) 100,00 %
02.04.2018 08:37 5,3 C 6,7 C 84 % 1014,3 hPa 0,0 l/m 10,2 km/h (2 Bft) SW 227 0 min 0,000 mm 0,0 UV-I 162 W/m 2,8 C 2,3 C 14,5 km/h (3 Bft) 92,31 %
02.04.2018 08:38 5,3 C 6,7 C 84 % 1014,3 hPa 0,0 l/m 9,9 km/h (2 Bft) W-SW 250 1 min 0,000 mm 0,0 UV-I 202 W/m 2,8 C 2,5 C 12,9 km/h (3 Bft) 100,00 %
02.04.2018 08:39 5,3 C 6,7 C 84 % 1014,3 hPa 0,0 l/m 11,0 km/h (2 Bft) SW 229 1 min 0,000 mm 0,0 UV-I 254 W/m 2,8 C 1,7 C 14,5 km/h (3 Bft) 92,86 %
02.04.2018 08:40 5,3 C 6,7 C 84 % 1014,3 hPa 0,0 l/m 11,3 km/h (2 Bft) W 261 1 min 0,000 mm 0,0 UV-I 260 W/m 2,8 C 1,5 C 16,1 km/h (3 Bft) 100,00 %
02.04.2018 08:41 5,4 C 6,7 C 84 % 1014,3 hPa 0,0 l/m 9,8 km/h (2 Bft) S-SW 200 1 min 0,000 mm 0,2 UV-I 246 W/m 2,9 C 2,7 C 14,5 km/h (3 Bft) 85,71 %
02.04.2018 08:42 5,4 C 6,7 C 83 % 1014,4 hPa 0,0 l/m 7,5 km/h (2 Bft) SW 223 1 min 0,000 mm 0,5 UV-I 248 W/m 2,7 C 4,4 C 9,7 km/h (2 Bft) 100,00 %
02.04.2018 08:43 5,5 C 6,7 C 83 % 1014,4 hPa 0,0 l/m 7,2 km/h (2 Bft) S-SW 210 1 min 0,000 mm 0,5 UV-I 290 W/m 2,8 C 4,8 C 12,9 km/h (3 Bft) 95,65 %
02.04.2018 08:44 5,6 C 6,7 C 83 % 1014,4 hPa 0,0 l/m 9,3 km/h (2 Bft) S-SW 213 1 min 0,000 mm 0,5 UV-I 287 W/m 2,9 C 3,2 C 12,9 km/h (3 Bft) 96,30 %
02.04.2018 08:45 5,6 C 6,7 C 84 % 1014,4 hPa 0,0 l/m 12,9 km/h (3 Bft) W-SW 240 1 min 0,000 mm 0,5 UV-I 282 W/m 3,1 C 0,9 C 17,7 km/h (3 Bft) 100,00 %
02.04.2018 08:46 5,7 C 6,7 C 83 % 1014,4 hPa 0,0 l/m 13,7 km/h (3 Bft) W-SW 240 1 min 0,000 mm 0,5 UV-I 291 W/m 3,0 C 0,6 C 16,1 km/h (3 Bft) 96,97 %
02.04.2018 08:47 5,7 C 6,7 C 83 % 1014,4 hPa 0,0 l/m 13,5 km/h (3 Bft) SW 235 1 min 0,000 mm 0,5 UV-I 335 W/m 3,0 C 0,7 C 17,7 km/h (3 Bft) 96,15 %
02.04.2018 08:48 5,7 C 6,7 C 83 % 1014,4 hPa 0,0 l/m 9,3 km/h (2 Bft) SW 234 1 min 0,000 mm 0,5 UV-I 337 W/m 3,0 C 3,3 C 14,5 km/h (3 Bft) 95,83 %
02.04.2018 08:49 5,8 C 6,7 C 83 % 1014,4 hPa 0,0 l/m 9,5 km/h (2 Bft) W-SW 242 1 min 0,000 mm 0,5 UV-I 275 W/m 3,1 C 3,3 C 16,1 km/h (3 Bft) 100,00 %
02.04.2018 08:50 5,8 C 6,7 C 82 % 1014,4 hPa 0,0 l/m 12,1 km/h (2 Bft) W-SW 238 1 min 0,000 mm 0,5 UV-I 212 W/m 3,0 C 1,6 C 16,1 km/h (3 Bft) 91,67 %
02.04.2018 08:51 5,8 C 6,7 C 82 % 1014,4 hPa 0,0 l/m 13,5 km/h (3 Bft) W-SW 246 1 min 0,000 mm 0,5 UV-I 205 W/m 3,0 C 0,8 C 17,7 km/h (3 Bft) 100,00 %
02.04.2018 08:52 5,8 C 6,7 C 82 % 1014,3 hPa 0,0 l/m 12,4 km/h (3 Bft) W-SW 257 1 min 0,000 mm 0,5 UV-I 207 W/m 3,0 C 1,4 C 16,1 km/h (3 Bft) 95,65 %
02.04.2018 08:53 5,8 C 6,7 C 82 % 1014,4 hPa 0,0 l/m 7,4 km/h (2 Bft) W-NW 289 1 min 0,000 mm 0,5 UV-I 212 W/m 3,0 C 4,9 C 9,7 km/h (2 Bft) 96,55 %
02.04.2018 08:54 5,8 C 6,7 C 82 % 1014,4 hPa 0,0 l/m 6,9 km/h (2 Bft) SW 232 1 min 0,000 mm 0,5 UV-I 252 W/m 3,0 C 5,4 C 9,7 km/h (2 Bft) 96,30 %
02.04.2018 08:55 5,8 C 6,7 C 82 % 1014,4 hPa 0,0 l/m 13,3 km/h (3 Bft) W 263 1 min 0,000 mm 0,5 UV-I 248 W/m 3,0 C 0,9 C 16,1 km/h (3 Bft) 100,00 %
02.04.2018 08:56 5,8 C 6,7 C 82 % 1014,4 hPa 0,0 l/m 11,7 km/h (2 Bft) W 259 1 min 0,000 mm 0,5 UV-I 238 W/m 3,0 C 1,9 C 14,5 km/h (3 Bft) 96,55 %
02.04.2018 08:57 5,8 C 6,7 C 82 % 1014,4 hPa 0,0 l/m 12,7 km/h (3 Bft) SW 227 1 min 0,000 mm 0,5 UV-I 228 W/m 3,0 C 1,3 C 17,7 km/h (3 Bft) 91,67 %
02.04.2018 08:58 5,8 C 6,7 C 82 % 1014,4 hPa 0,0 l/m 11,9 km/h (2 Bft) SW 232 1 min 0,000 mm 0,5 UV-I 238 W/m 3,0 C 1,7 C 16,1 km/h (3 Bft) 95,65 %
02.04.2018 08:59 5,8 C 6,7 C 82 % 1014,3 hPa 0,0 l/m 13,1 km/h (3 Bft) W-SW 240 1 min 0,000 mm 0,6 UV-I 254 W/m 3,0 C 1,0 C 19,3 km/h (3 Bft) 95,83 %
02.04.2018 09:00 5,8 C 6,7 C 82 % 1014,4 hPa 0,0 l/m 12,2 km/h (2 Bft) SW 234 1 min 0,076 mm 0,5 UV-I 238 W/m 3,0 C 1,6 C 14,5 km/h (3 Bft) 100,00 %
02.04.2018 09:01 5,9 C 6,7 C 82 % 1014,4 hPa 0,0 l/m 8,8 km/h (2 Bft) SW 234 1 min 0,000 mm 0,6 UV-I 247 W/m 3,1 C 3,9 C 14,5 km/h (3 Bft) 95,83 %
02.04.2018 09:02 5,9 C 6,7 C 82 % 1014,3 hPa 0,0 l/m 9,5 km/h (2 Bft) SW 234 1 min 0,000 mm 0,6 UV-I 232 W/m 3,1 C 3,4 C 16,1 km/h (3 Bft) 100,00 %
02.04.2018 09:03 5,9 C 6,7 C 82 % 1014,4 hPa 0,0 l/m 7,2 km/h (2 Bft) SW 233 1 min 0,000 mm 0,5 UV-I 269 W/m 3,1 C 5,2 C 11,3 km/h (2 Bft) 96,97 %
02.04.2018 09:04 6,0 C 6,7 C 82 % 1014,4 hPa 0,0 l/m 7,6 km/h (2 Bft) W 269 1 min 0,000 mm 0,6 UV-I 282 W/m 3,2 C 5,0 C 12,9 km/h (3 Bft) 100,00 %
02.04.2018 09:05 6,1 C 6,7 C 81 % 1014,4 hPa 0,0 l/m 9,1 km/h (2 Bft) W-SW 241 1 min 0,000 mm 0,5 UV-I 241 W/m 3,1 C 3,9 C 12,9 km/h (3 Bft) 93,33 %
02.04.2018 09:06 6,1 C 6,7 C 81 % 1014,3 hPa 0,0 l/m 7,4 km/h (2 Bft) W-SW 238 1 min 0,000 mm 0,6 UV-I 284 W/m 3,1 C 5,3 C 9,7 km/h (2 Bft) 100,00 %
02.04.2018 09:07 6,1 C 6,7 C 81 % 1014,3 hPa 0,0 l/m 6,0 km/h (2 Bft) W 265 1 min 0,000 mm 0,6 UV-I 252 W/m 3,1 C 6,1 C 9,7 km/h (2 Bft) 96,30 %
02.04.2018 09:08 6,1 C 6,7 C 81 % 1014,4 hPa 0,0 l/m 10,7 km/h (2 Bft) W 264 1 min 0,000 mm 0,6 UV-I 257 W/m 3,1 C 2,8 C 14,5 km/h (3 Bft) 100,00 %
02.04.2018 09:09 6,2 C 6,7 C 81 % 1014,4 hPa 0,0 l/m 6,5 km/h (2 Bft) W-SW 243 1 min 0,000 mm 0,6 UV-I 327 W/m 3,2 C 6,1 C 14,5 km/h (3 Bft) 96,15 %
02.04.2018 09:10 6,2 C 6,7 C 82 % 1014,4 hPa 0,0 l/m 5,2 km/h (1 Bft) W-SW 256 1 min 0,000 mm 0,6 UV-I 327 W/m 3,4 C 6,2 C 6,4 km/h (2 Bft) 95,83 %
02.04.2018 09:11 6,3 C 6,7 C 81 % 1014,4 hPa 0,0 l/m 4,6 km/h (1 Bft) W-SW 249 1 min 0,000 mm 0,6 UV-I 268 W/m 3,3 C 6,3 C 11,3 km/h (2 Bft) 100,00 %
02.04.2018 09:12 6,3 C 6,7 C 81 % 1014,4 hPa 0,0 l/m 8,2 km/h (2 Bft) W-SW 242 1 min 0,000 mm 0,6 UV-I 265 W/m 3,3 C 4,8 C 14,5 km/h (3 Bft) 93,33 %
02.04.2018 09:13 6,3 C 6,7 C 81 % 1014,5 hPa 0,0 l/m 7,5 km/h (2 Bft) W-SW 240 0 min 0,000 mm 0,6 UV-I 213 W/m 3,3 C 5,4 C 11,3 km/h (2 Bft) 100,00 %
02.04.2018 09:14 6,3 C 6,7 C 80 % 1014,4 hPa 0,0 l/m 7,6 km/h (2 Bft) W-SW 242 1 min 0,000 mm 0,6 UV-I 229 W/m 3,1 C 5,3 C 17,7 km/h (3 Bft) 96,30 %
02.04.2018 09:15 6,3 C 6,7 C 81 % 1014,5 hPa 0,0 l/m 9,7 km/h (2 Bft) W-SW 250 1 min 0,000 mm 0,6 UV-I 266 W/m 3,3 C 3,7 C 12,9 km/h (3 Bft) 100,00 %
02.04.2018 09:16 6,3 C 6,7 C 80 % 1014,5 hPa 0,0 l/m 9,9 km/h (2 Bft) W 261 1 min 0,000 mm 0,6 UV-I 257 W/m 3,1 C 3,6 C 16,1 km/h (3 Bft) 95,83 %
02.04.2018 09:17 6,3 C 6,7 C 80 % 1014,5 hPa 0,0 l/m 11,0 km/h (2 Bft) W-SW 246 1 min 0,000 mm 0,6 UV-I 312 W/m 3,1 C 2,9 C 14,5 km/h (3 Bft) 100,00 %
02.04.2018 09:18 6,3 C 6,7 C 80 % 1014,5 hPa 0,0 l/m 12,4 km/h (3 Bft) W 269 0 min 0,000 mm 0,5 UV-I 231 W/m 3,1 C 2,0 C 16,1 km/h (3 Bft) 96,67 %
02.04.2018 09:19 6,3 C 6,7 C 80 % 1014,5 hPa 0,0 l/m 11,4 km/h (2 Bft) W-SW 249 0 min 0,000 mm 0,5 UV-I 234 W/m 3,1 C 2,6 C 14,5 km/h (3 Bft) 100,00 %
02.04.2018 09:20 6,3 C 6,7 C 80 % 1014,5 hPa 0,0 l/m 12,8 km/h (3 Bft) W 263 1 min 0,000 mm 0,5 UV-I 285 W/m 3,1 C 1,8 C 14,5 km/h (3 Bft) 96,30 %
02.04.2018 09:21 6,4 C 6,7 C 79 % 1014,5 hPa 0,0 l/m 8,6 km/h (2 Bft) W 267 0 min 0,000 mm 0,5 UV-I 234 W/m 3,0 C 4,6 C 14,5 km/h (3 Bft) 96,15 %
02.04.2018 09:22 6,4 C 6,7 C 80 % 1014,5 hPa 0,0 l/m 9,3 km/h (2 Bft) SW 236 1 min 0,000 mm 0,5 UV-I 260 W/m 3,2 C 4,1 C 14,5 km/h (3 Bft) 96,67 %
02.04.2018 09:23 6,4 C 6,7 C 79 % 1014,5 hPa 0,0 l/m 9,3 km/h (2 Bft) W 259 0 min 0,000 mm 0,5 UV-I 232 W/m 3,0 C 4,1 C 11,3 km/h (2 Bft) 91,67 %
02.04.2018 09:24 6,4 C 6,7 C 79 % 1014,5 hPa 0,0 l/m 5,3 km/h (1 Bft) NW 320 0 min 0,000 mm 0,5 UV-I 216 W/m 3,0 C 6,4 C 6,4 km/h (2 Bft) 100,00 %
02.04.2018 09:25 6,5 C 6,7 C 80 % 1014,5 hPa 0,0 l/m 7,1 km/h (2 Bft) W-NW 298 0 min 0,000 mm 0,5 UV-I 228 W/m 3,3 C 5,9 C 11,3 km/h (2 Bft) 96,55 %
02.04.2018 09:26 6,4 C 6,7 C 79 % 1014,6 hPa 0,0 l/m 9,5 km/h (2 Bft) W-NW 286 1 min 0,000 mm 0,5 UV-I 252 W/m 3,0 C 4,0 C 16,1 km/h (3 Bft) 100,00 %
02.04.2018 09:27 6,4 C 6,7 C 79 % 1014,6 hPa 0,0 l/m 5,8 km/h (2 Bft) W 262 0 min 0,000 mm 0,5 UV-I 220 W/m 3,0 C 6,4 C 11,3 km/h (2 Bft) 95,65 %
02.04.2018 09:28 6,4 C 6,7 C 79 % 1014,6 hPa 0,0 l/m 6,6 km/h (2 Bft) W 267 0 min 0,000 mm 0,5 UV-I 223 W/m 3,0 C 6,3 C 9,7 km/h (2 Bft) 95,83 %
02.04.2018 09:29 6,4 C 6,7 C 79 % 1014,5 hPa 0,0 l/m 6,6 km/h (2 Bft) W 271 0 min 0,000 mm 0,5 UV-I 221 W/m 3,0 C 6,3 C 9,7 km/h (2 Bft) 100,00 %
02.04.2018 09:30 6,4 C 6,7 C 80 % 1014,5 hPa 0,0 l/m 3,1 km/h (1 Bft) W 273 0 min 0,000 mm 0,5 UV-I 196 W/m 3,2 C 6,4 C 4,8 km/h (1 Bft) 100,00 %
02.04.2018 09:31 6,5 C 6,7 C 80 % 1014,6 hPa 0,0 l/m 3,3 km/h (1 Bft) W-NW 292 0 min 0,000 mm 0,5 UV-I 198 W/m 3,3 C 6,5 C 4,8 km/h (1 Bft) 96,30 %
02.04.2018 09:32 6,6 C 6,7 C 81 % 1014,6 hPa 0,0 l/m 4,7 km/h (1 Bft) W-NW 300 0 min 0,000 mm 0,6 UV-I 195 W/m 3,6 C 6,6 C 6,4 km/h (2 Bft) 96,55 %
02.04.2018 09:33 6,7 C 6,7 C 80 % 1014,6 hPa 0,0 l/m 6,4 km/h (2 Bft) W 278 0 min 0,000 mm 0,6 UV-I 220 W/m 3,5 C 6,7 C 9,7 km/h (2 Bft) 100,00 %
02.04.2018 09:34 6,6 C 6,7 C 78 % 1014,6 hPa 0,0 l/m 3,9 km/h (1 Bft) W 273 0 min 0,000 mm 0,6 UV-I 248 W/m 3,0 C 6,6 C 6,4 km/h (2 Bft) 95,65 %
02.04.2018 09:35 6,6 C 6,7 C 78 % 1014,6 hPa 0,0 l/m 5,5 km/h (1 Bft) W 262 0 min 0,000 mm 0,6 UV-I 244 W/m 3,0 C 6,6 C 12,9 km/h (3 Bft) 95,83 %
02.04.2018 09:36 6,5 C 6,7 C 78 % 1014,6 hPa 0,0 l/m 5,9 km/h (2 Bft) W 281 0 min 0,000 mm 0,6 UV-I 241 W/m 2,9 C 6,5 C 9,7 km/h (2 Bft) 96,55 %
02.04.2018 09:37 6,5 C 6,7 C 79 % 1014,6 hPa 0,0 l/m 3,6 km/h (1 Bft) W-NW 287 0 min 0,000 mm 0,5 UV-I 219 W/m 3,1 C 6,5 C 4,8 km/h (1 Bft) 96,30 %
02.04.2018 09:38 6,5 C 6,7 C 79 % 1014,6 hPa 0,0 l/m 6,0 km/h (2 Bft) W-NW 292 0 min 0,000 mm 0,6 UV-I 166 W/m 3,1 C 6,5 C 8,0 km/h (2 Bft) 100,00 %
02.04.2018 09:39 6,4 C 6,7 C 79 % 1014,6 hPa 0,0 l/m 6,9 km/h (2 Bft) W-NW 294 0 min 0,000 mm 0,7 UV-I 176 W/m 3,0 C 6,0 C 9,7 km/h (2 Bft) 96,67 %
02.04.2018 09:40 6,5 C 6,7 C 80 % 1014,6 hPa 0,0 l/m 3,8 km/h (1 Bft) W 279 0 min 0,000 mm 0,7 UV-I 223 W/m 3,3 C 6,5 C 6,4 km/h (2 Bft) 92,86 %
02.04.2018 09:41 6,5 C 6,7 C 79 % 1014,7 hPa 0,0 l/m 5,6 km/h (1 Bft) W 268 0 min 0,000 mm 0,7 UV-I 216 W/m 3,1 C 6,5 C 11,3 km/h (2 Bft) 92,59 %
02.04.2018 09:42 6,6 C 6,7 C 80 % 1014,7 hPa 0,0 l/m 2,8 km/h (1 Bft) W-SW 237 0 min 0,000 mm 0,6 UV-I 209 W/m 3,4 C 6,6 C 4,8 km/h (1 Bft) 95,65 %
02.04.2018 09:43 6,6 C 6,7 C 80 % 1014,6 hPa 0,0 l/m 3,4 km/h (1 Bft) SW 225 0 min 0,000 mm 0,6 UV-I 184 W/m 3,4 C 6,6 C 4,8 km/h (1 Bft) 87,50 %
02.04.2018 09:44 6,7 C 6,7 C 80 % 1014,7 hPa 0,0 l/m 4,2 km/h (1 Bft) W-NW 282 0 min 0,000 mm 0,6 UV-I 163 W/m 3,5 C 6,7 C 4,8 km/h (1 Bft) 100,00 %
02.04.2018 09:45 6,7 C 6,7 C 80 % 1014,6 hPa 0,0 l/m 3,6 km/h (1 Bft) W 268 0 min 0,000 mm 0,6 UV-I 144 W/m 3,5 C 6,7 C 4,8 km/h (1 Bft) 93,33 %
02.04.2018 09:46 6,6 C 6,7 C 79 % 1014,6 hPa 0,0 l/m 6,5 km/h (2 Bft) W-NW 292 0 min 0,000 mm 0,7 UV-I 136 W/m 3,2 C 6,5 C 14,5 km/h (3 Bft) 100,00 %
02.04.2018 09:47 6,6 C 6,7 C 78 % 1014,6 hPa 0,0 l/m 7,9 km/h (2 Bft) W-NW 284 0 min 0,000 mm 0,8 UV-I 148 W/m 3,0 C 5,4 C 12,9 km/h (3 Bft) 95,65 %
02.04.2018 09:48 6,5 C 6,7 C 78 % 1014,5 hPa 0,0 l/m 7,5 km/h (2 Bft) W-NW 284 0 min 0,000 mm 0,9 UV-I 186 W/m 2,9 C 5,6 C 9,7 km/h (2 Bft) 100,00 %
02.04.2018 09:49 6,4 C 6,7 C 78 % 1014,6 hPa 0,0 l/m 6,7 km/h (2 Bft) N-NW 327 0 min 0,000 mm 1,0 UV-I 250 W/m 2,8 C 6,2 C 9,7 km/h (2 Bft) 95,83 %
02.04.2018 09:50 6,5 C 6,7 C 79 % 1014,6 hPa 0,0 l/m 3,2 km/h (1 Bft) NW 304 1 min 0,000 mm 1,1 UV-I 333 W/m 3,1 C 6,5 C 4,8 km/h (1 Bft) 100,00 %
02.04.2018 09:51 6,5 C 6,7 C 79 % 1014,6 hPa 0,0 l/m 1,7 km/h (1 Bft) NW 304 1 min 0,000 mm 1,1 UV-I 483 W/m 3,1 C 6,5 C 3,2 km/h (1 Bft) 93,10 %
02.04.2018 09:52 6,7 C 6,7 C 79 % 1014,6 hPa 0,0 l/m 4,0 km/h (1 Bft) W 260 1 min 0,000 mm 1,1 UV-I 476 W/m 3,3 C 6,7 C 4,8 km/h (1 Bft) 93,33 %
02.04.2018 09:53 6,7 C 6,7 C 79 % 1014,6 hPa 0,0 l/m 5,5 km/h (1 Bft) SW 228 1 min 0,000 mm 1,0 UV-I 473 W/m 3,3 C 6,7 C 8,0 km/h (2 Bft) 96,15 %
02.04.2018 09:54 6,8 C 6,7 C 78 % 1014,7 hPa 0,0 l/m 13,4 km/h (3 Bft) W-SW 250 1 min 0,000 mm 1,0 UV-I 473 W/m 3,2 C 2,1 C 17,7 km/h (3 Bft) 93,94 %
02.04.2018 09:55 6,7 C 6,7 C 77 % 1014,7 hPa 0,0 l/m 8,9 km/h (2 Bft) W 265 1 min 0,000 mm 1,2 UV-I 459 W/m 3,0 C 4,7 C 11,3 km/h (2 Bft) 100,00 %
02.04.2018 09:56 6,8 C 6,7 C 77 % 1014,7 hPa 0,0 l/m 9,8 km/h (2 Bft) W-NW 286 1 min 0,000 mm 1,1 UV-I 391 W/m 3,1 C 4,2 C 17,7 km/h (3 Bft) 95,83 %
02.04.2018 09:57 6,8 C 6,7 C 78 % 1014,7 hPa 0,0 l/m 6,8 km/h (2 Bft) W-SW 255 1 min 0,000 mm 1,1 UV-I 353 W/m 3,2 C 6,5 C 11,3 km/h (2 Bft) 100,00 %
02.04.2018 09:58 6,8 C 6,7 C 77 % 1014,7 hPa 0,0 l/m 7,1 km/h (2 Bft) W-SW 251 1 min 0,000 mm 1,1 UV-I 353 W/m 3,1 C 6,2 C 11,3 km/h (2 Bft) 91,67 %
02.04.2018 09:59 6,9 C 6,7 C 77 % 1014,6 hPa 0,0 l/m 6,4 km/h (2 Bft) W-NW 302 0 min 0,000 mm 1,1 UV-I 247 W/m 3,2 C 6,9 C 9,7 km/h (2 Bft) 100,00 %
02.04.2018 10:00 6,9 C 6,7 C 78 % 1014,6 hPa 0,0 l/m 4,6 km/h (1 Bft) NW 306 0 min 0,127 mm 1,2 UV-I 264 W/m 3,3 C 6,9 C 8,0 km/h (2 Bft) 96,30 %
02.04.2018 10:01 7,1 C 6,7 C 79 % 1014,6 hPa 0,0 l/m 5,7 km/h (1 Bft) W-SW 252 1 min 0,000 mm 1,3 UV-I 493 W/m 3,7 C 7,1 C 11,3 km/h (2 Bft) 96,55 %
02.04.2018 10:02 7,2 C 6,7 C 79 % 1014,6 hPa 0,0 l/m 10,8 km/h (2 Bft) NW 306 1 min 0,000 mm 1,3 UV-I 488 W/m 3,8 C 4,0 C 14,5 km/h (3 Bft) 97,75 %
02.04.2018 10:03 7,2 C 6,7 C 76 % 1014,7 hPa 0,0 l/m 11,1 km/h (2 Bft) NW 323 1 min 0,000 mm 1,3 UV-I 510 W/m 3,3 C 3,8 C 14,5 km/h (3 Bft) 97,37 %
02.04.2018 10:04 7,2 C 6,7 C 76 % 1014,6 hPa 0,0 l/m 9,1 km/h (2 Bft) N-NW 329 1 min 0,000 mm 1,3 UV-I 547 W/m 3,3 C 5,1 C 12,9 km/h (3 Bft) 96,30 %
02.04.2018 10:05 7,2 C 6,7 C 75 % 1014,6 hPa 0,0 l/m 9,8 km/h (2 Bft) W-NW 298 1 min 0,000 mm 1,3 UV-I 544 W/m 3,1 C 4,6 C 12,9 km/h (3 Bft) 91,67 %
02.04.2018 10:06 7,2 C 6,7 C 75 % 1014,6 hPa 0,0 l/m 4,6 km/h (1 Bft) NW 314 1 min 0,000 mm 1,3 UV-I 509 W/m 3,1 C 7,2 C 6,4 km/h (2 Bft) 100,00 %
02.04.2018 10:07 7,2 C 6,7 C 75 % 1014,6 hPa 0,0 l/m 3,9 km/h (1 Bft) W-NW 299 1 min 0,000 mm 1,3 UV-I 504 W/m 3,1 C 7,2 C 4,8 km/h (1 Bft) 95,65 %
02.04.2018 10:08 7,2 C 6,7 C 77 % 1014,6 hPa 0,0 l/m 5,4 km/h (1 Bft) NW 323 1 min 0,000 mm 1,0 UV-I 335 W/m 3,4 C 7,2 C 8,0 km/h (2 Bft) 92,59 %
02.04.2018 10:09 7,3 C 6,7 C 76 % 1014,6 hPa 0,0 l/m 5,6 km/h (1 Bft) NW 319 0 min 0,000 mm 1,3 UV-I 181 W/m 3,4 C 7,3 C 12,9 km/h (3 Bft) 100,00 %
02.04.2018 10:10 7,2 C 6,7 C 75 % 1014,6 hPa 0,0 l/m 3,7 km/h (1 Bft) W-NW 301 1 min 0,000 mm 1,3 UV-I 435 W/m 3,1 C 7,2 C 4,8 km/h (1 Bft) 100,00 %
02.04.2018 10:11 7,3 C 6,7 C 77 % 1014,6 hPa 0,0 l/m 4,7 km/h (1 Bft) NW 323 1 min 0,000 mm 1,4 UV-I 526 W/m 3,5 C 7,3 C 8,0 km/h (2 Bft) 100,00 %
02.04.2018 10:12 7,3 C 6,7 C 77 % 1014,6 hPa 0,0 l/m 5,1 km/h (1 Bft) W-NW 294 1 min 0,000 mm 1,4 UV-I 526 W/m 3,5 C 7,3 C 6,4 km/h (2 Bft) 100,00 %
02.04.2018 10:13 7,4 C 6,7 C 77 % 1014,6 hPa 0,0 l/m 5,2 km/h (1 Bft) N 349 1 min 0,000 mm 1,4 UV-I 538 W/m 3,6 C 7,4 C 6,4 km/h (2 Bft) 100,00 %
02.04.2018 10:14 7,6 C 6,7 C 78 % 1014,6 hPa 0,0 l/m 5,7 km/h (1 Bft) NW 322 1 min 0,000 mm 1,5 UV-I 554 W/m 4,0 C 7,6 C 9,7 km/h (2 Bft) 100,00 %
02.04.2018 10:15 7,6 C 6,7 C 76 % 1014,6 hPa 0,0 l/m 8,4 km/h (2 Bft) W 275 1 min 0,000 mm 1,5 UV-I 547 W/m 3,6 C 6,0 C 11,3 km/h (2 Bft) 100,00 %
02.04.2018 10:16 7,5 C 6,7 C 75 % 1014,6 hPa 0,0 l/m 9,6 km/h (2 Bft) W-SW 244 1 min 0,000 mm 1,5 UV-I 569 W/m 3,4 C 5,1 C 11,3 km/h (2 Bft) 100,00 %
02.04.2018 10:17 7,5 C 6,7 C 75 % 1014,6 hPa 0,0 l/m 9,0 km/h (2 Bft) W-SW 254 1 min 0,000 mm 1,5 UV-I 567 W/m 3,4 C 5,5 C 14,5 km/h (3 Bft) 100,00 %
02.04.2018 10:18 7,6 C 6,7 C 75 % 1014,6 hPa 0,0 l/m 9,3 km/h (2 Bft) W 266 1 min 0,000 mm 1,5 UV-I 562 W/m 3,5 C 5,4 C 12,9 km/h (3 Bft) 100,00 %
02.04.2018 10:19 7,6 C 6,7 C 76 % 1014,6 hPa 0,0 l/m 13,0 km/h (3 Bft) W-NW 288 1 min 0,000 mm 1,5 UV-I 570 W/m 3,6 C 3,2 C 16,1 km/h (3 Bft) 100,00 %
02.04.2018 10:20 7,6 C 6,7 C 74 % 1014,6 hPa 0,0 l/m 4,3 km/h (1 Bft) NW 319 1 min 0,000 mm 1,5 UV-I 572 W/m 3,3 C 7,6 C 6,4 km/h (2 Bft) 100,00 %
02.04.2018 10:21 7,8 C 6,7 C 76 % 1014,6 hPa 0,0 l/m 4,8 km/h (1 Bft) NW 313 1 min 0,000 mm 1,6 UV-I 585 W/m 3,8 C 7,8 C 6,4 km/h (2 Bft) 100,00 %
02.04.2018 10:22 7,8 C 6,7 C 75 % 1014,6 hPa 0,0 l/m 5,4 km/h (1 Bft) W-NW 290 1 min 0,000 mm 1,6 UV-I 592 W/m 3,7 C 7,8 C 8,0 km/h (2 Bft) 95,65 %
02.04.2018 10:23 7,8 C 6,7 C 74 % 1014,7 hPa 0,0 l/m 8,0 km/h (2 Bft) W-NW 302 1 min 0,000 mm 1,6 UV-I 597 W/m 3,5 C 6,5 C 11,3 km/h (2 Bft) 100,00 %
02.04.2018 10:24 7,9 C 6,7 C 74 % 1014,7 hPa 0,0 l/m 5,4 km/h (1 Bft) W 264 1 min 0,000 mm 1,6 UV-I 592 W/m 3,6 C 7,9 C 8,0 km/h (2 Bft) 100,00 %
02.04.2018 10:25 7,9 C 6,7 C 75 % 1014,6 hPa 0,0 l/m 10,1 km/h (2 Bft) W-NW 301 1 min 0,000 mm 1,6 UV-I 600 W/m 3,7 C 5,2 C 12,9 km/h (3 Bft) 100,00 %
02.04.2018 10:26 7,8 C 6,7 C 73 % 1014,6 hPa 0,0 l/m 9,1 km/h (2 Bft) W 277 1 min 0,000 mm 1,6 UV-I 607 W/m 3,3 C 5,8 C 11,3 km/h (2 Bft) 96,30 %
02.04.2018 10:27 7,8 C 6,7 C 73 % 1014,7 hPa 0,0 l/m 8,0 km/h (2 Bft) W 265 1 min 0,000 mm 1,6 UV-I 610 W/m 3,3 C 6,5 C 9,7 km/h (2 Bft) 100,00 %
02.04.2018 10:28 7,7 C 6,7 C 73 % 1014,6 hPa 0,0 l/m 4,7 km/h (1 Bft) W 261 1 min 0,000 mm 1,6 UV-I 420 W/m 3,2 C 7,7 C 6,4 km/h (2 Bft) 100,00 %
02.04.2018 10:29 7,7 C 6,7 C 74 % 1014,6 hPa 0,0 l/m 1,9 km/h (1 Bft) NW 317 1 min 0,000 mm 1,7 UV-I 391 W/m 3,4 C 7,7 C 3,2 km/h (1 Bft) 100,00 %
02.04.2018 10:30 7,9 C 6,7 C 75 % 1014,6 hPa 0,0 l/m 1,3 km/h (1 Bft) N-NW 344 1 min 0,000 mm 1,7 UV-I 546 W/m 3,7 C 7,9 C 3,2 km/h (1 Bft) 100,00 %
02.04.2018 10:31 8,0 C 6,7 C 74 % 1014,6 hPa 0,0 l/m 3,9 km/h (1 Bft) W-NW 299 1 min 0,000 mm 1,7 UV-I 623 W/m 3,7 C 8,0 C 6,4 km/h (2 Bft) 100,00 %
02.04.2018 10:32 8,0 C 6,7 C 72 % 1014,6 hPa 0,0 l/m 7,9 km/h (2 Bft) W-NW 282 1 min 0,000 mm 1,7 UV-I 637 W/m 3,3 C 6,8 C 11,3 km/h (2 Bft) 100,00 %
02.04.2018 10:33 8,0 C 6,7 C 73 % 1014,6 hPa 0,0 l/m 9,9 km/h (2 Bft) W 266 1 min 0,000 mm 1,7 UV-I 670 W/m 3,5 C 5,4 C 12,9 km/h (3 Bft) 100,00 %
02.04.2018 10:34 7,9 C 6,7 C 73 % 1014,6 hPa 0,0 l/m 9,2 km/h (2 Bft) W 273 1 min 0,000 mm 1,8 UV-I 686 W/m 3,4 C 5,8 C 12,9 km/h (3 Bft) 100,00 %
02.04.2018 10:35 7,8 C 6,7 C 72 % 1014,6 hPa 0,0 l/m 7,2 km/h (2 Bft) W 277 1 min 0,000 mm 1,8 UV-I 691 W/m 3,1 C 7,2 C 12,9 km/h (3 Bft) 100,00 %
02.04.2018 10:36 7,8 C 6,7 C 73 % 1014,7 hPa 0,0 l/m 6,3 km/h (2 Bft) W 263 1 min 0,000 mm 1,8 UV-I 725 W/m 3,3 C 7,8 C 9,7 km/h (2 Bft) 100,00 %
02.04.2018 10:37 7,8 C 6,7 C 74 % 1014,6 hPa 0,0 l/m 7,1 km/h (2 Bft) SW 214 1 min 0,000 mm 1,8 UV-I 721 W/m 3,5 C 7,2 C 9,7 km/h (2 Bft) 100,00 %
02.04.2018 10:38 7,9 C 6,7 C 75 % 1014,6 hPa 0,0 l/m 6,2 km/h (2 Bft) W 272 1 min 0,000 mm 1,7 UV-I 714 W/m 3,7 C 7,9 C 9,7 km/h (2 Bft) 100,00 %
02.04.2018 10:39 8,1 C 6,7 C 75 % 1014,6 hPa 0,0 l/m 6,3 km/h (2 Bft) W 269 1 min 0,000 mm 1,6 UV-I 714 W/m 3,9 C 8,1 C 9,7 km/h (2 Bft) 100,00 %
02.04.2018 10:40 8,2 C 6,7 C 75 % 1014,6 hPa 0,0 l/m 4,7 km/h (1 Bft) N-NW 338 1 min 0,000 mm 1,4 UV-I 714 W/m 4,0 C 8,2 C 8,0 km/h (2 Bft) 100,00 %
02.04.2018 10:41 8,2 C 6,7 C 72 % 1014,7 hPa 0,0 l/m 4,7 km/h (1 Bft) W-SW 254 1 min 0,000 mm 1,5 UV-I 705 W/m 3,5 C 8,2 C 8,0 km/h (2 Bft) 100,00 %
02.04.2018 10:42 8,1 C 6,7 C 73 % 1014,6 hPa 0,0 l/m 3,0 km/h (1 Bft) W-SW 257 1 min 0,000 mm 1,6 UV-I 676 W/m 3,6 C 8,1 C 4,8 km/h (1 Bft) 100,00 %
02.04.2018 10:43 8,2 C 6,7 C 73 % 1014,7 hPa 0,0 l/m 6,5 km/h (2 Bft) W-NW 297 1 min 0,000 mm 1,8 UV-I 697 W/m 3,7 C 8,1 C 11,3 km/h (2 Bft) 97,89 %
02.04.2018 10:44 8,2 C 6,7 C 74 % 1014,7 hPa 0,0 l/m 5,6 km/h (1 Bft) NW 319 1 min 0,000 mm 1,7 UV-I 705 W/m 3,8 C 8,2 C 6,4 km/h (2 Bft) 95,45 %
02.04.2018 10:45 8,2 C 6,7 C 73 % 1014,7 hPa 0,0 l/m 7,7 km/h (2 Bft) NW 304 1 min 0,000 mm 1,8 UV-I 657 W/m 3,7 C 7,2 C 11,3 km/h (2 Bft) 100,00 %
02.04.2018 10:46 8,2 C 6,7 C 72 % 1014,7 hPa 0,0 l/m 5,4 km/h (1 Bft) W-NW 292 1 min 0,000 mm 1,9 UV-I 715 W/m 3,5 C 8,2 C 8,0 km/h (2 Bft) 92,31 %
02.04.2018 10:47 8,2 C 6,7 C 73 % 1014,7 hPa 0,0 l/m 6,1 km/h (2 Bft) W-SW 241 1 min 0,000 mm 1,9 UV-I 698 W/m 3,7 C 8,2 C 9,7 km/h (2 Bft) 100,00 %
02.04.2018 10:48 8,3 C 6,7 C 73 % 1014,7 hPa 0,0 l/m 10,6 km/h (2 Bft) W 263 1 min 0,000 mm 2,0 UV-I 712 W/m 3,8 C 5,4 C 12,9 km/h (3 Bft) 100,00 %
02.04.2018 10:49 8,4 C 6,7 C 75 % 1014,7 hPa 0,0 l/m 10,2 km/h (2 Bft) W 270 1 min 0,000 mm 2,0 UV-I 715 W/m 4,2 C 5,7 C 12,9 km/h (3 Bft) 100,00 %
02.04.2018 10:50 8,3 C 6,7 C 70 % 1014,7 hPa 0,0 l/m 5,1 km/h (1 Bft) W-SW 243 1 min 0,000 mm 1,6 UV-I 721 W/m 3,2 C 8,3 C 8,0 km/h (2 Bft) 100,00 %
02.04.2018 10:51 8,1 C 6,7 C 72 % 1014,7 hPa 0,0 l/m 7,2 km/h (2 Bft) W-NW 289 0 min 0,000 mm 1,5 UV-I 304 W/m 3,4 C 7,5 C 11,3 km/h (2 Bft) 100,00 %
02.04.2018 10:52 7,9 C 6,7 C 71 % 1014,7 hPa 0,0 l/m 2,5 km/h (1 Bft) W-NW 300 0 min 0,000 mm 1,9 UV-I 257 W/m 3,0 C 7,9 C 4,8 km/h (1 Bft) 100,00 %
02.04.2018 10:53 7,9 C 6,7 C 73 % 1014,7 hPa 0,0 l/m 4,4 km/h (1 Bft) W-SW 250 0 min 0,000 mm 1,9 UV-I 301 W/m 3,4 C 7,9 C 9,7 km/h (2 Bft) 100,00 %
02.04.2018 10:54 8,0 C 6,7 C 73 % 1014,7 hPa 0,0 l/m 7,8 km/h (2 Bft) W-SW 245 1 min 0,000 mm 2,0 UV-I 722 W/m 3,5 C 6,9 C 12,9 km/h (3 Bft) 100,00 %
02.04.2018 10:55 8,1 C 6,7 C 73 % 1014,7 hPa 0,0 l/m 6,1 km/h (2 Bft) W-SW 249 1 min 0,000 mm 1,9 UV-I 722 W/m 3,6 C 8,1 C 9,7 km/h (2 Bft) 100,00 %
02.04.2018 10:56 8,2 C 6,7 C 73 % 1014,7 hPa 0,0 l/m 6,7 km/h (2 Bft) W-SW 243 1 min 0,000 mm 1,7 UV-I 722 W/m 3,7 C 8,0 C 9,7 km/h (2 Bft) 100,00 %
02.04.2018 10:57 8,2 C 6,7 C 72 % 1014,7 hPa 0,0 l/m 4,9 km/h (1 Bft) W-SW 248 0 min 0,000 mm 1,4 UV-I 337 W/m 3,5 C 8,2 C 6,4 km/h (2 Bft) 100,00 %
02.04.2018 10:58 8,2 C 6,7 C 73 % 1014,7 hPa 0,0 l/m 6,0 km/h (2 Bft) W-SW 244 0 min 0,000 mm 1,3 UV-I 164 W/m 3,7 C 8,2 C 8,0 km/h (2 Bft) 100,00 %
02.04.2018 10:59 8,1 C 6,7 C 73 % 1014,7 hPa 0,0 l/m 6,0 km/h (2 Bft) W 274 0 min 0,000 mm 1,4 UV-I 179 W/m 3,6 C 8,1 C 8,0 km/h (2 Bft) 100,00 %
02.04.2018 11:00 8,1 C 6,7 C 72 % 1014,7 hPa 0,0 l/m 7,1 km/h (2 Bft) W-SW 242 0 min 0,000 mm 2,0 UV-I 179 W/m 3,4 C 7,6 C 11,3 km/h (2 Bft) 100,00 %
02.04.2018 11:01 8,1 C 6,7 C 72 % 1014,7 hPa 0,0 l/m 7,4 km/h (2 Bft) W-SW 238 0 min 0,254 mm 2,0 UV-I 179 W/m 3,4 C 7,3 C 11,3 km/h (2 Bft) 100,00 %
02.04.2018 11:02 8,0 C 6,7 C 72 % 1014,7 hPa 0,0 l/m 3,9 km/h (1 Bft) W-SW 237 0 min 0,000 mm 2,1 UV-I 179 W/m 3,3 C 8,0 C 6,4 km/h (2 Bft) 100,00 %
02.04.2018 11:03 8,0 C 6,7 C 73 % 1014,7 hPa 0,0 l/m 4,4 km/h (1 Bft) SW 216 1 min 0,000 mm 2,1 UV-I 523 W/m 3,5 C 8,0 C 8,0 km/h (2 Bft) 100,00 %
02.04.2018 11:04 8,2 C 6,7 C 74 % 1014,7 hPa 0,0 l/m 7,7 km/h (2 Bft) W-SW 247 1 min 0,000 mm 2,1 UV-I 626 W/m 3,8 C 7,2 C 12,9 km/h (3 Bft) 100,00 %
02.04.2018 11:05 8,3 C 6,7 C 74 % 1014,7 hPa 0,0 l/m 9,0 km/h (2 Bft) W 281 1 min 0,000 mm 2,0 UV-I 643 W/m 3,9 C 6,4 C 11,3 km/h (2 Bft) 100,00 %
02.04.2018 11:06 8,3 C 6,7 C 73 % 1014,7 hPa 0,0 l/m 8,6 km/h (2 Bft) W 271 1 min 0,000 mm 1,5 UV-I 534 W/m 3,8 C 6,6 C 11,3 km/h (2 Bft) 100,00 %
02.04.2018 11:07 8,2 C 6,7 C 71 % 1014,7 hPa 0,0 l/m 6,5 km/h (2 Bft) W 270 0 min 0,000 mm 2,0 UV-I 285 W/m 3,3 C 8,1 C 9,7 km/h (2 Bft) 100,00 %
02.04.2018 11:08 8,1 C 6,7 C 70 % 1014,7 hPa 0,0 l/m 3,2 km/h (1 Bft) NW 304 0 min 0,000 mm 2,1 UV-I 276 W/m 3,0 C 8,1 C 6,4 km/h (2 Bft) 100,00 %
02.04.2018 11:09 8,1 C 6,7 C 72 % 1014,6 hPa 0,0 l/m 2,6 km/h (1 Bft) S-SW 194 1 min 0,000 mm 2,2 UV-I 592 W/m 3,4 C 8,1 C 4,8 km/h (1 Bft) 100,00 %
02.04.2018 11:10 8,1 C 6,7 C 72 % 1014,7 hPa 0,0 l/m 6,7 km/h (2 Bft) W-SW 257 1 min 0,000 mm 2,2 UV-I 694 W/m 3,4 C 7,9 C 11,3 km/h (2 Bft) 100,00 %
02.04.2018 11:11 8,2 C 6,7 C 73 % 1014,6 hPa 0,0 l/m 5,9 km/h (2 Bft) W 261 1 min 0,000 mm 2,2 UV-I 681 W/m 3,7 C 8,2 C 6,4 km/h (2 Bft) 100,00 %
02.04.2018 11:12 8,2 C 6,7 C 71 % 1014,6 hPa 0,0 l/m 3,1 km/h (1 Bft) W-SW 253 1 min 0,000 mm 2,2 UV-I 670 W/m 3,3 C 8,2 C 4,8 km/h (1 Bft) 100,00 %
02.04.2018 11:13 8,2 C 6,7 C 71 % 1014,6 hPa 0,0 l/m 1,8 km/h (1 Bft) NW 311 1 min 0,000 mm 2,2 UV-I 675 W/m 3,3 C 8,2 C 3,2 km/h (1 Bft) 100,00 %
02.04.2018 11:14 8,2 C 6,7 C 70 % 1014,6 hPa 0,0 l/m 3,0 km/h (1 Bft) SW 220 1 min 0,000 mm 2,2 UV-I 670 W/m 3,1 C 8,2 C 6,4 km/h (2 Bft) 100,00 %
02.04.2018 11:15 8,1 C 6,7 C 70 % 1014,6 hPa 0,0 l/m 4,4 km/h (1 Bft) S-SW 206 1 min 0,000 mm 2,2 UV-I 678 W/m 3,0 C 8,1 C 6,4 km/h (2 Bft) 100,00 %
02.04.2018 11:16 8,1 C 6,7 C 71 % 1014,6 hPa 0,0 l/m 6,2 km/h (2 Bft) W 278 1 min 0,000 mm 2,2 UV-I 681 W/m 3,2 C 8,1 C 9,7 km/h (2 Bft) 100,00 %
02.04.2018 11:17 8,2 C 6,7 C 71 % 1014,6 hPa 0,0 l/m 4,8 km/h (1 Bft) W-NW 287 1 min 0,000 mm 2,1 UV-I 710 W/m 3,3 C 8,2 C 6,4 km/h (2 Bft) 85,71 %
02.04.2018 11:18 8,3 C 6,7 C 71 % 1014,6 hPa 0,0 l/m 5,8 km/h (2 Bft) W 260 1 min 0,000 mm 2,0 UV-I 693 W/m 3,4 C 8,3 C 8,0 km/h (2 Bft) 100,00 %
02.04.2018 11:19 8,3 C 6,7 C 72 % 1014,6 hPa 0,0 l/m 2,8 km/h (1 Bft) N 9 1 min 0,000 mm 1,9 UV-I 670 W/m 3,6 C 8,3 C 6,4 km/h (2 Bft) 96,15 %
02.04.2018 11:20 8,3 C 6,7 C 71 % 1014,6 hPa 0,0 l/m 3,3 km/h (1 Bft) N 349 1 min 0,000 mm 1,6 UV-I 429 W/m 3,4 C 8,3 C 6,4 km/h (2 Bft) 95,83 %
02.04.2018 11:21 8,4 C 6,7 C 73 % 1014,6 hPa 0,0 l/m 2,8 km/h (1 Bft) W-SW 238 0 min 0,000 mm 1,6 UV-I 350 W/m 3,8 C 8,4 C 4,8 km/h (1 Bft) 100,00 %
02.04.2018 11:22 8,6 C 6,7 C 72 % 1014,6 hPa 0,0 l/m 4,0 km/h (1 Bft) W-NW 292 1 min 0,000 mm 1,5 UV-I 422 W/m 3,8 C 8,6 C 6,4 km/h (2 Bft) 91,67 %
02.04.2018 11:23 8,5 C 6,7 C 71 % 1014,6 hPa 0,0 l/m 6,4 km/h (2 Bft) NW 321 1 min 0,000 mm 1,4 UV-I 408 W/m 3,5 C 8,5 C 11,3 km/h (2 Bft) 100,00 %
02.04.2018 11:24 8,5 C 6,7 C 71 % 1014,6 hPa 0,0 l/m 12,6 km/h (3 Bft) W-NW 297 0 min 0,000 mm 1,4 UV-I 219 W/m 3,5 C 4,5 C 16,1 km/h (3 Bft) 96,55 %
02.04.2018 11:25 8,4 C 6,7 C 70 % 1014,6 hPa 0,0 l/m 9,7 km/h (2 Bft) W-NW 295 0 min 0,000 mm 1,7 UV-I 229 W/m 3,3 C 6,0 C 11,3 km/h (2 Bft) 100,00 %
02.04.2018 11:26 8,3 C 6,7 C 69 % 1014,6 hPa 0,0 l/m 7,2 km/h (2 Bft) NW 305 0 min 0,000 mm 2,1 UV-I 229 W/m 3,0 C 7,7 C 11,3 km/h (2 Bft) 92,86 %
02.04.2018 11:27 8,3 C 6,7 C 70 % 1014,6 hPa 0,0 l/m 3,9 km/h (1 Bft) W-NW 289 1 min 0,000 mm 2,3 UV-I 690 W/m 3,2 C 8,3 C 4,8 km/h (1 Bft) 97,44 %
02.04.2018 11:28 8,3 C 6,7 C 70 % 1014,6 hPa 0,0 l/m 3,2 km/h (1 Bft) W-NW 288 1 min 0,000 mm 2,2 UV-I 736 W/m 3,2 C 8,3 C 4,8 km/h (1 Bft) 100,00 %
02.04.2018 11:29 8,3 C 6,7 C 70 % 1014,6 hPa 0,0 l/m 3,6 km/h (1 Bft) W-NW 282 1 min 0,000 mm 1,9 UV-I 663 W/m 3,2 C 8,3 C 4,8 km/h (1 Bft) 95,83 %
02.04.2018 11:30 8,4 C 6,7 C 70 % 1014,6 hPa 0,0 l/m 4,7 km/h (1 Bft) NW 323 1 min 0,000 mm 1,6 UV-I 663 W/m 3,3 C 8,4 C 6,4 km/h (2 Bft) 100,00 %
02.04.2018 11:31 8,4 C 6,7 C 70 % 1014,6 hPa 0,0 l/m 3,7 km/h (1 Bft) N-NW 336 1 min 0,000 mm 1,8 UV-I 520 W/m 3,3 C 8,4 C 6,4 km/h (2 Bft) 96,97 %
02.04.2018 11:32 8,4 C 6,7 C 71 % 1014,6 hPa 0,0 l/m 4,8 km/h (1 Bft) N 355 1 min 0,000 mm 2,1 UV-I 442 W/m 3,5 C 8,4 C 6,4 km/h (2 Bft) 100,00 %
02.04.2018 11:33 8,6 C 6,7 C 72 % 1014,6 hPa 0,0 l/m 4,8 km/h (1 Bft) N 355 1 min 0,000 mm 2,4 UV-I 438 W/m 3,8 C 8,6 C 6,4 km/h (2 Bft) 91,67 %
02.04.2018 11:34 8,7 C 6,7 C 72 % 1014,5 hPa 0,0 l/m 5,5 km/h (1 Bft) N 355 1 min 0,000 mm 2,5 UV-I 438 W/m 3,9 C 8,7 C 6,4 km/h (2 Bft) 100,00 %
02.04.2018 11:35 8,8 C 6,7 C 72 % 1014,5 hPa 0,0 l/m 2,9 km/h (1 Bft) N 355 1 min 0,000 mm 2,5 UV-I 438 W/m 4,0 C 8,8 C 4,8 km/h (1 Bft) 93,33 %
02.04.2018 11:36 8,8 C 6,7 C 69 % 1014,5 hPa 0,0 l/m 2,8 km/h (1 Bft) N 5 1 min 0,000 mm 2,5 UV-I 611 W/m 3,4 C 8,8 C 4,8 km/h (1 Bft) 92,31 %
02.04.2018 11:37 8,8 C 6,7 C 71 % 1014,5 hPa 0,0 l/m 3,0 km/h (1 Bft) N-NO 25 1 min 0,000 mm 2,5 UV-I 736 W/m 3,8 C 8,8 C 4,8 km/h (1 Bft) 100,00 %
02.04.2018 11:38 8,9 C 6,7 C 72 % 1014,6 hPa 0,0 l/m 3,8 km/h (1 Bft) N-NO 26 1 min 0,000 mm 2,5 UV-I 743 W/m 4,1 C 8,9 C 4,8 km/h (1 Bft) 100,00 %
02.04.2018 11:39 9,0 C 6,7 C 71 % 1014,5 hPa 0,0 l/m 2,8 km/h (1 Bft) N-NO 26 1 min 0,000 mm 2,4 UV-I 687 W/m 4,0 C 9,0 C 4,8 km/h (1 Bft) 100,00 %
02.04.2018 11:40 9,1 C 6,7 C 72 % 1014,5 hPa 0,0 l/m 4,4 km/h (1 Bft) SW 230 1 min 0,000 mm 2,1 UV-I 660 W/m 4,3 C 9,1 C 8,0 km/h (2 Bft) 95,65 %
02.04.2018 11:41 9,0 C 6,7 C 69 % 1014,5 hPa 0,0 l/m 3,8 km/h (1 Bft) W 263 1 min 0,000 mm 2,2 UV-I 594 W/m 3,6 C 9,0 C 11,3 km/h (2 Bft) 100,00 %
02.04.2018 11:42 8,8 C 6,7 C 67 % 1014,5 hPa 0,0 l/m 3,8 km/h (1 Bft) W-SW 252 1 min 0,000 mm 2,2 UV-I 595 W/m 3,0 C 8,8 C 6,4 km/h (2 Bft) 95,65 %
02.04.2018 11:43 8,8 C 6,7 C 68 % 1014,5 hPa 0,0 l/m 4,8 km/h (1 Bft) SW 232 1 min 0,000 mm 2,0 UV-I 580 W/m 3,2 C 8,8 C 8,0 km/h (2 Bft) 100,00 %
02.04.2018 11:44 8,8 C 6,7 C 69 % 1014,4 hPa 0,0 l/m 4,2 km/h (1 Bft) S-SW 211 1 min 0,000 mm 1,6 UV-I 580 W/m 3,4 C 8,8 C 6,4 km/h (2 Bft) 100,00 %
02.04.2018 11:45 8,7 C 6,7 C 69 % 1014,4 hPa 0,0 l/m 4,1 km/h (1 Bft) S-SW 196 0 min 0,000 mm 1,7 UV-I 267 W/m 3,3 C 8,7 C 4,8 km/h (1 Bft) 96,15 %
02.04.2018 11:46 8,5 C 6,7 C 68 % 1014,4 hPa 0,0 l/m 8,3 km/h (2 Bft) S-SO 167 0 min 0,000 mm 1,7 UV-I 254 W/m 2,9 C 7,1 C 11,3 km/h (2 Bft) 100,00 %
02.04.2018 11:48 8,2 C 6,7 C 70 % 1014,3 hPa 0,0 l/m 7,4 km/h (2 Bft) SO 142 0 min 0,000 mm 1,7 UV-I 248 W/m 3,1 C 7,4 C 9,7 km/h (2 Bft) 97,96 %
02.04.2018 11:49 8,2 C 6,7 C 71 % 1014,3 hPa 0,0 l/m 6,2 km/h (2 Bft) SO 141 0 min 0,000 mm 2,1 UV-I 289 W/m 3,3 C 8,2 C 8,0 km/h (2 Bft) 100,00 %
02.04.2018 11:50 8,2 C 6,7 C 72 % 1014,4 hPa 0,0 l/m 4,1 km/h (1 Bft) S-SO 148 0 min 0,000 mm 2,0 UV-I 295 W/m 3,5 C 8,2 C 6,4 km/h (2 Bft) 100,00 %
02.04.2018 11:51 8,4 C 6,7 C 72 % 1014,3 hPa 0,0 l/m 4,2 km/h (1 Bft) S 186 0 min 0,000 mm 2,4 UV-I 355 W/m 3,7 C 8,4 C 4,8 km/h (1 Bft) 100,00 %
02.04.2018 11:52 8,5 C 6,7 C 71 % 1014,3 hPa 0,0 l/m 2,1 km/h (1 Bft) S 186 1 min 0,000 mm 2,3 UV-I 712 W/m 3,5 C 8,5 C 4,8 km/h (1 Bft) 100,00 %
02.04.2018 11:53 8,6 C 6,7 C 71 % 1014,3 hPa 0,0 l/m 1,9 km/h (1 Bft) SW 235 1 min 0,000 mm 2,3 UV-I 624 W/m 3,6 C 8,6 C 3,2 km/h (1 Bft) 100,00 %
02.04.2018 11:54 8,7 C 6,7 C 71 % 1014,4 hPa 0,0 l/m 3,6 km/h (1 Bft) W-SW 239 1 min 0,000 mm 2,0 UV-I 504 W/m 3,7 C 8,7 C 8,0 km/h (2 Bft) 100,00 %
02.04.2018 11:55 8,8 C 6,7 C 70 % 1014,3 hPa 0,0 l/m 8,2 km/h (2 Bft) W 271 1 min 0,000 mm 2,2 UV-I 490 W/m 3,6 C 7,5 C 11,3 km/h (2 Bft) 100,00 %
02.04.2018 11:56 8,9 C 6,7 C 69 % 1014,4 hPa 0,0 l/m 8,7 km/h (2 Bft) W 263 1 min 0,000 mm 2,4 UV-I 658 W/m 3,5 C 7,2 C 11,3 km/h (2 Bft) 100,00 %
02.04.2018 11:57 8,8 C 6,7 C 67 % 1014,4 hPa 0,0 l/m 9,1 km/h (2 Bft) W 271 1 min 0,000 mm 2,4 UV-I 675 W/m 3,0 C 6,8 C 11,3 km/h (2 Bft) 100,00 %
02.04.2018 11:58 8,8 C 6,7 C 68 % 1014,4 hPa 0,0 l/m 5,2 km/h (1 Bft) W 261 1 min 0,000 mm 2,5 UV-I 683 W/m 3,2 C 8,8 C 9,7 km/h (2 Bft) 100,00 %
02.04.2018 11:59 8,8 C 6,7 C 68 % 1014,4 hPa 0,0 l/m 3,4 km/h (1 Bft) W 261 1 min 0,000 mm 2,5 UV-I 679 W/m 3,2 C 8,8 C 4,8 km/h (1 Bft) 100,00 %
02.04.2018 12:00 8,8 C 6,7 C 70 % 1014,4 hPa 0,0 l/m 4,9 km/h (1 Bft) W 265 1 min 0,000 mm 2,5 UV-I 676 W/m 3,6 C 8,8 C 6,4 km/h (2 Bft) 100,00 %
02.04.2018 12:01 8,9 C 6,7 C 68 % 1014,3 hPa 0,0 l/m 4,8 km/h (1 Bft) W 275 1 min 0,254 mm 2,5 UV-I 674 W/m 3,3 C 8,9 C 6,4 km/h (2 Bft) 100,00 %
02.04.2018 12:02 8,9 C 6,7 C 67 % 1014,3 hPa 0,0 l/m 3,0 km/h (1 Bft) SW 232 1 min 0,000 mm 2,5 UV-I 675 W/m 3,1 C 8,9 C 6,4 km/h (2 Bft) 100,00 %
02.04.2018 12:03 8,9 C 6,7 C 67 % 1014,2 hPa 0,0 l/m 1,4 km/h (1 Bft) SW 235 1 min 0,000 mm 2,5 UV-I 671 W/m 3,1 C 8,9 C 3,2 km/h (1 Bft) 100,00 %
02.04.2018 12:04 8,9 C 6,7 C 66 % 1014,2 hPa 0,0 l/m 1,6 km/h (1 Bft) SW 234 1 min 0,000 mm 2,1 UV-I 671 W/m 2,9 C 8,9 C 3,2 km/h (1 Bft) 100,00 %
02.04.2018 12:05 8,9 C 6,7 C 66 % 1014,2 hPa 0,0 l/m 1,5 km/h (1 Bft) SW 231 1 min 0,000 mm 2,6 UV-I 678 W/m 2,9 C 8,9 C 4,8 km/h (1 Bft) 95,83 %
02.04.2018 12:06 9,0 C 6,7 C 66 % 1014,2 hPa 0,0 l/m 3,9 km/h (1 Bft) W 280 1 min 0,000 mm 2,6 UV-I 686 W/m 3,0 C 9,0 C 6,4 km/h (2 Bft) 100,00 %
02.04.2018 12:07 9,0 C 6,7 C 66 % 1014,2 hPa 0,0 l/m 3,8 km/h (1 Bft) W 281 1 min 0,000 mm 2,6 UV-I 694 W/m 3,0 C 9,0 C 4,8 km/h (1 Bft) 96,30 %
02.04.2018 12:08 9,1 C 6,7 C 66 % 1014,2 hPa 0,0 l/m 1,7 km/h (1 Bft) W 270 1 min 0,000 mm 2,7 UV-I 708 W/m 3,1 C 9,1 C 3,2 km/h (1 Bft) 100,00 %
02.04.2018 12:09 9,1 C 6,7 C 65 % 1014,1 hPa 0,0 l/m 0,6 km/h (0 Bft) W 270 1 min 0,000 mm 2,7 UV-I 730 W/m 2,9 C 9,1 C 3,2 km/h (1 Bft) 100,00 %
02.04.2018 12:10 9,1 C 6,7 C 64 % 1014,1 hPa 0,0 l/m 3,9 km/h (1 Bft) O 99 1 min 0,000 mm 2,7 UV-I 725 W/m 2,7 C 9,1 C 6,4 km/h (2 Bft) 100,00 %
02.04.2018 12:11 9,0 C 6,7 C 64 % 1014,1 hPa 0,0 l/m 4,7 km/h (1 Bft) O-SO 111 1 min 0,000 mm 2,7 UV-I 716 W/m 2,6 C 9,0 C 4,8 km/h (1 Bft) 100,00 %
02.04.2018 12:12 8,9 C 6,7 C 65 % 1014,1 hPa 0,0 l/m 4,2 km/h (1 Bft) O-SO 113 1 min 0,000 mm 2,7 UV-I 722 W/m 2,7 C 8,9 C 6,4 km/h (2 Bft) 100,00 %
02.04.2018 12:13 8,9 C 6,7 C 66 % 1014,1 hPa 0,0 l/m 1,0 km/h (0 Bft) O-SO 113 1 min 0,000 mm 2,7 UV-I 723 W/m 2,9 C 8,9 C 3,2 km/h (1 Bft) 98,04 %
02.04.2018 12:14 9,0 C 6,7 C 67 % 1014,1 hPa 0,0 l/m 0,8 km/h (0 Bft) O-SO 113 1 min 0,000 mm 2,7 UV-I 737 W/m 3,2 C 9,0 C 1,6 km/h (1 Bft) 100,00 %
02.04.2018 12:15 9,0 C 6,7 C 66 % 1014,1 hPa 0,0 l/m 2,1 km/h (1 Bft) SW 223 1 min 0,000 mm 2,8 UV-I 699 W/m 3,0 C 9,0 C 9,7 km/h (2 Bft) 100,00 %
02.04.2018 12:16 9,2 C 6,7 C 67 % 1014,0 hPa 0,0 l/m 8,0 km/h (2 Bft) W 259 1 min 0,000 mm 2,8 UV-I 738 W/m 3,4 C 8,0 C 11,3 km/h (2 Bft) 100,00 %
02.04.2018 12:17 9,3 C 6,7 C 67 % 1014,1 hPa 0,0 l/m 5,2 km/h (1 Bft) W 270 1 min 0,000 mm 2,8 UV-I 730 W/m 3,5 C 9,3 C 8,0 km/h (2 Bft) 100,00 %
02.04.2018 12:18 9,3 C 6,7 C 65 % 1014,0 hPa 0,0 l/m 5,6 km/h (1 Bft) W-SW 238 1 min 0,000 mm 2,8 UV-I 740 W/m 3,1 C 9,3 C 6,4 km/h (2 Bft) 100,00 %
02.04.2018 12:19 9,3 C 6,7 C 63 % 1014,0 hPa 0,0 l/m 2,2 km/h (1 Bft) N-NW 331 1 min 0,000 mm 2,8 UV-I 746 W/m 2,6 C 9,3 C 6,4 km/h (2 Bft) 95,65 %
02.04.2018 12:20 9,3 C 6,7 C 64 % 1014,0 hPa 0,0 l/m 6,6 km/h (2 Bft) SW 235 1 min 0,000 mm 2,8 UV-I 749 W/m 2,8 C 9,2 C 8,0 km/h (2 Bft) 100,00 %
02.04.2018 12:21 9,3 C 6,7 C 64 % 1014,1 hPa 0,0 l/m 1,9 km/h (1 Bft) SW 236 1 min 0,000 mm 2,8 UV-I 751 W/m 2,8 C 9,3 C 3,2 km/h (1 Bft) 100,00 %
02.04.2018 12:22 9,4 C 6,7 C 64 % 1014,0 hPa 0,0 l/m 4,3 km/h (1 Bft) W-SW 254 1 min 0,000 mm 2,8 UV-I 747 W/m 2,9 C 9,4 C 8,0 km/h (2 Bft) 100,00 %
02.04.2018 12:23 9,4 C 6,7 C 63 % 1014,0 hPa 0,0 l/m 5,4 km/h (1 Bft) SW 215 1 min 0,000 mm 2,8 UV-I 751 W/m 2,7 C 9,4 C 8,0 km/h (2 Bft) 96,15 %
02.04.2018 12:24 9,4 C 6,7 C 66 % 1014,0 hPa 0,0 l/m 7,2 km/h (2 Bft) S-SW 200 1 min 0,000 mm 2,9 UV-I 752 W/m 3,4 C 8,8 C 8,0 km/h (2 Bft) 100,00 %
02.04.2018 12:25 9,6 C 6,7 C 64 % 1014,0 hPa 0,0 l/m 5,6 km/h (1 Bft) S-SO 159 1 min 0,000 mm 2,8 UV-I 748 W/m 3,1 C 9,6 C 8,0 km/h (2 Bft) 100,00 %
02.04.2018 12:26 9,6 C 6,7 C 66 % 1014,0 hPa 0,0 l/m 6,7 km/h (2 Bft) W-SW 242 1 min 0,000 mm 2,8 UV-I 740 W/m 3,6 C 9,4 C 9,7 km/h (2 Bft) 100,00 %
02.04.2018 12:27 9,7 C 6,7 C 65 % 1014,0 hPa 0,0 l/m 3,8 km/h (1 Bft) W-SW 241 1 min 0,000 mm 2,8 UV-I 744 W/m 3,4 C 9,7 C 4,8 km/h (1 Bft) 100,00 %
02.04.2018 12:28 9,8 C 6,7 C 68 % 1014,0 hPa 0,0 l/m 2,3 km/h (1 Bft) W-SW 241 1 min 0,000 mm 2,9 UV-I 740 W/m 4,2 C 9,8 C 3,2 km/h (1 Bft) 100,00 %
02.04.2018 12:29 9,8 C 6,7 C 65 % 1014,0 hPa 0,0 l/m 0,5 km/h (0 Bft) S 178 1 min 0,000 mm 2,9 UV-I 739 W/m 3,5 C 9,8 C 4,8 km/h (1 Bft) 100,00 %
02.04.2018 12:30 9,7 C 6,7 C 63 % 1014,0 hPa 0,0 l/m 4,8 km/h (1 Bft) S 175 1 min 0,000 mm 2,9 UV-I 738 W/m 3,0 C 9,7 C 6,4 km/h (2 Bft) 100,00 %
02.04.2018 12:31 9,7 C 6,7 C 65 % 1013,9 hPa 0,0 l/m 6,6 km/h (2 Bft) S-SO 158 1 min 0,000 mm 2,9 UV-I 737 W/m 3,4 C 9,6 C 9,7 km/h (2 Bft) 95,65 %
02.04.2018 12:32 9,6 C 6,7 C 63 % 1013,9 hPa 0,0 l/m 5,8 km/h (2 Bft) S 170 1 min 0,000 mm 2,9 UV-I 739 W/m 2,9 C 9,6 C 8,0 km/h (2 Bft) 100,00 %
02.04.2018 12:33 9,6 C 6,7 C 63 % 1013,9 hPa 0,0 l/m 8,1 km/h (2 Bft) SO 138 1 min 0,000 mm 2,9 UV-I 734 W/m 2,9 C 8,4 C 12,9 km/h (3 Bft) 100,00 %
02.04.2018 12:34 9,6 C 6,7 C 63 % 1013,9 hPa 0,0 l/m 8,7 km/h (2 Bft) S 180 1 min 0,000 mm 2,9 UV-I 730 W/m 2,9 C 8,0 C 12,9 km/h (3 Bft) 100,00 %
02.04.2018 12:35 9,7 C 6,7 C 63 % 1013,9 hPa 0,0 l/m 6,1 km/h (2 Bft) SW 215 1 min 0,000 mm 2,9 UV-I 739 W/m 3,0 C 9,7 C 8,0 km/h (2 Bft) 95,65 %
02.04.2018 12:36 9,8 C 6,7 C 67 % 1013,9 hPa 0,0 l/m 2,5 km/h (1 Bft) SW 217 1 min 0,000 mm 2,9 UV-I 749 W/m 4,0 C 9,8 C 4,8 km/h (1 Bft) 100,00 %
02.04.2018 12:37 10,1 C 6,7 C 66 % 1013,9 hPa 0,0 l/m 2,7 km/h (1 Bft) SO 145 1 min 0,000 mm 2,9 UV-I 760 W/m 4,0 C 10,1 C 4,8 km/h (1 Bft) 100,00 %
02.04.2018 12:38 10,2 C 6,7 C 63 % 1013,9 hPa 0,0 l/m 1,3 km/h (1 Bft) SO 145 1 min 0,000 mm 2,9 UV-I 759 W/m 3,5 C 10,2 C 3,2 km/h (1 Bft) 100,00 %
02.04.2018 12:39 10,1 C 6,7 C 62 % 1013,9 hPa 0,0 l/m 0,6 km/h (0 Bft) SO 145 1 min 0,000 mm 2,9 UV-I 762 W/m 3,2 C 10,1 C 3,2 km/h (1 Bft) 100,00 %
02.04.2018 12:40 10,1 C 6,7 C 62 % 1013,9 hPa 0,0 l/m 1,4 km/h (1 Bft) SO 145 1 min 0,000 mm 3,0 UV-I 767 W/m 3,2 C 10,1 C 3,2 km/h (1 Bft) 100,00 %
02.04.2018 12:41 9,9 C 6,7 C 63 % 1013,8 hPa 0,0 l/m 2,0 km/h (1 Bft) SO 145 1 min 0,000 mm 3,0 UV-I 769 W/m 3,2 C 9,9 C 3,2 km/h (1 Bft) 100,00 %
02.04.2018 12:42 10,0 C 6,7 C 65 % 1013,7 hPa 0,0 l/m 3,7 km/h (1 Bft) N 11 1 min 0,000 mm 3,0 UV-I 774 W/m 3,7 C 10,0 C 4,8 km/h (1 Bft) 100,00 %
02.04.2018 12:43 10,2 C 6,7 C 69 % 1013,7 hPa 0,0 l/m 4,2 km/h (1 Bft) O-NO 57 1 min 0,000 mm 3,0 UV-I 786 W/m 4,8 C 10,2 C 8,0 km/h (2 Bft) 100,00 %
02.04.2018 12:44 10,3 C 6,7 C 63 % 1013,6 hPa 0,0 l/m 5,4 km/h (1 Bft) N-NO 14 1 min 0,000 mm 3,0 UV-I 783 W/m 3,6 C 10,3 C 6,4 km/h (2 Bft) 100,00 %
02.04.2018 12:45 10,4 C 6,7 C 66 % 1013,7 hPa 0,0 l/m 8,9 km/h (2 Bft) N-NW 343 1 min 0,000 mm 3,0 UV-I 788 W/m 4,3 C 8,7 C 12,9 km/h (3 Bft) 100,00 %
02.04.2018 12:46 10,4 C 6,7 C 64 % 1013,6 hPa 0,0 l/m 6,5 km/h (2 Bft) N 5 1 min 0,000 mm 3,0 UV-I 792 W/m 3,9 C 10,4 C 8,0 km/h (2 Bft) 100,00 %
02.04.2018 12:47 10,4 C 6,7 C 65 % 1013,6 hPa 0,0 l/m 4,4 km/h (1 Bft) N 11 1 min 0,000 mm 3,0 UV-I 801 W/m 4,1 C 10,4 C 6,4 km/h (2 Bft) 100,00 %
02.04.2018 12:48 10,4 C 6,7 C 64 % 1013,6 hPa 0,0 l/m 4,9 km/h (1 Bft) N 11 1 min 0,000 mm 3,0 UV-I 801 W/m 3,9 C 10,4 C 6,4 km/h (2 Bft) 100,00 %
02.04.2018 12:49 10,3 C 6,7 C 61 % 1013,6 hPa 0,0 l/m 5,0 km/h (1 Bft) NW 312 1 min 0,000 mm 3,0 UV-I 790 W/m 3,1 C 10,3 C 8,0 km/h (2 Bft) 100,00 %
02.04.2018 12:50 10,3 C 6,7 C 62 % 1013,6 hPa 0,0 l/m 5,7 km/h (1 Bft) NW 315 1 min 0,000 mm 3,0 UV-I 772 W/m 3,3 C 10,3 C 8,0 km/h (2 Bft) 100,00 %
02.04.2018 12:51 10,3 C 6,7 C 63 % 1013,6 hPa 0,0 l/m 3,4 km/h (1 Bft) W-SW 257 1 min 0,000 mm 3,0 UV-I 767 W/m 3,6 C 10,3 C 4,8 km/h (1 Bft) 100,00 %
02.04.2018 12:52 10,3 C 6,7 C 61 % 1013,6 hPa 0,0 l/m 7,2 km/h (2 Bft) SW 223 1 min 0,000 mm 3,0 UV-I 765 W/m 3,1 C 9,7 C 9,7 km/h (2 Bft) 100,00 %
02.04.2018 12:53 10,3 C 6,7 C 61 % 1013,6 hPa 0,0 l/m 7,6 km/h (2 Bft) S-SW 205 1 min 0,000 mm 3,0 UV-I 765 W/m 3,1 C 9,4 C 11,3 km/h (2 Bft) 100,00 %
02.04.2018 12:54 10,3 C 6,7 C 62 % 1013,6 hPa 0,0 l/m 2,1 km/h (1 Bft) SW 227 1 min 0,000 mm 3,0 UV-I 763 W/m 3,3 C 10,3 C 4,8 km/h (1 Bft) 96,15 %
02.04.2018 12:55 10,2 C 6,7 C 61 % 1013,6 hPa 0,0 l/m 3,2 km/h (1 Bft) SW 221 1 min 0,000 mm 3,0 UV-I 765 W/m 3,0 C 10,2 C 4,8 km/h (1 Bft) 100,00 %
02.04.2018 12:56 10,2 C 6,7 C 60 % 1013,5 hPa 0,0 l/m 5,0 km/h (1 Bft) W 263 1 min 0,000 mm 3,0 UV-I 771 W/m 2,8 C 10,2 C 6,4 km/h (2 Bft) 100,00 %
02.04.2018 12:58 10,2 C 6,7 C 60 % 1013,5 hPa 0,0 l/m 10,5 km/h (2 Bft) SW 217 2 min 0,000 mm 3,0 UV-I 779 W/m 2,8 C 7,5 C 14,5 km/h (3 Bft) 98,36 %
02.04.2018 12:59 10,2 C 6,7 C 61 % 1013,5 hPa 0,0 l/m 8,0 km/h (2 Bft) W-SW 240 1 min 0,000 mm 3,0 UV-I 764 W/m 3,0 C 9,1 C 11,3 km/h (2 Bft) 91,67 %
02.04.2018 13:00 10,3 C 6,7 C 62 % 1013,5 hPa 0,0 l/m 9,4 km/h (2 Bft) S-SW 200 1 min 0,356 mm 3,0 UV-I 758 W/m 3,3 C 8,3 C 12,9 km/h (3 Bft) 100,00 %
02.04.2018 13:01 10,4 C 6,7 C 61 % 1013,4 hPa 0,0 l/m 8,2 km/h (2 Bft) SW 230 1 min 0,000 mm 3,0 UV-I 758 W/m 3,2 C 9,1 C 11,3 km/h (2 Bft) 91,30 %
02.04.2018 13:02 10,5 C 6,7 C 61 % 1013,4 hPa 0,0 l/m 5,7 km/h (1 Bft) W-SW 244 1 min 0,000 mm 3,0 UV-I 754 W/m 3,3 C 10,5 C 6,4 km/h (2 Bft) 96,30 %
02.04.2018 13:03 10,6 C 6,7 C 60 % 1013,4 hPa 0,0 l/m 5,0 km/h (1 Bft) S-SW 210 1 min 0,000 mm 3,0 UV-I 751 W/m 3,2 C 10,6 C 8,0 km/h (2 Bft) 100,00 %
02.04.2018 13:04 10,6 C 6,7 C 62 % 1013,4 hPa 0,0 l/m 4,1 km/h (1 Bft) SW 232 1 min 0,000 mm 3,0 UV-I 750 W/m 3,6 C 10,6 C 6,4 km/h (2 Bft) 100,00 %
02.04.2018 13:05 10,7 C 6,7 C 62 % 1013,3 hPa 0,0 l/m 4,0 km/h (1 Bft) S 188 1 min 0,000 mm 3,0 UV-I 756 W/m 3,7 C 10,7 C 4,8 km/h (1 Bft) 96,55 %
02.04.2018 13:06 10,7 C 6,7 C 60 % 1013,3 hPa 0,0 l/m 8,5 km/h (2 Bft) SW 236 1 min 0,000 mm 3,0 UV-I 755 W/m 3,3 C 9,3 C 16,1 km/h (3 Bft) 96,67 %
02.04.2018 13:07 10,8 C 6,7 C 61 % 1013,3 hPa 0,0 l/m 13,7 km/h (3 Bft) W 274 1 min 0,000 mm 3,0 UV-I 755 W/m 3,6 C 6,7 C 19,3 km/h (3 Bft) 100,00 %
02.04.2018 13:08 10,7 C 6,7 C 59 % 1013,3 hPa 0,0 l/m 6,4 km/h (2 Bft) W 273 1 min 0,000 mm 3,0 UV-I 752 W/m 3,0 C 10,7 C 11,3 km/h (2 Bft) 92,59 %
02.04.2018 13:09 10,6 C 6,7 C 61 % 1013,3 hPa 0,0 l/m 4,5 km/h (1 Bft) NW 315 1 min 0,000 mm 3,0 UV-I 750 W/m 3,4 C 10,6 C 6,4 km/h (2 Bft) 91,67 %
02.04.2018 13:10 10,5 C 6,7 C 61 % 1013,3 hPa 0,0 l/m 6,9 km/h (2 Bft) NW 321 1 min 0,000 mm 3,0 UV-I 747 W/m 3,3 C 10,2 C 12,9 km/h (3 Bft) 97,56 %
02.04.2018 13:11 10,5 C 6,7 C 60 % 1013,3 hPa 0,0 l/m 5,4 km/h (1 Bft) N-NO 21 1 min 0,000 mm 3,0 UV-I 743 W/m 3,1 C 10,5 C 6,4 km/h (2 Bft) 100,00 %
02.04.2018 13:12 10,6 C 6,7 C 65 % 1013,3 hPa 0,0 l/m 4,5 km/h (1 Bft) W-NW 290 1 min 0,000 mm 3,0 UV-I 744 W/m 4,3 C 10,6 C 8,0 km/h (2 Bft) 92,86 %
02.04.2018 13:13 10,6 C 6,7 C 62 % 1013,2 hPa 0,0 l/m 4,4 km/h (1 Bft) W 259 1 min 0,000 mm 3,0 UV-I 745 W/m 3,6 C 10,6 C 9,7 km/h (2 Bft) 97,37 %
02.04.2018 13:14 10,6 C 6,7 C 61 % 1013,2 hPa 0,0 l/m 6,3 km/h (2 Bft) W-NW 300 1 min 0,000 mm 3,0 UV-I 746 W/m 3,4 C 10,6 C 12,9 km/h (3 Bft) 100,00 %
02.04.2018 13:15 10,6 C 6,7 C 61 % 1013,2 hPa 0,0 l/m 0,9 km/h (0 Bft) W-NW 302 1 min 0,000 mm 3,0 UV-I 747 W/m 3,4 C 10,6 C 3,2 km/h (1 Bft) 95,65 %
02.04.2018 13:16 10,4 C 6,7 C 58 % 1013,2 hPa 0,0 l/m 4,9 km/h (1 Bft) N 5 1 min 0,000 mm 3,0 UV-I 747 W/m 2,5 C 10,4 C 6,4 km/h (2 Bft) 100,00 %
02.04.2018 13:17 10,5 C 6,7 C 64 % 1013,2 hPa 0,0 l/m 3,5 km/h (1 Bft) NW 319 1 min 0,000 mm 3,0 UV-I 750 W/m 4,0 C 10,5 C 4,8 km/h (1 Bft) 91,67 %
02.04.2018 13:18 10,6 C 6,7 C 61 % 1013,1 hPa 0,0 l/m 4,4 km/h (1 Bft) NW 311 1 min 0,000 mm 3,0 UV-I 752 W/m 3,4 C 10,6 C 6,4 km/h (2 Bft) 100,00 %
02.04.2018 13:19 10,7 C 6,7 C 61 % 1013,1 hPa 0,0 l/m 6,0 km/h (2 Bft) W-SW 248 1 min 0,000 mm 3,0 UV-I 751 W/m 3,5 C 10,7 C 9,7 km/h (2 Bft) 96,30 %
02.04.2018 13:20 10,7 C 6,7 C 58 % 1013,1 hPa 0,0 l/m 5,5 km/h (1 Bft) S-SW 213 1 min 0,000 mm 3,0 UV-I 753 W/m 2,8 C 10,7 C 8,0 km/h (2 Bft) 96,15 %
02.04.2018 13:21 10,8 C 6,7 C 61 % 1013,1 hPa 0,0 l/m 1,0 km/h (0 Bft) S-SW 213 1 min 0,000 mm 3,0 UV-I 752 W/m 3,6 C 10,8 C 3,2 km/h (1 Bft) 100,00 %
02.04.2018 13:22 10,8 C 6,7 C 60 % 1013,1 hPa 0,0 l/m 5,6 km/h (1 Bft) W 261 1 min 0,000 mm 3,0 UV-I 748 W/m 3,4 C 10,8 C 11,3 km/h (2 Bft) 95,65 %
02.04.2018 13:23 10,9 C 6,7 C 58 % 1013,1 hPa 0,0 l/m 6,6 km/h (2 Bft) W-SW 258 1 min 0,000 mm 3,0 UV-I 744 W/m 3,0 C 10,8 C 12,9 km/h (3 Bft) 93,33 %
02.04.2018 13:24 10,9 C 6,7 C 60 % 1013,1 hPa 0,0 l/m 6,8 km/h (2 Bft) S-SW 200 1 min 0,000 mm 3,0 UV-I 744 W/m 3,4 C 10,6 C 11,3 km/h (2 Bft) 95,65 %
02.04.2018 13:25 11,1 C 6,7 C 59 % 1013,1 hPa 0,0 l/m 8,4 km/h (2 Bft) SW 216 1 min 0,000 mm 3,0 UV-I 740 W/m 3,4 C 9,8 C 11,3 km/h (2 Bft) 100,00 %
02.04.2018 13:26 11,2 C 6,7 C 59 % 1013,0 hPa 0,0 l/m 8,9 km/h (2 Bft) W 277 1 min 0,000 mm 2,9 UV-I 738 W/m 3,5 C 9,6 C 16,1 km/h (3 Bft) 100,00 %
02.04.2018 13:27 11,3 C 6,7 C 61 % 1013,0 hPa 0,0 l/m 11,0 km/h (2 Bft) W-SW 242 1 min 0,000 mm 3,0 UV-I 740 W/m 4,1 C 8,5 C 14,5 km/h (3 Bft) 92,59 %
02.04.2018 13:28 11,3 C 6,7 C 59 % 1013,1 hPa 0,0 l/m 3,7 km/h (1 Bft) W-SW 252 1 min 0,000 mm 3,0 UV-I 735 W/m 3,6 C 11,3 C 6,4 km/h (2 Bft) 100,00 %
02.04.2018 13:29 11,2 C 6,7 C 56 % 1013,0 hPa 0,0 l/m 2,0 km/h (1 Bft) S-SW 211 1 min 0,000 mm 2,9 UV-I 731 W/m 2,8 C 11,2 C 3,2 km/h (1 Bft) 100,00 %
02.04.2018 13:30 11,0 C 6,7 C 57 % 1013,0 hPa 0,0 l/m 3,4 km/h (1 Bft) W-SW 248 1 min 0,000 mm 2,9 UV-I 726 W/m 2,8 C 11,0 C 4,8 km/h (1 Bft) 100,00 %
02.04.2018 13:31 10,9 C 6,7 C 58 % 1013,0 hPa 0,0 l/m 1,9 km/h (1 Bft) W-SW 250 1 min 0,000 mm 2,9 UV-I 731 W/m 3,0 C 10,9 C 3,2 km/h (1 Bft) 100,00 %
02.04.2018 13:32 10,8 C 6,7 C 55 % 1013,0 hPa 0,0 l/m 2,1 km/h (1 Bft) N-NW 345 1 min 0,000 mm 3,0 UV-I 738 W/m 2,1 C 10,8 C 3,2 km/h (1 Bft) 91,67 %
02.04.2018 13:33 10,9 C 6,7 C 59 % 1013,0 hPa 0,0 l/m 4,4 km/h (1 Bft) NW 322 1 min 0,000 mm 3,0 UV-I 738 W/m 3,2 C 10,9 C 6,4 km/h (2 Bft) 96,15 %
02.04.2018 13:34 11,0 C 6,7 C 59 % 1013,0 hPa 0,0 l/m 8,2 km/h (2 Bft) W-SW 254 1 min 0,000 mm 3,0 UV-I 734 W/m 3,3 C 9,8 C 12,9 km/h (3 Bft) 100,00 %
02.04.2018 13:35 11,1 C 6,7 C 58 % 1013,0 hPa 0,0 l/m 9,9 km/h (2 Bft) W-NW 282 1 min 0,000 mm 2,9 UV-I 734 W/m 3,2 C 8,9 C 11,3 km/h (2 Bft) 95,65 %
02.04.2018 13:36 11,1 C 6,7 C 58 % 1012,9 hPa 0,0 l/m 8,9 km/h (2 Bft) W 273 1 min 0,000 mm 2,9 UV-I 733 W/m 3,2 C 9,4 C 12,9 km/h (3 Bft) 100,00 %
02.04.2018 13:37 11,1 C 6,7 C 57 % 1012,9 hPa 0,0 l/m 6,3 km/h (2 Bft) W 275 1 min 0,000 mm 2,9 UV-I 729 W/m 2,9 C 11,1 C 9,7 km/h (2 Bft) 100,00 %
02.04.2018 13:38 11,0 C 6,7 C 57 % 1012,9 hPa 0,0 l/m 8,1 km/h (2 Bft) W-SW 246 1 min 0,000 mm 2,9 UV-I 732 W/m 2,8 C 9,8 C 11,3 km/h (2 Bft) 100,00 %
02.04.2018 13:39 11,0 C 6,7 C 55 % 1012,9 hPa 0,0 l/m 9,3 km/h (2 Bft) SW 230 1 min 0,000 mm 2,9 UV-I 733 W/m 2,3 C 9,1 C 12,9 km/h (3 Bft) 100,00 %
02.04.2018 13:40 11,0 C 6,7 C 55 % 1012,9 hPa 0,0 l/m 11,3 km/h (2 Bft) W-SW 258 1 min 0,000 mm 2,9 UV-I 734 W/m 2,3 C 8,0 C 14,5 km/h (3 Bft) 100,00 %
02.04.2018 13:41 11,0 C 6,7 C 56 % 1012,9 hPa 0,0 l/m 4,5 km/h (1 Bft) SW 233 1 min 0,000 mm 2,9 UV-I 734 W/m 2,6 C 11,0 C 6,4 km/h (2 Bft) 100,00 %
02.04.2018 13:42 11,0 C 6,7 C 56 % 1012,9 hPa 0,0 l/m 1,9 km/h (1 Bft) SW 234 1 min 0,000 mm 2,9 UV-I 729 W/m 2,6 C 11,0 C 3,2 km/h (1 Bft) 100,00 %
02.04.2018 13:43 11,2 C 6,7 C 59 % 1012,9 hPa 0,0 l/m 1,5 km/h (1 Bft) S 180 1 min 0,000 mm 2,9 UV-I 728 W/m 3,5 C 11,2 C 4,8 km/h (1 Bft) 100,00 %
02.04.2018 13:44 11,4 C 6,7 C 62 % 1012,8 hPa 0,0 l/m 3,5 km/h (1 Bft) S-SO 150 1 min 0,000 mm 2,9 UV-I 727 W/m 4,4 C 11,4 C 4,8 km/h (1 Bft) 100,00 %
02.04.2018 13:45 11,7 C 6,7 C 61 % 1012,8 hPa 0,0 l/m 2,3 km/h (1 Bft) SW 233 1 min 0,000 mm 2,9 UV-I 730 W/m 4,4 C 11,7 C 4,8 km/h (1 Bft) 100,00 %
02.04.2018 13:46 11,8 C 6,7 C 57 % 1012,8 hPa 0,0 l/m 3,6 km/h (1 Bft) NW 316 1 min 0,000 mm 2,9 UV-I 729 W/m 3,6 C 11,8 C 6,4 km/h (2 Bft) 100,00 %
02.04.2018 13:47 11,8 C 6,7 C 57 % 1012,8 hPa 0,0 l/m 6,5 km/h (2 Bft) NW 325 1 min 0,000 mm 2,9 UV-I 725 W/m 3,6 C 11,8 C 12,9 km/h (3 Bft) 100,00 %
02.04.2018 13:48 11,7 C 6,7 C 55 % 1012,8 hPa 0,0 l/m 3,5 km/h (1 Bft) W-NW 291 1 min 0,000 mm 2,9 UV-I 726 W/m 3,0 C 11,7 C 4,8 km/h (1 Bft) 100,00 %
02.04.2018 13:49 11,7 C 6,7 C 56 % 1012,8 hPa 0,0 l/m 7,6 km/h (2 Bft) W-NW 302 1 min 0,000 mm 2,9 UV-I 726 W/m 3,2 C 10,9 C 14,5 km/h (3 Bft) 100,00 %
02.04.2018 13:50 11,7 C 6,7 C 58 % 1012,8 hPa 0,0 l/m 7,7 km/h (2 Bft) W-NW 300 1 min 0,000 mm 2,9 UV-I 725 W/m 3,7 C 10,8 C 12,9 km/h (3 Bft) 100,00 %
02.04.2018 13:51 11,6 C 6,7 C 54 % 1012,8 hPa 0,0 l/m 7,2 km/h (2 Bft) NW 311 1 min 0,000 mm 2,9 UV-I 723 W/m 2,6 C 11,1 C 9,7 km/h (2 Bft) 100,00 %
02.04.2018 13:52 11,5 C 6,7 C 55 % 1012,8 hPa 0,0 l/m 7,2 km/h (2 Bft) N 355 1 min 0,000 mm 2,9 UV-I 722 W/m 2,8 C 11,0 C 11,3 km/h (2 Bft) 100,00 %
02.04.2018 13:53 11,4 C 6,7 C 58 % 1012,8 hPa 0,0 l/m 7,8 km/h (2 Bft) NW 318 1 min 0,000 mm 2,9 UV-I 722 W/m 3,4 C 10,5 C 12,9 km/h (3 Bft) 100,00 %
02.04.2018 13:54 11,5 C 6,7 C 59 % 1012,8 hPa 0,0 l/m 4,6 km/h (1 Bft) W-NW 298 1 min 0,000 mm 2,9 UV-I 722 W/m 3,8 C 11,5 C 8,0 km/h (2 Bft) 100,00 %
02.04.2018 13:55 11,4 C 6,7 C 54 % 1012,7 hPa 0,0 l/m 5,7 km/h (1 Bft) NW 317 1 min 0,000 mm 2,9 UV-I 721 W/m 2,4 C 11,4 C 8,0 km/h (2 Bft) 96,30 %
02.04.2018 13:56 11,4 C 6,7 C 55 % 1012,8 hPa 0,0 l/m 3,3 km/h (1 Bft) NW 317 1 min 0,000 mm 2,9 UV-I 721 W/m 2,7 C 11,4 C 4,8 km/h (1 Bft) 100,00 %
02.04.2018 13:57 11,4 C 6,7 C 58 % 1012,7 hPa 0,0 l/m 6,0 km/h (2 Bft) W 279 1 min 0,000 mm 2,9 UV-I 720 W/m 3,4 C 11,4 C 9,7 km/h (2 Bft) 100,00 %
02.04.2018 13:58 11,3 C 6,7 C 54 % 1012,8 hPa 0,0 l/m 3,5 km/h (1 Bft) W-NW 296 1 min 0,000 mm 2,9 UV-I 717 W/m 2,3 C 11,3 C 6,4 km/h (2 Bft) 96,55 %
02.04.2018 13:59 11,2 C 6,7 C 55 % 1012,7 hPa 0,0 l/m 3,3 km/h (1 Bft) W-NW 296 1 min 0,000 mm 2,9 UV-I 717 W/m 2,5 C 11,2 C 4,8 km/h (1 Bft) 100,00 %
02.04.2018 14:00 11,1 C 6,7 C 55 % 1012,7 hPa 0,0 l/m 4,4 km/h (1 Bft) W 275 1 min 0,000 mm 2,9 UV-I 717 W/m 2,4 C 11,1 C 6,4 km/h (2 Bft) 100,00 %
02.04.2018 14:01 11,1 C 6,7 C 56 % 1012,8 hPa 0,0 l/m 5,7 km/h (1 Bft) W-NW 292 1 min 0,381 mm 2,9 UV-I 715 W/m 2,7 C 11,1 C 11,3 km/h (2 Bft) 100,00 %
02.04.2018 14:03 11,2 C 6,7 C 58 % 1012,7 hPa 0,0 l/m 4,8 km/h (1 Bft) NW 326 2 min 0,000 mm 2,9 UV-I 714 W/m 3,2 C 11,2 C 8,0 km/h (2 Bft) 100,00 %
02.04.2018 14:04 11,3 C 6,7 C 57 % 1012,6 hPa 0,0 l/m 6,6 km/h (2 Bft) NW 316 1 min 0,000 mm 2,8 UV-I 714 W/m 3,1 C 11,2 C 9,7 km/h (2 Bft) 100,00 %
02.04.2018 14:05 11,4 C 6,7 C 59 % 1012,6 hPa 0,0 l/m 10,5 km/h (2 Bft) NW 308 1 min 0,000 mm 2,8 UV-I 712 W/m 3,7 C 8,9 C 14,5 km/h (3 Bft) 100,00 %
02.04.2018 14:06 11,6 C 6,7 C 58 % 1012,7 hPa 0,0 l/m 7,2 km/h (2 Bft) N-NO 14 1 min 0,000 mm 2,8 UV-I 710 W/m 3,6 C 11,1 C 11,3 km/h (2 Bft) 100,00 %
02.04.2018 14:07 11,7 C 6,7 C 57 % 1012,6 hPa 0,0 l/m 4,9 km/h (1 Bft) N-NO 13 1 min 0,000 mm 2,8 UV-I 710 W/m 3,5 C 11,7 C 6,4 km/h (2 Bft) 100,00 %
02.04.2018 14:08 11,6 C 6,7 C 55 % 1012,5 hPa 0,0 l/m 4,0 km/h (1 Bft) N 355 1 min 0,000 mm 2,8 UV-I 709 W/m 2,9 C 11,6 C 4,8 km/h (1 Bft) 95,65 %
02.04.2018 14:09 11,6 C 6,7 C 54 % 1012,6 hPa 0,0 l/m 3,3 km/h (1 Bft) N 355 1 min 0,000 mm 2,8 UV-I 709 W/m 2,6 C 11,6 C 4,8 km/h (1 Bft) 100,00 %
02.04.2018 14:10 11,6 C 6,7 C 56 % 1012,5 hPa 0,0 l/m 3,3 km/h (1 Bft) NO 53 1 min 0,000 mm 2,8 UV-I 708 W/m 3,1 C 11,6 C 6,4 km/h (2 Bft) 100,00 %
02.04.2018 14:11 11,6 C 6,7 C 59 % 1012,5 hPa 0,0 l/m 4,5 km/h (1 Bft) NO 51 1 min 0,000 mm 2,8 UV-I 707 W/m 3,9 C 11,6 C 6,4 km/h (2 Bft) 97,56 %
02.04.2018 14:12 11,7 C 6,7 C 54 % 1012,5 hPa 0,0 l/m 4,8 km/h (1 Bft) O-NO 68 1 min 0,000 mm 2,8 UV-I 703 W/m 2,7 C 11,7 C 8,0 km/h (2 Bft) 100,00 %
02.04.2018 14:13 11,7 C 6,7 C 57 % 1012,5 hPa 0,0 l/m 4,7 km/h (1 Bft) O-NO 65 1 min 0,000 mm 2,8 UV-I 701 W/m 3,5 C 11,7 C 6,4 km/h (2 Bft) 100,00 %
02.04.2018 14:14 11,6 C 6,7 C 56 % 1012,5 hPa 0,0 l/m 2,2 km/h (1 Bft) O-NO 62 1 min 0,000 mm 2,8 UV-I 701 W/m 3,1 C 11,6 C 4,8 km/h (1 Bft) 100,00 %
02.04.2018 14:15 11,7 C 6,7 C 57 % 1012,4 hPa 0,0 l/m 4,3 km/h (1 Bft) O-SO 109 1 min 0,000 mm 2,8 UV-I 702 W/m 3,5 C 11,7 C 9,7 km/h (2 Bft) 100,00 %
02.04.2018 14:16 11,7 C 6,7 C 54 % 1012,4 hPa 0,0 l/m 7,5 km/h (2 Bft) O 101 1 min 0,000 mm 2,8 UV-I 703 W/m 2,7 C 11,0 C 11,3 km/h (2 Bft) 100,00 %
02.04.2018 14:17 11,6 C 6,7 C 54 % 1012,3 hPa 0,0 l/m 5,5 km/h (1 Bft) O-SO 111 1 min 0,000 mm 2,8 UV-I 701 W/m 2,6 C 11,6 C 11,3 km/h (2 Bft) 100,00 %
02.04.2018 14:18 11,6 C 6,7 C 53 % 1012,3 hPa 0,0 l/m 5,7 km/h (1 Bft) O-SO 115 1 min 0,000 mm 2,8 UV-I 701 W/m 2,4 C 11,6 C 8,0 km/h (2 Bft) 100,00 %
02.04.2018 14:19 11,4 C 6,7 C 52 % 1012,4 hPa 0,0 l/m 3,4 km/h (1 Bft) O-SO 115 1 min 0,000 mm 2,8 UV-I 701 W/m 1,9 C 11,4 C 4,8 km/h (1 Bft) 100,00 %
02.04.2018 14:20 11,4 C 6,7 C 54 % 1012,3 hPa 0,0 l/m 4,7 km/h (1 Bft) S-SO 152 1 min 0,000 mm 2,8 UV-I 699 W/m 2,4 C 11,4 C 8,0 km/h (2 Bft) 100,00 %
02.04.2018 14:21 11,5 C 6,7 C 54 % 1012,3 hPa 0,0 l/m 4,7 km/h (1 Bft) S 178 1 min 0,000 mm 2,8 UV-I 698 W/m 2,5 C 11,5 C 6,4 km/h (2 Bft) 96,15 %
02.04.2018 14:22 11,7 C 6,7 C 57 % 1012,3 hPa 0,0 l/m 5,8 km/h (2 Bft) S-SW 208 1 min 0,000 mm 2,8 UV-I 700 W/m 3,5 C 11,7 C 8,0 km/h (2 Bft) 100,00 %
02.04.2018 14:23 11,7 C 6,7 C 55 % 1012,3 hPa 0,0 l/m 4,8 km/h (1 Bft) S 173 1 min 0,000 mm 2,7 UV-I 698 W/m 3,0 C 11,7 C 6,4 km/h (2 Bft) 100,00 %
02.04.2018 14:24 11,5 C 6,7 C 52 % 1012,2 hPa 0,0 l/m 2,2 km/h (1 Bft) S 183 1 min 0,000 mm 2,7 UV-I 694 W/m 2,0 C 11,5 C 3,2 km/h (1 Bft) 100,00 %
02.04.2018 14:25 11,4 C 6,7 C 52 % 1012,2 hPa 0,0 l/m 2,1 km/h (1 Bft) S-SW 207 1 min 0,000 mm 2,7 UV-I 694 W/m 1,9 C 11,4 C 4,8 km/h (1 Bft) 100,00 %
02.04.2018 14:26 11,2 C 6,7 C 52 % 1012,3 hPa 0,0 l/m 3,0 km/h (1 Bft) S 171 1 min 0,000 mm 2,7 UV-I 694 W/m 1,7 C 11,2 C 6,4 km/h (2 Bft) 100,00 %
02.04.2018 14:28 11,2 C 6,7 C 52 % 1012,2 hPa 0,0 l/m 4,5 km/h (1 Bft) NW 313 2 min 0,000 mm 2,7 UV-I 690 W/m 1,7 C 11,2 C 8,0 km/h (2 Bft) 100,00 %
02.04.2018 14:29 11,3 C 6,7 C 52 % 1012,2 hPa 0,0 l/m 6,4 km/h (2 Bft) N-NW 327 1 min 0,000 mm 2,7 UV-I 689 W/m 1,8 C 11,3 C 8,0 km/h (2 Bft) 100,00 %
02.04.2018 14:30 11,6 C 6,7 C 54 % 1012,1 hPa 0,0 l/m 3,6 km/h (1 Bft) N-NW 334 1 min 0,000 mm 2,7 UV-I 689 W/m 2,6 C 11,6 C 4,8 km/h (1 Bft) 100,00 %
02.04.2018 14:31 11,7 C 6,7 C 53 % 1012,1 hPa 0,0 l/m 5,7 km/h (1 Bft) NW 309 1 min 0,000 mm 2,7 UV-I 688 W/m 2,4 C 11,7 C 11,3 km/h (2 Bft) 100,00 %
02.04.2018 14:32 11,8 C 6,7 C 51 % 1012,1 hPa 0,0 l/m 5,4 km/h (1 Bft) N 5 1 min 0,000 mm 2,7 UV-I 686 W/m 2,0 C 11,8 C 6,4 km/h (2 Bft) 100,00 %
02.04.2018 14:33 11,8 C 6,7 C 52 % 1012,1 hPa 0,0 l/m 8,4 km/h (2 Bft) W-SW 246 1 min 0,000 mm 2,7 UV-I 685 W/m 2,3 C 10,5 C 16,1 km/h (3 Bft) 100,00 %
02.04.2018 14:34 11,8 C 6,7 C 51 % 1012,0 hPa 0,0 l/m 11,4 km/h (2 Bft) W-SW 237 1 min 0,000 mm 2,6 UV-I 686 W/m 2,0 C 8,9 C 16,1 km/h (3 Bft) 100,00 %
02.04.2018 14:35 11,9 C 6,7 C 50 % 1012,1 hPa 0,0 l/m 8,6 km/h (2 Bft) S-SW 211 1 min 0,000 mm 2,6 UV-I 684 W/m 1,8 C 10,5 C 14,5 km/h (3 Bft) 100,00 %
02.04.2018 14:36 11,9 C 6,7 C 50 % 1012,0 hPa 0,0 l/m 8,9 km/h (2 Bft) S 187 1 min 0,000 mm 2,6 UV-I 683 W/m 1,8 C 10,3 C 12,9 km/h (3 Bft) 100,00 %
02.04.2018 14:37 11,9 C 6,7 C 49 % 1012,0 hPa 0,0 l/m 7,8 km/h (2 Bft) S-SW 205 1 min 0,000 mm 2,6 UV-I 681 W/m 1,5 C 11,0 C 11,3 km/h (2 Bft) 100,00 %
02.04.2018 14:38 11,9 C 6,7 C 48 % 1012,0 hPa 0,0 l/m 5,3 km/h (1 Bft) S-SW 200 1 min 0,000 mm 2,6 UV-I 679 W/m 1,2 C 11,9 C 8,0 km/h (2 Bft) 100,00 %
02.04.2018 14:39 11,9 C 6,7 C 46 % 1011,9 hPa 0,0 l/m 1,8 km/h (1 Bft) S-SW 200 1 min 0,000 mm 2,6 UV-I 678 W/m 0,7 C 11,9 C 4,8 km/h (1 Bft) 95,83 %
02.04.2018 14:40 11,9 C 6,7 C 49 % 1011,9 hPa 0,0 l/m 0,1 km/h (0 Bft) S-SW 202 1 min 0,000 mm 2,6 UV-I 675 W/m 1,5 C 11,9 C 1,6 km/h (1 Bft) 95,65 %
02.04.2018 14:41 12,0 C 6,7 C 50 % 1011,9 hPa 0,0 l/m 2,0 km/h (1 Bft) S-SW 202 1 min 0,000 mm 2,6 UV-I 673 W/m 1,9 C 12,0 C 3,2 km/h (1 Bft) 95,83 %
02.04.2018 14:42 12,2 C 6,7 C 52 % 1011,9 hPa 0,0 l/m 4,3 km/h (1 Bft) W 269 1 min 0,000 mm 2,6 UV-I 671 W/m 2,6 C 12,2 C 9,7 km/h (2 Bft) 100,00 %
02.04.2018 14:43 12,2 C 6,7 C 49 % 1011,9 hPa 0,0 l/m 5,2 km/h (1 Bft) W-SW 250 1 min 0,000 mm 2,6 UV-I 670 W/m 1,8 C 12,2 C 9,7 km/h (2 Bft) 94,74 %
02.04.2018 14:44 12,3 C 6,7 C 50 % 1011,9 hPa 0,0 l/m 8,2 km/h (2 Bft) W-NW 293 1 min 0,000 mm 2,5 UV-I 669 W/m 2,2 C 11,1 C 11,3 km/h (2 Bft) 100,00 %
02.04.2018 14:45 12,3 C 6,7 C 48 % 1011,9 hPa 0,0 l/m 7,2 km/h (2 Bft) NW 326 1 min 0,000 mm 2,5 UV-I 664 W/m 1,6 C 11,8 C 12,9 km/h (3 Bft) 95,83 %
02.04.2018 14:46 12,4 C 6,7 C 49 % 1011,8 hPa 0,0 l/m 5,2 km/h (1 Bft) NW 321 1 min 0,000 mm 2,5 UV-I 665 W/m 2,0 C 12,4 C 8,0 km/h (2 Bft) 100,00 %
02.04.2018 14:47 12,4 C 6,7 C 48 % 1011,8 hPa 0,0 l/m 6,4 km/h (2 Bft) W 265 1 min 0,000 mm 2,5 UV-I 661 W/m 1,7 C 12,4 C 11,3 km/h (2 Bft) 96,15 %
02.04.2018 14:48 12,4 C 6,7 C 47 % 1011,8 hPa 0,0 l/m 6,6 km/h (2 Bft) W-SW 255 1 min 0,000 mm 2,4 UV-I 657 W/m 1,4 C 12,3 C 9,7 km/h (2 Bft) 92,31 %
02.04.2018 14:49 12,6 C 6,7 C 50 % 1011,8 hPa 0,0 l/m 4,5 km/h (1 Bft) W-SW 250 1 min 0,000 mm 2,4 UV-I 641 W/m 2,5 C 12,6 C 8,0 km/h (2 Bft) 100,00 %
02.04.2018 14:50 12,8 C 6,7 C 46 % 1011,8 hPa 0,0 l/m 8,3 km/h (2 Bft) S-SW 203 1 min 0,000 mm 2,4 UV-I 639 W/m 1,5 C 11,6 C 12,9 km/h (3 Bft) 96,97 %
02.04.2018 14:51 12,7 C 6,7 C 46 % 1011,8 hPa 0,0 l/m 4,3 km/h (1 Bft) W 272 1 min 0,000 mm 2,4 UV-I 625 W/m 1,4 C 12,7 C 9,7 km/h (2 Bft) 100,00 %
02.04.2018 14:52 12,7 C 6,7 C 48 % 1011,8 hPa 0,0 l/m 4,7 km/h (1 Bft) W 273 1 min 0,000 mm 2,4 UV-I 622 W/m 2,0 C 12,7 C 9,7 km/h (2 Bft) 93,33 %
02.04.2018 14:53 12,7 C 6,7 C 45 % 1011,8 hPa 0,0 l/m 4,7 km/h (1 Bft) W-NW 302 1 min 0,000 mm 2,3 UV-I 616 W/m 1,1 C 12,7 C 6,4 km/h (2 Bft) 100,00 %
02.04.2018 14:54 12,7 C 6,7 C 49 % 1011,8 hPa 0,0 l/m 9,8 km/h (2 Bft) W 265 1 min 0,000 mm 2,4 UV-I 628 W/m 2,3 C 10,7 C 12,9 km/h (3 Bft) 96,67 %
02.04.2018 14:55 12,7 C 6,7 C 50 % 1011,8 hPa 0,0 l/m 6,0 km/h (2 Bft) W 263 1 min 0,000 mm 2,4 UV-I 635 W/m 2,6 C 12,7 C 9,7 km/h (2 Bft) 100,00 %
02.04.2018 14:56 12,7 C 6,7 C 49 % 1011,7 hPa 0,0 l/m 7,6 km/h (2 Bft) W-NW 290 1 min 0,000 mm 2,3 UV-I 624 W/m 2,3 C 11,9 C 11,3 km/h (2 Bft) 96,67 %
02.04.2018 14:57 12,7 C 6,7 C 47 % 1011,8 hPa 0,0 l/m 9,2 km/h (2 Bft) W-SW 258 1 min 0,000 mm 2,4 UV-I 649 W/m 1,7 C 11,0 C 12,9 km/h (3 Bft) 92,31 %
02.04.2018 14:58 12,7 C 6,7 C 46 % 1011,6 hPa 0,0 l/m 7,3 km/h (2 Bft) W-SW 258 1 min 0,000 mm 2,4 UV-I 653 W/m 1,4 C 12,1 C 11,3 km/h (2 Bft) 100,00 %
02.04.2018 14:59 12,6 C 6,7 C 48 % 1011,7 hPa 0,0 l/m 5,6 km/h (1 Bft) S-SW 205 1 min 0,000 mm 2,3 UV-I 635 W/m 1,9 C 12,6 C 8,0 km/h (2 Bft) 95,65 %
02.04.2018 15:00 12,6 C 6,7 C 48 % 1011,7 hPa 0,0 l/m 7,8 km/h (2 Bft) SW 224 1 min 0,355 mm 2,3 UV-I 646 W/m 1,9 C 11,7 C 9,7 km/h (2 Bft) 100,00 %
02.04.2018 15:01 12,6 C 6,7 C 48 % 1011,7 hPa 0,0 l/m 8,0 km/h (2 Bft) W 265 1 min 0,000 mm 2,3 UV-I 631 W/m 1,9 C 11,6 C 11,3 km/h (2 Bft) 95,65 %
02.04.2018 15:02 12,6 C 6,7 C 48 % 1011,7 hPa 0,0 l/m 2,5 km/h (1 Bft) W 265 1 min 0,000 mm 2,3 UV-I 628 W/m 1,9 C 12,6 C 4,8 km/h (1 Bft) 100,00 %
02.04.2018 15:03 12,5 C 6,7 C 46 % 1011,7 hPa 0,0 l/m 2,8 km/h (1 Bft) W-SW 238 1 min 0,000 mm 2,3 UV-I 627 W/m 1,2 C 12,5 C 6,4 km/h (2 Bft) 98,21 %
02.04.2018 15:04 12,6 C 6,7 C 48 % 1011,7 hPa 0,0 l/m 7,6 km/h (2 Bft) SW 218 1 min 0,000 mm 2,3 UV-I 631 W/m 1,9 C 11,8 C 11,3 km/h (2 Bft) 97,56 %
02.04.2018 15:05 12,6 C 6,7 C 45 % 1011,7 hPa 0,0 l/m 5,0 km/h (1 Bft) SW 218 1 min 0,000 mm 2,3 UV-I 636 W/m 1,0 C 12,6 C 6,4 km/h (2 Bft) 96,15 %
02.04.2018 15:06 12,7 C 6,7 C 47 % 1011,6 hPa 0,0 l/m 0,7 km/h (0 Bft) SW 218 1 min 0,000 mm 2,3 UV-I 637 W/m 1,7 C 12,7 C 1,6 km/h (1 Bft) 96,30 %
02.04.2018 15:07 12,7 C 6,7 C 47 % 1011,6 hPa 0,0 l/m 3,0 km/h (1 Bft) W 267 1 min 0,000 mm 2,3 UV-I 635 W/m 1,7 C 12,7 C 6,4 km/h (2 Bft) 100,00 %
02.04.2018 15:08 12,8 C 6,7 C 50 % 1011,6 hPa 0,0 l/m 4,3 km/h (1 Bft) W 267 1 min 0,000 mm 2,3 UV-I 634 W/m 2,6 C 12,8 C 6,4 km/h (2 Bft) 95,83 %
02.04.2018 15:09 13,0 C 6,7 C 51 % 1011,6 hPa 0,0 l/m 5,5 km/h (1 Bft) W-SW 242 1 min 0,000 mm 2,2 UV-I 632 W/m 3,1 C 13,0 C 8,0 km/h (2 Bft) 100,00 %
02.04.2018 15:10 12,9 C 6,7 C 45 % 1011,6 hPa 0,0 l/m 2,9 km/h (1 Bft) S 176 1 min 0,000 mm 2,2 UV-I 631 W/m 1,3 C 12,9 C 6,4 km/h (2 Bft) 91,67 %
02.04.2018 15:11 12,9 C 6,7 C 47 % 1011,6 hPa 0,0 l/m 7,0 km/h (2 Bft) S 190 1 min 0,000 mm 2,2 UV-I 629 W/m 1,9 C 12,5 C 11,3 km/h (2 Bft) 100,00 %
02.04.2018 15:12 12,8 C 6,7 C 45 % 1011,6 hPa 0,0 l/m 5,9 km/h (2 Bft) W 264 1 min 0,000 mm 2,2 UV-I 629 W/m 1,2 C 12,8 C 11,3 km/h (2 Bft) 100,00 %
02.04.2018 15:13 12,8 C 6,7 C 48 % 1011,5 hPa 0,0 l/m 10,0 km/h (2 Bft) W 279 1 min 0,000 mm 2,2 UV-I 627 W/m 2,1 C 10,7 C 12,9 km/h (3 Bft) 100,00 %
02.04.2018 15:14 12,9 C 6,7 C 45 % 1011,5 hPa 0,0 l/m 9,6 km/h (2 Bft) W-NW 282 1 min 0,000 mm 2,2 UV-I 625 W/m 1,3 C 11,0 C 12,9 km/h (3 Bft) 100,00 %
02.04.2018 15:15 12,9 C 6,7 C 45 % 1011,5 hPa 0,0 l/m 5,5 km/h (1 Bft) W-NW 300 1 min 0,000 mm 2,2 UV-I 622 W/m 1,3 C 12,9 C 8,0 km/h (2 Bft) 100,00 %
02.04.2018 15:16 12,8 C 6,7 C 44 % 1011,5 hPa 0,0 l/m 1,9 km/h (1 Bft) SW 224 1 min 0,000 mm 2,2 UV-I 620 W/m 0,9 C 12,8 C 4,8 km/h (1 Bft) 96,15 %
02.04.2018 15:17 12,8 C 6,7 C 44 % 1011,5 hPa 0,0 l/m 0,1 km/h (0 Bft) SW 224 1 min 0,000 mm 2,2 UV-I 616 W/m 0,9 C 12,8 C 1,6 km/h (1 Bft) 100,00 %
02.04.2018 15:18 12,8 C 6,7 C 46 % 1011,5 hPa 0,0 l/m 3,7 km/h (1 Bft) W-SW 250 1 min 0,000 mm 2,2 UV-I 614 W/m 1,5 C 12,8 C 6,4 km/h (2 Bft) 100,00 %
02.04.2018 15:19 12,9 C 6,7 C 49 % 1011,5 hPa 0,0 l/m 4,7 km/h (1 Bft) W-SW 250 1 min 0,000 mm 2,2 UV-I 613 W/m 2,5 C 12,9 C 6,4 km/h (2 Bft) 100,00 %
02.04.2018 15:20 13,1 C 6,7 C 47 % 1011,4 hPa 0,0 l/m 3,2 km/h (1 Bft) W 265 1 min 0,000 mm 2,1 UV-I 612 W/m 2,0 C 13,1 C 9,7 km/h (2 Bft) 100,00 %
02.04.2018 15:21 13,2 C 6,7 C 45 % 1011,4 hPa 0,0 l/m 6,6 km/h (2 Bft) W-SW 257 1 min 0,000 mm 2,1 UV-I 610 W/m 1,5 C 13,1 C 8,0 km/h (2 Bft) 98,21 %
02.04.2018 15:22 13,2 C 6,7 C 45 % 1011,4 hPa 0,0 l/m 4,8 km/h (1 Bft) W 277 1 min 0,000 mm 2,1 UV-I 610 W/m 1,5 C 13,2 C 9,7 km/h (2 Bft) 97,73 %
02.04.2018 15:23 13,2 C 6,7 C 44 % 1011,4 hPa 0,0 l/m 3,5 km/h (1 Bft) W 268 1 min 0,000 mm 2,1 UV-I 608 W/m 1,2 C 13,2 C 6,4 km/h (2 Bft) 100,00 %
02.04.2018 15:24 13,1 C 6,7 C 43 % 1011,4 hPa 0,0 l/m 0,3 km/h (0 Bft) W 268 1 min 0,000 mm 2,1 UV-I 604 W/m 0,8 C 13,1 C 1,6 km/h (1 Bft) 100,00 %
02.04.2018 15:25 13,1 C 6,7 C 46 % 1011,4 hPa 0,0 l/m 5,0 km/h (1 Bft) O-NO 67 1 min 0,000 mm 2,1 UV-I 601 W/m 1,7 C 13,1 C 9,7 km/h (2 Bft) 100,00 %
02.04.2018 15:26 13,1 C 6,7 C 52 % 1011,3 hPa 0,0 l/m 8,2 km/h (2 Bft) O 89 1 min 0,000 mm 2,1 UV-I 596 W/m 3,5 C 12,0 C 11,3 km/h (2 Bft) 100,00 %
02.04.2018 15:27 13,1 C 6,7 C 49 % 1011,4 hPa 0,0 l/m 5,4 km/h (1 Bft) O 91 1 min 0,000 mm 2,0 UV-I 596 W/m 2,6 C 13,1 C 8,0 km/h (2 Bft) 100,00 %
02.04.2018 15:28 13,1 C 6,7 C 47 % 1011,3 hPa 0,0 l/m 4,8 km/h (1 Bft) NO 53 1 min 0,000 mm 2,0 UV-I 596 W/m 2,0 C 13,1 C 6,4 km/h (2 Bft) 100,00 %
02.04.2018 15:29 13,1 C 6,7 C 50 % 1011,3 hPa 0,0 l/m 6,4 km/h (2 Bft) O 80 1 min 0,000 mm 2,0 UV-I 593 W/m 2,9 C 13,1 C 11,3 km/h (2 Bft) 100,00 %
02.04.2018 15:30 13,1 C 6,7 C 48 % 1011,3 hPa 0,0 l/m 9,1 km/h (2 Bft) O 79 1 min 0,000 mm 2,0 UV-I 592 W/m 2,3 C 11,5 C 12,9 km/h (3 Bft) 100,00 %
02.04.2018 15:31 13,2 C 6,7 C 48 % 1011,3 hPa 0,0 l/m 5,5 km/h (1 Bft) O 80 1 min 0,000 mm 2,0 UV-I 590 W/m 2,4 C 13,2 C 8,0 km/h (2 Bft) 100,00 %
02.04.2018 15:32 13,2 C 6,7 C 50 % 1011,3 hPa 0,0 l/m 5,1 km/h (1 Bft) N-NO 20 1 min 0,000 mm 2,0 UV-I 588 W/m 3,0 C 13,2 C 6,4 km/h (2 Bft) 100,00 %
02.04.2018 15:33 13,2 C 6,7 C 51 % 1011,2 hPa 0,0 l/m 4,0 km/h (1 Bft) N-NO 20 1 min 0,000 mm 2,0 UV-I 585 W/m 3,3 C 13,2 C 6,4 km/h (2 Bft) 100,00 %
02.04.2018 15:34 13,2 C 6,7 C 52 % 1011,3 hPa 0,0 l/m 1,3 km/h (1 Bft) N-NO 20 1 min 0,000 mm 2,0 UV-I 584 W/m 3,6 C 13,2 C 1,6 km/h (1 Bft) 100,00 %
02.04.2018 15:35 13,2 C 6,7 C 48 % 1011,2 hPa 0,0 l/m 2,5 km/h (1 Bft) N-NO 25 1 min 0,000 mm 1,9 UV-I 581 W/m 2,4 C 13,2 C 6,4 km/h (2 Bft) 100,00 %
02.04.2018 15:36 13,2 C 6,7 C 50 % 1011,3 hPa 0,0 l/m 6,3 km/h (2 Bft) SO 129 1 min 0,000 mm 1,9 UV-I 579 W/m 3,0 C 13,2 C 12,9 km/h (3 Bft) 96,30 %
02.04.2018 15:37 13,2 C 6,7 C 51 % 1011,2 hPa 0,0 l/m 9,4 km/h (2 Bft) O-SO 122 1 min 0,000 mm 1,9 UV-I 578 W/m 3,3 C 11,4 C 12,9 km/h (3 Bft) 100,00 %
02.04.2018 15:38 13,2 C 6,7 C 48 % 1011,2 hPa 0,0 l/m 11,4 km/h (2 Bft) SO 140 1 min 0,000 mm 1,9 UV-I 576 W/m 2,4 C 10,5 C 16,1 km/h (3 Bft) 100,00 %
02.04.2018 15:39 13,0 C 6,7 C 49 % 1011,2 hPa 0,0 l/m 5,7 km/h (1 Bft) SO 138 1 min 0,000 mm 1,8 UV-I 534 W/m 2,5 C 13,0 C 8,0 km/h (2 Bft) 100,00 %
02.04.2018 15:40 12,9 C 6,7 C 50 % 1011,2 hPa 0,0 l/m 5,8 km/h (2 Bft) O 96 1 min 0,000 mm 1,9 UV-I 571 W/m 2,7 C 12,9 C 12,9 km/h (3 Bft) 100,00 %
02.04.2018 15:41 13,1 C 6,7 C 52 % 1011,3 hPa 0,0 l/m 13,9 km/h (3 Bft) O-SO 107 1 min 0,000 mm 1,9 UV-I 569 W/m 3,5 C 9,3 C 20,9 km/h (4 Bft) 100,00 %
02.04.2018 15:42 13,2 C 6,7 C 53 % 1011,3 hPa 0,0 l/m 10,1 km/h (2 Bft) O 96 1 min 0,000 mm 1,8 UV-I 539 W/m 3,8 C 11,1 C 12,9 km/h (3 Bft) 100,00 %
02.04.2018 15:43 13,2 C 6,7 C 51 % 1011,3 hPa 0,0 l/m 12,7 km/h (3 Bft) SO 132 1 min 0,000 mm 1,8 UV-I 555 W/m 3,3 C 9,9 C 16,1 km/h (3 Bft) 100,00 %
02.04.2018 15:44 13,1 C 6,7 C 50 % 1011,3 hPa 0,0 l/m 9,5 km/h (2 Bft) O-SO 123 1 min 0,000 mm 1,8 UV-I 570 W/m 2,9 C 11,3 C 12,9 km/h (3 Bft) 95,83 %
02.04.2018 15:45 13,2 C 6,7 C 53 % 1011,3 hPa 0,0 l/m 6,2 km/h (2 Bft) O 80 1 min 0,000 mm 1,8 UV-I 566 W/m 3,8 C 13,2 C 9,7 km/h (2 Bft) 100,00 %
02.04.2018 15:46 13,3 C 6,7 C 53 % 1011,3 hPa 0,0 l/m 12,1 km/h (2 Bft) NO 56 1 min 0,000 mm 1,8 UV-I 567 W/m 3,9 C 10,3 C 16,1 km/h (3 Bft) 100,00 %
02.04.2018 15:47 13,3 C 6,7 C 51 % 1011,2 hPa 0,0 l/m 11,2 km/h (2 Bft) O 98 1 min 0,000 mm 1,8 UV-I 560 W/m 3,4 C 10,7 C 14,5 km/h (3 Bft) 100,00 %
02.04.2018 15:48 13,3 C 6,7 C 50 % 1011,2 hPa 0,0 l/m 7,0 km/h (2 Bft) O-NO 67 1 min 0,000 mm 1,7 UV-I 519 W/m 3,1 C 12,9 C 9,7 km/h (2 Bft) 91,67 %
02.04.2018 15:49 13,1 C 6,7 C 47 % 1011,2 hPa 0,0 l/m 5,7 km/h (1 Bft) O 101 1 min 0,000 mm 1,6 UV-I 452 W/m 2,0 C 13,1 C 9,7 km/h (2 Bft) 100,00 %
02.04.2018 15:50 13,0 C 6,7 C 49 % 1011,1 hPa 0,0 l/m 10,5 km/h (2 Bft) O-SO 102 1 min 0,000 mm 1,6 UV-I 482 W/m 2,5 C 10,7 C 12,9 km/h (3 Bft) 100,00 %
02.04.2018 15:51 12,9 C 6,7 C 49 % 1011,2 hPa 0,0 l/m 8,2 km/h (2 Bft) O 89 1 min 0,000 mm 1,5 UV-I 442 W/m 2,5 C 11,8 C 11,3 km/h (2 Bft) 97,73 %
02.04.2018 15:52 12,9 C 6,7 C 49 % 1011,1 hPa 0,0 l/m 8,4 km/h (2 Bft) O 101 1 min 0,000 mm 1,5 UV-I 420 W/m 2,5 C 11,7 C 12,9 km/h (3 Bft) 100,00 %
02.04.2018 15:53 12,8 C 6,7 C 48 % 1011,1 hPa 0,0 l/m 7,6 km/h (2 Bft) O-NO 59 1 min 0,000 mm 1,5 UV-I 376 W/m 2,1 C 12,0 C 11,3 km/h (2 Bft) 100,00 %
02.04.2018 15:54 12,8 C 6,7 C 51 % 1011,0 hPa 0,0 l/m 11,4 km/h (2 Bft) O-SO 104 1 min 0,000 mm 1,4 UV-I 379 W/m 2,9 C 10,0 C 14,5 km/h (3 Bft) 100,00 %
02.04.2018 15:55 12,8 C 6,7 C 50 % 1011,1 hPa 0,0 l/m 10,7 km/h (2 Bft) O-SO 110 1 min 0,000 mm 1,6 UV-I 410 W/m 2,6 C 10,3 C 14,5 km/h (3 Bft) 100,00 %
02.04.2018 15:56 12,9 C 6,7 C 50 % 1011,0 hPa 0,0 l/m 8,0 km/h (2 Bft) O 96 1 min 0,000 mm 1,6 UV-I 522 W/m 2,7 C 11,9 C 11,3 km/h (2 Bft) 100,00 %
02.04.2018 15:57 12,9 C 6,7 C 50 % 1011,0 hPa 0,0 l/m 4,8 km/h (1 Bft) O-SO 105 1 min 0,000 mm 1,6 UV-I 489 W/m 2,7 C 12,9 C 6,4 km/h (2 Bft) 100,00 %
02.04.2018 15:58 12,9 C 6,7 C 50 % 1011,0 hPa 0,0 l/m 7,4 km/h (2 Bft) SO 131 1 min 0,000 mm 1,5 UV-I 455 W/m 2,7 C 12,3 C 12,9 km/h (3 Bft) 100,00 %
02.04.2018 15:59 12,8 C 6,7 C 49 % 1011,0 hPa 0,0 l/m 8,3 km/h (2 Bft) O-SO 109 1 min 0,000 mm 1,5 UV-I 474 W/m 2,4 C 11,6 C 11,3 km/h (2 Bft) 100,00 %
02.04.2018 16:00 12,8 C 6,7 C 50 % 1011,0 hPa 0,0 l/m 5,7 km/h (1 Bft) O-SO 108 1 min 0,000 mm 1,5 UV-I 477 W/m 2,6 C 12,8 C 11,3 km/h (2 Bft) 100,00 %
02.04.2018 16:01 13,0 C 6,7 C 51 % 1011,0 hPa 0,0 l/m 2,6 km/h (1 Bft) O 82 1 min 0,330 mm 1,5 UV-I 488 W/m 3,1 C 13,0 C 4,8 km/h (1 Bft) 100,00 %
02.04.2018 16:02 13,1 C 6,7 C 51 % 1011,0 hPa 0,0 l/m 4,0 km/h (1 Bft) NO 55 1 min 0,000 mm 1,5 UV-I 462 W/m 3,2 C 13,1 C 11,3 km/h (2 Bft) 100,00 %
02.04.2018 16:03 13,2 C 6,7 C 53 % 1011,0 hPa 0,0 l/m 4,3 km/h (1 Bft) NO 54 1 min 0,000 mm 1,6 UV-I 518 W/m 3,8 C 13,2 C 8,0 km/h (2 Bft) 100,00 %
02.04.2018 16:04 13,1 C 6,7 C 48 % 1011,0 hPa 0,0 l/m 2,5 km/h (1 Bft) O-NO 59 1 min 0,000 mm 1,5 UV-I 492 W/m 2,3 C 13,1 C 4,8 km/h (1 Bft) 100,00 %
02.04.2018 16:05 13,2 C 6,7 C 49 % 1010,9 hPa 0,0 l/m 4,5 km/h (1 Bft) O 79 1 min 0,000 mm 1,6 UV-I 524 W/m 2,7 C 13,2 C 6,4 km/h (2 Bft) 100,00 %
02.04.2018 16:06 13,3 C 6,7 C 51 % 1010,9 hPa 0,0 l/m 7,2 km/h (2 Bft) NO 36 1 min 0,000 mm 1,5 UV-I 517 W/m 3,4 C 12,8 C 12,9 km/h (3 Bft) 100,00 %
02.04.2018 16:08 13,4 C 6,7 C 48 % 1010,9 hPa 0,0 l/m 8,1 km/h (2 Bft) O-SO 118 2 min 0,000 mm 1,5 UV-I 512 W/m 2,6 C 12,4 C 12,9 km/h (3 Bft) 98,11 %
02.04.2018 16:09 13,4 C 6,7 C 48 % 1010,9 hPa 0,0 l/m 4,4 km/h (1 Bft) O-SO 109 1 min 0,000 mm 1,5 UV-I 510 W/m 2,6 C 13,4 C 9,7 km/h (2 Bft) 100,00 %
02.04.2018 16:10 13,3 C 6,7 C 47 % 1010,8 hPa 0,0 l/m 8,0 km/h (2 Bft) O 94 1 min 0,000 mm 1,5 UV-I 508 W/m 2,2 C 12,3 C 12,9 km/h (3 Bft) 100,00 %
02.04.2018 16:11 13,4 C 6,7 C 48 % 1010,8 hPa 0,0 l/m 8,9 km/h (2 Bft) O 92 1 min 0,000 mm 1,5 UV-I 501 W/m 2,6 C 11,9 C 12,9 km/h (3 Bft) 100,00 %
02.04.2018 16:12 13,4 C 6,7 C 48 % 1010,8 hPa 0,0 l/m 7,7 km/h (2 Bft) O-SO 121 1 min 0,000 mm 1,4 UV-I 496 W/m 2,6 C 12,6 C 11,3 km/h (2 Bft) 100,00 %
02.04.2018 16:13 13,3 C 6,7 C 48 % 1010,8 hPa 0,0 l/m 3,3 km/h (1 Bft) O 99 1 min 0,000 mm 1,3 UV-I 463 W/m 2,5 C 13,3 C 6,4 km/h (2 Bft) 100,00 %
02.04.2018 16:14 13,2 C 6,7 C 46 % 1010,8 hPa 0,0 l/m 3,4 km/h (1 Bft) O 99 1 min 0,000 mm 1,4 UV-I 458 W/m 1,8 C 13,2 C 4,8 km/h (1 Bft) 100,00 %
02.04.2018 16:15 13,3 C 6,7 C 48 % 1010,8 hPa 0,0 l/m 6,1 km/h (2 Bft) SO 129 1 min 0,000 mm 1,4 UV-I 471 W/m 2,5 C 13,3 C 11,3 km/h (2 Bft) 100,00 %
02.04.2018 16:16 13,3 C 6,7 C 48 % 1010,8 hPa 0,0 l/m 6,4 km/h (2 Bft) SO 126 1 min 0,000 mm 1,3 UV-I 431 W/m 2,5 C 13,3 C 11,3 km/h (2 Bft) 100,00 %
02.04.2018 16:17 13,2 C 6,7 C 46 % 1010,8 hPa 0,0 l/m 6,0 km/h (2 Bft) O-NO 62 1 min 0,000 mm 1,3 UV-I 421 W/m 1,8 C 13,2 C 6,4 km/h (2 Bft) 100,00 %
02.04.2018 16:18 13,2 C 6,7 C 45 % 1010,8 hPa 0,0 l/m 7,0 km/h (2 Bft) O-SO 104 1 min 0,000 mm 1,2 UV-I 368 W/m 1,5 C 12,8 C 11,3 km/h (2 Bft) 100,00 %
02.04.2018 16:19 13,1 C 6,7 C 46 % 1010,8 hPa 0,0 l/m 6,9 km/h (2 Bft) O-NO 66 1 min 0,000 mm 1,2 UV-I 317 W/m 1,7 C 12,8 C 11,3 km/h (2 Bft) 100,00 %
02.04.2018 16:20 13,0 C 6,7 C 46 % 1010,8 hPa 0,0 l/m 7,6 km/h (2 Bft) O-NO 76 1 min 0,000 mm 1,2 UV-I 337 W/m 1,7 C 12,2 C 9,7 km/h (2 Bft) 96,15 %
02.04.2018 16:21 13,1 C 6,7 C 48 % 1010,8 hPa 0,0 l/m 4,5 km/h (1 Bft) NO 54 1 min 0,000 mm 1,2 UV-I 376 W/m 2,3 C 13,1 C 6,4 km/h (2 Bft) 91,67 %
02.04.2018 16:22 13,1 C 6,7 C 49 % 1010,7 hPa 0,0 l/m 4,5 km/h (1 Bft) NO 38 1 min 0,000 mm 1,2 UV-I 411 W/m 2,6 C 13,1 C 6,4 km/h (2 Bft) 100,00 %
02.04.2018 16:23 13,1 C 6,7 C 48 % 1010,7 hPa 0,0 l/m 4,5 km/h (1 Bft) NO 38 1 min 0,000 mm 1,2 UV-I 395 W/m 2,3 C 13,1 C 4,8 km/h (1 Bft) 100,00 %
02.04.2018 16:24 13,3 C 6,7 C 50 % 1010,7 hPa 0,0 l/m 4,2 km/h (1 Bft) NO 37 1 min 0,000 mm 1,2 UV-I 330 W/m 3,1 C 13,3 C 6,4 km/h (2 Bft) 100,00 %
02.04.2018 16:25 13,3 C 6,7 C 50 % 1010,7 hPa 0,0 l/m 6,2 km/h (2 Bft) NO 42 1 min 0,000 mm 1,1 UV-I 302 W/m 3,1 C 13,3 C 8,0 km/h (2 Bft) 100,00 %
02.04.2018 16:26 13,4 C 6,7 C 49 % 1010,7 hPa 0,0 l/m 4,6 km/h (1 Bft) O-NO 58 1 min 0,000 mm 1,1 UV-I 276 W/m 2,9 C 13,4 C 8,0 km/h (2 Bft) 95,83 %
02.04.2018 16:28 13,3 C 6,7 C 46 % 1010,6 hPa 0,0 l/m 6,0 km/h (2 Bft) O-NO 71 2 min 0,000 mm 1,1 UV-I 314 W/m 1,9 C 13,3 C 11,3 km/h (2 Bft) 100,00 %
02.04.2018 16:29 13,3 C 6,7 C 48 % 1010,6 hPa 0,0 l/m 2,2 km/h (1 Bft) O-NO 71 1 min 0,000 mm 1,0 UV-I 296 W/m 2,5 C 13,3 C 3,2 km/h (1 Bft) 95,83 %
02.04.2018 16:30 13,3 C 6,7 C 45 % 1010,6 hPa 0,0 l/m 2,7 km/h (1 Bft) O 98 1 min 0,000 mm 1,1 UV-I 370 W/m 1,6 C 13,3 C 4,8 km/h (1 Bft) 98,32 %
02.04.2018 16:31 13,3 C 6,7 C 46 % 1010,6 hPa 0,0 l/m 4,6 km/h (1 Bft) O 98 1 min 0,000 mm 1,2 UV-I 427 W/m 1,9 C 13,3 C 6,4 km/h (2 Bft) 95,45 %
02.04.2018 16:32 13,3 C 6,7 C 47 % 1010,6 hPa 0,0 l/m 2,5 km/h (1 Bft) O 98 1 min 0,000 mm 1,1 UV-I 443 W/m 2,2 C 13,3 C 3,2 km/h (1 Bft) 100,00 %
02.04.2018 16:33 13,4 C 6,7 C 46 % 1010,6 hPa 0,0 l/m 4,0 km/h (1 Bft) SO 142 1 min 0,000 mm 1,2 UV-I 470 W/m 2,0 C 13,4 C 6,4 km/h (2 Bft) 97,56 %
02.04.2018 16:34 13,5 C 6,7 C 45 % 1010,6 hPa 0,0 l/m 4,6 km/h (1 Bft) O-SO 103 1 min 0,000 mm 1,2 UV-I 479 W/m 1,8 C 13,5 C 12,9 km/h (3 Bft) 96,15 %
02.04.2018 16:35 13,5 C 6,7 C 45 % 1010,6 hPa 0,0 l/m 10,8 km/h (2 Bft) SO 134 1 min 0,000 mm 1,2 UV-I 476 W/m 1,8 C 11,1 C 16,1 km/h (3 Bft) 93,33 %
02.04.2018 16:36 13,5 C 6,7 C 46 % 1010,6 hPa 0,0 l/m 10,9 km/h (2 Bft) O-SO 113 1 min 0,000 mm 1,2 UV-I 474 W/m 2,1 C 11,0 C 14,5 km/h (3 Bft) 96,55 %
02.04.2018 16:37 13,5 C 6,7 C 47 % 1010,6 hPa 0,0 l/m 5,6 km/h (1 Bft) O-SO 112 1 min 0,000 mm 1,2 UV-I 470 W/m 2,4 C 13,5 C 9,7 km/h (2 Bft) 100,00 %
02.04.2018 16:38 13,6 C 6,7 C 45 % 1010,6 hPa 0,0 l/m 4,9 km/h (1 Bft) O 96 1 min 0,000 mm 1,2 UV-I 463 W/m 1,9 C 13,6 C 9,7 km/h (2 Bft) 95,65 %
02.04.2018 16:39 13,6 C 6,7 C 48 % 1010,6 hPa 0,0 l/m 4,4 km/h (1 Bft) O 83 1 min 0,000 mm 1,2 UV-I 456 W/m 2,8 C 13,6 C 6,4 km/h (2 Bft) 96,30 %
02.04.2018 16:40 13,7 C 6,7 C 47 % 1010,5 hPa 0,0 l/m 4,4 km/h (1 Bft) SO 124 1 min 0,000 mm 1,2 UV-I 450 W/m 2,6 C 13,7 C 6,4 km/h (2 Bft) 100,00 %
02.04.2018 16:41 13,7 C 6,7 C 46 % 1010,6 hPa 0,0 l/m 2,6 km/h (1 Bft) SO 124 1 min 0,000 mm 1,1 UV-I 443 W/m 2,3 C 13,7 C 3,2 km/h (1 Bft) 96,15 %
02.04.2018 16:42 13,7 C 6,7 C 49 % 1010,5 hPa 0,0 l/m 5,3 km/h (1 Bft) O 82 1 min 0,000 mm 1,1 UV-I 437 W/m 3,2 C 13,7 C 8,0 km/h (2 Bft) 100,00 %
02.04.2018 16:43 13,8 C 6,7 C 48 % 1010,5 hPa 0,0 l/m 4,2 km/h (1 Bft) SO 130 1 min 0,000 mm 1,1 UV-I 433 W/m 3,0 C 13,8 C 11,3 km/h (2 Bft) 95,65 %
02.04.2018 16:44 13,8 C 6,7 C 47 % 1010,5 hPa 0,0 l/m 8,0 km/h (2 Bft) O-SO 119 1 min 0,000 mm 1,1 UV-I 428 W/m 2,7 C 12,8 C 12,9 km/h (3 Bft) 96,15 %
02.04.2018 16:45 13,8 C 6,7 C 48 % 1010,5 hPa 0,0 l/m 8,0 km/h (2 Bft) O-NO 65 1 min 0,000 mm 1,1 UV-I 424 W/m 3,0 C 12,8 C 11,3 km/h (2 Bft) 93,33 %
02.04.2018 16:46 13,8 C 6,7 C 48 % 1010,5 hPa 0,0 l/m 6,3 km/h (2 Bft) O 98 1 min 0,000 mm 1,1 UV-I 420 W/m 3,0 C 13,8 C 12,9 km/h (3 Bft) 100,00 %
02.04.2018 16:47 13,8 C 6,7 C 48 % 1010,5 hPa 0,0 l/m 6,2 km/h (2 Bft) O-NO 66 1 min 0,000 mm 1,0 UV-I 416 W/m 3,0 C 13,8 C 9,7 km/h (2 Bft) 95,65 %
02.04.2018 16:48 13,8 C 6,7 C 49 % 1010,5 hPa 0,0 l/m 6,1 km/h (2 Bft) O 96 1 min 0,000 mm 1,0 UV-I 414 W/m 3,3 C 13,8 C 8,0 km/h (2 Bft) 100,00 %
02.04.2018 16:49 13,8 C 6,7 C 47 % 1010,5 hPa 0,0 l/m 5,9 km/h (2 Bft) O 81 1 min 0,000 mm 1,0 UV-I 411 W/m 2,7 C 13,8 C 9,7 km/h (2 Bft) 95,65 %
02.04.2018 16:50 13,8 C 6,7 C 47 % 1010,4 hPa 0,0 l/m 7,3 km/h (2 Bft) O-SO 103 1 min 0,000 mm 1,0 UV-I 410 W/m 2,7 C 13,3 C 12,9 km/h (3 Bft) 94,44 %
02.04.2018 16:51 13,7 C 6,7 C 45 % 1010,5 hPa 0,0 l/m 2,8 km/h (1 Bft) O 101 1 min 0,000 mm 1,0 UV-I 406 W/m 2,0 C 13,7 C 4,8 km/h (1 Bft) 93,33 %
02.04.2018 16:52 13,8 C 6,7 C 47 % 1010,4 hPa 0,0 l/m 7,4 km/h (2 Bft) O 90 1 min 0,000 mm 1,0 UV-I 405 W/m 2,7 C 13,2 C 12,9 km/h (3 Bft) 97,73 %
02.04.2018 16:53 13,8 C 6,7 C 48 % 1010,4 hPa 0,0 l/m 9,5 km/h (2 Bft) O-NO 65 1 min 0,000 mm 1,0 UV-I 402 W/m 3,0 C 12,0 C 14,5 km/h (3 Bft) 100,00 %
02.04.2018 16:54 13,8 C 6,7 C 47 % 1010,4 hPa 0,0 l/m 6,8 km/h (2 Bft) O 90 1 min 0,000 mm 1,0 UV-I 400 W/m 2,7 C 13,6 C 9,7 km/h (2 Bft) 96,30 %
02.04.2018 16:55 13,8 C 6,7 C 46 % 1010,4 hPa 0,0 l/m 8,1 km/h (2 Bft) O-SO 113 1 min 0,000 mm 0,9 UV-I 397 W/m 2,4 C 12,8 C 12,9 km/h (3 Bft) 96,88 %
02.04.2018 16:56 13,7 C 6,7 C 45 % 1010,4 hPa 0,0 l/m 7,0 km/h (2 Bft) O-SO 105 1 min 0,000 mm 0,9 UV-I 393 W/m 2,0 C 13,3 C 11,3 km/h (2 Bft) 100,00 %
02.04.2018 16:57 13,7 C 6,7 C 46 % 1010,4 hPa 0,0 l/m 6,5 km/h (2 Bft) O 91 1 min 0,000 mm 0,9 UV-I 385 W/m 2,3 C 13,7 C 9,7 km/h (2 Bft) 96,55 %
02.04.2018 16:58 13,7 C 6,7 C 47 % 1010,4 hPa 0,0 l/m 7,5 km/h (2 Bft) O-NO 67 1 min 0,000 mm 0,9 UV-I 381 W/m 2,6 C 13,0 C 12,9 km/h (3 Bft) 100,00 %
02.04.2018 16:59 13,7 C 6,7 C 45 % 1010,4 hPa 0,0 l/m 8,2 km/h (2 Bft) O 91 1 min 0,000 mm 0,9 UV-I 378 W/m 2,0 C 12,6 C 11,3 km/h (2 Bft) 95,65 %
02.04.2018 17:00 13,7 C 6,7 C 45 % 1010,3 hPa 0,0 l/m 9,8 km/h (2 Bft) O-SO 107 1 min 0,000 mm 0,9 UV-I 374 W/m 2,0 C 11,8 C 14,5 km/h (3 Bft) 100,00 %
02.04.2018 17:01 13,8 C 6,7 C 46 % 1010,3 hPa 0,0 l/m 11,5 km/h (2 Bft) SO 126 1 min 0,254 mm 0,9 UV-I 373 W/m 2,4 C 11,1 C 14,5 km/h (3 Bft) 100,00 %
02.04.2018 17:02 13,8 C 6,7 C 45 % 1010,3 hPa 0,0 l/m 11,6 km/h (2 Bft) SO 136 1 min 0,000 mm 0,9 UV-I 365 W/m 2,1 C 11,1 C 14,5 km/h (3 Bft) 100,00 %
02.04.2018 17:03 13,7 C 6,7 C 43 % 1010,2 hPa 0,0 l/m 6,0 km/h (2 Bft) SO 133 1 min 0,000 mm 0,8 UV-I 365 W/m 1,4 C 13,7 C 11,3 km/h (2 Bft) 100,00 %
02.04.2018 17:04 13,6 C 6,7 C 44 % 1010,2 hPa 0,0 l/m 2,3 km/h (1 Bft) SO 140 1 min 0,000 mm 0,8 UV-I 359 W/m 1,6 C 13,6 C 4,8 km/h (1 Bft) 93,33 %
02.04.2018 17:05 13,6 C 6,7 C 44 % 1010,2 hPa 0,0 l/m 4,6 km/h (1 Bft) SO 130 1 min 0,000 mm 0,8 UV-I 360 W/m 1,6 C 13,6 C 8,0 km/h (2 Bft) 95,83 %
02.04.2018 17:06 13,6 C 6,7 C 45 % 1010,2 hPa 0,0 l/m 4,9 km/h (1 Bft) SO 146 1 min 0,000 mm 0,8 UV-I 359 W/m 1,9 C 13,6 C 8,0 km/h (2 Bft) 100,00 %
02.04.2018 17:07 13,6 C 6,7 C 44 % 1010,2 hPa 0,0 l/m 7,4 km/h (2 Bft) SO 145 1 min 0,000 mm 0,8 UV-I 338 W/m 1,6 C 13,0 C 11,3 km/h (2 Bft) 100,00 %
02.04.2018 17:08 13,6 C 6,7 C 44 % 1010,2 hPa 0,0 l/m 7,9 km/h (2 Bft) O-SO 111 1 min 0,000 mm 0,8 UV-I 339 W/m 1,6 C 12,7 C 12,9 km/h (3 Bft) 96,15 %
02.04.2018 17:09 13,4 C 6,7 C 45 % 1010,2 hPa 0,0 l/m 10,5 km/h (2 Bft) O-SO 108 1 min 0,000 mm 0,8 UV-I 341 W/m 1,7 C 11,1 C 14,5 km/h (3 Bft) 100,00 %
02.04.2018 17:10 13,4 C 6,7 C 45 % 1010,2 hPa 0,0 l/m 9,6 km/h (2 Bft) O 101 1 min 0,000 mm 0,8 UV-I 342 W/m 1,7 C 11,6 C 12,9 km/h (3 Bft) 100,00 %
02.04.2018 17:11 13,4 C 6,7 C 47 % 1010,1 hPa 0,0 l/m 10,5 km/h (2 Bft) O-SO 103 1 min 0,000 mm 0,8 UV-I 316 W/m 2,3 C 11,1 C 12,9 km/h (3 Bft) 95,83 %
02.04.2018 17:12 13,4 C 6,7 C 46 % 1010,1 hPa 0,0 l/m 14,1 km/h (3 Bft) O 96 1 min 0,000 mm 0,7 UV-I 331 W/m 2,0 C 9,6 C 17,7 km/h (3 Bft) 95,65 %
02.04.2018 17:13 13,4 C 6,7 C 45 % 1010,1 hPa 0,0 l/m 10,7 km/h (2 Bft) O-SO 105 1 min 0,000 mm 0,7 UV-I 312 W/m 1,7 C 11,0 C 14,5 km/h (3 Bft) 100,00 %
02.04.2018 17:14 13,4 C 6,7 C 46 % 1010,1 hPa 0,0 l/m 11,3 km/h (2 Bft) O-SO 109 1 min 0,000 mm 0,7 UV-I 274 W/m 2,0 C 10,7 C 16,1 km/h (3 Bft) 96,15 %
02.04.2018 17:15 13,4 C 6,7 C 46 % 1010,1 hPa 0,0 l/m 12,9 km/h (3 Bft) O 94 1 min 0,000 mm 0,6 UV-I 216 W/m 2,0 C 10,1 C 16,1 km/h (3 Bft) 100,00 %
02.04.2018 17:16 13,3 C 6,7 C 46 % 1010,1 hPa 0,0 l/m 8,0 km/h (2 Bft) O-SO 107 0 min 0,000 mm 0,6 UV-I 190 W/m 1,9 C 12,3 C 12,9 km/h (3 Bft) 91,30 %
02.04.2018 17:17 13,3 C 6,7 C 47 % 1010,1 hPa 0,0 l/m 6,3 km/h (2 Bft) O-SO 113 0 min 0,000 mm 0,6 UV-I 167 W/m 2,2 C 13,3 C 11,3 km/h (2 Bft) 95,83 %
02.04.2018 17:18 13,2 C 6,7 C 46 % 1010,0 hPa 0,0 l/m 5,0 km/h (1 Bft) SO 133 0 min 0,000 mm 0,6 UV-I 174 W/m 1,8 C 13,2 C 8,0 km/h (2 Bft) 95,65 %
02.04.2018 17:19 13,1 C 6,7 C 46 % 1010,0 hPa 0,0 l/m 6,3 km/h (2 Bft) O 89 1 min 0,000 mm 0,6 UV-I 241 W/m 1,7 C 13,1 C 11,3 km/h (2 Bft) 100,00 %
02.04.2018 17:20 13,2 C 6,7 C 48 % 1009,9 hPa 0,0 l/m 5,5 km/h (1 Bft) SO 130 1 min 0,000 mm 0,6 UV-I 251 W/m 2,4 C 13,2 C 8,0 km/h (2 Bft) 96,30 %
02.04.2018 17:21 13,2 C 6,7 C 48 % 1010,0 hPa 0,0 l/m 6,2 km/h (2 Bft) O 96 1 min 0,000 mm 0,6 UV-I 310 W/m 2,4 C 13,2 C 11,3 km/h (2 Bft) 92,31 %
02.04.2018 17:22 13,4 C 6,7 C 49 % 1010,0 hPa 0,0 l/m 6,6 km/h (2 Bft) O 91 1 min 0,000 mm 0,6 UV-I 286 W/m 2,9 C 13,3 C 11,3 km/h (2 Bft) 95,83 %
02.04.2018 17:23 13,4 C 6,7 C 48 % 1010,0 hPa 0,0 l/m 7,6 km/h (2 Bft) O 86 1 min 0,000 mm 0,6 UV-I 289 W/m 2,6 C 12,7 C 11,3 km/h (2 Bft) 96,15 %
02.04.2018 17:24 13,4 C 6,7 C 47 % 1010,0 hPa 0,0 l/m 8,5 km/h (2 Bft) O 90 1 min 0,000 mm 0,6 UV-I 311 W/m 2,3 C 12,1 C 12,9 km/h (3 Bft) 100,00 %
02.04.2018 17:25 13,4 C 6,7 C 47 % 1010,0 hPa 0,0 l/m 11,0 km/h (2 Bft) O 90 1 min 0,000 mm 0,6 UV-I 316 W/m 2,3 C 10,9 C 14,5 km/h (3 Bft) 92,31 %
02.04.2018 17:26 13,4 C 6,7 C 47 % 1010,0 hPa 0,0 l/m 8,7 km/h (2 Bft) O-NO 70 1 min 0,000 mm 0,6 UV-I 306 W/m 2,3 C 12,0 C 12,9 km/h (3 Bft) 100,00 %
02.04.2018 17:27 13,4 C 6,7 C 47 % 1009,9 hPa 0,0 l/m 9,9 km/h (2 Bft) O-NO 75 1 min 0,000 mm 0,6 UV-I 298 W/m 2,3 C 11,4 C 12,9 km/h (3 Bft) 95,65 %
02.04.2018 17:28 13,4 C 6,7 C 45 % 1009,9 hPa 0,0 l/m 7,2 km/h (2 Bft) O 86 1 min 0,000 mm 0,6 UV-I 298 W/m 1,7 C 12,9 C 11,3 km/h (2 Bft) 100,00 %
02.04.2018 17:29 13,4 C 6,7 C 46 % 1009,9 hPa 0,0 l/m 7,0 km/h (2 Bft) O-SO 108 1 min 0,000 mm 0,6 UV-I 306 W/m 2,0 C 13,0 C 11,3 km/h (2 Bft) 91,30 %
02.04.2018 17:30 13,4 C 6,7 C 46 % 1009,9 hPa 0,0 l/m 7,2 km/h (2 Bft) O 89 1 min 0,000 mm 0,6 UV-I 306 W/m 2,0 C 12,9 C 9,7 km/h (2 Bft) 96,30 %
02.04.2018 17:31 13,4 C 6,7 C 48 % 1009,9 hPa 0,0 l/m 10,5 km/h (2 Bft) O 86 1 min 0,000 mm 0,6 UV-I 298 W/m 2,6 C 11,1 C 14,5 km/h (3 Bft) 90,91 %
02.04.2018 17:32 13,4 C 6,7 C 45 % 1009,9 hPa 0,0 l/m 12,7 km/h (3 Bft) O 100 1 min 0,000 mm 0,6 UV-I 292 W/m 1,7 C 10,1 C 14,5 km/h (3 Bft) 96,97 %
02.04.2018 17:33 13,4 C 6,7 C 45 % 1009,9 hPa 0,0 l/m 8,9 km/h (2 Bft) O 88 1 min 0,000 mm 0,5 UV-I 288 W/m 1,7 C 11,9 C 11,3 km/h (2 Bft) 96,15 %
02.04.2018 17:34 13,3 C 6,7 C 46 % 1009,9 hPa 0,0 l/m 5,4 km/h (1 Bft) O 79 1 min 0,000 mm 0,5 UV-I 289 W/m 1,9 C 13,3 C 9,7 km/h (2 Bft) 93,33 %
02.04.2018 17:35 13,4 C 6,7 C 47 % 1009,8 hPa 0,0 l/m 10,3 km/h (2 Bft) O-SO 103 1 min 0,000 mm 0,5 UV-I 288 W/m 2,3 C 11,2 C 16,1 km/h (3 Bft) 100,00 %
02.04.2018 17:36 13,4 C 6,7 C 46 % 1009,9 hPa 0,0 l/m 12,5 km/h (3 Bft) O-NO 74 1 min 0,000 mm 0,5 UV-I 287 W/m 2,0 C 10,2 C 16,1 km/h (3 Bft) 96,30 %
02.04.2018 17:37 13,4 C 6,7 C 46 % 1009,9 hPa 0,0 l/m 10,9 km/h (2 Bft) O-SO 113 1 min 0,000 mm 0,5 UV-I 281 W/m 2,0 C 10,9 C 14,5 km/h (3 Bft) 100,00 %
02.04.2018 17:38 13,4 C 6,7 C 46 % 1009,9 hPa 0,0 l/m 11,7 km/h (2 Bft) O-SO 107 1 min 0,000 mm 0,5 UV-I 280 W/m 2,0 C 10,6 C 14,5 km/h (3 Bft) 92,31 %
02.04.2018 17:39 13,3 C 6,7 C 45 % 1009,8 hPa 0,0 l/m 9,8 km/h (2 Bft) O-SO 105 1 min 0,000 mm 0,5 UV-I 278 W/m 1,6 C 11,3 C 11,3 km/h (2 Bft) 100,00 %
02.04.2018 17:40 13,3 C 6,7 C 46 % 1009,8 hPa 0,0 l/m 10,0 km/h (2 Bft) O-NO 64 1 min 0,000 mm 0,5 UV-I 271 W/m 1,9 C 11,2 C 14,5 km/h (3 Bft) 86,67 %
02.04.2018 17:41 13,4 C 6,7 C 46 % 1009,8 hPa 0,0 l/m 13,1 km/h (3 Bft) O 88 1 min 0,000 mm 0,5 UV-I 264 W/m 2,0 C 10,0 C 16,1 km/h (3 Bft) 100,00 %
02.04.2018 17:42 13,4 C 6,7 C 46 % 1009,8 hPa 0,0 l/m 12,0 km/h (2 Bft) O 95 1 min 0,000 mm 0,5 UV-I 254 W/m 2,0 C 10,4 C 14,5 km/h (3 Bft) 91,30 %
02.04.2018 17:43 13,3 C 6,7 C 47 % 1009,8 hPa 0,0 l/m 8,9 km/h (2 Bft) O 100 1 min 0,000 mm 0,5 UV-I 259 W/m 2,2 C 11,8 C 12,9 km/h (3 Bft) 100,00 %
02.04.2018 17:44 13,3 C 6,7 C 47 % 1009,8 hPa 0,0 l/m 11,9 km/h (2 Bft) O 95 1 min 0,000 mm 0,4 UV-I 246 W/m 2,2 C 10,4 C 14,5 km/h (3 Bft) 96,15 %
02.04.2018 17:45 13,3 C 6,7 C 48 % 1009,7 hPa 0,0 l/m 11,0 km/h (2 Bft) O-SO 107 1 min 0,000 mm 0,0 UV-I 238 W/m 2,5 C 10,8 C 14,5 km/h (3 Bft) 96,30 %
02.04.2018 17:46 13,3 C 6,7 C 46 % 1009,7 hPa 0,0 l/m 8,9 km/h (2 Bft) O 98 1 min 0,000 mm 0,0 UV-I 241 W/m 1,9 C 11,8 C 14,5 km/h (3 Bft) 100,00 %
02.04.2018 17:47 13,3 C 6,7 C 46 % 1009,7 hPa 0,0 l/m 10,2 km/h (2 Bft) O-NO 76 1 min 0,000 mm 0,0 UV-I 243 W/m 1,9 C 11,1 C 12,9 km/h (3 Bft) 95,83 %
02.04.2018 17:48 13,2 C 6,7 C 48 % 1009,7 hPa 0,0 l/m 11,3 km/h (2 Bft) O 88 1 min 0,000 mm 0,0 UV-I 240 W/m 2,4 C 10,5 C 17,7 km/h (3 Bft) 100,00 %
02.04.2018 17:49 13,2 C 6,7 C 47 % 1009,7 hPa 0,0 l/m 11,4 km/h (2 Bft) O-SO 120 1 min 0,000 mm 0,0 UV-I 229 W/m 2,1 C 10,5 C 12,9 km/h (3 Bft) 95,83 %
02.04.2018 17:50 13,2 C 6,7 C 49 % 1009,7 hPa 0,0 l/m 13,2 km/h (3 Bft) O 100 1 min 0,000 mm 0,0 UV-I 226 W/m 2,7 C 9,7 C 17,7 km/h (3 Bft) 100,00 %
02.04.2018 17:51 13,2 C 6,7 C 49 % 1009,7 hPa 0,0 l/m 14,9 km/h (3 Bft) O-SO 104 1 min 0,000 mm 0,0 UV-I 226 W/m 2,7 C 9,0 C 17,7 km/h (3 Bft) 95,83 %
02.04.2018 17:52 13,2 C 6,7 C 48 % 1009,7 hPa 0,0 l/m 12,1 km/h (2 Bft) O-SO 119 1 min 0,000 mm 0,0 UV-I 219 W/m 2,4 C 10,2 C 14,5 km/h (3 Bft) 100,00 %
02.04.2018 17:53 13,2 C 6,7 C 51 % 1009,7 hPa 0,0 l/m 12,6 km/h (3 Bft) O 92 1 min 0,000 mm 0,0 UV-I 214 W/m 3,3 C 9,9 C 16,1 km/h (3 Bft) 96,55 %
02.04.2018 17:54 13,2 C 6,7 C 51 % 1009,7 hPa 0,0 l/m 11,9 km/h (2 Bft) O-SO 103 1 min 0,000 mm 0,0 UV-I 214 W/m 3,3 C 10,2 C 17,7 km/h (3 Bft) 96,55 %
02.04.2018 17:55 13,1 C 6,7 C 51 % 1009,6 hPa 0,0 l/m 14,5 km/h (3 Bft) O-NO 76 1 min 0,000 mm 0,0 UV-I 210 W/m 3,2 C 9,1 C 17,7 km/h (3 Bft) 100,00 %
02.04.2018 17:56 13,1 C 6,7 C 52 % 1009,6 hPa 0,0 l/m 13,7 km/h (3 Bft) O-SO 106 1 min 0,000 mm 0,0 UV-I 207 W/m 3,5 C 9,4 C 17,7 km/h (3 Bft) 100,00 %
02.04.2018 17:57 13,1 C 6,7 C 51 % 1009,6 hPa 0,0 l/m 13,2 km/h (3 Bft) O-NO 71 1 min 0,000 mm 0,0 UV-I 204 W/m 3,2 C 9,6 C 16,1 km/h (3 Bft) 95,65 %
02.04.2018 17:58 13,1 C 6,7 C 52 % 1009,6 hPa 0,0 l/m 13,2 km/h (3 Bft) O 98 1 min 0,000 mm 0,0 UV-I 194 W/m 3,5 C 9,6 C 17,7 km/h (3 Bft) 96,30 %
02.04.2018 17:59 13,1 C 6,7 C 54 % 1009,6 hPa 0,0 l/m 12,4 km/h (3 Bft) O 84 1 min 0,000 mm 0,0 UV-I 187 W/m 4,0 C 9,9 C 16,1 km/h (3 Bft) 100,00 %
02.04.2018 18:00 13,1 C 6,7 C 54 % 1009,6 hPa 0,0 l/m 13,9 km/h (3 Bft) O 94 1 min 0,000 mm 0,0 UV-I 186 W/m 4,0 C 9,3 C 17,7 km/h (3 Bft) 95,83 %
02.04.2018 18:01 13,1 C 6,7 C 53 % 1009,7 hPa 0,0 l/m 16,8 km/h (3 Bft) O 90 1 min 0,204 mm 0,0 UV-I 182 W/m 3,7 C 8,3 C 19,3 km/h (3 Bft) 100,00 %
02.04.2018 18:02 13,0 C 6,7 C 52 % 1009,6 hPa 0,0 l/m 13,6 km/h (3 Bft) O-SO 107 1 min 0,000 mm 0,0 UV-I 180 W/m 3,4 C 9,3 C 19,3 km/h (3 Bft) 92,59 %
02.04.2018 18:03 12,9 C 6,7 C 52 % 1009,6 hPa 0,0 l/m 12,7 km/h (3 Bft) O 101 1 min 0,000 mm 0,0 UV-I 180 W/m 3,3 C 9,6 C 16,1 km/h (3 Bft) 100,00 %
02.04.2018 18:04 12,9 C 6,7 C 52 % 1009,5 hPa 0,0 l/m 14,9 km/h (3 Bft) O 88 1 min 0,000 mm 0,0 UV-I 174 W/m 3,3 C 8,7 C 16,1 km/h (3 Bft) 98,18 %
02.04.2018 18:05 12,8 C 6,7 C 52 % 1009,5 hPa 0,0 l/m 15,3 km/h (3 Bft) O-SO 104 1 min 0,000 mm 0,0 UV-I 152 W/m 3,2 C 8,4 C 19,3 km/h (3 Bft) 100,00 %
02.04.2018 18:06 12,8 C 6,7 C 52 % 1009,5 hPa 0,0 l/m 12,1 km/h (2 Bft) O 86 1 min 0,000 mm 0,0 UV-I 167 W/m 3,2 C 9,7 C 17,7 km/h (3 Bft) 96,30 %
02.04.2018 18:07 12,8 C 6,7 C 54 % 1009,5 hPa 0,0 l/m 10,0 km/h (2 Bft) O 94 1 min 0,000 mm 0,0 UV-I 156 W/m 3,7 C 10,7 C 12,9 km/h (3 Bft) 100,00 %
02.04.2018 18:08 12,8 C 6,7 C 54 % 1009,5 hPa 0,0 l/m 12,8 km/h (3 Bft) O 90 1 min 0,000 mm 0,0 UV-I 161 W/m 3,7 C 9,4 C 16,1 km/h (3 Bft) 96,30 %
02.04.2018 18:09 12,8 C 6,7 C 52 % 1009,5 hPa 0,0 l/m 12,0 km/h (2 Bft) O-NO 76 1 min 0,000 mm 0,0 UV-I 172 W/m 3,2 C 9,7 C 14,5 km/h (3 Bft) 95,65 %
02.04.2018 18:10 12,8 C 6,7 C 52 % 1009,5 hPa 0,0 l/m 13,1 km/h (3 Bft) SO 124 1 min 0,000 mm 0,0 UV-I 175 W/m 3,2 C 9,3 C 16,1 km/h (3 Bft) 100,00 %
02.04.2018 18:11 12,8 C 6,7 C 52 % 1009,5 hPa 0,0 l/m 11,4 km/h (2 Bft) O-SO 103 1 min 0,000 mm 0,0 UV-I 174 W/m 3,2 C 10,0 C 14,5 km/h (3 Bft) 95,65 %
02.04.2018 18:12 12,7 C 6,7 C 52 % 1009,5 hPa 0,0 l/m 12,4 km/h (3 Bft) O-SO 117 1 min 0,000 mm 0,0 UV-I 183 W/m 3,1 C 9,4 C 14,5 km/h (3 Bft) 100,00 %
02.04.2018 18:13 12,8 C 6,7 C 52 % 1009,4 hPa 0,0 l/m 9,3 km/h (2 Bft) O 96 1 min 0,000 mm 0,0 UV-I 184 W/m 3,2 C 11,1 C 11,3 km/h (2 Bft) 96,15 %
02.04.2018 18:14 12,8 C 6,7 C 52 % 1009,5 hPa 0,0 l/m 10,4 km/h (2 Bft) O-SO 117 1 min 0,000 mm 0,0 UV-I 181 W/m 3,2 C 10,5 C 12,9 km/h (3 Bft) 100,00 %
02.04.2018 18:15 12,8 C 6,7 C 52 % 1009,4 hPa 0,0 l/m 11,0 km/h (2 Bft) O-SO 105 1 min 0,000 mm 0,0 UV-I 176 W/m 3,2 C 10,2 C 14,5 km/h (3 Bft) 96,15 %
02.04.2018 18:16 12,8 C 6,7 C 52 % 1009,4 hPa 0,0 l/m 13,9 km/h (3 Bft) O-NO 73 1 min 0,000 mm 0,0 UV-I 174 W/m 3,2 C 8,9 C 16,1 km/h (3 Bft) 96,30 %
02.04.2018 18:17 12,8 C 6,7 C 53 % 1009,4 hPa 0,0 l/m 11,9 km/h (2 Bft) O 101 1 min 0,000 mm 0,0 UV-I 171 W/m 3,5 C 9,8 C 16,1 km/h (3 Bft) 100,00 %
02.04.2018 18:18 12,8 C 6,7 C 53 % 1009,4 hPa 0,0 l/m 12,8 km/h (3 Bft) O-SO 117 1 min 0,000 mm 0,0 UV-I 170 W/m 3,5 C 9,4 C 17,7 km/h (3 Bft) 96,15 %
02.04.2018 18:19 12,8 C 6,7 C 53 % 1009,4 hPa 0,0 l/m 15,4 km/h (3 Bft) O 92 1 min 0,000 mm 0,0 UV-I 155 W/m 3,5 C 8,4 C 19,3 km/h (3 Bft) 95,83 %
02.04.2018 18:20 12,8 C 6,7 C 54 % 1009,4 hPa 0,0 l/m 11,9 km/h (2 Bft) O 82 1 min 0,000 mm 0,0 UV-I 156 W/m 3,7 C 9,8 C 16,1 km/h (3 Bft) 96,15 %
02.04.2018 18:21 12,8 C 6,7 C 55 % 1009,4 hPa 0,0 l/m 14,9 km/h (3 Bft) O 91 1 min 0,000 mm 0,0 UV-I 150 W/m 4,0 C 8,6 C 20,9 km/h (4 Bft) 100,00 %
02.04.2018 18:22 12,7 C 6,7 C 55 % 1009,4 hPa 0,0 l/m 16,6 km/h (3 Bft) O-SO 103 1 min 0,000 mm 0,0 UV-I 135 W/m 3,9 C 7,8 C 19,3 km/h (3 Bft) 95,65 %
02.04.2018 18:23 12,7 C 6,7 C 54 % 1009,5 hPa 0,0 l/m 15,4 km/h (3 Bft) O-SO 103 1 min 0,000 mm 0,0 UV-I 111 W/m 3,6 C 8,3 C 19,3 km/h (3 Bft) 100,00 %
02.04.2018 18:24 12,6 C 6,7 C 54 % 1009,4 hPa 0,0 l/m 13,0 km/h (3 Bft) O-SO 103 0 min 0,000 mm 0,0 UV-I 93 W/m 3,5 C 9,1 C 16,1 km/h (3 Bft) 92,31 %
02.04.2018 18:25 12,5 C 6,7 C 55 % 1009,5 hPa 0,0 l/m 10,6 km/h (2 Bft) O-SO 113 0 min 0,000 mm 0,0 UV-I 94 W/m 3,7 C 10,1 C 17,7 km/h (3 Bft) 96,30 %
02.04.2018 18:26 12,4 C 6,7 C 55 % 1009,4 hPa 0,0 l/m 8,4 km/h (2 Bft) O-NO 77 0 min 0,000 mm 0,0 UV-I 96 W/m 3,6 C 11,1 C 12,9 km/h (3 Bft) 96,15 %
02.04.2018 18:27 12,4 C 6,7 C 56 % 1009,5 hPa 0,0 l/m 9,5 km/h (2 Bft) O 86 0 min 0,000 mm 0,0 UV-I 95 W/m 3,9 C 10,5 C 12,9 km/h (3 Bft) 95,83 %
02.04.2018 18:28 12,3 C 6,7 C 56 % 1009,4 hPa 0,0 l/m 10,5 km/h (2 Bft) O-SO 116 0 min 0,000 mm 0,0 UV-I 94 W/m 3,8 C 9,9 C 14,5 km/h (3 Bft) 96,15 %
02.04.2018 18:29 12,3 C 6,7 C 57 % 1009,4 hPa 0,0 l/m 8,4 km/h (2 Bft) O 90 0 min 0,000 mm 0,0 UV-I 93 W/m 4,0 C 11,0 C 12,9 km/h (3 Bft) 91,67 %
02.04.2018 18:30 12,3 C 6,7 C 58 % 1009,4 hPa 0,0 l/m 11,5 km/h (2 Bft) O 98 0 min 0,000 mm 0,0 UV-I 93 W/m 4,3 C 9,4 C 14,5 km/h (3 Bft) 100,00 %
02.04.2018 18:31 12,3 C 6,7 C 56 % 1009,4 hPa 0,0 l/m 15,2 km/h (3 Bft) O 90 1 min 0,000 mm 0,0 UV-I 95 W/m 3,8 C 7,8 C 17,7 km/h (3 Bft) 91,67 %
02.04.2018 18:32 12,3 C 6,7 C 56 % 1009,4 hPa 0,0 l/m 10,3 km/h (2 Bft) O 93 1 min 0,000 mm 0,0 UV-I 95 W/m 3,8 C 10,0 C 12,9 km/h (3 Bft) 96,67 %
02.04.2018 18:33 12,3 C 6,7 C 57 % 1009,4 hPa 0,0 l/m 10,7 km/h (2 Bft) O-SO 105 1 min 0,000 mm 0,0 UV-I 95 W/m 4,0 C 9,8 C 16,1 km/h (3 Bft) 90,91 %
02.04.2018 18:34 12,3 C 6,7 C 57 % 1009,4 hPa 0,0 l/m 11,7 km/h (2 Bft) O 79 1 min 0,000 mm 0,0 UV-I 97 W/m 4,0 C 9,3 C 14,5 km/h (3 Bft) 95,12 %
02.04.2018 18:35 12,2 C 6,7 C 57 % 1009,4 hPa 0,0 l/m 13,4 km/h (3 Bft) O 80 1 min 0,000 mm 0,0 UV-I 95 W/m 3,9 C 8,4 C 17,7 km/h (3 Bft) 96,30 %
02.04.2018 18:36 12,2 C 6,7 C 57 % 1009,4 hPa 0,0 l/m 11,8 km/h (2 Bft) O 94 1 min 0,000 mm 0,0 UV-I 96 W/m 3,9 C 9,1 C 14,5 km/h (3 Bft) 98,12 %
02.04.2018 18:37 12,2 C 6,7 C 57 % 1009,4 hPa 0,0 l/m 10,9 km/h (2 Bft) O 88 1 min 0,000 mm 0,0 UV-I 91 W/m 3,9 C 9,6 C 14,5 km/h (3 Bft) 95,12 %
02.04.2018 18:38 12,2 C 6,7 C 58 % 1009,4 hPa 0,0 l/m 11,7 km/h (2 Bft) O-SO 109 1 min 0,000 mm 0,0 UV-I 87 W/m 4,2 C 9,2 C 14,5 km/h (3 Bft) 96,30 %
02.04.2018 18:39 12,2 C 6,7 C 57 % 1009,4 hPa 0,0 l/m 8,4 km/h (2 Bft) O 101 1 min 0,000 mm 0,0 UV-I 84 W/m 3,9 C 10,9 C 12,9 km/h (3 Bft) 94,12 %
02.04.2018 18:40 12,1 C 6,7 C 59 % 1009,4 hPa 0,0 l/m 7,3 km/h (2 Bft) O 83 1 min 0,000 mm 0,0 UV-I 81 W/m 4,3 C 11,5 C 9,7 km/h (2 Bft) 96,30 %
02.04.2018 18:41 12,1 C 6,7 C 60 % 1009,4 hPa 0,0 l/m 10,0 km/h (2 Bft) O 86 1 min 0,000 mm 0,0 UV-I 79 W/m 4,6 C 9,9 C 16,1 km/h (3 Bft) 84,62 %
02.04.2018 18:42 12,1 C 6,7 C 61 % 1009,4 hPa 0,0 l/m 11,7 km/h (2 Bft) O 90 1 min 0,000 mm 0,0 UV-I 80 W/m 4,8 C 9,1 C 16,1 km/h (3 Bft) 100,00 %
02.04.2018 18:43 12,0 C 6,7 C 59 % 1009,4 hPa 0,0 l/m 9,9 km/h (2 Bft) O-SO 111 1 min 0,000 mm 0,0 UV-I 80 W/m 4,2 C 9,9 C 12,9 km/h (3 Bft) 95,65 %
02.04.2018 18:44 11,9 C 6,7 C 60 % 1009,4 hPa 0,0 l/m 12,0 km/h (2 Bft) O-NO 73 1 min 0,000 mm 0,0 UV-I 77 W/m 4,4 C 8,7 C 16,1 km/h (3 Bft) 100,00 %
02.04.2018 18:45 11,9 C 6,7 C 60 % 1009,4 hPa 0,0 l/m 11,2 km/h (2 Bft) O-SO 102 1 min 0,000 mm 0,0 UV-I 75 W/m 4,4 C 9,1 C 16,1 km/h (3 Bft) 88,46 %
02.04.2018 18:46 11,9 C 6,7 C 60 % 1009,4 hPa 0,0 l/m 11,3 km/h (2 Bft) O 100 1 min 0,000 mm 0,0 UV-I 71 W/m 4,4 C 9,0 C 16,1 km/h (3 Bft) 100,00 %
02.04.2018 18:47 11,9 C 6,7 C 60 % 1009,4 hPa 0,0 l/m 11,3 km/h (2 Bft) O 101 1 min 0,000 mm 0,0 UV-I 69 W/m 4,4 C 9,0 C 14,5 km/h (3 Bft) 92,86 %
02.04.2018 18:48 11,9 C 6,7 C 60 % 1009,4 hPa 0,0 l/m 14,6 km/h (3 Bft) O 80 0 min 0,000 mm 0,0 UV-I 64 W/m 4,4 C 7,6 C 17,7 km/h (3 Bft) 100,00 %
02.04.2018 18:49 11,8 C 6,7 C 60 % 1009,4 hPa 0,0 l/m 10,8 km/h (2 Bft) O 87 0 min 0,000 mm 0,0 UV-I 62 W/m 4,3 C 9,2 C 14,5 km/h (3 Bft) 95,65 %
02.04.2018 18:50 11,8 C 6,7 C 61 % 1009,4 hPa 0,0 l/m 9,7 km/h (2 Bft) O 94 0 min 0,000 mm 0,0 UV-I 63 W/m 4,5 C 9,7 C 12,9 km/h (3 Bft) 96,67 %
02.04.2018 18:51 11,8 C 6,7 C 61 % 1009,3 hPa 0,0 l/m 13,3 km/h (3 Bft) O-SO 109 1 min 0,000 mm 0,0 UV-I 63 W/m 4,5 C 8,0 C 16,1 km/h (3 Bft) 100,00 %
02.04.2018 18:53 11,7 C 6,7 C 61 % 1009,3 hPa 0,0 l/m 10,6 km/h (2 Bft) O-SO 107 2 min 0,000 mm 0,0 UV-I 60 W/m 4,4 C 9,2 C 14,5 km/h (3 Bft) 98,08 %
02.04.2018 18:54 11,7 C 6,7 C 61 % 1009,3 hPa 0,0 l/m 10,1 km/h (2 Bft) O 99 0 min 0,000 mm 0,0 UV-I 56 W/m 4,4 C 9,4 C 12,9 km/h (3 Bft) 93,33 %
02.04.2018 18:55 11,6 C 6,7 C 62 % 1009,4 hPa 0,0 l/m 10,9 km/h (2 Bft) O 83 0 min 0,000 mm 0,0 UV-I 54 W/m 4,6 C 8,9 C 12,9 km/h (3 Bft) 100,00 %
02.04.2018 18:56 11,6 C 6,7 C 63 % 1009,3 hPa 0,0 l/m 11,0 km/h (2 Bft) O-NO 71 0 min 0,000 mm 0,0 UV-I 51 W/m 4,8 C 8,8 C 14,5 km/h (3 Bft) 100,00 %
02.04.2018 18:57 11,5 C 6,7 C 63 % 1009,3 hPa 0,0 l/m 9,3 km/h (2 Bft) O-NO 78 0 min 0,000 mm 0,0 UV-I 48 W/m 4,7 C 9,6 C 11,3 km/h (2 Bft) 95,83 %
02.04.2018 18:58 11,4 C 6,7 C 64 % 1009,3 hPa 0,0 l/m 9,4 km/h (2 Bft) O 90 0 min 0,000 mm 0,0 UV-I 47 W/m 4,8 C 9,5 C 12,9 km/h (3 Bft) 100,00 %
02.04.2018 18:59 11,4 C 6,7 C 64 % 1009,3 hPa 0,0 l/m 11,9 km/h (2 Bft) O 79 0 min 0,000 mm 0,0 UV-I 46 W/m 4,8 C 8,2 C 16,1 km/h (3 Bft) 100,00 %
02.04.2018 19:00 11,4 C 6,7 C 63 % 1009,3 hPa 0,0 l/m 9,7 km/h (2 Bft) O 89 0 min 0,000 mm 0,0 UV-I 44 W/m 4,6 C 9,3 C 12,9 km/h (3 Bft) 100,00 %
02.04.2018 19:01 11,4 C 6,7 C 64 % 1009,2 hPa 0,0 l/m 9,7 km/h (2 Bft) O 84 0 min 0,127 mm 0,0 UV-I 43 W/m 4,8 C 9,3 C 12,9 km/h (3 Bft) 100,00 %
02.04.2018 19:02 11,4 C 6,7 C 63 % 1009,2 hPa 0,0 l/m 12,5 km/h (3 Bft) O 90 0 min 0,000 mm 0,0 UV-I 42 W/m 4,6 C 7,9 C 17,7 km/h (3 Bft) 100,00 %
02.04.2018 19:03 11,4 C 6,7 C 63 % 1009,2 hPa 0,0 l/m 10,7 km/h (2 Bft) O-SO 103 0 min 0,000 mm 0,0 UV-I 41 W/m 4,6 C 8,8 C 12,9 km/h (3 Bft) 100,00 %
02.04.2018 19:04 11,3 C 6,7 C 63 % 1009,2 hPa 0,0 l/m 10,5 km/h (2 Bft) NO 46 0 min 0,000 mm 0,0 UV-I 37 W/m 4,5 C 8,8 C 12,9 km/h (3 Bft) 100,00 %
02.04.2018 19:05 11,3 C 6,7 C 63 % 1009,2 hPa 0,0 l/m 10,9 km/h (2 Bft) O 99 0 min 0,000 mm 0,0 UV-I 34 W/m 4,5 C 8,6 C 14,5 km/h (3 Bft) 100,00 %
02.04.2018 19:06 11,3 C 6,7 C 65 % 1009,1 hPa 0,0 l/m 9,1 km/h (2 Bft) O 88 0 min 0,000 mm 0,0 UV-I 32 W/m 5,0 C 9,5 C 12,9 km/h (3 Bft) 100,00 %
02.04.2018 19:07 11,3 C 6,7 C 65 % 1009,1 hPa 0,0 l/m 9,5 km/h (2 Bft) O 90 0 min 0,000 mm 0,0 UV-I 32 W/m 5,0 C 9,3 C 16,1 km/h (3 Bft) 100,00 %
02.04.2018 19:08 11,2 C 6,7 C 65 % 1009,1 hPa 0,0 l/m 10,1 km/h (2 Bft) O 82 0 min 0,000 mm 0,0 UV-I 31 W/m 4,9 C 8,9 C 14,5 km/h (3 Bft) 100,00 %
02.04.2018 19:09 11,2 C 6,7 C 65 % 1009,1 hPa 0,0 l/m 10,5 km/h (2 Bft) O 98 0 min 0,000 mm 0,0 UV-I 28 W/m 4,9 C 8,7 C 14,5 km/h (3 Bft) 100,00 %
02.04.2018 19:10 11,1 C 6,7 C 65 % 1009,1 hPa 0,0 l/m 11,1 km/h (2 Bft) O-SO 103 0 min 0,000 mm 0,0 UV-I 28 W/m 4,8 C 8,2 C 12,9 km/h (3 Bft) 98,11 %
02.04.2018 19:11 11,1 C 6,7 C 65 % 1009,1 hPa 0,0 l/m 8,5 km/h (2 Bft) O 86 0 min 0,000 mm 0,0 UV-I 26 W/m 4,8 C 9,7 C 12,9 km/h (3 Bft) 97,37 %
02.04.2018 19:12 11,1 C 6,7 C 65 % 1009,1 hPa 0,0 l/m 7,5 km/h (2 Bft) O-SO 105 0 min 0,000 mm 0,0 UV-I 26 W/m 4,8 C 10,3 C 11,3 km/h (2 Bft) 100,00 %
02.04.2018 19:13 11,0 C 6,7 C 66 % 1009,1 hPa 0,0 l/m 8,4 km/h (2 Bft) O-NO 71 0 min 0,000 mm 0,0 UV-I 25 W/m 4,9 C 9,6 C 12,9 km/h (3 Bft) 100,00 %
02.04.2018 19:14 11,0 C 6,7 C 66 % 1009,1 hPa 0,0 l/m 9,2 km/h (2 Bft) O 79 0 min 0,000 mm 0,0 UV-I 24 W/m 4,9 C 9,2 C 12,9 km/h (3 Bft) 100,00 %
02.04.2018 19:15 11,0 C 6,7 C 65 % 1009,1 hPa 0,0 l/m 7,9 km/h (2 Bft) O 97 0 min 0,000 mm 0,0 UV-I 23 W/m 4,7 C 10,0 C 12,9 km/h (3 Bft) 97,56 %
02.04.2018 19:16 10,9 C 6,7 C 65 % 1009,1 hPa 0,0 l/m 10,3 km/h (2 Bft) O-NO 69 0 min 0,000 mm 0,0 UV-I 21 W/m 4,6 C 8,4 C 14,5 km/h (3 Bft) 100,00 %
02.04.2018 19:17 11,0 C 6,7 C 65 % 1009,1 hPa 0,0 l/m 11,5 km/h (2 Bft) O-NO 71 0 min 0,000 mm 0,0 UV-I 20 W/m 4,7 C 7,9 C 14,5 km/h (3 Bft) 100,00 %
02.04.2018 19:18 10,9 C 6,7 C 65 % 1009,1 hPa 0,0 l/m 8,8 km/h (2 Bft) O-NO 63 0 min 0,000 mm 0,0 UV-I 19 W/m 4,6 C 9,3 C 12,9 km/h (3 Bft) 100,00 %
02.04.2018 19:19 10,9 C 6,7 C 66 % 1009,1 hPa 0,0 l/m 10,7 km/h (2 Bft) O 86 1 min 0,000 mm 0,0 UV-I 18 W/m 4,8 C 8,2 C 14,5 km/h (3 Bft) 100,00 %
02.04.2018 19:20 10,9 C 6,7 C 66 % 1009,0 hPa 0,0 l/m 12,4 km/h (3 Bft) O 84 1 min 0,000 mm 0,0 UV-I 16 W/m 4,8 C 7,4 C 14,5 km/h (3 Bft) 100,00 %
02.04.2018 19:21 10,8 C 6,7 C 66 % 1009,0 hPa 0,0 l/m 9,8 km/h (2 Bft) O 91 1 min 0,000 mm 0,0 UV-I 16 W/m 4,7 C 8,6 C 12,9 km/h (3 Bft) 100,00 %
02.04.2018 19:22 10,8 C 6,7 C 66 % 1009,1 hPa 0,0 l/m 9,2 km/h (2 Bft) O-NO 61 1 min 0,000 mm 0,0 UV-I 14 W/m 4,7 C 8,9 C 11,3 km/h (2 Bft) 100,00 %
02.04.2018 19:23 10,8 C 6,7 C 66 % 1009,0 hPa 0,0 l/m 11,0 km/h (2 Bft) O 83 1 min 0,000 mm 0,0 UV-I 14 W/m 4,7 C 7,9 C 12,9 km/h (3 Bft) 95,65 %
02.04.2018 19:24 10,7 C 6,7 C 66 % 1009,0 hPa 0,0 l/m 10,5 km/h (2 Bft) O 84 1 min 0,000 mm 0,0 UV-I 13 W/m 4,6 C 8,1 C 14,5 km/h (3 Bft) 96,30 %
02.04.2018 19:25 10,7 C 6,7 C 66 % 1009,0 hPa 0,0 l/m 11,2 km/h (2 Bft) O 83 0 min 0,000 mm 0,0 UV-I 12 W/m 4,6 C 7,7 C 14,5 km/h (3 Bft) 100,00 %
02.04.2018 19:26 10,7 C 6,7 C 66 % 1009,0 hPa 0,0 l/m 8,4 km/h (2 Bft) O-NO 64 0 min 0,000 mm 0,0 UV-I 11 W/m 4,6 C 9,3 C 11,3 km/h (2 Bft) 100,00 %
02.04.2018 19:27 10,7 C 6,7 C 66 % 1009,0 hPa 0,0 l/m 8,0 km/h (2 Bft) O 99 0 min 0,000 mm 0,0 UV-I 11 W/m 4,6 C 9,6 C 11,3 km/h (2 Bft) 95,65 %
02.04.2018 19:28 10,6 C 6,7 C 67 % 1009,0 hPa 0,0 l/m 8,5 km/h (2 Bft) O-NO 75 0 min 0,000 mm 0,0 UV-I 11 W/m 4,7 C 9,2 C 11,3 km/h (2 Bft) 100,00 %
02.04.2018 19:29 10,6 C 6,7 C 67 % 1009,0 hPa 0,0 l/m 10,1 km/h (2 Bft) O-NO 73 0 min 0,000 mm 0,0 UV-I 9 W/m 4,7 C 8,2 C 12,9 km/h (3 Bft) 100,00 %
02.04.2018 19:30 10,6 C 6,7 C 67 % 1009,0 hPa 0,0 l/m 10,5 km/h (2 Bft) O 86 0 min 0,000 mm 0,0 UV-I 9 W/m 4,7 C 8,0 C 16,1 km/h (3 Bft) 100,00 %
02.04.2018 19:31 10,6 C 6,7 C 67 % 1009,0 hPa 0,0 l/m 8,0 km/h (2 Bft) O 90 0 min 0,000 mm 0,0 UV-I 8 W/m 4,7 C 9,5 C 12,9 km/h (3 Bft) 100,00 %
02.04.2018 19:32 10,6 C 6,7 C 67 % 1009,0 hPa 0,0 l/m 7,8 km/h (2 Bft) O 88 0 min 0,000 mm 0,0 UV-I 7 W/m 4,7 C 9,6 C 11,3 km/h (2 Bft) 100,00 %
02.04.2018 19:33 10,5 C 6,7 C 67 % 1009,0 hPa 0,0 l/m 6,0 km/h (2 Bft) O-NO 61 0 min 0,000 mm 0,0 UV-I 7 W/m 4,6 C 10,5 C 8,0 km/h (2 Bft) 100,00 %
02.04.2018 19:34 10,5 C 6,7 C 67 % 1009,0 hPa 0,0 l/m 6,5 km/h (2 Bft) O-NO 73 0 min 0,000 mm 0,0 UV-I 7 W/m 4,6 C 10,5 C 8,0 km/h (2 Bft) 100,00 %
02.04.2018 19:35 10,4 C 6,7 C 68 % 1009,0 hPa 0,0 l/m 7,6 km/h (2 Bft) O-SO 105 0 min 0,000 mm 0,0 UV-I 5 W/m 4,8 C 9,5 C 11,3 km/h (2 Bft) 100,00 %
02.04.2018 19:36 10,3 C 6,7 C 68 % 1009,0 hPa 0,0 l/m 8,4 km/h (2 Bft) O-NO 73 0 min 0,000 mm 0,0 UV-I 5 W/m 4,7 C 8,9 C 11,3 km/h (2 Bft) 100,00 %
02.04.2018 19:38 10,2 C 6,7 C 69 % 1009,0 hPa 0,0 l/m 8,7 km/h (2 Bft) O 87 0 min 0,000 mm 0,0 UV-I 5 W/m 4,8 C 8,6 C 12,9 km/h (3 Bft) 100,00 %
02.04.2018 19:39 10,2 C 6,7 C 69 % 1009,0 hPa 0,0 l/m 10,1 km/h (2 Bft) O 83 0 min 0,000 mm 0,0 UV-I 5 W/m 4,8 C 7,8 C 12,9 km/h (3 Bft) 100,00 %
02.04.2018 19:40 10,1 C 6,7 C 69 % 1009,0 hPa 0,0 l/m 9,7 km/h (2 Bft) O 98 0 min 0,000 mm 0,0 UV-I 5 W/m 4,7 C 7,9 C 12,9 km/h (3 Bft) 100,00 %
02.04.2018 19:41 10,1 C 6,7 C 69 % 1009,0 hPa 0,0 l/m 8,3 km/h (2 Bft) O 81 0 min 0,000 mm 0,0 UV-I 5 W/m 4,7 C 8,8 C 11,3 km/h (2 Bft) 95,83 %
02.04.2018 19:43 10,1 C 6,7 C 68 % 1009,0 hPa 0,0 l/m 6,4 km/h (2 Bft) O 98 0 min 0,000 mm 0,0 UV-I 5 W/m 4,5 C 10,1 C 11,3 km/h (2 Bft) 100,00 %
02.04.2018 19:44 10,1 C 6,7 C 68 % 1009,0 hPa 0,0 l/m 6,9 km/h (2 Bft) O-NO 64 0 min 0,000 mm 0,0 UV-I 5 W/m 4,5 C 9,7 C 11,3 km/h (2 Bft) 100,00 %
02.04.2018 19:45 10,2 C 6,7 C 68 % 1009,0 hPa 0,0 l/m 4,6 km/h (1 Bft) O 79 0 min 0,000 mm 0,0 UV-I 0 W/m 4,6 C 10,2 C 4,8 km/h (1 Bft) 100,00 %
02.04.2018 19:46 10,2 C 6,7 C 68 % 1009,0 hPa 0,0 l/m 4,6 km/h (1 Bft) O-NO 78 0 min 0,000 mm 0,0 UV-I 0 W/m 4,6 C 10,2 C 6,4 km/h (2 Bft) 100,00 %
02.04.2018 19:47 10,2 C 6,7 C 68 % 1009,0 hPa 0,0 l/m 5,8 km/h (2 Bft) O-NO 78 0 min 0,000 mm 0,0 UV-I 0 W/m 4,6 C 10,2 C 6,4 km/h (2 Bft) 95,83 %
02.04.2018 19:48 10,1 C 6,7 C 68 % 1009,0 hPa 0,0 l/m 5,4 km/h (1 Bft) O 96 0 min 0,000 mm 0,0 UV-I 0 W/m 4,5 C 10,1 C 6,4 km/h (2 Bft) 100,00 %
02.04.2018 19:49 10,1 C 6,7 C 69 % 1009,0 hPa 0,0 l/m 5,1 km/h (1 Bft) O-NO 77 0 min 0,000 mm 0,0 UV-I 0 W/m 4,7 C 10,1 C 6,4 km/h (2 Bft) 100,00 %
02.04.2018 19:50 10,0 C 6,7 C 69 % 1009,0 hPa 0,0 l/m 6,1 km/h (2 Bft) O 82 0 min 0,000 mm 0,0 UV-I 0 W/m 4,6 C 10,0 C 8,0 km/h (2 Bft) 100,00 %
02.04.2018 19:51 9,9 C 6,7 C 69 % 1009,0 hPa 0,0 l/m 6,0 km/h (2 Bft) O-NO 71 0 min 0,000 mm 0,0 UV-I 0 W/m 4,5 C 9,9 C 8,0 km/h (2 Bft) 100,00 %
02.04.2018 19:52 9,9 C 6,7 C 69 % 1009,0 hPa 0,0 l/m 6,1 km/h (2 Bft) O-NO 74 0 min 0,000 mm 0,0 UV-I 0 W/m 4,5 C 9,9 C 8,0 km/h (2 Bft) 100,00 %
02.04.2018 19:53 9,9 C 6,7 C 69 % 1009,0 hPa 0,0 l/m 5,2 km/h (1 Bft) O-NO 76 0 min 0,000 mm 0,0 UV-I 0 W/m 4,5 C 9,9 C 6,4 km/h (2 Bft) 100,00 %
02.04.2018 19:54 9,9 C 6,7 C 70 % 1009,1 hPa 0,0 l/m 4,9 km/h (1 Bft) O-NO 67 0 min 0,000 mm 0,0 UV-I 0 W/m 4,7 C 9,9 C 6,4 km/h (2 Bft) 96,30 %
02.04.2018 19:55 9,8 C 6,7 C 70 % 1009,1 hPa 0,0 l/m 3,8 km/h (1 Bft) O-NO 67 0 min 0,000 mm 0,0 UV-I 0 W/m 4,6 C 9,8 C 4,8 km/h (1 Bft) 100,00 %
02.04.2018 19:56 9,8 C 6,7 C 70 % 1009,0 hPa 0,0 l/m 2,5 km/h (1 Bft) O-NO 67 0 min 0,000 mm 0,0 UV-I 0 W/m 4,6 C 9,8 C 3,2 km/h (1 Bft) 100,00 %
02.04.2018 19:57 9,7 C 6,7 C 70 % 1009,0 hPa 0,0 l/m 3,2 km/h (1 Bft) O-NO 67 0 min 0,000 mm 0,0 UV-I 0 W/m 4,5 C 9,7 C 4,8 km/h (1 Bft) 100,00 %
02.04.2018 19:58 9,7 C 6,7 C 71 % 1009,0 hPa 0,0 l/m 3,9 km/h (1 Bft) O-NO 62 0 min 0,000 mm 0,0 UV-I 0 W/m 4,7 C 9,7 C 6,4 km/h (2 Bft) 100,00 %
02.04.2018 19:59 9,7 C 6,7 C 71 % 1009,0 hPa 0,0 l/m 4,8 km/h (1 Bft) O-NO 62 0 min 0,000 mm 0,0 UV-I 0 W/m 4,7 C 9,7 C 6,4 km/h (2 Bft) 100,00 %
02.04.2018 20:00 9,7 C 6,7 C 71 % 1009,1 hPa 0,0 l/m 4,5 km/h (1 Bft) O-NO 64 0 min 0,000 mm 0,0 UV-I 0 W/m 4,7 C 9,7 C 6,4 km/h (2 Bft) 100,00 %
02.04.2018 20:01 9,6 C 6,7 C 71 % 1009,0 hPa 0,0 l/m 4,0 km/h (1 Bft) O-NO 64 0 min 0,050 mm 0,0 UV-I 0 W/m 4,6 C 9,6 C 4,8 km/h (1 Bft) 100,00 %
02.04.2018 20:02 9,6 C 6,7 C 71 % 1009,0 hPa 0,0 l/m 4,4 km/h (1 Bft) O-NO 71 0 min 0,000 mm 0,0 UV-I 0 W/m 4,6 C 9,6 C 6,4 km/h (2 Bft) 100,00 %
02.04.2018 20:03 9,6 C 6,7 C 71 % 1009,0 hPa 0,0 l/m 5,3 km/h (1 Bft) O-NO 77 0 min 0,000 mm 0,0 UV-I 0 W/m 4,6 C 9,6 C 6,4 km/h (2 Bft) 100,00 %
02.04.2018 20:04 9,6 C 6,7 C 71 % 1009,0 hPa 0,0 l/m 5,4 km/h (1 Bft) O-NO 76 0 min 0,000 mm 0,0 UV-I 0 W/m 4,6 C 9,6 C 8,0 km/h (2 Bft) 96,15 %
02.04.2018 20:05 9,4 C 6,7 C 72 % 1009,0 hPa 0,0 l/m 5,3 km/h (1 Bft) O-NO 65 0 min 0,000 mm 0,0 UV-I 0 W/m 4,6 C 9,4 C 6,4 km/h (2 Bft) 96,15 %
02.04.2018 20:06 9,3 C 6,7 C 73 % 1009,0 hPa 0,0 l/m 6,9 km/h (2 Bft) O 84 0 min 0,000 mm 0,0 UV-I 0 W/m 4,7 C 8,9 C 9,7 km/h (2 Bft) 100,00 %
02.04.2018 20:07 9,2 C 6,7 C 73 % 1008,9 hPa 0,0 l/m 7,7 km/h (2 Bft) O 98 0 min 0,000 mm 0,0 UV-I 0 W/m 4,6 C 8,2 C 11,3 km/h (2 Bft) 95,65 %
02.04.2018 20:08 9,2 C 6,7 C 73 % 1008,9 hPa 0,0 l/m 9,4 km/h (2 Bft) O 89 0 min 0,000 mm 0,0 UV-I 0 W/m 4,6 C 7,1 C 14,5 km/h (3 Bft) 100,00 %
02.04.2018 20:09 9,2 C 6,7 C 73 % 1008,9 hPa 0,0 l/m 7,8 km/h (2 Bft) O 83 0 min 0,000 mm 0,0 UV-I 0 W/m 4,6 C 8,2 C 11,3 km/h (2 Bft) 100,00 %
02.04.2018 20:10 9,1 C 6,7 C 73 % 1008,9 hPa 0,0 l/m 7,6 km/h (2 Bft) O 100 0 min 0,000 mm 0,0 UV-I 0 W/m 4,5 C 8,2 C 11,3 km/h (2 Bft) 100,00 %
02.04.2018 20:11 9,1 C 6,7 C 73 % 1008,9 hPa 0,0 l/m 5,9 km/h (2 Bft) NO 55 0 min 0,000 mm 0,0 UV-I 0 W/m 4,5 C 9,1 C 8,0 km/h (2 Bft) 100,00 %
02.04.2018 20:12 9,2 C 6,7 C 73 % 1008,9 hPa 0,0 l/m 7,2 km/h (2 Bft) O-NO 69 0 min 0,000 mm 0,0 UV-I 0 W/m 4,6 C 8,6 C 11,3 km/h (2 Bft) 95,65 %
02.04.2018 20:13 9,2 C 6,7 C 73 % 1008,9 hPa 0,0 l/m 6,4 km/h (2 Bft) O-NO 67 0 min 0,000 mm 0,0 UV-I 0 W/m 4,6 C 9,2 C 9,7 km/h (2 Bft) 100,00 %
02.04.2018 20:14 9,3 C 6,7 C 73 % 1008,9 hPa 0,0 l/m 5,1 km/h (1 Bft) O-NO 59 0 min 0,000 mm 0,0 UV-I 0 W/m 4,7 C 9,3 C 6,4 km/h (2 Bft) 100,00 %
02.04.2018 20:15 9,2 C 6,7 C 73 % 1008,9 hPa 0,0 l/m 5,5 km/h (1 Bft) O-NO 74 0 min 0,000 mm 0,0 UV-I 0 W/m 4,6 C 9,2 C 8,0 km/h (2 Bft) 100,00 %
02.04.2018 20:16 9,2 C 6,7 C 74 % 1008,9 hPa 0,0 l/m 5,6 km/h (1 Bft) O-NO 74 0 min 0,000 mm 0,0 UV-I 0 W/m 4,8 C 9,2 C 8,0 km/h (2 Bft) 100,00 %
02.04.2018 20:17 9,1 C 6,7 C 74 % 1008,9 hPa 0,0 l/m 4,8 km/h (1 Bft) O-NO 67 0 min 0,000 mm 0,0 UV-I 0 W/m 4,7 C 9,1 C 6,4 km/h (2 Bft) 100,00 %
02.04.2018 20:18 9,1 C 6,7 C 74 % 1008,9 hPa 0,0 l/m 5,7 km/h (1 Bft) O 86 0 min 0,000 mm 0,0 UV-I 0 W/m 4,7 C 9,1 C 8,0 km/h (2 Bft) 100,00 %
02.04.2018 20:19 9,1 C 6,7 C 74 % 1008,9 hPa 0,0 l/m 8,0 km/h (2 Bft) O-NO 76 0 min 0,000 mm 0,0 UV-I 0 W/m 4,7 C 7,9 C 11,3 km/h (2 Bft) 100,00 %
02.04.2018 20:20 9,2 C 6,7 C 74 % 1008,9 hPa 0,0 l/m 8,0 km/h (2 Bft) O-NO 78 0 min 0,000 mm 0,0 UV-I 0 W/m 4,8 C 8,0 C 11,3 km/h (2 Bft) 100,00 %
02.04.2018 20:21 9,1 C 6,7 C 74 % 1008,9 hPa 0,0 l/m 6,9 km/h (2 Bft) O 82 0 min 0,000 mm 0,0 UV-I 0 W/m 4,7 C 8,7 C 9,7 km/h (2 Bft) 100,00 %
02.04.2018 20:23 9,0 C 6,7 C 74 % 1008,8 hPa 0,0 l/m 8,3 km/h (2 Bft) O 86 0 min 0,000 mm 0,0 UV-I 0 W/m 4,6 C 7,6 C 12,9 km/h (3 Bft) 100,00 %
02.04.2018 20:24 9,1 C 6,7 C 74 % 1008,8 hPa 0,0 l/m 8,0 km/h (2 Bft) O 88 0 min 0,000 mm 0,0 UV-I 0 W/m 4,7 C 7,9 C 11,3 km/h (2 Bft) 96,15 %
02.04.2018 20:25 9,0 C 6,7 C 74 % 1008,9 hPa 0,0 l/m 6,8 km/h (2 Bft) O-SO 104 0 min 0,000 mm 0,0 UV-I 0 W/m 4,6 C 8,7 C 9,7 km/h (2 Bft) 100,00 %
02.04.2018 20:26 9,0 C 6,7 C 73 % 1008,8 hPa 0,0 l/m 8,4 km/h (2 Bft) O 90 0 min 0,000 mm 0,0 UV-I 0 W/m 4,4 C 7,5 C 11,3 km/h (2 Bft) 95,83 %
02.04.2018 20:27 9,0 C 6,7 C 73 % 1008,8 hPa 0,0 l/m 7,2 km/h (2 Bft) O-NO 64 0 min 0,000 mm 0,0 UV-I 0 W/m 4,4 C 8,4 C 11,3 km/h (2 Bft) 96,15 %
02.04.2018 20:28 9,0 C 6,7 C 73 % 1008,8 hPa 0,0 l/m 5,8 km/h (2 Bft) O-NO 76 0 min 0,000 mm 0,0 UV-I 0 W/m 4,4 C 9,0 C 6,4 km/h (2 Bft) 100,00 %
02.04.2018 20:29 9,0 C 6,7 C 73 % 1008,8 hPa 0,0 l/m 7,8 km/h (2 Bft) O 101 0 min 0,000 mm 0,0 UV-I 0 W/m 4,4 C 7,9 C 11,3 km/h (2 Bft) 94,74 %
02.04.2018 20:30 9,1 C 6,7 C 73 % 1008,8 hPa 0,0 l/m 7,8 km/h (2 Bft) O-NO 66 0 min 0,000 mm 0,0 UV-I 0 W/m 4,5 C 8,1 C 11,3 km/h (2 Bft) 100,00 %
02.04.2018 20:31 9,1 C 6,7 C 73 % 1008,8 hPa 0,0 l/m 5,8 km/h (2 Bft) O-NO 76 0 min 0,000 mm 0,0 UV-I 0 W/m 4,5 C 9,1 C 6,4 km/h (2 Bft) 90,91 %
02.04.2018 20:32 9,1 C 6,7 C 72 % 1008,8 hPa 0,0 l/m 8,2 km/h (2 Bft) O 88 0 min 0,000 mm 0,0 UV-I 0 W/m 4,3 C 7,8 C 11,3 km/h (2 Bft) 100,00 %
02.04.2018 20:33 9,1 C 6,7 C 72 % 1008,8 hPa 0,0 l/m 6,2 km/h (2 Bft) O-SO 105 0 min 0,000 mm 0,0 UV-I 0 W/m 4,3 C 9,1 C 9,7 km/h (2 Bft) 96,15 %
02.04.2018 20:34 9,1 C 6,7 C 73 % 1008,8 hPa 0,0 l/m 7,8 km/h (2 Bft) O 84 0 min 0,000 mm 0,0 UV-I 0 W/m 4,5 C 8,1 C 11,3 km/h (2 Bft) 96,67 %
02.04.2018 20:35 9,0 C 6,7 C 73 % 1008,8 hPa 0,0 l/m 5,6 km/h (1 Bft) O-SO 111 0 min 0,000 mm 0,0 UV-I 0 W/m 4,4 C 9,0 C 6,4 km/h (2 Bft) 90,91 %
02.04.2018 20:36 9,0 C 6,7 C 73 % 1008,8 hPa 0,0 l/m 6,0 km/h (2 Bft) O 95 0 min 0,000 mm 0,0 UV-I 0 W/m 4,4 C 9,0 C 9,7 km/h (2 Bft) 96,30 %
02.04.2018 20:37 8,9 C 6,7 C 73 % 1008,8 hPa 0,0 l/m 6,1 km/h (2 Bft) O-SO 106 0 min 0,000 mm 0,0 UV-I 0 W/m 4,3 C 8,9 C 6,4 km/h (2 Bft) 100,00 %
02.04.2018 20:38 8,9 C 6,7 C 73 % 1008,8 hPa 0,0 l/m 6,5 km/h (2 Bft) O-NO 75 0 min 0,000 mm 0,0 UV-I 0 W/m 4,3 C 8,9 C 8,0 km/h (2 Bft) 97,62 %
02.04.2018 20:39 8,9 C 6,7 C 73 % 1008,8 hPa 0,0 l/m 5,6 km/h (1 Bft) O 86 0 min 0,000 mm 0,0 UV-I 0 W/m 4,3 C 8,9 C 9,7 km/h (2 Bft) 100,00 %
02.04.2018 20:40 8,9 C 6,7 C 73 % 1008,8 hPa 0,0 l/m 5,6 km/h (1 Bft) O-NO 67 0 min 0,000 mm 0,0 UV-I 0 W/m 4,3 C 8,9 C 9,7 km/h (2 Bft) 93,33 %
02.04.2018 20:41 8,9 C 6,7 C 73 % 1008,8 hPa 0,0 l/m 5,8 km/h (2 Bft) O-NO 77 0 min 0,000 mm 0,0 UV-I 0 W/m 4,3 C 8,9 C 8,0 km/h (2 Bft) 97,37 %
02.04.2018 20:42 8,9 C 6,7 C 73 % 1008,8 hPa 0,0 l/m 6,2 km/h (2 Bft) O-NO 78 0 min 0,000 mm 0,0 UV-I 0 W/m 4,3 C 8,9 C 9,7 km/h (2 Bft) 91,67 %
02.04.2018 20:43 8,9 C 6,7 C 73 % 1008,8 hPa 0,0 l/m 5,3 km/h (1 Bft) O-NO 74 0 min 0,000 mm 0,0 UV-I 0 W/m 4,3 C 8,9 C 9,7 km/h (2 Bft) 97,14 %
02.04.2018 20:44 8,9 C 6,7 C 73 % 1008,8 hPa 0,0 l/m 3,9 km/h (1 Bft) O-NO 76 0 min 0,000 mm 0,0 UV-I 0 W/m 4,3 C 8,9 C 6,4 km/h (2 Bft) 100,00 %
02.04.2018 20:45 8,9 C 6,7 C 73 % 1008,8 hPa 0,0 l/m 5,0 km/h (1 Bft) O 99 0 min 0,000 mm 0,0 UV-I 0 W/m 4,3 C 8,9 C 9,7 km/h (2 Bft) 95,65 %
02.04.2018 20:46 8,9 C 6,7 C 73 % 1008,8 hPa 0,0 l/m 5,0 km/h (1 Bft) O-NO 76 0 min 0,000 mm 0,0 UV-I 0 W/m 4,3 C 8,9 C 9,7 km/h (2 Bft) 100,00 %
02.04.2018 20:47 8,9 C 6,7 C 73 % 1008,8 hPa 0,0 l/m 4,5 km/h (1 Bft) O 82 0 min 0,000 mm 0,0 UV-I 0 W/m 4,3 C 8,9 C 6,4 km/h (2 Bft) 95,65 %
02.04.2018 20:48 8,9 C 6,7 C 72 % 1008,8 hPa 0,0 l/m 5,0 km/h (1 Bft) O-NO 61 0 min 0,000 mm 0,0 UV-I 0 W/m 4,1 C 8,9 C 6,4 km/h (2 Bft) 100,00 %
02.04.2018 20:49 8,9 C 6,7 C 72 % 1008,8 hPa 0,0 l/m 4,1 km/h (1 Bft) O-NO 76 0 min 0,000 mm 0,0 UV-I 0 W/m 4,1 C 8,9 C 4,8 km/h (1 Bft) 96,15 %
02.04.2018 20:50 8,9 C 6,7 C 72 % 1008,8 hPa 0,0 l/m 4,6 km/h (1 Bft) O-NO 62 0 min 0,000 mm 0,0 UV-I 0 W/m 4,1 C 8,9 C 6,4 km/h (2 Bft) 93,33 %
02.04.2018 20:51 8,8 C 6,7 C 73 % 1008,8 hPa 0,0 l/m 4,8 km/h (1 Bft) O-NO 61 0 min 0,000 mm 0,0 UV-I 0 W/m 4,2 C 8,8 C 6,4 km/h (2 Bft) 95,83 %
02.04.2018 20:53 8,6 C 6,7 C 75 % 1008,8 hPa 0,0 l/m 4,9 km/h (1 Bft) O 89 0 min 0,000 mm 0,0 UV-I 0 W/m 4,4 C 8,6 C 6,4 km/h (2 Bft) 98,00 %
02.04.2018 20:54 8,4 C 6,7 C 75 % 1008,8 hPa 0,0 l/m 5,2 km/h (1 Bft) O-NO 78 0 min 0,000 mm 0,0 UV-I 0 W/m 4,2 C 8,4 C 6,4 km/h (2 Bft) 96,15 %
02.04.2018 20:55 8,5 C 6,7 C 74 % 1008,8 hPa 0,0 l/m 6,3 km/h (2 Bft) O 96 0 min 0,000 mm 0,0 UV-I 0 W/m 4,1 C 8,5 C 9,7 km/h (2 Bft) 100,00 %
02.04.2018 20:56 8,6 C 6,7 C 74 % 1008,8 hPa 0,0 l/m 5,5 km/h (1 Bft) O-NO 66 0 min 0,000 mm 0,0 UV-I 0 W/m 4,2 C 8,6 C 6,4 km/h (2 Bft) 92,86 %
02.04.2018 20:57 8,7 C 6,7 C 74 % 1008,8 hPa 0,0 l/m 5,2 km/h (1 Bft) O-NO 76 0 min 0,000 mm 0,0 UV-I 0 W/m 4,3 C 8,7 C 6,4 km/h (2 Bft) 95,83 %
02.04.2018 20:58 8,7 C 6,7 C 73 % 1008,8 hPa 0,0 l/m 4,9 km/h (1 Bft) O-NO 67 0 min 0,000 mm 0,0 UV-I 0 W/m 4,1 C 8,7 C 6,4 km/h (2 Bft) 100,00 %
02.04.2018 20:59 8,7 C 6,7 C 73 % 1008,8 hPa 0,0 l/m 5,0 km/h (1 Bft) O-NO 69 0 min 0,000 mm 0,0 UV-I 0 W/m 4,1 C 8,7 C 8,0 km/h (2 Bft) 100,00 %
02.04.2018 21:00 8,7 C 6,7 C 73 % 1008,8 hPa 0,0 l/m 5,0 km/h (1 Bft) O-NO 71 0 min 0,000 mm 0,0 UV-I 0 W/m 4,1 C 8,7 C 8,0 km/h (2 Bft) 100,00 %
02.04.2018 21:01 8,7 C 6,7 C 73 % 1008,8 hPa 0,0 l/m 6,0 km/h (2 Bft) O-NO 73 0 min 0,026 mm 0,0 UV-I 0 W/m 4,1 C 8,7 C 8,0 km/h (2 Bft) 95,83 %
02.04.2018 21:02 8,7 C 6,7 C 73 % 1008,8 hPa 0,0 l/m 5,6 km/h (1 Bft) O-NO 76 0 min 0,000 mm 0,0 UV-I 0 W/m 4,1 C 8,7 C 8,0 km/h (2 Bft) 100,00 %
02.04.2018 21:03 8,7 C 6,7 C 73 % 1008,8 hPa 0,0 l/m 6,0 km/h (2 Bft) O-NO 71 0 min 0,000 mm 0,0 UV-I 0 W/m 4,1 C 8,7 C 8,0 km/h (2 Bft) 93,33 %
02.04.2018 21:04 8,7 C 6,7 C 72 % 1008,8 hPa 0,0 l/m 4,7 km/h (1 Bft) O-NO 63 0 min 0,000 mm 0,0 UV-I 0 W/m 3,9 C 8,7 C 6,4 km/h (2 Bft) 100,00 %
02.04.2018 21:05 8,7 C 6,7 C 73 % 1008,8 hPa 0,0 l/m 6,2 km/h (2 Bft) O-NO 59 0 min 0,000 mm 0,0 UV-I 0 W/m 4,1 C 8,7 C 8,0 km/h (2 Bft) 100,00 %
02.04.2018 21:06 8,6 C 6,7 C 73 % 1008,8 hPa 0,0 l/m 6,0 km/h (2 Bft) O-NO 77 0 min 0,000 mm 0,0 UV-I 0 W/m 4,0 C 8,6 C 8,0 km/h (2 Bft) 100,00 %
02.04.2018 21:07 8,6 C 6,7 C 73 % 1008,8 hPa 0,0 l/m 6,4 km/h (2 Bft) O 91 0 min 0,000 mm 0,0 UV-I 0 W/m 4,0 C 8,6 C 8,0 km/h (2 Bft) 100,00 %
02.04.2018 21:08 8,6 C 6,7 C 73 % 1008,8 hPa 0,0 l/m 5,4 km/h (1 Bft) O 81 0 min 0,000 mm 0,0 UV-I 0 W/m 4,0 C 8,6 C 8,0 km/h (2 Bft) 100,00 %
02.04.2018 21:09 8,6 C 6,7 C 73 % 1008,7 hPa 0,0 l/m 5,3 km/h (1 Bft) O 90 0 min 0,000 mm 0,0 UV-I 0 W/m 4,0 C 8,6 C 6,4 km/h (2 Bft) 95,65 %
02.04.2018 21:10 8,6 C 6,7 C 73 % 1008,8 hPa 0,0 l/m 5,5 km/h (1 Bft) O 87 0 min 0,000 mm 0,0 UV-I 0 W/m 4,0 C 8,6 C 6,4 km/h (2 Bft) 100,00 %
02.04.2018 21:11 8,6 C 6,7 C 73 % 1008,7 hPa 0,0 l/m 5,7 km/h (1 Bft) O 96 0 min 0,000 mm 0,0 UV-I 0 W/m 4,0 C 8,6 C 9,7 km/h (2 Bft) 100,00 %
02.04.2018 21:12 8,6 C 6,7 C 73 % 1008,7 hPa 0,0 l/m 4,4 km/h (1 Bft) O 79 0 min 0,000 mm 0,0 UV-I 0 W/m 4,0 C 8,6 C 6,4 km/h (2 Bft) 100,00 %
02.04.2018 21:13 8,6 C 6,7 C 73 % 1008,8 hPa 0,0 l/m 5,2 km/h (1 Bft) O 97 0 min 0,000 mm 0,0 UV-I 0 W/m 4,0 C 8,6 C 6,4 km/h (2 Bft) 100,00 %
02.04.2018 21:14 8,6 C 6,7 C 72 % 1008,8 hPa 0,0 l/m 4,5 km/h (1 Bft) O-NO 69 0 min 0,000 mm 0,0 UV-I 0 W/m 3,8 C 8,6 C 6,4 km/h (2 Bft) 100,00 %
02.04.2018 21:15 8,6 C 6,7 C 72 % 1008,8 hPa 0,0 l/m 3,6 km/h (1 Bft) O-NO 57 0 min 0,000 mm 0,0 UV-I 0 W/m 3,8 C 8,6 C 4,8 km/h (1 Bft) 91,67 %
02.04.2018 21:16 8,6 C 6,7 C 72 % 1008,8 hPa 0,0 l/m 3,6 km/h (1 Bft) O-NO 67 0 min 0,000 mm 0,0 UV-I 0 W/m 3,8 C 8,6 C 4,8 km/h (1 Bft) 100,00 %
02.04.2018 21:17 8,6 C 6,7 C 73 % 1008,8 hPa 0,0 l/m 3,4 km/h (1 Bft) O-NO 67 0 min 0,000 mm 0,0 UV-I 0 W/m 4,0 C 8,6 C 4,8 km/h (1 Bft) 100,00 %
02.04.2018 21:20 8,3 C 6,7 C 74 % 1008,8 hPa 0,0 l/m 3,2 km/h (1 Bft) O-NO 67 0 min 0,000 mm 0,0 UV-I 0 W/m 3,9 C 8,3 C 6,4 km/h (2 Bft) 96,49 %
02.04.2018 21:22 8,3 C 6,7 C 74 % 1008,8 hPa 0,0 l/m 5,6 km/h (1 Bft) O 80 0 min 0,000 mm 0,0 UV-I 0 W/m 3,9 C 8,3 C 6,4 km/h (2 Bft) 100,00 %
02.04.2018 21:23 8,3 C 6,7 C 74 % 1008,7 hPa 0,0 l/m 7,0 km/h (2 Bft) O 97 0 min 0,000 mm 0,0 UV-I 0 W/m 3,9 C 7,8 C 9,7 km/h (2 Bft) 100,00 %
02.04.2018 21:24 8,3 C 6,7 C 74 % 1008,7 hPa 0,0 l/m 7,1 km/h (2 Bft) O 97 0 min 0,000 mm 0,0 UV-I 0 W/m 3,9 C 7,8 C 9,7 km/h (2 Bft) 96,15 %
02.04.2018 21:25 8,3 C 6,7 C 74 % 1008,7 hPa 0,0 l/m 7,2 km/h (2 Bft) O 101 0 min 0,000 mm 0,0 UV-I 0 W/m 3,9 C 7,7 C 11,3 km/h (2 Bft) 100,00 %
02.04.2018 21:26 8,3 C 6,7 C 73 % 1008,7 hPa 0,0 l/m 6,6 km/h (2 Bft) O 98 0 min 0,000 mm 0,0 UV-I 0 W/m 3,8 C 8,2 C 11,3 km/h (2 Bft) 100,00 %
02.04.2018 21:27 8,4 C 6,7 C 73 % 1008,7 hPa 0,0 l/m 6,5 km/h (2 Bft) O-NO 75 0 min 0,000 mm 0,0 UV-I 0 W/m 3,8 C 8,3 C 9,7 km/h (2 Bft) 100,00 %
02.04.2018 21:28 8,4 C 6,7 C 72 % 1008,8 hPa 0,0 l/m 4,7 km/h (1 Bft) O 96 0 min 0,000 mm 0,0 UV-I 0 W/m 3,7 C 8,4 C 6,4 km/h (2 Bft) 95,65 %
02.04.2018 21:29 8,6 C 6,7 C 71 % 1008,7 hPa 0,0 l/m 4,4 km/h (1 Bft) O 88 0 min 0,000 mm 0,0 UV-I 0 W/m 3,6 C 8,6 C 9,7 km/h (2 Bft) 96,30 %
02.04.2018 21:30 8,6 C 6,7 C 71 % 1008,8 hPa 0,0 l/m 4,3 km/h (1 Bft) O 81 0 min 0,000 mm 0,0 UV-I 0 W/m 3,6 C 8,6 C 6,4 km/h (2 Bft) 91,30 %
02.04.2018 21:31 8,6 C 6,7 C 72 % 1008,8 hPa 0,0 l/m 4,5 km/h (1 Bft) O 80 0 min 0,000 mm 0,0 UV-I 0 W/m 3,8 C 8,6 C 6,4 km/h (2 Bft) 100,00 %
02.04.2018 21:32 8,5 C 6,7 C 72 % 1008,8 hPa 0,0 l/m 5,0 km/h (1 Bft) O 81 0 min 0,000 mm 0,0 UV-I 0 W/m 3,7 C 8,5 C 6,4 km/h (2 Bft) 95,65 %
02.04.2018 21:33 8,4 C 6,7 C 72 % 1008,8 hPa 0,0 l/m 5,1 km/h (1 Bft) O 90 0 min 0,000 mm 0,0 UV-I 0 W/m 3,7 C 8,4 C 6,4 km/h (2 Bft) 100,00 %
02.04.2018 21:34 8,5 C 6,7 C 72 % 1008,8 hPa 0,0 l/m 4,9 km/h (1 Bft) O 92 0 min 0,000 mm 0,0 UV-I 0 W/m 3,7 C 8,5 C 6,4 km/h (2 Bft) 95,65 %
02.04.2018 21:35 8,5 C 6,7 C 72 % 1008,7 hPa 0,0 l/m 4,3 km/h (1 Bft) O-NO 78 0 min 0,000 mm 0,0 UV-I 0 W/m 3,7 C 8,5 C 6,4 km/h (2 Bft) 100,00 %
02.04.2018 21:36 8,5 C 6,7 C 72 % 1008,7 hPa 0,0 l/m 6,0 km/h (2 Bft) O-NO 74 0 min 0,000 mm 0,0 UV-I 0 W/m 3,7 C 8,5 C 8,0 km/h (2 Bft) 92,31 %
02.04.2018 21:38 8,4 C 6,7 C 73 % 1008,7 hPa 0,0 l/m 7,0 km/h (2 Bft) O-SO 111 0 min 0,000 mm 0,0 UV-I 0 W/m 3,8 C 7,9 C 11,3 km/h (2 Bft) 98,11 %
02.04.2018 21:39 8,4 C 6,7 C 73 % 1008,7 hPa 0,0 l/m 10,5 km/h (2 Bft) O 96 0 min 0,000 mm 0,0 UV-I 0 W/m 3,8 C 5,5 C 12,9 km/h (3 Bft) 100,00 %
02.04.2018 21:40 8,4 C 6,7 C 72 % 1008,7 hPa 0,0 l/m 8,4 km/h (2 Bft) O 82 0 min 0,000 mm 0,0 UV-I 0 W/m 3,7 C 6,9 C 11,3 km/h (2 Bft) 96,30 %
02.04.2018 21:41 8,4 C 6,7 C 72 % 1008,7 hPa 0,0 l/m 9,5 km/h (2 Bft) O 85 0 min 0,000 mm 0,0 UV-I 0 W/m 3,7 C 6,1 C 14,5 km/h (3 Bft) 95,65 %
02.04.2018 21:42 8,5 C 6,7 C 71 % 1008,7 hPa 0,0 l/m 9,1 km/h (2 Bft) O-SO 107 0 min 0,000 mm 0,0 UV-I 0 W/m 3,5 C 6,5 C 14,5 km/h (3 Bft) 96,55 %
02.04.2018 21:43 8,6 C 6,7 C 71 % 1008,7 hPa 0,0 l/m 10,2 km/h (2 Bft) O 96 0 min 0,000 mm 0,0 UV-I 0 W/m 3,6 C 5,9 C 12,9 km/h (3 Bft) 96,30 %
02.04.2018 21:44 8,7 C 6,7 C 70 % 1008,7 hPa 0,0 l/m 8,9 km/h (2 Bft) O 94 0 min 0,000 mm 0,0 UV-I 0 W/m 3,5 C 6,9 C 11,3 km/h (2 Bft) 100,00 %
02.04.2018 21:45 8,8 C 6,7 C 70 % 1008,7 hPa 0,0 l/m 8,5 km/h (2 Bft) O-SO 105 0 min 0,000 mm 0,0 UV-I 0 W/m 3,6 C 7,2 C 12,9 km/h (3 Bft) 96,15 %
02.04.2018 21:46 8,9 C 6,7 C 69 % 1008,7 hPa 0,0 l/m 8,5 km/h (2 Bft) O-SO 111 0 min 0,000 mm 0,0 UV-I 0 W/m 3,5 C 7,3 C 11,3 km/h (2 Bft) 100,00 %
02.04.2018 21:47 8,9 C 6,7 C 69 % 1008,7 hPa 0,0 l/m 7,8 km/h (2 Bft) O-SO 123 0 min 0,000 mm 0,0 UV-I 0 W/m 3,5 C 7,8 C 11,3 km/h (2 Bft) 96,15 %
02.04.2018 21:48 9,0 C 6,7 C 68 % 1008,8 hPa 0,0 l/m 5,0 km/h (1 Bft) O 98 0 min 0,000 mm 0,0 UV-I 0 W/m 3,4 C 9,0 C 9,7 km/h (2 Bft) 95,83 %
02.04.2018 21:49 9,0 C 6,7 C 68 % 1008,8 hPa 0,0 l/m 4,5 km/h (1 Bft) O 82 0 min 0,000 mm 0,0 UV-I 0 W/m 3,4 C 9,0 C 9,7 km/h (2 Bft) 100,00 %
02.04.2018 21:50 9,0 C 6,7 C 69 % 1008,8 hPa 0,0 l/m 5,0 km/h (1 Bft) O 97 0 min 0,000 mm 0,0 UV-I 0 W/m 3,6 C 9,0 C 6,4 km/h (2 Bft) 100,00 %
02.04.2018 21:51 8,9 C 6,7 C 69 % 1008,8 hPa 0,0 l/m 3,2 km/h (1 Bft) O 94 0 min 0,000 mm 0,0 UV-I 0 W/m 3,5 C 8,9 C 4,8 km/h (1 Bft) 95,65 %
02.04.2018 21:53 8,8 C 6,7 C 70 % 1008,8 hPa 0,0 l/m 3,1 km/h (1 Bft) O 101 0 min 0,000 mm 0,0 UV-I 0 W/m 3,6 C 8,8 C 4,8 km/h (1 Bft) 97,87 %
02.04.2018 21:54 8,6 C 6,7 C 71 % 1008,8 hPa 0,0 l/m 4,4 km/h (1 Bft) O-SO 107 0 min 0,000 mm 0,0 UV-I 0 W/m 3,6 C 8,6 C 6,4 km/h (2 Bft) 95,83 %
02.04.2018 21:55 8,5 C 6,7 C 71 % 1008,8 hPa 0,0 l/m 5,6 km/h (1 Bft) O-SO 104 0 min 0,000 mm 0,0 UV-I 0 W/m 3,5 C 8,5 C 6,4 km/h (2 Bft) 100,00 %
02.04.2018 21:56 8,4 C 6,7 C 72 % 1008,8 hPa 0,0 l/m 5,1 km/h (1 Bft) O 101 0 min 0,000 mm 0,0 UV-I 0 W/m 3,7 C 8,4 C 6,4 km/h (2 Bft) 94,44 %
02.04.2018 21:57 8,4 C 6,7 C 72 % 1008,8 hPa 0,0 l/m 6,4 km/h (2 Bft) O 99 0 min 0,000 mm 0,0 UV-I 0 W/m 3,7 C 8,4 C 9,7 km/h (2 Bft) 100,00 %
02.04.2018 21:58 8,4 C 6,7 C 72 % 1008,8 hPa 0,0 l/m 7,2 km/h (2 Bft) O 98 0 min 0,000 mm 0,0 UV-I 0 W/m 3,7 C 7,8 C 9,7 km/h (2 Bft) 96,30 %
02.04.2018 21:59 8,4 C 6,7 C 72 % 1008,8 hPa 0,0 l/m 5,0 km/h (1 Bft) O-SO 117 0 min 0,000 mm 0,0 UV-I 0 W/m 3,7 C 8,4 C 6,4 km/h (2 Bft) 100,00 %
02.04.2018 22:00 8,4 C 6,7 C 72 % 1008,8 hPa 0,0 l/m 3,9 km/h (1 Bft) O 85 0 min 0,000 mm 0,0 UV-I 0 W/m 3,7 C 8,4 C 4,8 km/h (1 Bft) 93,33 %
02.04.2018 22:02 8,6 C 6,7 C 71 % 1008,8 hPa 0,0 l/m 3,4 km/h (1 Bft) O 96 0 min 0,025 mm 0,0 UV-I 0 W/m 3,6 C 8,6 C 4,8 km/h (1 Bft) 98,11 %
02.04.2018 22:03 8,6 C 6,7 C 71 % 1008,8 hPa 0,0 l/m 2,8 km/h (1 Bft) O 96 0 min 0,000 mm 0,0 UV-I 0 W/m 3,6 C 8,6 C 3,2 km/h (1 Bft) 100,00 %
02.04.2018 22:04 8,6 C 6,7 C 72 % 1008,8 hPa 0,0 l/m 2,9 km/h (1 Bft) O 96 0 min 0,000 mm 0,0 UV-I 0 W/m 3,8 C 8,6 C 4,8 km/h (1 Bft) 97,37 %
02.04.2018 22:05 8,4 C 6,7 C 73 % 1008,9 hPa 0,0 l/m 2,4 km/h (1 Bft) O 96 0 min 0,000 mm 0,0 UV-I 0 W/m 3,8 C 8,4 C 4,8 km/h (1 Bft) 95,83 %
02.04.2018 22:06 8,3 C 6,7 C 73 % 1008,8 hPa 0,0 l/m 3,2 km/h (1 Bft) O 96 0 min 0,000 mm 0,0 UV-I 0 W/m 3,8 C 8,3 C 3,2 km/h (1 Bft) 100,00 %
02.04.2018 22:08 8,2 C 6,7 C 73 % 1008,9 hPa 0,0 l/m 2,3 km/h (1 Bft) O 96 0 min 0,000 mm 0,0 UV-I 0 W/m 3,7 C 8,2 C 3,2 km/h (1 Bft) 97,73 %
02.04.2018 22:09 8,2 C 6,7 C 73 % 1008,9 hPa 0,0 l/m 2,1 km/h (1 Bft) O 96 0 min 0,000 mm 0,0 UV-I 0 W/m 3,7 C 8,2 C 3,2 km/h (1 Bft) 93,33 %
02.04.2018 22:10 8,2 C 6,7 C 73 % 1008,8 hPa 0,0 l/m 2,2 km/h (1 Bft) O 96 0 min 0,000 mm 0,0 UV-I 0 W/m 3,7 C 8,2 C 3,2 km/h (1 Bft) 100,00 %
02.04.2018 22:11 8,2 C 6,7 C 73 % 1008,9 hPa 0,0 l/m 2,4 km/h (1 Bft) O 96 0 min 0,000 mm 0,0 UV-I 0 W/m 3,7 C 8,2 C 3,2 km/h (1 Bft) 95,83 %
02.04.2018 22:12 8,2 C 6,7 C 73 % 1008,9 hPa 0,0 l/m 1,9 km/h (1 Bft) O 96 0 min 0,000 mm 0,0 UV-I 0 W/m 3,7 C 8,2 C 3,2 km/h (1 Bft) 96,15 %
02.04.2018 22:13 8,2 C 6,7 C 72 % 1008,8 hPa 0,0 l/m 1,1 km/h (1 Bft) O 96 0 min 0,000 mm 0,0 UV-I 0 W/m 3,5 C 8,2 C 3,2 km/h (1 Bft) 100,00 %
02.04.2018 22:14 8,2 C 6,7 C 73 % 1008,9 hPa 0,0 l/m 1,3 km/h (1 Bft) O 96 0 min 0,000 mm 0,0 UV-I 0 W/m 3,7 C 8,2 C 3,2 km/h (1 Bft) 95,65 %
02.04.2018 22:15 8,1 C 6,7 C 73 % 1008,8 hPa 0,0 l/m 2,0 km/h (1 Bft) O 96 0 min 0,000 mm 0,0 UV-I 0 W/m 3,6 C 8,1 C 3,2 km/h (1 Bft) 100,00 %
02.04.2018 22:16 8,1 C 6,7 C 73 % 1008,9 hPa 0,0 l/m 1,9 km/h (1 Bft) O 96 0 min 0,000 mm 0,0 UV-I 0 W/m 3,6 C 8,1 C 3,2 km/h (1 Bft) 92,31 %
02.04.2018 22:18 8,2 C 6,7 C 73 % 1008,8 hPa 0,0 l/m 1,5 km/h (1 Bft) O 96 0 min 0,000 mm 0,0 UV-I 0 W/m 3,7 C 8,2 C 1,6 km/h (1 Bft) 98,00 %
02.04.2018 22:19 8,3 C 6,7 C 72 % 1008,8 hPa 0,0 l/m 1,3 km/h (1 Bft) O 96 0 min 0,000 mm 0,0 UV-I 0 W/m 3,6 C 8,3 C 1,6 km/h (1 Bft) 96,30 %
02.04.2018 22:20 8,3 C 6,7 C 72 % 1008,8 hPa 0,0 l/m 1,4 km/h (1 Bft) O 96 0 min 0,000 mm 0,0 UV-I 0 W/m 3,6 C 8,3 C 1,6 km/h (1 Bft) 95,65 %
02.04.2018 22:21 8,3 C 6,7 C 72 % 1008,8 hPa 0,0 l/m 1,4 km/h (1 Bft) O 96 0 min 0,000 mm 0,0 UV-I 0 W/m 3,6 C 8,3 C 1,6 km/h (1 Bft) 100,00 %
02.04.2018 22:23 8,1 C 6,7 C 73 % 1008,7 hPa 0,0 l/m 1,8 km/h (1 Bft) O 96 0 min 0,000 mm 0,0 UV-I 0 W/m 3,6 C 8,1 C 3,2 km/h (1 Bft) 94,00 %
02.04.2018 22:24 8,0 C 6,7 C 74 % 1008,7 hPa 0,0 l/m 2,3 km/h (1 Bft) O 96 0 min 0,000 mm 0,0 UV-I 0 W/m 3,7 C 8,0 C 3,2 km/h (1 Bft) 100,00 %
02.04.2018 22:25 7,8 C 6,7 C 75 % 1008,7 hPa 0,0 l/m 2,3 km/h (1 Bft) O 96 0 min 0,000 mm 0,0 UV-I 0 W/m 3,7 C 7,8 C 3,2 km/h (1 Bft) 96,15 %
02.04.2018 22:26 7,7 C 6,7 C 75 % 1008,7 hPa 0,0 l/m 1,9 km/h (1 Bft) O 96 0 min 0,000 mm 0,0 UV-I 0 W/m 3,6 C 7,7 C 3,2 km/h (1 Bft) 91,67 %
02.04.2018 22:27 7,6 C 6,7 C 76 % 1008,7 hPa 0,0 l/m 1,9 km/h (1 Bft) O 96 0 min 0,000 mm 0,0 UV-I 0 W/m 3,6 C 7,6 C 3,2 km/h (1 Bft) 91,30 %
02.04.2018 22:28 7,4 C 6,7 C 77 % 1008,7 hPa 0,0 l/m 2,1 km/h (1 Bft) O 96 0 min 0,000 mm 0,0 UV-I 0 W/m 3,6 C 7,4 C 3,2 km/h (1 Bft) 100,00 %
02.04.2018 22:29 7,3 C 6,7 C 78 % 1008,6 hPa 0,0 l/m 1,6 km/h (1 Bft) O 96 0 min 0,000 mm 0,0 UV-I 0 W/m 3,7 C 7,3 C 3,2 km/h (1 Bft) 95,65 %
02.04.2018 22:30 7,3 C 6,7 C 78 % 1008,7 hPa 0,0 l/m 1,7 km/h (1 Bft) O 96 0 min 0,000 mm 0,0 UV-I 0 W/m 3,7 C 7,3 C 3,2 km/h (1 Bft) 100,00 %
02.04.2018 22:31 7,2 C 6,7 C 79 % 1008,7 hPa 0,0 l/m 2,0 km/h (1 Bft) O 96 0 min 0,000 mm 0,0 UV-I 0 W/m 3,8 C 7,2 C 3,2 km/h (1 Bft) 92,31 %
02.04.2018 22:32 7,2 C 6,7 C 79 % 1008,7 hPa 0,0 l/m 2,3 km/h (1 Bft) O 96 0 min 0,000 mm 0,0 UV-I 0 W/m 3,8 C 7,2 C 3,2 km/h (1 Bft) 100,00 %
02.04.2018 22:33 7,1 C 6,7 C 80 % 1008,6 hPa 0,0 l/m 2,2 km/h (1 Bft) O 96 0 min 0,000 mm 0,0 UV-I 0 W/m 3,9 C 7,1 C 3,2 km/h (1 Bft) 92,31 %
02.04.2018 22:34 6,9 C 6,7 C 81 % 1008,7 hPa 0,0 l/m 1,4 km/h (1 Bft) O 96 0 min 0,000 mm 0,0 UV-I 0 W/m 3,9 C 6,9 C 3,2 km/h (1 Bft) 96,30 %
02.04.2018 22:35 6,8 C 6,7 C 81 % 1008,6 hPa 0,0 l/m 1,9 km/h (1 Bft) O 96 0 min 0,000 mm 0,0 UV-I 0 W/m 3,8 C 6,8 C 3,2 km/h (1 Bft) 95,65 %
02.04.2018 22:36 6,7 C 6,7 C 82 % 1008,6 hPa 0,0 l/m 2,4 km/h (1 Bft) O 96 0 min 0,000 mm 0,0 UV-I 0 W/m 3,8 C 6,7 C 3,2 km/h (1 Bft) 95,83 %
02.04.2018 22:37 6,7 C 6,7 C 82 % 1008,6 hPa 0,0 l/m 1,9 km/h (1 Bft) O 96 0 min 0,000 mm 0,0 UV-I 0 W/m 3,8 C 6,7 C 3,2 km/h (1 Bft) 100,00 %
02.04.2018 22:38 6,7 C 6,7 C 82 % 1008,6 hPa 0,0 l/m 1,9 km/h (1 Bft) O 96 0 min 0,000 mm 0,0 UV-I 0 W/m 3,8 C 6,7 C 3,2 km/h (1 Bft) 95,83 %
02.04.2018 22:39 6,8 C 6,7 C 81 % 1008,6 hPa 0,0 l/m 2,1 km/h (1 Bft) O 96 0 min 0,000 mm 0,0 UV-I 0 W/m 3,8 C 6,8 C 3,2 km/h (1 Bft) 95,65 %
02.04.2018 22:40 6,9 C 6,7 C 80 % 1008,7 hPa 0,0 l/m 2,1 km/h (1 Bft) O 96 0 min 0,000 mm 0,0 UV-I 0 W/m 3,7 C 6,9 C 3,2 km/h (1 Bft) 95,83 %
02.04.2018 22:41 7,1 C 6,7 C 79 % 1008,7 hPa 0,0 l/m 2,2 km/h (1 Bft) O 96 0 min 0,000 mm 0,0 UV-I 0 W/m 3,7 C 7,1 C 3,2 km/h (1 Bft) 96,15 %
02.04.2018 22:43 7,4 C 6,7 C 77 % 1008,7 hPa 0,0 l/m 2,1 km/h (1 Bft) O 96 0 min 0,000 mm 0,0 UV-I 0 W/m 3,6 C 7,4 C 3,2 km/h (1 Bft) 100,00 %
02.04.2018 22:44 7,6 C 6,7 C 76 % 1008,7 hPa 0,0 l/m 2,1 km/h (1 Bft) O 96 0 min 0,000 mm 0,0 UV-I 0 W/m 3,6 C 7,6 C 3,2 km/h (1 Bft) 96,15 %
02.04.2018 22:45 7,6 C 6,7 C 75 % 1008,7 hPa 0,0 l/m 1,7 km/h (1 Bft) O 96 0 min 0,000 mm 0,0 UV-I 0 W/m 3,5 C 7,6 C 3,2 km/h (1 Bft) 92,59 %
02.04.2018 22:46 7,7 C 6,7 C 75 % 1008,7 hPa 0,0 l/m 0,3 km/h (0 Bft) O 96 0 min 0,000 mm 0,0 UV-I 0 W/m 3,6 C 7,7 C 1,6 km/h (1 Bft) 100,00 %
02.04.2018 22:47 7,8 C 6,7 C 75 % 1008,6 hPa 0,0 l/m 0,0 km/h (0 Bft) O 96 0 min 0,000 mm 0,0 UV-I 0 W/m 3,7 C 7,8 C 0,0 km/h (0 Bft) 95,83 %
02.04.2018 22:48 7,7 C 6,7 C 75 % 1008,7 hPa 0,0 l/m 0,0 km/h (0 Bft) O 96 0 min 0,000 mm 0,0 UV-I 0 W/m 3,6 C 7,7 C 0,0 km/h (0 Bft) 98,09 %
02.04.2018 22:49 7,7 C 6,7 C 75 % 1008,7 hPa 0,0 l/m 0,0 km/h (0 Bft) O 96 0 min 0,000 mm 0,0 UV-I 0 W/m 3,6 C 7,7 C 0,0 km/h (0 Bft) 97,37 %
02.04.2018 22:50 7,7 C 6,7 C 75 % 1008,7 hPa 0,0 l/m 0,0 km/h (0 Bft) O 96 0 min 0,000 mm 0,0 UV-I 0 W/m 3,6 C 7,7 C 0,0 km/h (0 Bft) 96,55 %
02.04.2018 22:51 7,7 C 6,7 C 75 % 1008,7 hPa 0,0 l/m 0,0 km/h (0 Bft) O 96 0 min 0,000 mm 0,0 UV-I 0 W/m 3,6 C 7,7 C 0,0 km/h (0 Bft) 95,83 %
02.04.2018 22:52 7,6 C 6,7 C 75 % 1008,7 hPa 0,0 l/m 0,0 km/h (0 Bft) O 96 0 min 0,000 mm 0,0 UV-I 0 W/m 3,5 C 7,6 C 0,0 km/h (0 Bft) 95,65 %
02.04.2018 22:53 7,6 C 6,7 C 75 % 1008,7 hPa 0,0 l/m 0,0 km/h (0 Bft) O 96 0 min 0,000 mm 0,0 UV-I 0 W/m 3,5 C 7,6 C 0,0 km/h (0 Bft) 100,00 %
02.04.2018 22:54 7,6 C 6,7 C 75 % 1008,7 hPa 0,0 l/m 0,0 km/h (0 Bft) O 96 0 min 0,000 mm 0,0 UV-I 0 W/m 3,5 C 7,6 C 0,0 km/h (0 Bft) 100,00 %
02.04.2018 22:55 7,6 C 6,7 C 75 % 1008,7 hPa 0,0 l/m 0,0 km/h (0 Bft) O 96 0 min 0,000 mm 0,0 UV-I 0 W/m 3,5 C 7,6 C 0,0 km/h (0 Bft) 96,15 %
02.04.2018 22:56 7,5 C 6,7 C 76 % 1008,7 hPa 0,0 l/m 0,0 km/h (0 Bft) O 96 0 min 0,000 mm 0,0 UV-I 0 W/m 3,5 C 7,5 C 0,0 km/h (0 Bft) 95,83 %
02.04.2018 22:57 7,4 C 6,7 C 77 % 1008,7 hPa 0,0 l/m 0,0 km/h (0 Bft) O 96 0 min 0,000 mm 0,0 UV-I 0 W/m 3,6 C 7,4 C 0,0 km/h (0 Bft) 100,00 %
02.04.2018 22:58 7,3 C 6,7 C 77 % 1008,7 hPa 0,0 l/m 0,0 km/h (0 Bft) O 96 0 min 0,000 mm 0,0 UV-I 0 W/m 3,5 C 7,3 C 0,0 km/h (0 Bft) 95,83 %
02.04.2018 22:59 7,3 C 6,7 C 77 % 1008,7 hPa 0,0 l/m 0,0 km/h (0 Bft) O 96 0 min 0,000 mm 0,0 UV-I 0 W/m 3,5 C 7,3 C 0,0 km/h (0 Bft) 100,00 %
02.04.2018 23:00 7,1 C 6,7 C 78 % 1008,7 hPa 0,0 l/m 0,0 km/h (0 Bft) O 96 0 min 0,000 mm 0,0 UV-I 0 W/m 3,5 C 7,1 C 0,0 km/h (0 Bft) 95,83 %
02.04.2018 23:01 6,9 C 6,7 C 79 % 1008,7 hPa 0,0 l/m 0,0 km/h (0 Bft) O 96 0 min 0,000 mm 0,0 UV-I 0 W/m 3,5 C 6,9 C 0,0 km/h (0 Bft) 91,30 %
02.04.2018 23:02 6,8 C 6,7 C 80 % 1008,7 hPa 0,0 l/m 0,0 km/h (0 Bft) O 96 0 min 0,000 mm 0,0 UV-I 0 W/m 3,6 C 6,8 C 0,0 km/h (0 Bft) 95,83 %
02.04.2018 23:03 6,6 C 6,7 C 83 % 1008,7 hPa 0,0 l/m 0,0 km/h (0 Bft) O 96 0 min 0,000 mm 0,0 UV-I 0 W/m 3,9 C 6,6 C 0,0 km/h (0 Bft) 91,30 %
02.04.2018 23:04 6,4 C 6,7 C 84 % 1008,7 hPa 0,0 l/m 0,0 km/h (0 Bft) O 96 0 min 0,000 mm 0,0 UV-I 0 W/m 3,9 C 6,4 C 0,0 km/h (0 Bft) 100,00 %
02.04.2018 23:05 6,2 C 6,7 C 84 % 1008,6 hPa 0,0 l/m 0,0 km/h (0 Bft) O 96 0 min 0,000 mm 0,0 UV-I 0 W/m 3,7 C 6,2 C 0,0 km/h (0 Bft) 100,00 %
02.04.2018 23:06 6,1 C 6,7 C 85 % 1008,7 hPa 0,0 l/m 0,0 km/h (0 Bft) O 96 0 min 0,000 mm 0,0 UV-I 0 W/m 3,8 C 6,1 C 0,0 km/h (0 Bft) 100,00 %
02.04.2018 23:07 6,1 C 6,7 C 85 % 1008,6 hPa 0,0 l/m 0,0 km/h (0 Bft) O 96 0 min 0,000 mm 0,0 UV-I 0 W/m 3,8 C 6,1 C 0,0 km/h (0 Bft) 90,91 %
02.04.2018 23:08 6,1 C 6,7 C 85 % 1008,7 hPa 0,0 l/m 0,0 km/h (0 Bft) O 96 0 min 0,000 mm 0,0 UV-I 0 W/m 3,8 C 6,1 C 0,0 km/h (0 Bft) 100,00 %
02.04.2018 23:09 6,1 C 6,7 C 85 % 1008,7 hPa 0,0 l/m 0,0 km/h (0 Bft) O 96 0 min 0,000 mm 0,0 UV-I 0 W/m 3,8 C 6,1 C 0,0 km/h (0 Bft) 100,00 %
02.04.2018 23:10 6,2 C 6,7 C 85 % 1008,7 hPa 0,0 l/m 0,0 km/h (0 Bft) O 96 0 min 0,000 mm 0,0 UV-I 0 W/m 3,9 C 6,2 C 0,0 km/h (0 Bft) 100,00 %
02.04.2018 23:11 6,2 C 6,7 C 85 % 1008,7 hPa 0,0 l/m 0,0 km/h (0 Bft) O 96 0 min 0,000 mm 0,0 UV-I 0 W/m 3,9 C 6,2 C 0,0 km/h (0 Bft) 100,00 %
02.04.2018 23:12 6,2 C 6,7 C 85 % 1008,7 hPa 0,0 l/m 2,4 km/h (1 Bft) O 96 0 min 0,000 mm 0,0 UV-I 0 W/m 3,9 C 6,2 C 3,2 km/h (1 Bft) 100,00 %
02.04.2018 23:13 6,2 C 6,7 C 84 % 1008,6 hPa 0,0 l/m 3,4 km/h (1 Bft) O 96 0 min 0,000 mm 0,0 UV-I 0 W/m 3,7 C 6,2 C 4,8 km/h (1 Bft) 100,00 %
02.04.2018 23:14 6,3 C 6,7 C 84 % 1008,6 hPa 0,0 l/m 3,5 km/h (1 Bft) O-SO 107 0 min 0,000 mm 0,0 UV-I 0 W/m 3,8 C 6,3 C 4,8 km/h (1 Bft) 100,00 %
02.04.2018 23:15 6,3 C 6,7 C 84 % 1008,6 hPa 0,0 l/m 3,8 km/h (1 Bft) O-SO 108 0 min 0,000 mm 0,0 UV-I 0 W/m 3,8 C 6,3 C 4,8 km/h (1 Bft) 100,00 %
02.04.2018 23:16 6,3 C 6,7 C 84 % 1008,6 hPa 0,0 l/m 3,5 km/h (1 Bft) O-SO 109 0 min 0,000 mm 0,0 UV-I 0 W/m 3,8 C 6,3 C 4,8 km/h (1 Bft) 95,83 %
02.04.2018 23:17 6,2 C 6,7 C 84 % 1008,5 hPa 0,0 l/m 3,2 km/h (1 Bft) O-SO 109 0 min 0,000 mm 0,0 UV-I 0 W/m 3,7 C 6,2 C 4,8 km/h (1 Bft) 91,67 %
02.04.2018 23:18 6,1 C 6,7 C 85 % 1008,5 hPa 0,0 l/m 3,2 km/h (1 Bft) O-SO 109 0 min 0,000 mm 0,0 UV-I 0 W/m 3,8 C 6,1 C 3,2 km/h (1 Bft) 96,55 %
02.04.2018 23:19 6,0 C 6,7 C 85 % 1008,6 hPa 0,0 l/m 2,6 km/h (1 Bft) O-SO 109 0 min 0,000 mm 0,0 UV-I 0 W/m 3,7 C 6,0 C 3,2 km/h (1 Bft) 100,00 %
02.04.2018 23:20 5,9 C 6,7 C 86 % 1008,5 hPa 0,0 l/m 1,5 km/h (1 Bft) O-SO 109 0 min 0,000 mm 0,0 UV-I 0 W/m 3,7 C 5,9 C 1,6 km/h (1 Bft) 100,00 %
02.04.2018 23:21 5,9 C 6,7 C 87 % 1008,5 hPa 0,0 l/m 0,2 km/h (0 Bft) O-SO 109 0 min 0,000 mm 0,0 UV-I 0 W/m 3,9 C 5,9 C 1,6 km/h (1 Bft) 100,00 %
02.04.2018 23:22 5,9 C 6,7 C 87 % 1008,5 hPa 0,0 l/m 0,0 km/h (0 Bft) O-SO 109 0 min 0,000 mm 0,0 UV-I 0 W/m 3,9 C 5,9 C 0,0 km/h (0 Bft) 100,00 %
02.04.2018 23:23 5,9 C 6,7 C 87 % 1008,5 hPa 0,0 l/m 0,0 km/h (0 Bft) O-SO 109 0 min 0,000 mm 0,0 UV-I 0 W/m 3,9 C 5,9 C 0,0 km/h (0 Bft) 95,83 %
02.04.2018 23:24 5,9 C 6,7 C 87 % 1008,5 hPa 0,0 l/m 0,0 km/h (0 Bft) O-SO 109 0 min 0,000 mm 0,0 UV-I 0 W/m 3,9 C 5,9 C 0,0 km/h (0 Bft) 100,00 %
02.04.2018 23:25 6,0 C 6,7 C 86 % 1008,5 hPa 0,0 l/m 0,1 km/h (0 Bft) O-SO 109 0 min 0,000 mm 0,0 UV-I 0 W/m 3,8 C 6,0 C 1,6 km/h (1 Bft) 100,00 %
02.04.2018 23:26 6,1 C 6,7 C 86 % 1008,5 hPa 0,0 l/m 2,1 km/h (1 Bft) O-SO 109 0 min 0,000 mm 0,0 UV-I 0 W/m 3,9 C 6,1 C 3,2 km/h (1 Bft) 98,09 %
02.04.2018 23:28 6,2 C 6,7 C 86 % 1008,4 hPa 0,0 l/m 2,0 km/h (1 Bft) O-SO 109 0 min 0,000 mm 0,0 UV-I 0 W/m 4,0 C 6,2 C 3,2 km/h (1 Bft) 98,63 %
02.04.2018 23:29 6,1 C 6,7 C 86 % 1008,4 hPa 0,0 l/m 1,7 km/h (1 Bft) O-SO 109 0 min 0,000 mm 0,0 UV-I 0 W/m 3,9 C 6,1 C 3,2 km/h (1 Bft) 100,00 %
02.04.2018 23:30 6,1 C 6,7 C 86 % 1008,4 hPa 0,0 l/m 1,3 km/h (1 Bft) O-SO 109 0 min 0,000 mm 0,0 UV-I 0 W/m 3,9 C 6,1 C 1,6 km/h (1 Bft) 100,00 %
02.04.2018 23:31 6,1 C 6,7 C 86 % 1008,4 hPa 0,0 l/m 1,3 km/h (1 Bft) O-SO 109 0 min 0,000 mm 0,0 UV-I 0 W/m 3,9 C 6,1 C 1,6 km/h (1 Bft) 100,00 %
02.04.2018 23:32 5,9 C 6,7 C 87 % 1008,4 hPa 0,0 l/m 0,0 km/h (0 Bft) O-SO 109 0 min 0,000 mm 0,0 UV-I 0 W/m 3,9 C 5,9 C 0,0 km/h (0 Bft) 100,00 %
02.04.2018 23:33 5,9 C 6,7 C 86 % 1008,4 hPa 0,0 l/m 0,1 km/h (0 Bft) O-SO 109 0 min 0,000 mm 0,0 UV-I 0 W/m 3,7 C 5,9 C 1,6 km/h (1 Bft) 100,00 %
02.04.2018 23:34 6,0 C 6,7 C 86 % 1008,4 hPa 0,0 l/m 0,0 km/h (0 Bft) O-SO 109 0 min 0,000 mm 0,0 UV-I 0 W/m 3,8 C 6,0 C 0,0 km/h (0 Bft) 95,65 %
02.04.2018 23:35 6,0 C 6,7 C 87 % 1008,4 hPa 0,0 l/m 0,0 km/h (0 Bft) O-SO 109 0 min 0,000 mm 0,0 UV-I 0 W/m 4,0 C 6,0 C 0,0 km/h (0 Bft) 100,00 %
02.04.2018 23:36 6,0 C 6,7 C 87 % 1008,4 hPa 0,0 l/m 0,3 km/h (0 Bft) O-SO 109 0 min 0,000 mm 0,0 UV-I 0 W/m 4,0 C 6,0 C 1,6 km/h (1 Bft) 100,00 %
02.04.2018 23:37 6,1 C 6,7 C 86 % 1008,4 hPa 0,0 l/m 0,0 km/h (0 Bft) O-SO 109 0 min 0,000 mm 0,0 UV-I 0 W/m 3,9 C 6,1 C 0,0 km/h (0 Bft) 91,67 %
02.04.2018 23:38 6,2 C 6,7 C 86 % 1008,4 hPa 0,0 l/m 0,0 km/h (0 Bft) O-SO 109 0 min 0,000 mm 0,0 UV-I 0 W/m 4,0 C 6,2 C 0,0 km/h (0 Bft) 100,00 %
02.04.2018 23:39 6,2 C 6,7 C 86 % 1008,4 hPa 0,0 l/m 0,1 km/h (0 Bft) O-SO 109 0 min 0,000 mm 0,0 UV-I 0 W/m 4,0 C 6,2 C 1,6 km/h (1 Bft) 100,00 %
02.04.2018 23:40 6,3 C 6,7 C 85 % 1008,4 hPa 0,0 l/m 0,1 km/h (0 Bft) O-SO 109 0 min 0,000 mm 0,0 UV-I 0 W/m 4,0 C 6,3 C 1,6 km/h (1 Bft) 95,83 %
02.04.2018 23:41 6,3 C 6,7 C 85 % 1008,4 hPa 0,0 l/m 0,0 km/h (0 Bft) O-SO 109 0 min 0,000 mm 0,0 UV-I 0 W/m 4,0 C 6,3 C 0,0 km/h (0 Bft) 100,00 %
02.04.2018 23:42 6,3 C 6,7 C 84 % 1008,4 hPa 0,0 l/m 0,0 km/h (0 Bft) O-SO 109 0 min 0,000 mm 0,0 UV-I 0 W/m 3,8 C 6,3 C 0,0 km/h (0 Bft) 100,00 %
02.04.2018 23:43 6,3 C 6,7 C 84 % 1008,4 hPa 0,0 l/m 0,0 km/h (0 Bft) O-SO 109 0 min 0,000 mm 0,0 UV-I 0 W/m 3,8 C 6,3 C 0,0 km/h (0 Bft) 100,00 %
02.04.2018 23:44 6,3 C 6,7 C 85 % 1008,4 hPa 0,0 l/m 0,0 km/h (0 Bft) O-SO 109 0 min 0,000 mm 0,0 UV-I 0 W/m 4,0 C 6,3 C 0,0 km/h (0 Bft) 100,00 %
02.04.2018 23:45 6,3 C 6,7 C 85 % 1008,4 hPa 0,0 l/m 0,0 km/h (0 Bft) O-SO 109 0 min 0,000 mm 0,0 UV-I 0 W/m 4,0 C 6,3 C 0,0 km/h (0 Bft) 100,00 %
02.04.2018 23:46 6,3 C 6,7 C 85 % 1008,3 hPa 0,0 l/m 0,0 km/h (0 Bft) O-SO 109 0 min 0,000 mm 0,0 UV-I 0 W/m 4,0 C 6,3 C 0,0 km/h (0 Bft) 95,83 %
02.04.2018 23:47 6,3 C 6,7 C 85 % 1008,4 hPa 0,0 l/m 0,0 km/h (0 Bft) O-SO 109 0 min 0,000 mm 0,0 UV-I 0 W/m 4,0 C 6,3 C 0,0 km/h (0 Bft) 100,00 %
02.04.2018 23:48 6,4 C 6,7 C 85 % 1008,3 hPa 0,0 l/m 0,0 km/h (0 Bft) O-SO 109 0 min 0,000 mm 0,0 UV-I 0 W/m 4,1 C 6,4 C 0,0 km/h (0 Bft) 100,00 %
02.04.2018 23:49 6,4 C 6,7 C 85 % 1008,3 hPa 0,0 l/m 0,0 km/h (0 Bft) O-SO 109 0 min 0,000 mm 0,0 UV-I 0 W/m 4,1 C 6,4 C 0,0 km/h (0 Bft) 96,55 %
02.04.2018 23:50 6,4 C 6,7 C 84 % 1008,3 hPa 0,0 l/m 0,0 km/h (0 Bft) O-SO 109 0 min 0,000 mm 0,0 UV-I 0 W/m 3,9 C 6,4 C 0,0 km/h (0 Bft) 100,00 %
02.04.2018 23:51 6,4 C 6,7 C 85 % 1008,3 hPa 0,0 l/m 0,0 km/h (0 Bft) O-SO 109 0 min 0,000 mm 0,0 UV-I 0 W/m 4,1 C 6,4 C 0,0 km/h (0 Bft) 100,00 %
02.04.2018 23:52 6,4 C 6,7 C 85 % 1008,3 hPa 0,0 l/m 0,0 km/h (0 Bft) O-SO 109 0 min 0,000 mm 0,0 UV-I 0 W/m 4,1 C 6,4 C 0,0 km/h (0 Bft) 100,00 %
02.04.2018 23:53 6,3 C 6,7 C 85 % 1008,3 hPa 0,0 l/m 0,0 km/h (0 Bft) O-SO 109 0 min 0,000 mm 0,0 UV-I 0 W/m 4,0 C 6,3 C 0,0 km/h (0 Bft) 100,00 %
02.04.2018 23:54 6,3 C 6,7 C 85 % 1008,3 hPa 0,0 l/m 0,0 km/h (0 Bft) O-SO 109 0 min 0,000 mm 0,0 UV-I 0 W/m 4,0 C 6,3 C 0,0 km/h (0 Bft) 100,00 %
02.04.2018 23:55 6,3 C 6,7 C 86 % 1008,3 hPa 0,0 l/m 0,0 km/h (0 Bft) O-SO 109 0 min 0,000 mm 0,0 UV-I 0 W/m 4,1 C 6,3 C 0,0 km/h (0 Bft) 100,00 %
02.04.2018 23:56 6,2 C 6,7 C 86 % 1008,2 hPa 0,0 l/m 0,0 km/h (0 Bft) O-SO 109 0 min 0,000 mm 0,0 UV-I 0 W/m 4,0 C 6,2 C 0,0 km/h (0 Bft) 100,00 %
02.04.2018 23:57 6,2 C 6,7 C 87 % 1008,3 hPa 0,0 l/m 0,0 km/h (0 Bft) O-SO 109 0 min 0,000 mm 0,0 UV-I 0 W/m 4,2 C 6,2 C 0,0 km/h (0 Bft) 100,00 %
02.04.2018 23:58 6,1 C 6,7 C 87 % 1008,3 hPa 0,0 l/m 0,0 km/h (0 Bft) O-SO 109 0 min 0,000 mm 0,0 UV-I 0 W/m 4,1 C 6,1 C 0,0 km/h (0 Bft) 100,00 %
02.04.2018 23:59 6,1 C 6,7 C 87 % 1008,2 hPa 0,0 l/m 0,0 km/h (0 Bft) O-SO 109 0 min 0,000 mm 0,0 UV-I 0 W/m 4,1 C 6,1 C 0,0 km/h (0 Bft) 100,00 %
_ Min-Zeit 00:03 00:00 15:24 23:56 - 22:47 - - - - - - 14:39 01:23 22:47 18:41
Minimum _ 3,4 C 6,7 C 43 % 1008,2 hPa - 0,0 km/h (0 Bft) - - - - - - 0,7 C -6,2 C 0,0 km/h (0 Bft) 84,62 %
_ Max-Zeit 16:43 00:00 00:23 09:41 00:00 01:23 - - 12:58 14:01 12:40 12:47 19:06 16:43 01:46 00:00
Maximum _ 13,8 C 6,7 C 95 % 1014,7 hPa 0,2 l/m 26,9 km/h
W-SW (4 Bft)
- - 2 min 0,381 mm 3,0 UV-I 801 W/m 5,0 C 13,8 C 43,5 km/h
W (6 Bft)
100,00 %
Durchschnitt _ 8,0 C 6,7 C 73 % 1012,0 hPa #1,0 l/m 9,0 km/h (2 Bft) W-SW - #9:26 h #2,997 mm 1,8 UV-I 388 W/m 3,1 C 5,5 C 12,8 km/h (3 Bft) 98,08 %